<?xml version='1.0' encoding='UTF-8'?><gpx version="1.1" creator="JPX - https://github.com/jenetics/jpx" xmlns="http://www.topografix.com/GPX/1/1"><trk><trkseg><trkpt lat="42.22778203142053" lon="14.396754315707803"><ele>279.0</ele><time>2026-03-22T09:41:08Z</time></trkpt><trkpt lat="42.22771683420716" lon="14.396841746578131"><ele>279.0</ele><time>2026-03-22T09:41:11Z</time></trkpt><trkpt lat="42.227657713314784" lon="14.39689384140685"><ele>279.0</ele><time>2026-03-22T09:41:13Z</time></trkpt><trkpt lat="42.22764237996258" lon="14.39700158837467"><ele>279.0</ele><time>2026-03-22T09:41:15Z</time></trkpt><trkpt lat="42.227659883601135" lon="14.397113342266364"><ele>279.0</ele><time>2026-03-22T09:41:17Z</time></trkpt><trkpt lat="42.22767425804382" lon="14.397237919524265"><ele>279.0</ele><time>2026-03-22T09:41:19Z</time></trkpt><trkpt lat="42.22767413877558" lon="14.397347320501687"><ele>278.8</ele><time>2026-03-22T09:41:21Z</time></trkpt><trkpt lat="42.22766722455223" lon="14.397442128963075"><ele>278.59999999999997</ele><time>2026-03-22T09:41:23Z</time></trkpt><trkpt lat="42.2277136151148" lon="14.397506851762028"><ele>278.4</ele><time>2026-03-22T09:41:44Z</time></trkpt><trkpt lat="42.22774480658025" lon="14.397679665945855"><ele>278.2</ele><time>2026-03-22T09:41:46Z</time></trkpt><trkpt lat="42.22775877188102" lon="14.397801678468046"><ele>278.0</ele><time>2026-03-22T09:41:47Z</time></trkpt><trkpt lat="42.2277174421784" lon="14.397937620434613"><ele>277.7142857142857</ele><time>2026-03-22T09:41:48Z</time></trkpt><trkpt lat="42.22772837581494" lon="14.398046626595637"><ele>277.42857142857144</ele><time>2026-03-22T09:41:49Z</time></trkpt><trkpt lat="42.22774175529425" lon="14.398132540594439"><ele>277.14285714285717</ele><time>2026-03-22T09:41:50Z</time></trkpt><trkpt lat="42.227755050676315" lon="14.398235595287627"><ele>276.8571428571429</ele><time>2026-03-22T09:41:51Z</time></trkpt><trkpt lat="42.227759240194175" lon="14.398323805655059"><ele>276.5714285714286</ele><time>2026-03-22T09:41:52Z</time></trkpt><trkpt lat="42.22776149185799" lon="14.398424131471982"><ele>276.2857142857143</ele><time>2026-03-22T09:41:53Z</time></trkpt><trkpt lat="42.227768493813116" lon="14.39851344202017"><ele>276.0</ele><time>2026-03-22T09:41:54Z</time></trkpt><trkpt lat="42.22779885534299" lon="14.398590746369354"><ele>276.0</ele><time>2026-03-22T09:41:55Z</time></trkpt><trkpt lat="42.22784330048577" lon="14.398675104426605"><ele>276.0</ele><time>2026-03-22T09:41:56Z</time></trkpt><trkpt lat="42.227889855957386" lon="14.398765413092077"><ele>276.0</ele><time>2026-03-22T09:41:57Z</time></trkpt><trkpt lat="42.22792201393131" lon="14.398848620093235"><ele>276.0</ele><time>2026-03-22T09:41:58Z</time></trkpt><trkpt lat="42.22795136934678" lon="14.398928888427637"><ele>276.0</ele><time>2026-03-22T09:41:59Z</time></trkpt><trkpt lat="42.227972082440026" lon="14.399023741521203"><ele>276.0</ele><time>2026-03-22T09:42:00Z</time></trkpt><trkpt lat="42.2279962883623" lon="14.399129092529659"><ele>276.0</ele><time>2026-03-22T09:42:01Z</time></trkpt><trkpt lat="42.22802114644567" lon="14.399219326864356"><ele>275.3333333333333</ele><time>2026-03-22T09:42:02Z</time></trkpt><trkpt lat="42.22805269571274" lon="14.399318860204255"><ele>274.6666666666667</ele><time>2026-03-22T09:42:03Z</time></trkpt><trkpt lat="42.228090632735615" lon="14.399400137813748"><ele>274.0</ele><time>2026-03-22T09:42:04Z</time></trkpt><trkpt lat="42.22815146633727" lon="14.399471972057816"><ele>273.33333333333337</ele><time>2026-03-22T09:42:05Z</time></trkpt><trkpt lat="42.22821512122731" lon="14.399523551436458"><ele>272.6666666666667</ele><time>2026-03-22T09:42:06Z</time></trkpt><trkpt lat="42.228271731745515" lon="14.399590234287864"><ele>272.0</ele><time>2026-03-22T09:42:07Z</time></trkpt><trkpt lat="42.228330600231935" lon="14.399639020407433"><ele>271.2857142857143</ele><time>2026-03-22T09:42:08Z</time></trkpt><trkpt lat="42.22839818470852" lon="14.399690730833207"><ele>270.57142857142856</ele><time>2026-03-22T09:42:09Z</time></trkpt><trkpt lat="42.228465380814626" lon="14.399738728056157"><ele>269.8571428571429</ele><time>2026-03-22T09:42:10Z</time></trkpt><trkpt lat="42.228531943674184" lon="14.39976880239137"><ele>269.1428571428571</ele><time>2026-03-22T09:42:11Z</time></trkpt><trkpt lat="42.22859287814091" lon="14.399821791064713"><ele>268.42857142857144</ele><time>2026-03-22T09:42:12Z</time></trkpt><trkpt lat="42.22864955636778" lon="14.399876900056611"><ele>267.7142857142857</ele><time>2026-03-22T09:42:13Z</time></trkpt><trkpt lat="42.228692481554944" lon="14.399953928265973"><ele>267.0</ele><time>2026-03-22T09:42:14Z</time></trkpt><trkpt lat="42.22874131316406" lon="14.400011341189236"><ele>267.0</ele><time>2026-03-22T09:42:15Z</time></trkpt><trkpt lat="42.22881241793065" lon="14.400025518817708"><ele>267.0</ele><time>2026-03-22T09:42:16Z</time></trkpt><trkpt lat="42.22889741350851" lon="14.400052935558124"><ele>267.0</ele><time>2026-03-22T09:42:18Z</time></trkpt><trkpt lat="42.22896975788011" lon="14.400065266470186"><ele>267.0</ele><time>2026-03-22T09:42:20Z</time></trkpt><trkpt lat="42.22904220459963" lon="14.400076555580656"><ele>267.0</ele><time>2026-03-22T09:42:23Z</time></trkpt><trkpt lat="42.22912552726713" lon="14.400092418465238"><ele>267.0</ele><time>2026-03-22T09:42:26Z</time></trkpt><trkpt lat="42.22905252172451" lon="14.400240415161681"><ele>265.8</ele><time>2026-03-22T09:42:27Z</time></trkpt><trkpt lat="42.229134496049035" lon="14.400368788002126"><ele>264.6</ele><time>2026-03-22T09:42:28Z</time></trkpt><trkpt lat="42.22914243301975" lon="14.400495002981502"><ele>263.40000000000003</ele><time>2026-03-22T09:42:29Z</time></trkpt><trkpt lat="42.22914933631978" lon="14.400609131639023"><ele>262.2</ele><time>2026-03-22T09:42:30Z</time></trkpt><trkpt lat="42.229155948340214" lon="14.400736751876465"><ele>261.0</ele><time>2026-03-22T09:42:31Z</time></trkpt><trkpt lat="42.22916615043184" lon="14.40086957244556"><ele>260.25</ele><time>2026-03-22T09:42:32Z</time></trkpt><trkpt lat="42.22917548624677" lon="14.401009417006735"><ele>259.5</ele><time>2026-03-22T09:42:33Z</time></trkpt><trkpt lat="42.22918250836945" lon="14.401163858358624"><ele>258.75</ele><time>2026-03-22T09:42:34Z</time></trkpt><trkpt lat="42.22919575183914" lon="14.40133708383956"><ele>258.0</ele><time>2026-03-22T09:42:35Z</time></trkpt><trkpt lat="42.22920944512828" lon="14.401520410838017"><ele>255.8</ele><time>2026-03-22T09:42:36Z</time></trkpt><trkpt lat="42.22922337126653" lon="14.401683288651665"><ele>253.60000000000002</ele><time>2026-03-22T09:42:37Z</time></trkpt><trkpt lat="42.22923381750416" lon="14.40182070282914"><ele>251.39999999999998</ele><time>2026-03-22T09:42:38Z</time></trkpt><trkpt lat="42.229207326903726" lon="14.401914407638243"><ele>249.2</ele><time>2026-03-22T09:42:39Z</time></trkpt><trkpt lat="42.22914783844976" lon="14.402014341142749"><ele>247.0</ele><time>2026-03-22T09:42:40Z</time></trkpt><trkpt lat="42.2290571521771" lon="14.40208091148138"><ele>248.25</ele><time>2026-03-22T09:42:41Z</time></trkpt><trkpt lat="42.2289495408765" lon="14.402118259884242"><ele>249.5</ele><time>2026-03-22T09:42:42Z</time></trkpt><trkpt lat="42.22881899834307" lon="14.402127088168417"><ele>250.75</ele><time>2026-03-22T09:42:43Z</time></trkpt><trkpt lat="42.228682309825345" lon="14.402100530816757"><ele>252.0</ele><time>2026-03-22T09:42:44Z</time></trkpt><trkpt lat="42.228537690378566" lon="14.402079526331578"><ele>252.0</ele><time>2026-03-22T09:42:45Z</time></trkpt><trkpt lat="42.228404004444904" lon="14.402069852253842"><ele>252.0</ele><time>2026-03-22T09:42:46Z</time></trkpt><trkpt lat="42.228282268474736" lon="14.402071823903919"><ele>252.0</ele><time>2026-03-22T09:42:47Z</time></trkpt><trkpt lat="42.228176830445975" lon="14.402091082412552"><ele>252.0</ele><time>2026-03-22T09:42:48Z</time></trkpt><trkpt lat="42.228078492152676" lon="14.402136590378255"><ele>252.2</ele><time>2026-03-22T09:42:49Z</time></trkpt><trkpt lat="42.22799243963814" lon="14.402215238273381"><ele>252.39999999999998</ele><time>2026-03-22T09:42:50Z</time></trkpt><trkpt lat="42.22793432495136" lon="14.402331875905254"><ele>252.60000000000002</ele><time>2026-03-22T09:42:51Z</time></trkpt><trkpt lat="42.22786750313641" lon="14.402421659424324"><ele>252.8</ele><time>2026-03-22T09:42:52Z</time></trkpt><trkpt lat="42.2277972008886" lon="14.402520174109625"><ele>253.0</ele><time>2026-03-22T09:42:53Z</time></trkpt><trkpt lat="42.22770613865799" lon="14.402577910887057"><ele>253.0</ele><time>2026-03-22T09:42:54Z</time></trkpt><trkpt lat="42.227604919503136" lon="14.402605281274944"><ele>253.0</ele><time>2026-03-22T09:42:55Z</time></trkpt><trkpt lat="42.22748029802723" lon="14.402513316288045"><ele>253.0</ele><time>2026-03-22T09:42:56Z</time></trkpt><trkpt lat="42.227351983065134" lon="14.402460083522806"><ele>253.0</ele><time>2026-03-22T09:42:57Z</time></trkpt><trkpt lat="42.227217650181025" lon="14.402408898420463"><ele>254.25</ele><time>2026-03-22T09:42:58Z</time></trkpt><trkpt lat="42.22707215566358" lon="14.402370065669418"><ele>255.5</ele><time>2026-03-22T09:42:59Z</time></trkpt><trkpt lat="42.22692954548094" lon="14.40231651536071"><ele>256.75</ele><time>2026-03-22T09:43:00Z</time></trkpt><trkpt lat="42.226799763151384" lon="14.40227411375716"><ele>258.0</ele><time>2026-03-22T09:43:01Z</time></trkpt><trkpt lat="42.22670116399258" lon="14.402226530495092"><ele>257.0</ele><time>2026-03-22T09:43:02Z</time></trkpt><trkpt lat="42.22662849359319" lon="14.40215601071493"><ele>256.0</ele><time>2026-03-22T09:43:03Z</time></trkpt><trkpt lat="42.22658771313924" lon="14.402038330063464"><ele>255.0</ele><time>2026-03-22T09:43:04Z</time></trkpt><trkpt lat="42.22658203620121" lon="14.401895543407784"><ele>254.0</ele><time>2026-03-22T09:43:05Z</time></trkpt><trkpt lat="42.22662051034062" lon="14.40175937458114"><ele>253.0</ele><time>2026-03-22T09:43:06Z</time></trkpt><trkpt lat="42.22669147096313" lon="14.401661123191714"><ele>253.0</ele><time>2026-03-22T09:43:07Z</time></trkpt><trkpt lat="42.22679985531409" lon="14.401609581626767"><ele>253.0</ele><time>2026-03-22T09:43:08Z</time></trkpt><trkpt lat="42.2269060797092" lon="14.401559250302556"><ele>253.0</ele><time>2026-03-22T09:43:09Z</time></trkpt><trkpt lat="42.22705679843523" lon="14.40159566469274"><ele>253.0</ele><time>2026-03-22T09:43:10Z</time></trkpt><trkpt lat="42.227207821468944" lon="14.401604729492533"><ele>252.33333333333331</ele><time>2026-03-22T09:43:11Z</time></trkpt><trkpt lat="42.22737350544722" lon="14.401600078421689"><ele>251.66666666666669</ele><time>2026-03-22T09:43:12Z</time></trkpt><trkpt lat="42.22754156891075" lon="14.401596386657497"><ele>251.0</ele><time>2026-03-22T09:43:13Z</time></trkpt><trkpt lat="42.22770901104309" lon="14.401596396384148"><ele>251.0</ele><time>2026-03-22T09:43:14Z</time></trkpt><trkpt lat="42.22788926068096" lon="14.401601866733147"><ele>251.0</ele><time>2026-03-22T09:43:15Z</time></trkpt><trkpt lat="42.228068438883376" lon="14.401611808479673"><ele>251.0</ele><time>2026-03-22T09:43:16Z</time></trkpt><trkpt lat="42.22824220904941" lon="14.401616650776068"><ele>251.33333333333334</ele><time>2026-03-22T09:43:17Z</time></trkpt><trkpt lat="42.22839916714362" lon="14.401617827248907"><ele>251.66666666666669</ele><time>2026-03-22T09:43:18Z</time></trkpt><trkpt lat="42.22856986395776" lon="14.401606666825321"><ele>252.0</ele><time>2026-03-22T09:43:19Z</time></trkpt><trkpt lat="42.22873592964067" lon="14.401574114442496"><ele>252.0</ele><time>2026-03-22T09:43:20Z</time></trkpt><trkpt lat="42.22889212917978" lon="14.401520042170032"><ele>252.0</ele><time>2026-03-22T09:43:21Z</time></trkpt><trkpt lat="42.22904459951706" lon="14.401446150048065"><ele>252.0</ele><time>2026-03-22T09:43:22Z</time></trkpt><trkpt lat="42.22920149157124" lon="14.401354094851582"><ele>254.0</ele><time>2026-03-22T09:43:23Z</time></trkpt><trkpt lat="42.2293620533734" lon="14.401280225141965"><ele>256.0</ele><time>2026-03-22T09:43:24Z</time></trkpt><trkpt lat="42.229535120085714" lon="14.401182394169851"><ele>258.0</ele><time>2026-03-22T09:43:25Z</time></trkpt><trkpt lat="42.229710271481586" lon="14.401079500541126"><ele>258.6666666666667</ele><time>2026-03-22T09:43:26Z</time></trkpt><trkpt lat="42.22987623630746" lon="14.400977312669907"><ele>259.33333333333337</ele><time>2026-03-22T09:43:27Z</time></trkpt><trkpt lat="42.23005019795139" lon="14.400853212970176"><ele>260.0</ele><time>2026-03-22T09:43:28Z</time></trkpt><trkpt lat="42.23023436399233" lon="14.400741866563305"><ele>260.0</ele><time>2026-03-22T09:43:29Z</time></trkpt><trkpt lat="42.23042074326209" lon="14.400632437412119"><ele>260.0</ele><time>2026-03-22T09:43:30Z</time></trkpt><trkpt lat="42.23059404198583" lon="14.400531656989044"><ele>260.0</ele><time>2026-03-22T09:43:31Z</time></trkpt><trkpt lat="42.230778694449896" lon="14.400426404549963"><ele>262.33333333333337</ele><time>2026-03-22T09:43:32Z</time></trkpt><trkpt lat="42.23096399231683" lon="14.400320006842353"><ele>264.6666666666667</ele><time>2026-03-22T09:43:33Z</time></trkpt><trkpt lat="42.23114643023312" lon="14.400213184482753"><ele>267.0</ele><time>2026-03-22T09:43:34Z</time></trkpt><trkpt lat="42.23132752957195" lon="14.400106199574925"><ele>267.0</ele><time>2026-03-22T09:43:35Z</time></trkpt><trkpt lat="42.23151119213916" lon="14.399999955112861"><ele>267.0</ele><time>2026-03-22T09:43:36Z</time></trkpt><trkpt lat="42.231690840509145" lon="14.399903618728615"><ele>267.0</ele><time>2026-03-22T09:43:37Z</time></trkpt><trkpt lat="42.231879462073756" lon="14.399836478220818"><ele>267.0</ele><time>2026-03-22T09:43:38Z</time></trkpt><trkpt lat="42.232070967696814" lon="14.3997896170333"><ele>267.0</ele><time>2026-03-22T09:43:39Z</time></trkpt><trkpt lat="42.232266807931595" lon="14.399746235770952"><ele>267.0</ele><time>2026-03-22T09:43:40Z</time></trkpt><trkpt lat="42.232454873479064" lon="14.399716090306265"><ele>266.6666666666667</ele><time>2026-03-22T09:43:41Z</time></trkpt><trkpt lat="42.232643764967534" lon="14.399674669698841"><ele>266.33333333333337</ele><time>2026-03-22T09:43:42Z</time></trkpt><trkpt lat="42.232832275117815" lon="14.399634412443465"><ele>266.0</ele><time>2026-03-22T09:43:43Z</time></trkpt><trkpt lat="42.233025105096885" lon="14.399588738773577"><ele>265.6666666666667</ele><time>2026-03-22T09:43:44Z</time></trkpt><trkpt lat="42.233214853830084" lon="14.399551409536672"><ele>265.3333333333333</ele><time>2026-03-22T09:43:45Z</time></trkpt><trkpt lat="42.233415480013115" lon="14.399506426573469"><ele>265.0</ele><time>2026-03-22T09:43:46Z</time></trkpt><trkpt lat="42.233611631104" lon="14.399461320718048"><ele>265.0</ele><time>2026-03-22T09:43:47Z</time></trkpt><trkpt lat="42.23381350535751" lon="14.399415740899755"><ele>265.0</ele><time>2026-03-22T09:43:48Z</time></trkpt><trkpt lat="42.23400821773926" lon="14.399371217500342"><ele>265.0</ele><time>2026-03-22T09:43:49Z</time></trkpt><trkpt lat="42.2342045865893" lon="14.399315951594309"><ele>264.66666666666663</ele><time>2026-03-22T09:43:50Z</time></trkpt><trkpt lat="42.23440024927297" lon="14.399271526556781"><ele>264.3333333333333</ele><time>2026-03-22T09:43:51Z</time></trkpt><trkpt lat="42.23459379006532" lon="14.399225258773694"><ele>264.0</ele><time>2026-03-22T09:43:52Z</time></trkpt><trkpt lat="42.23478518197712" lon="14.399184725235731"><ele>263.3333333333333</ele><time>2026-03-22T09:43:53Z</time></trkpt><trkpt lat="42.23497320980156" lon="14.399138437250759"><ele>262.66666666666663</ele><time>2026-03-22T09:43:54Z</time></trkpt><trkpt lat="42.23515874183997" lon="14.399096871600982"><ele>262.0</ele><time>2026-03-22T09:43:55Z</time></trkpt><trkpt lat="42.23534477127734" lon="14.399055392474027"><ele>262.0</ele><time>2026-03-22T09:43:56Z</time></trkpt><trkpt lat="42.235522910991946" lon="14.399017703665264"><ele>262.0</ele><time>2026-03-22T09:43:57Z</time></trkpt><trkpt lat="42.23569505232337" lon="14.398979422833328"><ele>262.0</ele><time>2026-03-22T09:43:58Z</time></trkpt><trkpt lat="42.23586872676328" lon="14.398939221543413"><ele>262.3333333333333</ele><time>2026-03-22T09:43:59Z</time></trkpt><trkpt lat="42.23604499371971" lon="14.39890142525379"><ele>262.6666666666667</ele><time>2026-03-22T09:44:00Z</time></trkpt><trkpt lat="42.23622907221897" lon="14.39886863913436"><ele>263.0</ele><time>2026-03-22T09:44:01Z</time></trkpt><trkpt lat="42.23641165431482" lon="14.398830574150926"><ele>263.33333333333337</ele><time>2026-03-22T09:44:02Z</time></trkpt><trkpt lat="42.236594541041875" lon="14.398787328746884"><ele>263.6666666666667</ele><time>2026-03-22T09:44:03Z</time></trkpt><trkpt lat="42.23677898142877" lon="14.398750711503219"><ele>264.0</ele><time>2026-03-22T09:44:04Z</time></trkpt><trkpt lat="42.23696195610915" lon="14.398710322240609"><ele>264.0</ele><time>2026-03-22T09:44:05Z</time></trkpt><trkpt lat="42.23714497367672" lon="14.398670367794757"><ele>264.0</ele><time>2026-03-22T09:44:06Z</time></trkpt><trkpt lat="42.23732643728103" lon="14.398628565765296"><ele>264.0</ele><time>2026-03-22T09:44:07Z</time></trkpt><trkpt lat="42.23750574633162" lon="14.398588794934406"><ele>263.3333333333333</ele><time>2026-03-22T09:44:08Z</time></trkpt><trkpt lat="42.23768660567801" lon="14.39854716434733"><ele>262.66666666666663</ele><time>2026-03-22T09:44:09Z</time></trkpt><trkpt lat="42.23786619948435" lon="14.398504998902895"><ele>262.0</ele><time>2026-03-22T09:44:10Z</time></trkpt><trkpt lat="42.23804121289558" lon="14.39846520249994"><ele>261.0</ele><time>2026-03-22T09:44:11Z</time></trkpt><trkpt lat="42.23821455163381" lon="14.398428098472918"><ele>260.0</ele><time>2026-03-22T09:44:12Z</time></trkpt><trkpt lat="42.23838974672343" lon="14.398388431190108"><ele>259.0</ele><time>2026-03-22T09:44:13Z</time></trkpt><trkpt lat="42.23856524447662" lon="14.39834966148631"><ele>259.0</ele><time>2026-03-22T09:44:14Z</time></trkpt><trkpt lat="42.23874137239749" lon="14.398314429714809"><ele>259.0</ele><time>2026-03-22T09:44:15Z</time></trkpt><trkpt lat="42.23891373609755" lon="14.39827463726846"><ele>259.0</ele><time>2026-03-22T09:44:16Z</time></trkpt><trkpt lat="42.23907147186236" lon="14.398238654789198"><ele>257.3333333333333</ele><time>2026-03-22T09:44:17Z</time></trkpt><trkpt lat="42.23924292619561" lon="14.3982040102393"><ele>255.66666666666669</ele><time>2026-03-22T09:44:18Z</time></trkpt><trkpt lat="42.23941846110969" lon="14.398169576546938"><ele>254.0</ele><time>2026-03-22T09:44:19Z</time></trkpt><trkpt lat="42.239597781886445" lon="14.398128662813608"><ele>254.0</ele><time>2026-03-22T09:44:20Z</time></trkpt><trkpt lat="42.2397759181125" lon="14.398086902883529"><ele>254.0</ele><time>2026-03-22T09:44:21Z</time></trkpt><trkpt lat="42.239957454333215" lon="14.398050216395335"><ele>254.0</ele><time>2026-03-22T09:44:22Z</time></trkpt><trkpt lat="42.24013651513688" lon="14.398008039121722"><ele>254.33333333333334</ele><time>2026-03-22T09:44:23Z</time></trkpt><trkpt lat="42.24031699683133" lon="14.397968780133978"><ele>254.66666666666669</ele><time>2026-03-22T09:44:24Z</time></trkpt><trkpt lat="42.24049703639377" lon="14.397929030721846"><ele>255.0</ele><time>2026-03-22T09:44:25Z</time></trkpt><trkpt lat="42.24067517329501" lon="14.397889846019673"><ele>256.0</ele><time>2026-03-22T09:44:26Z</time></trkpt><trkpt lat="42.24085315035526" lon="14.397847396581748"><ele>257.0</ele><time>2026-03-22T09:44:27Z</time></trkpt><trkpt lat="42.2410314781588" lon="14.39780844638758"><ele>258.0</ele><time>2026-03-22T09:44:28Z</time></trkpt><trkpt lat="42.24120592180145" lon="14.39776881610623"><ele>258.0</ele><time>2026-03-22T09:44:29Z</time></trkpt><trkpt lat="42.241381603431485" lon="14.397729591385255"><ele>258.0</ele><time>2026-03-22T09:44:30Z</time></trkpt><trkpt lat="42.241554468552984" lon="14.397693588119068"><ele>258.0</ele><time>2026-03-22T09:44:31Z</time></trkpt><trkpt lat="42.24171078241156" lon="14.397665483159365"><ele>258.5</ele><time>2026-03-22T09:44:32Z</time></trkpt><trkpt lat="42.24185749299926" lon="14.397632688533559"><ele>259.0</ele><time>2026-03-22T09:44:33Z</time></trkpt><trkpt lat="42.24199024978509" lon="14.397609899580914"><ele>259.5</ele><time>2026-03-22T09:44:34Z</time></trkpt><trkpt lat="42.24211808043292" lon="14.397597552942592"><ele>260.0</ele><time>2026-03-22T09:44:35Z</time></trkpt><trkpt lat="42.24223572024075" lon="14.397596926989289"><ele>260.1666666666667</ele><time>2026-03-22T09:44:36Z</time></trkpt><trkpt lat="42.242330819890924" lon="14.39761105012542"><ele>260.33333333333337</ele><time>2026-03-22T09:44:37Z</time></trkpt><trkpt lat="42.242397913593" lon="14.397626890130242"><ele>260.5</ele><time>2026-03-22T09:44:38Z</time></trkpt><trkpt lat="42.24250552704044" lon="14.397644249242115"><ele>260.6666666666667</ele><time>2026-03-22T09:44:40Z</time></trkpt><trkpt lat="42.24256649018315" lon="14.397668255059616"><ele>260.8333333333333</ele><time>2026-03-22T09:44:41Z</time></trkpt><trkpt lat="42.242642210607805" lon="14.397699594716128"><ele>261.0</ele><time>2026-03-22T09:44:42Z</time></trkpt><trkpt lat="42.2427218390823" lon="14.397737723754938"><ele>261.0</ele><time>2026-03-22T09:44:43Z</time></trkpt><trkpt lat="42.24279860506831" lon="14.397806735157385"><ele>261.0</ele><time>2026-03-22T09:44:44Z</time></trkpt><trkpt lat="42.24286470352713" lon="14.397886927146493"><ele>261.0</ele><time>2026-03-22T09:44:45Z</time></trkpt><trkpt lat="42.242922710471895" lon="14.397954411467103"><ele>261.0</ele><time>2026-03-22T09:44:46Z</time></trkpt><trkpt lat="42.24301751621786" lon="14.398036022202978"><ele>261.0</ele><time>2026-03-22T09:44:48Z</time></trkpt><trkpt lat="42.243029300612434" lon="14.398170670641745"><ele>260.6666666666667</ele><time>2026-03-22T09:44:49Z</time></trkpt><trkpt lat="42.243058133018074" lon="14.398271661869803"><ele>260.3333333333333</ele><time>2026-03-22T09:44:50Z</time></trkpt><trkpt lat="42.24308662849468" lon="14.398370122354848"><ele>260.0</ele><time>2026-03-22T09:44:51Z</time></trkpt><trkpt lat="42.24308561926421" lon="14.398475534502131"><ele>259.66666666666663</ele><time>2026-03-22T09:44:52Z</time></trkpt><trkpt lat="42.2431145907973" lon="14.398575315819771"><ele>259.3333333333333</ele><time>2026-03-22T09:44:53Z</time></trkpt><trkpt lat="42.2431411304605" lon="14.39866672137442"><ele>259.0</ele><time>2026-03-22T09:44:54Z</time></trkpt><trkpt lat="42.24316402682418" lon="14.398746237003676"><ele>258.66666666666663</ele><time>2026-03-22T09:44:55Z</time></trkpt><trkpt lat="42.243187823110596" lon="14.398831471347822"><ele>258.3333333333333</ele><time>2026-03-22T09:44:56Z</time></trkpt><trkpt lat="42.24322159372399" lon="14.398906283177832"><ele>258.0</ele><time>2026-03-22T09:44:57Z</time></trkpt><trkpt lat="42.24324291626153" lon="14.398986777077267"><ele>257.6666666666667</ele><time>2026-03-22T09:44:58Z</time></trkpt><trkpt lat="42.243272132618245" lon="14.399078937196943"><ele>257.33333333333337</ele><time>2026-03-22T09:44:59Z</time></trkpt><trkpt lat="42.24329852754547" lon="14.399192909168283"><ele>257.0</ele><time>2026-03-22T09:45:00Z</time></trkpt><trkpt lat="42.24334564791599" lon="14.399332390341366"><ele>256.75</ele><time>2026-03-22T09:45:01Z</time></trkpt><trkpt lat="42.243387112999386" lon="14.399484513131924"><ele>256.5</ele><time>2026-03-22T09:45:02Z</time></trkpt><trkpt lat="42.24342377090589" lon="14.399656064165482"><ele>256.25</ele><time>2026-03-22T09:45:03Z</time></trkpt><trkpt lat="42.24346449949373" lon="14.399837042309054"><ele>256.0</ele><time>2026-03-22T09:45:04Z</time></trkpt><trkpt lat="42.243526411110906" lon="14.400025594557054"><ele>255.66666666666666</ele><time>2026-03-22T09:45:05Z</time></trkpt><trkpt lat="42.24359680786989" lon="14.40021227594774"><ele>255.33333333333331</ele><time>2026-03-22T09:45:06Z</time></trkpt><trkpt lat="42.24366779953632" lon="14.400390421231387"><ele>255.0</ele><time>2026-03-22T09:45:07Z</time></trkpt><trkpt lat="42.24374139659138" lon="14.400569690384739"><ele>254.75</ele><time>2026-03-22T09:45:08Z</time></trkpt><trkpt lat="42.24380814778369" lon="14.400736269827513"><ele>254.5</ele><time>2026-03-22T09:45:09Z</time></trkpt><trkpt lat="42.24387194125294" lon="14.400908930900435"><ele>254.25</ele><time>2026-03-22T09:45:10Z</time></trkpt><trkpt lat="42.24393198415196" lon="14.401080720623824"><ele>254.0</ele><time>2026-03-22T09:45:11Z</time></trkpt><trkpt lat="42.24397993232714" lon="14.401232457066401"><ele>253.25</ele><time>2026-03-22T09:45:12Z</time></trkpt><trkpt lat="42.24403059019462" lon="14.401385505180999"><ele>252.5</ele><time>2026-03-22T09:45:13Z</time></trkpt><trkpt lat="42.244088094847726" lon="14.401528544974353"><ele>251.75</ele><time>2026-03-22T09:45:14Z</time></trkpt><trkpt lat="42.24415223894317" lon="14.401653659483564"><ele>251.0</ele><time>2026-03-22T09:45:15Z</time></trkpt><trkpt lat="42.24423138634988" lon="14.401768412001285"><ele>251.0</ele><time>2026-03-22T09:45:16Z</time></trkpt><trkpt lat="42.24432482054387" lon="14.401870577636963"><ele>251.0</ele><time>2026-03-22T09:45:17Z</time></trkpt><trkpt lat="42.24443955437605" lon="14.401954079772226"><ele>251.0</ele><time>2026-03-22T09:45:18Z</time></trkpt><trkpt lat="42.2445650485029" lon="14.402045038479732"><ele>251.0</ele><time>2026-03-22T09:45:19Z</time></trkpt><trkpt lat="42.24468711360475" lon="14.402157786081828"><ele>250.0</ele><time>2026-03-22T09:45:20Z</time></trkpt><trkpt lat="42.24482336350804" lon="14.402254665242777"><ele>249.0</ele><time>2026-03-22T09:45:21Z</time></trkpt><trkpt lat="42.244961306456624" lon="14.402340785563933"><ele>248.0</ele><time>2026-03-22T09:45:22Z</time></trkpt><trkpt lat="42.24509947444119" lon="14.402419613899655"><ele>248.0</ele><time>2026-03-22T09:45:23Z</time></trkpt><trkpt lat="42.245230498245384" lon="14.4024982448294"><ele>248.0</ele><time>2026-03-22T09:45:24Z</time></trkpt><trkpt lat="42.2453493238216" lon="14.402572784914863"><ele>248.0</ele><time>2026-03-22T09:45:25Z</time></trkpt><trkpt lat="42.24547373425479" lon="14.402660291707859"><ele>248.0</ele><time>2026-03-22T09:45:26Z</time></trkpt><trkpt lat="42.245591475931384" lon="14.402754478115712"><ele>247.5</ele><time>2026-03-22T09:45:27Z</time></trkpt><trkpt lat="42.24571827597414" lon="14.402851378103243"><ele>247.0</ele><time>2026-03-22T09:45:28Z</time></trkpt><trkpt lat="42.24584628408877" lon="14.402946670715437"><ele>246.5</ele><time>2026-03-22T09:45:29Z</time></trkpt><trkpt lat="42.24596746189972" lon="14.403039030388806"><ele>246.0</ele><time>2026-03-22T09:45:30Z</time></trkpt><trkpt lat="42.246072715947065" lon="14.403129104402163"><ele>245.60000000000002</ele><time>2026-03-22T09:45:31Z</time></trkpt><trkpt lat="42.246164427854275" lon="14.403233653887757"><ele>245.20000000000002</ele><time>2026-03-22T09:45:32Z</time></trkpt><trkpt lat="42.246256374798676" lon="14.403318128055652"><ele>244.79999999999998</ele><time>2026-03-22T09:45:33Z</time></trkpt><trkpt lat="42.24634115958455" lon="14.403378703450235"><ele>244.39999999999998</ele><time>2026-03-22T09:45:34Z</time></trkpt><trkpt lat="42.246423279433586" lon="14.403398380175872"><ele>244.0</ele><time>2026-03-22T09:45:35Z</time></trkpt><trkpt lat="42.24649282344858" lon="14.40339774995396"><ele>244.39999999999998</ele><time>2026-03-22T09:45:36Z</time></trkpt><trkpt lat="42.246545792681026" lon="14.403340031586408"><ele>244.79999999999998</ele><time>2026-03-22T09:45:37Z</time></trkpt><trkpt lat="42.24657230052746" lon="14.403238909331685"><ele>245.20000000000002</ele><time>2026-03-22T09:45:39Z</time></trkpt><trkpt lat="42.24650919020105" lon="14.403063283114427"><ele>245.60000000000002</ele><time>2026-03-22T09:45:41Z</time></trkpt><trkpt lat="42.24647269060049" lon="14.402941193425798"><ele>246.0</ele><time>2026-03-22T09:45:42Z</time></trkpt><trkpt lat="42.24641927920748" lon="14.402804103888728"><ele>246.0</ele><time>2026-03-22T09:45:43Z</time></trkpt><trkpt lat="42.246387945644706" lon="14.402643974490783"><ele>246.0</ele><time>2026-03-22T09:45:44Z</time></trkpt><trkpt lat="42.24635540597701" lon="14.402481311044596"><ele>246.0</ele><time>2026-03-22T09:45:45Z</time></trkpt><trkpt lat="42.24632389069194" lon="14.40231553684369"><ele>246.0</ele><time>2026-03-22T09:45:46Z</time></trkpt><trkpt lat="42.246310989311475" lon="14.402153682948114"><ele>246.60000000000002</ele><time>2026-03-22T09:45:47Z</time></trkpt><trkpt lat="42.24632972249617" lon="14.402001613056282"><ele>247.20000000000002</ele><time>2026-03-22T09:45:48Z</time></trkpt><trkpt lat="42.24635217074382" lon="14.401872363972391"><ele>247.79999999999998</ele><time>2026-03-22T09:45:49Z</time></trkpt><trkpt lat="42.24637043453926" lon="14.401774204883168"><ele>248.39999999999998</ele><time>2026-03-22T09:45:50Z</time></trkpt><trkpt lat="42.24640868012031" lon="14.401681340932798"><ele>249.0</ele><time>2026-03-22T09:45:52Z</time></trkpt><trkpt lat="42.246499802199594" lon="14.40175908506106"><ele>247.5</ele><time>2026-03-22T09:45:54Z</time></trkpt><trkpt lat="42.24657346487468" lon="14.401861584941928"><ele>246.0</ele><time>2026-03-22T09:45:55Z</time></trkpt><trkpt lat="42.246674789762686" lon="14.401970039594053"><ele>244.5</ele><time>2026-03-22T09:45:56Z</time></trkpt><trkpt lat="42.246806567583484" lon="14.402087975695181"><ele>243.0</ele><time>2026-03-22T09:45:57Z</time></trkpt><trkpt lat="42.24693699987325" lon="14.402207474785557"><ele>242.0</ele><time>2026-03-22T09:45:58Z</time></trkpt><trkpt lat="42.247050094980416" lon="14.402306243467457"><ele>241.0</ele><time>2026-03-22T09:45:59Z</time></trkpt><trkpt lat="42.247160196351764" lon="14.402376498169314"><ele>240.0</ele><time>2026-03-22T09:46:00Z</time></trkpt><trkpt lat="42.24727508845723" lon="14.402415264759062"><ele>239.0</ele><time>2026-03-22T09:46:01Z</time></trkpt><trkpt lat="42.24736297230569" lon="14.402456595267696"><ele>238.25</ele><time>2026-03-22T09:46:02Z</time></trkpt><trkpt lat="42.247390715388505" lon="14.402551753778125"><ele>237.5</ele><time>2026-03-22T09:46:03Z</time></trkpt><trkpt lat="42.247418603540005" lon="14.402675549551088"><ele>236.75</ele><time>2026-03-22T09:46:04Z</time></trkpt><trkpt lat="42.247400581546565" lon="14.402894471387771"><ele>236.0</ele><time>2026-03-22T09:46:05Z</time></trkpt><trkpt lat="42.247404062891114" lon="14.403063126812857"><ele>234.20000000000002</ele><time>2026-03-22T09:46:06Z</time></trkpt><trkpt lat="42.24740403075684" lon="14.403212591185524"><ele>232.40000000000003</ele><time>2026-03-22T09:46:07Z</time></trkpt><trkpt lat="42.24738671292442" lon="14.403372063839436"><ele>230.6</ele><time>2026-03-22T09:46:08Z</time></trkpt><trkpt lat="42.24737500625469" lon="14.4035235621578"><ele>228.8</ele><time>2026-03-22T09:46:09Z</time></trkpt><trkpt lat="42.247365678233386" lon="14.403663566630511"><ele>227.0</ele><time>2026-03-22T09:46:10Z</time></trkpt><trkpt lat="42.247391606553045" lon="14.403778534255416"><ele>227.0</ele><time>2026-03-22T09:46:12Z</time></trkpt><trkpt lat="42.24752439143679" lon="14.403800118445126"><ele>227.0</ele><time>2026-03-22T09:46:14Z</time></trkpt><trkpt lat="42.24763465696842" lon="14.40382648607781"><ele>227.0</ele><time>2026-03-22T09:46:15Z</time></trkpt><trkpt lat="42.2477619719926" lon="14.40388718293116"><ele>227.0</ele><time>2026-03-22T09:46:16Z</time></trkpt><trkpt lat="42.2478703530434" lon="14.403924585744202"><ele>224.8</ele><time>2026-03-22T09:46:17Z</time></trkpt><trkpt lat="42.24799312190471" lon="14.403940793406472"><ele>222.6</ele><time>2026-03-22T09:46:18Z</time></trkpt><trkpt lat="42.24808987488528" lon="14.403935380025088"><ele>220.40000000000003</ele><time>2026-03-22T09:46:19Z</time></trkpt><trkpt lat="42.24818762432976" lon="14.40395518552902"><ele>218.20000000000002</ele><time>2026-03-22T09:46:20Z</time></trkpt><trkpt lat="42.24828010194265" lon="14.4039647713502"><ele>216.0</ele><time>2026-03-22T09:46:21Z</time></trkpt><trkpt lat="42.248354157455005" lon="14.403939664248663"><ele>216.0</ele><time>2026-03-22T09:46:22Z</time></trkpt><trkpt lat="42.24846126811415" lon="14.403938684880554"><ele>216.0</ele><time>2026-03-22T09:46:24Z</time></trkpt><trkpt lat="42.24853142339505" lon="14.403834185815882"><ele>216.0</ele><time>2026-03-22T09:46:27Z</time></trkpt><trkpt lat="42.24857624414054" lon="14.403663101949933"><ele>216.0</ele><time>2026-03-22T09:46:28Z</time></trkpt><trkpt lat="42.24868398736121" lon="14.403590754182746"><ele>218.75</ele><time>2026-03-22T09:46:29Z</time></trkpt><trkpt lat="42.24879684049082" lon="14.403550320823589"><ele>221.5</ele><time>2026-03-22T09:46:30Z</time></trkpt><trkpt lat="42.248913760788504" lon="14.403529821394459"><ele>224.25</ele><time>2026-03-22T09:46:31Z</time></trkpt><trkpt lat="42.24905839882591" lon="14.403533403725838"><ele>227.0</ele><time>2026-03-22T09:46:32Z</time></trkpt><trkpt lat="42.24916441772691" lon="14.403534809652092"><ele>227.0</ele><time>2026-03-22T09:46:33Z</time></trkpt><trkpt lat="42.24926443824553" lon="14.403542924336348"><ele>227.0</ele><time>2026-03-22T09:46:34Z</time></trkpt><trkpt lat="42.24947526785382" lon="14.403548327243506"><ele>227.0</ele><time>2026-03-22T09:46:36Z</time></trkpt><trkpt lat="42.24963335879265" lon="14.403592926790543"><ele>227.0</ele><time>2026-03-22T09:46:37Z</time></trkpt><trkpt lat="42.249778154913066" lon="14.403633548258398"><ele>227.0</ele><time>2026-03-22T09:46:38Z</time></trkpt><trkpt lat="42.249910539526006" lon="14.403644183992501"><ele>227.0</ele><time>2026-03-22T09:46:39Z</time></trkpt><trkpt lat="42.250042045795446" lon="14.403653552469805"><ele>227.0</ele><time>2026-03-22T09:46:40Z</time></trkpt><trkpt lat="42.250159367533705" lon="14.403678661698438"><ele>225.75</ele><time>2026-03-22T09:46:41Z</time></trkpt><trkpt lat="42.25028350562375" lon="14.40374787897602"><ele>224.5</ele><time>2026-03-22T09:46:42Z</time></trkpt><trkpt lat="42.250401783264145" lon="14.40383445866604"><ele>223.25</ele><time>2026-03-22T09:46:43Z</time></trkpt><trkpt lat="42.25051268569069" lon="14.403916470869857"><ele>222.0</ele><time>2026-03-22T09:46:44Z</time></trkpt><trkpt lat="42.25062134472116" lon="14.404000036341563"><ele>218.5</ele><time>2026-03-22T09:46:45Z</time></trkpt><trkpt lat="42.250725836539054" lon="14.404079133767798"><ele>215.0</ele><time>2026-03-22T09:46:46Z</time></trkpt><trkpt lat="42.250845453857636" lon="14.404159772817655"><ele>211.5</ele><time>2026-03-22T09:46:47Z</time></trkpt><trkpt lat="42.25097059383632" lon="14.404227233313645"><ele>208.0</ele><time>2026-03-22T09:46:48Z</time></trkpt><trkpt lat="42.251094671692464" lon="14.40430322936174"><ele>208.0</ele><time>2026-03-22T09:46:49Z</time></trkpt><trkpt lat="42.251222061120885" lon="14.40436606839018"><ele>208.0</ele><time>2026-03-22T09:46:50Z</time></trkpt><trkpt lat="42.2513558994335" lon="14.404409874972497"><ele>208.0</ele><time>2026-03-22T09:46:51Z</time></trkpt><trkpt lat="42.25147263297015" lon="14.404442501275387"><ele>208.0</ele><time>2026-03-22T09:46:52Z</time></trkpt><trkpt lat="42.25155586645372" lon="14.40446321580737"><ele>208.8</ele><time>2026-03-22T09:46:53Z</time></trkpt><trkpt lat="42.25163607773441" lon="14.404474391149057"><ele>209.60000000000002</ele><time>2026-03-22T09:46:54Z</time></trkpt><trkpt lat="42.25173339523807" lon="14.404462618276133"><ele>210.39999999999998</ele><time>2026-03-22T09:46:55Z</time></trkpt><trkpt lat="42.251867541486895" lon="14.404433578714436"><ele>211.2</ele><time>2026-03-22T09:46:56Z</time></trkpt><trkpt lat="42.25198500064487" lon="14.404405028189977"><ele>212.0</ele><time>2026-03-22T09:46:57Z</time></trkpt><trkpt lat="42.25208831273868" lon="14.404381235394963"><ele>212.0</ele><time>2026-03-22T09:46:58Z</time></trkpt><trkpt lat="42.25218262721106" lon="14.404353236498183"><ele>212.0</ele><time>2026-03-22T09:46:59Z</time></trkpt><trkpt lat="42.252273429680855" lon="14.404303843234255"><ele>212.0</ele><time>2026-03-22T09:47:00Z</time></trkpt><trkpt lat="42.2523582587079" lon="14.404244967480334"><ele>212.0</ele><time>2026-03-22T09:47:01Z</time></trkpt><trkpt lat="42.25245215092389" lon="14.40421315453033"><ele>212.0</ele><time>2026-03-22T09:47:03Z</time></trkpt><trkpt lat="42.252552799665494" lon="14.40430967504153"><ele>212.75</ele><time>2026-03-22T09:47:05Z</time></trkpt><trkpt lat="42.252604512001604" lon="14.404412415518555"><ele>213.5</ele><time>2026-03-22T09:47:06Z</time></trkpt><trkpt lat="42.252654890465806" lon="14.404515998236521"><ele>214.25</ele><time>2026-03-22T09:47:07Z</time></trkpt><trkpt lat="42.25274562812945" lon="14.40465427167114"><ele>215.0</ele><time>2026-03-22T09:47:08Z</time></trkpt><trkpt lat="42.25285284515847" lon="14.404787978277094"><ele>209.66666666666669</ele><time>2026-03-22T09:47:09Z</time></trkpt><trkpt lat="42.25298936525898" lon="14.404901284809117"><ele>204.33333333333331</ele><time>2026-03-22T09:47:10Z</time></trkpt><trkpt lat="42.253113067865456" lon="14.40500842822676"><ele>199.0</ele><time>2026-03-22T09:47:11Z</time></trkpt><trkpt lat="42.25323770761017" lon="14.405131593413424"><ele>199.0</ele><time>2026-03-22T09:47:12Z</time></trkpt><trkpt lat="42.253350275048966" lon="14.405205391936668"><ele>199.0</ele><time>2026-03-22T09:47:13Z</time></trkpt><trkpt lat="42.25345660719828" lon="14.405320210889414"><ele>199.0</ele><time>2026-03-22T09:47:14Z</time></trkpt><trkpt lat="42.253554506416904" lon="14.405398489178816"><ele>199.0</ele><time>2026-03-22T09:47:15Z</time></trkpt><trkpt lat="42.25366583229764" lon="14.405492348892253"><ele>195.0</ele><time>2026-03-22T09:47:16Z</time></trkpt><trkpt lat="42.25375350530883" lon="14.405571027272634"><ele>191.0</ele><time>2026-03-22T09:47:17Z</time></trkpt><trkpt lat="42.25384387435151" lon="14.405651477106257"><ele>187.0</ele><time>2026-03-22T09:47:18Z</time></trkpt><trkpt lat="42.2538883798161" lon="14.405796708730097"><ele>183.0</ele><time>2026-03-22T09:47:20Z</time></trkpt><trkpt lat="42.25386445403295" lon="14.405929713919164"><ele>179.0</ele><time>2026-03-22T09:47:21Z</time></trkpt><trkpt lat="42.25382335907929" lon="14.406102522619959"><ele>179.0</ele><time>2026-03-22T09:47:22Z</time></trkpt><trkpt lat="42.25380693209367" lon="14.406258058083894"><ele>179.0</ele><time>2026-03-22T09:47:23Z</time></trkpt><trkpt lat="42.25378434614865" lon="14.40638460062237"><ele>179.0</ele><time>2026-03-22T09:47:24Z</time></trkpt><trkpt lat="42.25376330390697" lon="14.406518292962108"><ele>179.0</ele><time>2026-03-22T09:47:26Z</time></trkpt><trkpt lat="42.25370093724282" lon="14.406578353631845"><ele>179.0</ele><time>2026-03-22T09:47:28Z</time></trkpt><trkpt lat="42.25356860282845" lon="14.406556230518158"><ele>179.25</ele><time>2026-03-22T09:47:30Z</time></trkpt><trkpt lat="42.253455611385135" lon="14.406499692172982"><ele>179.5</ele><time>2026-03-22T09:47:31Z</time></trkpt><trkpt lat="42.25333257191206" lon="14.406438005681341"><ele>179.75</ele><time>2026-03-22T09:47:32Z</time></trkpt><trkpt lat="42.2531825805455" lon="14.406379697644528"><ele>180.0</ele><time>2026-03-22T09:47:33Z</time></trkpt><trkpt lat="42.25303133064981" lon="14.40631916939571"><ele>180.0</ele><time>2026-03-22T09:47:34Z</time></trkpt><trkpt lat="42.25287171180945" lon="14.40625146819764"><ele>180.0</ele><time>2026-03-22T09:47:35Z</time></trkpt><trkpt lat="42.252730546060086" lon="14.4061745325594"><ele>180.0</ele><time>2026-03-22T09:47:36Z</time></trkpt><trkpt lat="42.252599966538575" lon="14.406113287383617"><ele>180.0</ele><time>2026-03-22T09:47:37Z</time></trkpt><trkpt lat="42.25246917931928" lon="14.40607012565409"><ele>180.0</ele><time>2026-03-22T09:47:38Z</time></trkpt><trkpt lat="42.252307492487496" lon="14.406068961580592"><ele>180.0</ele><time>2026-03-22T09:47:39Z</time></trkpt><trkpt lat="42.25213992828516" lon="14.406051438988667"><ele>179.33333333333334</ele><time>2026-03-22T09:47:40Z</time></trkpt><trkpt lat="42.251971113572516" lon="14.406021133055352"><ele>178.66666666666669</ele><time>2026-03-22T09:47:41Z</time></trkpt><trkpt lat="42.25179395478975" lon="14.405997755427205"><ele>178.0</ele><time>2026-03-22T09:47:42Z</time></trkpt><trkpt lat="42.25164170800789" lon="14.405963793041"><ele>178.0</ele><time>2026-03-22T09:47:43Z</time></trkpt><trkpt lat="42.2514947216872" lon="14.405932888332034"><ele>178.0</ele><time>2026-03-22T09:47:44Z</time></trkpt><trkpt lat="42.25135353289246" lon="14.405919955615273"><ele>178.0</ele><time>2026-03-22T09:47:45Z</time></trkpt><trkpt lat="42.251217761106226" lon="14.405935391723418"><ele>178.0</ele><time>2026-03-22T09:47:46Z</time></trkpt><trkpt lat="42.251108616584126" lon="14.405953651110403"><ele>178.75</ele><time>2026-03-22T09:47:47Z</time></trkpt><trkpt lat="42.25099934323835" lon="14.405959938561184"><ele>179.5</ele><time>2026-03-22T09:47:48Z</time></trkpt><trkpt lat="42.250879088151756" lon="14.405953509594276"><ele>180.25</ele><time>2026-03-22T09:47:49Z</time></trkpt><trkpt lat="42.25074146672074" lon="14.405932890935667"><ele>181.0</ele><time>2026-03-22T09:47:50Z</time></trkpt><trkpt lat="42.250597487171554" lon="14.405908955122394"><ele>181.25</ele><time>2026-03-22T09:47:51Z</time></trkpt><trkpt lat="42.25045412748649" lon="14.40587454783516"><ele>181.5</ele><time>2026-03-22T09:47:52Z</time></trkpt><trkpt lat="42.25031277066627" lon="14.405856177979869"><ele>181.75</ele><time>2026-03-22T09:47:53Z</time></trkpt><trkpt lat="42.25015535541482" lon="14.405845099016773"><ele>182.0</ele><time>2026-03-22T09:47:54Z</time></trkpt><trkpt lat="42.250002111842406" lon="14.40583514619098"><ele>182.0</ele><time>2026-03-22T09:47:55Z</time></trkpt><trkpt lat="42.249879446222636" lon="14.405839366280576"><ele>182.0</ele><time>2026-03-22T09:47:56Z</time></trkpt><trkpt lat="42.24977125667184" lon="14.405846160332922"><ele>182.0</ele><time>2026-03-22T09:47:57Z</time></trkpt><trkpt lat="42.24967099370348" lon="14.405846963093373"><ele>182.0</ele><time>2026-03-22T09:47:58Z</time></trkpt><trkpt lat="42.24957962142827" lon="14.4058451609734"><ele>182.0</ele><time>2026-03-22T09:47:59Z</time></trkpt><trkpt lat="42.24945697348319" lon="14.405858488114298"><ele>183.0</ele><time>2026-03-22T09:48:00Z</time></trkpt><trkpt lat="42.24931555978085" lon="14.40586886143508"><ele>184.0</ele><time>2026-03-22T09:48:01Z</time></trkpt><trkpt lat="42.24916825141153" lon="14.405872261729776"><ele>185.0</ele><time>2026-03-22T09:48:02Z</time></trkpt><trkpt lat="42.24900683750573" lon="14.405872386289168"><ele>185.0</ele><time>2026-03-22T09:48:03Z</time></trkpt><trkpt lat="42.24883128713954" lon="14.405862349752523"><ele>185.0</ele><time>2026-03-22T09:48:04Z</time></trkpt><trkpt lat="42.24866978964583" lon="14.40586456597174"><ele>185.0</ele><time>2026-03-22T09:48:05Z</time></trkpt><trkpt lat="42.2485123286945" lon="14.405874728215153"><ele>185.0</ele><time>2026-03-22T09:48:06Z</time></trkpt><trkpt lat="42.24837945812702" lon="14.405885670302183"><ele>185.0</ele><time>2026-03-22T09:48:07Z</time></trkpt><trkpt lat="42.24825665329462" lon="14.405893639461862"><ele>185.0</ele><time>2026-03-22T09:48:08Z</time></trkpt><trkpt lat="42.24811570192471" lon="14.40592239717949"><ele>185.0</ele><time>2026-03-22T09:48:09Z</time></trkpt><trkpt lat="42.247966657439335" lon="14.40597841899407"><ele>185.6</ele><time>2026-03-22T09:48:10Z</time></trkpt><trkpt lat="42.24782462924738" lon="14.406037339630709"><ele>186.2</ele><time>2026-03-22T09:48:11Z</time></trkpt><trkpt lat="42.247707932086854" lon="14.406101264881514"><ele>186.8</ele><time>2026-03-22T09:48:12Z</time></trkpt><trkpt lat="42.24762534758412" lon="14.40613702839352"><ele>187.4</ele><time>2026-03-22T09:48:13Z</time></trkpt><trkpt lat="42.24756144388016" lon="14.406161879010208"><ele>188.0</ele><time>2026-03-22T09:48:14Z</time></trkpt><trkpt lat="42.247480974900625" lon="14.406193624521617"><ele>188.0</ele><time>2026-03-22T09:48:15Z</time></trkpt><trkpt lat="42.247385313724585" lon="14.40621778494873"><ele>188.0</ele><time>2026-03-22T09:48:16Z</time></trkpt><trkpt lat="42.24728370471637" lon="14.406235602554162"><ele>188.0</ele><time>2026-03-22T09:48:17Z</time></trkpt><trkpt lat="42.24718314643755" lon="14.406273564071745"><ele>188.0</ele><time>2026-03-22T09:48:18Z</time></trkpt><trkpt lat="42.247071062573866" lon="14.40633203750266"><ele>188.0</ele><time>2026-03-22T09:48:19Z</time></trkpt><trkpt lat="42.24695082299801" lon="14.406389098571625"><ele>188.0</ele><time>2026-03-22T09:48:20Z</time></trkpt><trkpt lat="42.24683636884261" lon="14.406431937063399"><ele>188.0</ele><time>2026-03-22T09:48:21Z</time></trkpt><trkpt lat="42.24671893528921" lon="14.406466003443846"><ele>188.0</ele><time>2026-03-22T09:48:22Z</time></trkpt><trkpt lat="42.246619243944345" lon="14.406486890463036"><ele>188.0</ele><time>2026-03-22T09:48:23Z</time></trkpt><trkpt lat="42.24652132236312" lon="14.406520550768734"><ele>188.0</ele><time>2026-03-22T09:48:24Z</time></trkpt><trkpt lat="42.24641251303986" lon="14.406572550785079"><ele>188.0</ele><time>2026-03-22T09:48:25Z</time></trkpt><trkpt lat="42.24630261693212" lon="14.406611951229497"><ele>188.0</ele><time>2026-03-22T09:48:26Z</time></trkpt><trkpt lat="42.24621720304068" lon="14.406643601640383"><ele>188.0</ele><time>2026-03-22T09:48:27Z</time></trkpt><trkpt lat="42.246143912575334" lon="14.406679083508804"><ele>188.0</ele><time>2026-03-22T09:48:28Z</time></trkpt><trkpt lat="42.24605198494462" lon="14.406719020605898"><ele>188.0</ele><time>2026-03-22T09:48:29Z</time></trkpt><trkpt lat="42.24596118134796" lon="14.40675617200394"><ele>188.0</ele><time>2026-03-22T09:48:30Z</time></trkpt><trkpt lat="42.24586646242122" lon="14.406790167185763"><ele>188.0</ele><time>2026-03-22T09:48:31Z</time></trkpt><trkpt lat="42.24575049747264" lon="14.40683447987023"><ele>188.0</ele><time>2026-03-22T09:48:32Z</time></trkpt><trkpt lat="42.245621387550784" lon="14.406879535370992"><ele>188.0</ele><time>2026-03-22T09:48:33Z</time></trkpt><trkpt lat="42.245496010599716" lon="14.406941388351704"><ele>189.4</ele><time>2026-03-22T09:48:34Z</time></trkpt><trkpt lat="42.245378608260374" lon="14.406996860123161"><ele>190.8</ele><time>2026-03-22T09:48:35Z</time></trkpt><trkpt lat="42.24530328952471" lon="14.407038029097574"><ele>192.2</ele><time>2026-03-22T09:48:36Z</time></trkpt><trkpt lat="42.245182437115744" lon="14.4069906947785"><ele>193.6</ele><time>2026-03-22T09:48:38Z</time></trkpt><trkpt lat="42.245098056504986" lon="14.406923159505876"><ele>195.0</ele><time>2026-03-22T09:48:39Z</time></trkpt><trkpt lat="42.24500095383831" lon="14.40690849612169"><ele>195.0</ele><time>2026-03-22T09:48:40Z</time></trkpt><trkpt lat="42.24487888513554" lon="14.406987286182641"><ele>195.0</ele><time>2026-03-22T09:48:41Z</time></trkpt><trkpt lat="42.244743985814765" lon="14.407051738557655"><ele>195.0</ele><time>2026-03-22T09:48:42Z</time></trkpt><trkpt lat="42.24461362411976" lon="14.407103595460164"><ele>195.0</ele><time>2026-03-22T09:48:43Z</time></trkpt><trkpt lat="42.244501648186144" lon="14.407159993813577"><ele>195.0</ele><time>2026-03-22T09:48:44Z</time></trkpt><trkpt lat="42.24439021494026" lon="14.407190245050554"><ele>195.0</ele><time>2026-03-22T09:48:45Z</time></trkpt><trkpt lat="42.244280964058134" lon="14.407196260280312"><ele>195.0</ele><time>2026-03-22T09:48:46Z</time></trkpt><trkpt lat="42.244157805639105" lon="14.407197412053497"><ele>195.0</ele><time>2026-03-22T09:48:47Z</time></trkpt><trkpt lat="42.24403977266738" lon="14.407201106025568"><ele>196.25</ele><time>2026-03-22T09:48:48Z</time></trkpt><trkpt lat="42.243929195252704" lon="14.407252693219458"><ele>197.5</ele><time>2026-03-22T09:48:49Z</time></trkpt><trkpt lat="42.24383011445566" lon="14.40728918225327"><ele>198.75</ele><time>2026-03-22T09:48:50Z</time></trkpt><trkpt lat="42.24370197819761" lon="14.40729788205892"><ele>200.0</ele><time>2026-03-22T09:48:51Z</time></trkpt><trkpt lat="42.24357225232852" lon="14.40726606093793"><ele>200.0</ele><time>2026-03-22T09:48:52Z</time></trkpt><trkpt lat="42.24345451580477" lon="14.407214982147773"><ele>200.0</ele><time>2026-03-22T09:48:53Z</time></trkpt><trkpt lat="42.24334011220634" lon="14.407205222540474"><ele>200.0</ele><time>2026-03-22T09:48:54Z</time></trkpt><trkpt lat="42.24324400972336" lon="14.407211672300212"><ele>200.0</ele><time>2026-03-22T09:48:55Z</time></trkpt><trkpt lat="42.243149108690574" lon="14.407200191081085"><ele>200.0</ele><time>2026-03-22T09:48:56Z</time></trkpt><trkpt lat="42.24308457730452" lon="14.407170072055784"><ele>202.33333333333334</ele><time>2026-03-22T09:48:57Z</time></trkpt><trkpt lat="42.243034060542286" lon="14.407108293853991"><ele>204.66666666666669</ele><time>2026-03-22T09:48:58Z</time></trkpt><trkpt lat="42.2430299349092" lon="14.406994795899692"><ele>207.0</ele><time>2026-03-22T09:48:59Z</time></trkpt><trkpt lat="42.24299821754699" lon="14.406882115463404"><ele>209.33333333333331</ele><time>2026-03-22T09:49:00Z</time></trkpt><trkpt lat="42.2429488720254" lon="14.406796958025229"><ele>211.66666666666666</ele><time>2026-03-22T09:49:01Z</time></trkpt><trkpt lat="42.24289297577827" lon="14.406710243909105"><ele>214.0</ele><time>2026-03-22T09:49:02Z</time></trkpt><trkpt lat="42.242798459531066" lon="14.406622299304628"><ele>214.0</ele><time>2026-03-22T09:49:03Z</time></trkpt><trkpt lat="42.24267487717647" lon="14.406524299246046"><ele>214.0</ele><time>2026-03-22T09:49:04Z</time></trkpt><trkpt lat="42.2425553475398" lon="14.406445562265132"><ele>214.0</ele><time>2026-03-22T09:49:05Z</time></trkpt><trkpt lat="42.24244800916985" lon="14.406343805196652"><ele>214.0</ele><time>2026-03-22T09:49:06Z</time></trkpt><trkpt lat="42.24236313521817" lon="14.406243831468469"><ele>215.6</ele><time>2026-03-22T09:49:07Z</time></trkpt><trkpt lat="42.24227097222353" lon="14.406162245539493"><ele>217.2</ele><time>2026-03-22T09:49:08Z</time></trkpt><trkpt lat="42.24217095327366" lon="14.406077959545524"><ele>218.79999999999998</ele><time>2026-03-22T09:49:09Z</time></trkpt><trkpt lat="42.242057255483296" lon="14.406006675208445"><ele>220.39999999999998</ele><time>2026-03-22T09:49:10Z</time></trkpt><trkpt lat="42.24199148217617" lon="14.405945674612031"><ele>222.0</ele><time>2026-03-22T09:49:11Z</time></trkpt><trkpt lat="42.241937163902904" lon="14.405878000608704"><ele>222.0</ele><time>2026-03-22T09:49:12Z</time></trkpt><trkpt lat="42.24194417623211" lon="14.405748204558433"><ele>222.0</ele><time>2026-03-22T09:49:13Z</time></trkpt><trkpt lat="42.241943523470525" lon="14.40563955080094"><ele>222.0</ele><time>2026-03-22T09:49:14Z</time></trkpt><trkpt lat="42.24198857620145" lon="14.40557153722969"><ele>222.0</ele><time>2026-03-22T09:49:15Z</time></trkpt><trkpt lat="42.241930858308365" lon="14.40552008127854"><ele>222.0</ele><time>2026-03-22T09:49:23Z</time></trkpt><trkpt lat="42.241863186538794" lon="14.405608449597091"><ele>222.0</ele><time>2026-03-22T09:49:25Z</time></trkpt><trkpt lat="42.24178836206636" lon="14.40574096594642"><ele>222.0</ele><time>2026-03-22T09:49:27Z</time></trkpt><trkpt lat="42.24173715496378" lon="14.405884520212087"><ele>222.0</ele><time>2026-03-22T09:49:29Z</time></trkpt><trkpt lat="42.241663251830296" lon="14.405959317140885"><ele>222.0</ele><time>2026-03-22T09:49:31Z</time></trkpt><trkpt lat="42.241549369611896" lon="14.405983652100124"><ele>222.0</ele><time>2026-03-22T09:49:33Z</time></trkpt><trkpt lat="42.24146251906155" lon="14.405923523927031"><ele>222.0</ele><time>2026-03-22T09:49:35Z</time></trkpt><trkpt lat="42.24139480570714" lon="14.405883010257133"><ele>219.6</ele><time>2026-03-22T09:49:50Z</time></trkpt><trkpt lat="42.241297883680296" lon="14.405862671262023"><ele>217.2</ele><time>2026-03-22T09:49:53Z</time></trkpt><trkpt lat="42.24119453569676" lon="14.405855085427705"><ele>214.8</ele><time>2026-03-22T09:49:55Z</time></trkpt><trkpt lat="42.24112564039457" lon="14.40580703510643"><ele>212.4</ele><time>2026-03-22T09:49:57Z</time></trkpt><trkpt lat="42.2410456317483" lon="14.405702984025703"><ele>210.0</ele><time>2026-03-22T09:49:59Z</time></trkpt><trkpt lat="42.24095940429465" lon="14.405576939913056"><ele>210.6</ele><time>2026-03-22T09:50:01Z</time></trkpt><trkpt lat="42.24086102710955" lon="14.405487102158238"><ele>211.2</ele><time>2026-03-22T09:50:03Z</time></trkpt><trkpt lat="42.24077489760334" lon="14.405418299610709"><ele>211.8</ele><time>2026-03-22T09:50:05Z</time></trkpt><trkpt lat="42.24071869369177" lon="14.405328146548557"><ele>212.4</ele><time>2026-03-22T09:50:07Z</time></trkpt><trkpt lat="42.24062657278317" lon="14.405282032620649"><ele>213.0</ele><time>2026-03-22T09:50:09Z</time></trkpt><trkpt lat="42.24053138267671" lon="14.405298537827756"><ele>213.0</ele><time>2026-03-22T09:50:10Z</time></trkpt><trkpt lat="42.24042843483321" lon="14.405335453294535"><ele>213.0</ele><time>2026-03-22T09:50:11Z</time></trkpt><trkpt lat="42.24030451435242" lon="14.405367309346765"><ele>213.0</ele><time>2026-03-22T09:50:12Z</time></trkpt><trkpt lat="42.24018489767693" lon="14.40538968640851"><ele>213.0</ele><time>2026-03-22T09:50:13Z</time></trkpt><trkpt lat="42.24007853683422" lon="14.405415579064886"><ele>213.0</ele><time>2026-03-22T09:50:14Z</time></trkpt><trkpt lat="42.23998683007973" lon="14.405457005819045"><ele>213.0</ele><time>2026-03-22T09:50:15Z</time></trkpt><trkpt lat="42.239895225887125" lon="14.405513105127183"><ele>213.0</ele><time>2026-03-22T09:50:16Z</time></trkpt><trkpt lat="42.23980391190648" lon="14.405578080747524"><ele>213.0</ele><time>2026-03-22T09:50:17Z</time></trkpt><trkpt lat="42.23972691039144" lon="14.405635344753644"><ele>213.0</ele><time>2026-03-22T09:50:18Z</time></trkpt><trkpt lat="42.23965591786012" lon="14.405685294715266"><ele>212.66666666666666</ele><time>2026-03-22T09:50:19Z</time></trkpt><trkpt lat="42.23958696128497" lon="14.405706750726683"><ele>212.33333333333331</ele><time>2026-03-22T09:50:20Z</time></trkpt><trkpt lat="42.23954438421944" lon="14.405787836735414"><ele>212.0</ele><time>2026-03-22T09:50:25Z</time></trkpt><trkpt lat="42.239540140172686" lon="14.40590935976943"><ele>211.66666666666666</ele><time>2026-03-22T09:50:27Z</time></trkpt><trkpt lat="42.23955364490707" lon="14.406040471806223"><ele>211.33333333333331</ele><time>2026-03-22T09:50:29Z</time></trkpt><trkpt lat="42.23963939016799" lon="14.406086301298192"><ele>211.0</ele><time>2026-03-22T09:50:31Z</time></trkpt><trkpt lat="42.23976165428583" lon="14.406094738673792"><ele>209.60000000000002</ele><time>2026-03-22T09:50:33Z</time></trkpt><trkpt lat="42.23984841120123" lon="14.40612240042856"><ele>208.2</ele><time>2026-03-22T09:50:34Z</time></trkpt><trkpt lat="42.23995965433422" lon="14.406167550844334"><ele>206.8</ele><time>2026-03-22T09:50:35Z</time></trkpt><trkpt lat="42.24007295895457" lon="14.406216207361062"><ele>205.39999999999998</ele><time>2026-03-22T09:50:36Z</time></trkpt><trkpt lat="42.24016804737683" lon="14.40627195622242"><ele>204.0</ele><time>2026-03-22T09:50:37Z</time></trkpt><trkpt lat="42.240221433997796" lon="14.406323417831059"><ele>207.0</ele><time>2026-03-22T09:50:38Z</time></trkpt><trkpt lat="42.24026902341959" lon="14.406481697087203"><ele>210.0</ele><time>2026-03-22T09:50:40Z</time></trkpt><trkpt lat="42.240226828606986" lon="14.406595328398982"><ele>213.0</ele><time>2026-03-22T09:50:41Z</time></trkpt><trkpt lat="42.240207579432564" lon="14.406693408767245"><ele>216.0</ele><time>2026-03-22T09:50:42Z</time></trkpt><trkpt lat="42.24024463815612" lon="14.40677094633584"><ele>219.0</ele><time>2026-03-22T09:50:43Z</time></trkpt><trkpt lat="42.240300362653315" lon="14.40685185708847"><ele>222.0</ele><time>2026-03-22T09:50:44Z</time></trkpt><trkpt lat="42.24040918284658" lon="14.406972149335683"><ele>222.0</ele><time>2026-03-22T09:50:45Z</time></trkpt><trkpt lat="42.24049610789154" lon="14.407121455711831"><ele>222.0</ele><time>2026-03-22T09:50:46Z</time></trkpt><trkpt lat="42.24057067415975" lon="14.407210852359151"><ele>222.0</ele><time>2026-03-22T09:50:47Z</time></trkpt><trkpt lat="42.24066107922259" lon="14.407290649048266"><ele>222.0</ele><time>2026-03-22T09:50:48Z</time></trkpt><trkpt lat="42.24076409009895" lon="14.407382522909236"><ele>222.2</ele><time>2026-03-22T09:50:49Z</time></trkpt><trkpt lat="42.24090934710201" lon="14.407488331979238"><ele>222.39999999999998</ele><time>2026-03-22T09:50:50Z</time></trkpt><trkpt lat="42.241013318410424" lon="14.407529189307338"><ele>222.60000000000002</ele><time>2026-03-22T09:50:51Z</time></trkpt><trkpt lat="42.241077601714096" lon="14.407472498871082"><ele>222.8</ele><time>2026-03-22T09:50:52Z</time></trkpt><trkpt lat="42.2411660553459" lon="14.407446122331045"><ele>223.0</ele><time>2026-03-22T09:50:53Z</time></trkpt><trkpt lat="42.24126646485687" lon="14.407448747312003"><ele>223.0</ele><time>2026-03-22T09:50:54Z</time></trkpt><trkpt lat="42.24134625934069" lon="14.407484557618128"><ele>223.0</ele><time>2026-03-22T09:50:55Z</time></trkpt><trkpt lat="42.241462781684504" lon="14.407584530650004"><ele>223.0</ele><time>2026-03-22T09:50:56Z</time></trkpt><trkpt lat="42.24155788286762" lon="14.407700006027634"><ele>223.0</ele><time>2026-03-22T09:50:57Z</time></trkpt><trkpt lat="42.24166802982715" lon="14.407809636866418"><ele>224.0</ele><time>2026-03-22T09:50:58Z</time></trkpt><trkpt lat="42.241801670717955" lon="14.407957555566256"><ele>225.0</ele><time>2026-03-22T09:50:59Z</time></trkpt><trkpt lat="42.24193203204733" lon="14.408126601264211"><ele>226.0</ele><time>2026-03-22T09:51:00Z</time></trkpt><trkpt lat="42.24201542679202" lon="14.40824797019111"><ele>226.0</ele><time>2026-03-22T09:51:01Z</time></trkpt><trkpt lat="42.24210433603931" lon="14.408356456755845"><ele>226.00000000000003</ele><time>2026-03-22T09:51:02Z</time></trkpt><trkpt lat="42.24216874917375" lon="14.408456933950474"><ele>226.00000000000003</ele><time>2026-03-22T09:51:03Z</time></trkpt><trkpt lat="42.24222813141286" lon="14.408544540547735"><ele>226.0</ele><time>2026-03-22T09:51:04Z</time></trkpt><trkpt lat="42.242304221598566" lon="14.408593981873985"><ele>226.0</ele><time>2026-03-22T09:51:05Z</time></trkpt><trkpt lat="42.24238640816601" lon="14.408630219914091"><ele>223.16666666666666</ele><time>2026-03-22T09:51:06Z</time></trkpt><trkpt lat="42.2424555201785" lon="14.40862582483289"><ele>220.33333333333331</ele><time>2026-03-22T09:51:07Z</time></trkpt><trkpt lat="42.242604562755886" lon="14.408614592683204"><ele>217.5</ele><time>2026-03-22T09:51:09Z</time></trkpt><trkpt lat="42.242648114559806" lon="14.408529333363905"><ele>214.66666666666669</ele><time>2026-03-22T09:51:10Z</time></trkpt><trkpt lat="42.24270639956685" lon="14.408487846682311"><ele>211.83333333333334</ele><time>2026-03-22T09:51:11Z</time></trkpt><trkpt lat="42.24278223638584" lon="14.40844370175308"><ele>209.0</ele><time>2026-03-22T09:51:12Z</time></trkpt><trkpt lat="42.24286315173897" lon="14.408425585791209"><ele>209.0</ele><time>2026-03-22T09:51:13Z</time></trkpt><trkpt lat="42.24293418092583" lon="14.408463721352735"><ele>209.0</ele><time>2026-03-22T09:51:15Z</time></trkpt><trkpt lat="42.24295916015552" lon="14.40865055164203"><ele>209.0</ele><time>2026-03-22T09:51:17Z</time></trkpt><trkpt lat="42.24306923293398" lon="14.408734542604321"><ele>209.0</ele><time>2026-03-22T09:51:19Z</time></trkpt><trkpt lat="42.24320872697463" lon="14.408715452938116"><ele>207.25</ele><time>2026-03-22T09:51:20Z</time></trkpt><trkpt lat="42.24337495162542" lon="14.408771163217581"><ele>205.5</ele><time>2026-03-22T09:51:22Z</time></trkpt><trkpt lat="42.243476778324435" lon="14.408759103010183"><ele>203.75</ele><time>2026-03-22T09:51:23Z</time></trkpt><trkpt lat="42.243624999383215" lon="14.408740841331214"><ele>202.0</ele><time>2026-03-22T09:51:25Z</time></trkpt><trkpt lat="42.243710647129404" lon="14.408683061155463"><ele>202.0</ele><time>2026-03-22T09:51:26Z</time></trkpt><trkpt lat="42.24377747302342" lon="14.408696254660395"><ele>202.0</ele><time>2026-03-22T09:51:27Z</time></trkpt><trkpt lat="42.243958857861806" lon="14.408731761083388"><ele>202.0</ele><time>2026-03-22T09:51:29Z</time></trkpt><trkpt lat="42.244086435221305" lon="14.40880833514188"><ele>202.0</ele><time>2026-03-22T09:51:31Z</time></trkpt><trkpt lat="42.24414435404266" lon="14.408873250140143"><ele>201.5</ele><time>2026-03-22T09:51:32Z</time></trkpt><trkpt lat="42.24429115713226" lon="14.408864085014041"><ele>201.0</ele><time>2026-03-22T09:51:34Z</time></trkpt><trkpt lat="42.24437983293495" lon="14.408822664112462"><ele>200.5</ele><time>2026-03-22T09:51:35Z</time></trkpt><trkpt lat="42.244491451965104" lon="14.40880962888334"><ele>200.0</ele><time>2026-03-22T09:51:36Z</time></trkpt><trkpt lat="42.24459861407582" lon="14.408816566337117"><ele>199.66666666666669</ele><time>2026-03-22T09:51:37Z</time></trkpt><trkpt lat="42.244730887685805" lon="14.408829372338362"><ele>199.33333333333331</ele><time>2026-03-22T09:51:38Z</time></trkpt><trkpt lat="42.24486934618188" lon="14.408839019984013"><ele>199.0</ele><time>2026-03-22T09:51:39Z</time></trkpt><trkpt lat="42.24515864774691" lon="14.408788358077528"><ele>199.0</ele><time>2026-03-22T09:51:41Z</time></trkpt><trkpt lat="42.24523222014059" lon="14.40872440478904"><ele>199.0</ele><time>2026-03-22T09:51:42Z</time></trkpt><trkpt lat="42.245295111915475" lon="14.408639491475158"><ele>199.0</ele><time>2026-03-22T09:51:43Z</time></trkpt><trkpt lat="42.24538675438187" lon="14.408576788627363"><ele>199.0</ele><time>2026-03-22T09:51:44Z</time></trkpt><trkpt lat="42.24552160060583" lon="14.408539083204714"><ele>199.0</ele><time>2026-03-22T09:51:45Z</time></trkpt><trkpt lat="42.24563056007903" lon="14.408495639881663"><ele>199.2</ele><time>2026-03-22T09:51:46Z</time></trkpt><trkpt lat="42.24571985154596" lon="14.408428759013322"><ele>199.39999999999998</ele><time>2026-03-22T09:51:47Z</time></trkpt><trkpt lat="42.24583248383863" lon="14.408422004868667"><ele>199.6</ele><time>2026-03-22T09:51:48Z</time></trkpt><trkpt lat="42.24596481093958" lon="14.408439697558638"><ele>199.8</ele><time>2026-03-22T09:51:49Z</time></trkpt><trkpt lat="42.24606340784823" lon="14.408433061684352"><ele>200.0</ele><time>2026-03-22T09:51:50Z</time></trkpt><trkpt lat="42.24614728275703" lon="14.408483419595516"><ele>200.0</ele><time>2026-03-22T09:51:51Z</time></trkpt><trkpt lat="42.24624499221344" lon="14.40855502880454"><ele>200.0</ele><time>2026-03-22T09:51:52Z</time></trkpt><trkpt lat="42.246339253029596" lon="14.408603425699225"><ele>200.0</ele><time>2026-03-22T09:51:53Z</time></trkpt><trkpt lat="42.24645831237351" lon="14.40865998320387"><ele>200.0</ele><time>2026-03-22T09:51:54Z</time></trkpt><trkpt lat="42.246590755591015" lon="14.408721732785926"><ele>199.4</ele><time>2026-03-22T09:51:55Z</time></trkpt><trkpt lat="42.24670595077631" lon="14.408761867994262"><ele>198.8</ele><time>2026-03-22T09:51:56Z</time></trkpt><trkpt lat="42.24683473778101" lon="14.408782200839745"><ele>198.2</ele><time>2026-03-22T09:51:57Z</time></trkpt><trkpt lat="42.24693306365205" lon="14.408768384549619"><ele>197.6</ele><time>2026-03-22T09:51:58Z</time></trkpt><trkpt lat="42.24702614636973" lon="14.408811639166972"><ele>197.0</ele><time>2026-03-22T09:51:59Z</time></trkpt><trkpt lat="42.24711914221477" lon="14.408844745140717"><ele>197.2</ele><time>2026-03-22T09:52:00Z</time></trkpt><trkpt lat="42.24723643651496" lon="14.408847949701844"><ele>197.39999999999998</ele><time>2026-03-22T09:52:01Z</time></trkpt><trkpt lat="42.24734314842889" lon="14.408863658432029"><ele>197.60000000000002</ele><time>2026-03-22T09:52:02Z</time></trkpt><trkpt lat="42.24746622170134" lon="14.408862905288506"><ele>197.8</ele><time>2026-03-22T09:52:03Z</time></trkpt><trkpt lat="42.247559248023045" lon="14.408822685363406"><ele>198.0</ele><time>2026-03-22T09:52:04Z</time></trkpt><trkpt lat="42.2476564508035" lon="14.408799136650957"><ele>198.0</ele><time>2026-03-22T09:52:05Z</time></trkpt><trkpt lat="42.247739504133044" lon="14.40875202514598"><ele>198.0</ele><time>2026-03-22T09:52:06Z</time></trkpt><trkpt lat="42.24783261322036" lon="14.40871134265345"><ele>198.0</ele><time>2026-03-22T09:52:07Z</time></trkpt><trkpt lat="42.24793020779959" lon="14.408653349852537"><ele>198.0</ele><time>2026-03-22T09:52:08Z</time></trkpt><trkpt lat="42.248018669259125" lon="14.408573223974038"><ele>198.0</ele><time>2026-03-22T09:52:09Z</time></trkpt><trkpt lat="42.24808824400498" lon="14.408524729048043"><ele>197.60000000000002</ele><time>2026-03-22T09:52:10Z</time></trkpt><trkpt lat="42.24815357320893" lon="14.408402827157994"><ele>197.20000000000002</ele><time>2026-03-22T09:52:12Z</time></trkpt><trkpt lat="42.248274651489076" lon="14.408390249445333"><ele>196.8</ele><time>2026-03-22T09:52:14Z</time></trkpt><trkpt lat="42.24836693064917" lon="14.408438231884167"><ele>196.4</ele><time>2026-03-22T09:52:15Z</time></trkpt><trkpt lat="42.248431585967246" lon="14.40848859403615"><ele>196.0</ele><time>2026-03-22T09:52:16Z</time></trkpt><trkpt lat="42.2485320275941" lon="14.408503918277038"><ele>196.0</ele><time>2026-03-22T09:52:18Z</time></trkpt><trkpt lat="42.24861390264231" lon="14.408413583952106"><ele>196.0</ele><time>2026-03-22T09:52:19Z</time></trkpt><trkpt lat="42.24870635603067" lon="14.408334907791408"><ele>196.0</ele><time>2026-03-22T09:52:20Z</time></trkpt><trkpt lat="42.24878668040197" lon="14.408243314552685"><ele>196.0</ele><time>2026-03-22T09:52:21Z</time></trkpt><trkpt lat="42.24888095583764" lon="14.408180883575277"><ele>196.0</ele><time>2026-03-22T09:52:22Z</time></trkpt><trkpt lat="42.24899297295137" lon="14.40814100110469"><ele>195.5</ele><time>2026-03-22T09:52:23Z</time></trkpt><trkpt lat="42.24912173783526" lon="14.40810191570677"><ele>195.0</ele><time>2026-03-22T09:52:24Z</time></trkpt><trkpt lat="42.24926550811785" lon="14.40810543188576"><ele>194.5</ele><time>2026-03-22T09:52:25Z</time></trkpt><trkpt lat="42.249415478989" lon="14.408107266067628"><ele>194.0</ele><time>2026-03-22T09:52:26Z</time></trkpt><trkpt lat="42.24955514542671" lon="14.408120275302528"><ele>194.0</ele><time>2026-03-22T09:52:27Z</time></trkpt><trkpt lat="42.2496724203706" lon="14.408124812021974"><ele>194.0</ele><time>2026-03-22T09:52:28Z</time></trkpt><trkpt lat="42.24977157811035" lon="14.40811640981774"><ele>194.0</ele><time>2026-03-22T09:52:29Z</time></trkpt><trkpt lat="42.24984123720145" lon="14.408111461884"><ele>194.0</ele><time>2026-03-22T09:52:30Z</time></trkpt><trkpt lat="42.24991115329842" lon="14.408179631171066"><ele>194.0</ele><time>2026-03-22T09:52:33Z</time></trkpt><trkpt lat="42.24992970470234" lon="14.40829244397205"><ele>194.33333333333334</ele><time>2026-03-22T09:52:36Z</time></trkpt><trkpt lat="42.249994463799766" lon="14.408356173963583"><ele>194.66666666666669</ele><time>2026-03-22T09:52:38Z</time></trkpt><trkpt lat="42.2500924372685" lon="14.40831378090674"><ele>195.0</ele><time>2026-03-22T09:54:06Z</time></trkpt><trkpt lat="42.2501586219704" lon="14.408279408719624"><ele>195.33333333333331</ele><time>2026-03-22T09:54:07Z</time></trkpt><trkpt lat="42.250250244171276" lon="14.40824014475911"><ele>195.66666666666666</ele><time>2026-03-22T09:54:08Z</time></trkpt><trkpt lat="42.25034759666379" lon="14.40821401155858"><ele>196.0</ele><time>2026-03-22T09:54:09Z</time></trkpt><trkpt lat="42.250436069622026" lon="14.40821953800347"><ele>196.0</ele><time>2026-03-22T09:54:10Z</time></trkpt><trkpt lat="42.25053476721882" lon="14.408216348714452"><ele>196.0</ele><time>2026-03-22T09:54:11Z</time></trkpt><trkpt lat="42.25062493629457" lon="14.408224041719754"><ele>196.0</ele><time>2026-03-22T09:54:12Z</time></trkpt><trkpt lat="42.250698401403035" lon="14.408226153945748"><ele>196.0</ele><time>2026-03-22T09:54:13Z</time></trkpt><trkpt lat="42.2507938987135" lon="14.408226403720448"><ele>196.0</ele><time>2026-03-22T09:54:15Z</time></trkpt><trkpt lat="42.250887897004" lon="14.408216538217427"><ele>195.8</ele><time>2026-03-22T09:54:17Z</time></trkpt><trkpt lat="42.250950031434904" lon="14.408318249176215"><ele>195.60000000000002</ele><time>2026-03-22T09:54:19Z</time></trkpt><trkpt lat="42.25095131750366" lon="14.40843320484944"><ele>195.4</ele><time>2026-03-22T09:54:21Z</time></trkpt><trkpt lat="42.25089087895656" lon="14.408537981673819"><ele>195.2</ele><time>2026-03-22T09:54:23Z</time></trkpt><trkpt lat="42.2507880506066" lon="14.408621385838718"><ele>195.0</ele><time>2026-03-22T09:54:25Z</time></trkpt><trkpt lat="42.250736786226014" lon="14.408567678804094"><ele>195.0</ele><time>2026-03-22T09:54:27Z</time></trkpt><trkpt lat="42.25064283339069" lon="14.408605418934632"><ele>195.0</ele><time>2026-03-22T09:54:29Z</time></trkpt><trkpt lat="42.25058019858982" lon="14.408729889296097"><ele>195.0</ele><time>2026-03-22T09:54:31Z</time></trkpt><trkpt lat="42.25051353737989" lon="14.408743128797248"><ele>195.0</ele><time>2026-03-22T09:54:33Z</time></trkpt><trkpt lat="42.25066988720674" lon="14.408783580165167"><ele>195.0</ele><time>2026-03-22T09:54:39Z</time></trkpt><trkpt lat="42.25073470368599" lon="14.408779818736656"><ele>195.0</ele><time>2026-03-22T09:54:40Z</time></trkpt><trkpt lat="42.250845897684016" lon="14.408773468533072"><ele>195.0</ele><time>2026-03-22T09:54:41Z</time></trkpt><trkpt lat="42.25092929084309" lon="14.408769201929447"><ele>195.0</ele><time>2026-03-22T09:54:42Z</time></trkpt><trkpt lat="42.25101530480565" lon="14.408737520862399"><ele>195.0</ele><time>2026-03-22T09:54:43Z</time></trkpt><trkpt lat="42.25103986802066" lon="14.408643421777066"><ele>195.0</ele><time>2026-03-22T09:54:46Z</time></trkpt><trkpt lat="42.251068833169235" lon="14.408537903573805"><ele>195.0</ele><time>2026-03-22T09:55:33Z</time></trkpt><trkpt lat="42.25112657974563" lon="14.40842781163697"><ele>195.0</ele><time>2026-03-22T09:55:35Z</time></trkpt><trkpt lat="42.251170224360635" lon="14.408362086187278"><ele>195.0</ele><time>2026-03-22T09:55:38Z</time></trkpt><trkpt lat="42.251246611309234" lon="14.40845367806125"><ele>195.0</ele><time>2026-03-22T09:55:41Z</time></trkpt><trkpt lat="42.251301789670094" lon="14.408569399120372"><ele>195.0</ele><time>2026-03-22T09:55:43Z</time></trkpt><trkpt lat="42.25138220013335" lon="14.408565199186029"><ele>195.0</ele><time>2026-03-22T09:56:30Z</time></trkpt><trkpt lat="42.25144458848225" lon="14.408550100151077"><ele>195.0</ele><time>2026-03-22T09:56:34Z</time></trkpt><trkpt lat="42.25153655213159" lon="14.408536061582394"><ele>195.0</ele><time>2026-03-22T09:56:36Z</time></trkpt><trkpt lat="42.25159787518587" lon="14.4085088940298"><ele>195.0</ele><time>2026-03-22T09:56:37Z</time></trkpt><trkpt lat="42.251663668990055" lon="14.408487742358002"><ele>195.0</ele><time>2026-03-22T09:56:38Z</time></trkpt><trkpt lat="42.251731293419034" lon="14.408473995201618"><ele>195.0</ele><time>2026-03-22T09:56:39Z</time></trkpt><trkpt lat="42.25181906001121" lon="14.40847741858852"><ele>195.0</ele><time>2026-03-22T09:56:40Z</time></trkpt><trkpt lat="42.25190845456487" lon="14.408457853866295"><ele>195.0</ele><time>2026-03-22T09:56:41Z</time></trkpt><trkpt lat="42.25198620004589" lon="14.408399668982426"><ele>195.0</ele><time>2026-03-22T09:56:42Z</time></trkpt><trkpt lat="42.252083581195905" lon="14.408383095063895"><ele>195.0</ele><time>2026-03-22T09:56:43Z</time></trkpt><trkpt lat="42.25216668712178" lon="14.40839188810317"><ele>195.0</ele><time>2026-03-22T09:56:44Z</time></trkpt><trkpt lat="42.25224802620019" lon="14.408411229885337"><ele>195.0</ele><time>2026-03-22T09:56:45Z</time></trkpt><trkpt lat="42.25232805735323" lon="14.408418644766913"><ele>195.0</ele><time>2026-03-22T09:56:46Z</time></trkpt><trkpt lat="42.25239756032069" lon="14.408438422634527"><ele>195.0</ele><time>2026-03-22T09:56:47Z</time></trkpt><trkpt lat="42.25247666644327" lon="14.408497323467206"><ele>194.2</ele><time>2026-03-22T09:56:48Z</time></trkpt><trkpt lat="42.252560239727714" lon="14.408541400190138"><ele>193.4</ele><time>2026-03-22T09:56:49Z</time></trkpt><trkpt lat="42.25264183591795" lon="14.408578834811072"><ele>192.60000000000002</ele><time>2026-03-22T09:56:50Z</time></trkpt><trkpt lat="42.25272666407385" lon="14.408632877590003"><ele>191.8</ele><time>2026-03-22T09:56:51Z</time></trkpt><trkpt lat="42.25281975577198" lon="14.408733735474401"><ele>191.0</ele><time>2026-03-22T09:56:52Z</time></trkpt><trkpt lat="42.25291565927939" lon="14.408792652424264"><ele>191.0</ele><time>2026-03-22T09:56:53Z</time></trkpt><trkpt lat="42.25299778103329" lon="14.408891740724581"><ele>191.0</ele><time>2026-03-22T09:56:54Z</time></trkpt><trkpt lat="42.2530679909763" lon="14.40898449756807"><ele>191.0</ele><time>2026-03-22T09:56:55Z</time></trkpt><trkpt lat="42.253117171571255" lon="14.409073721371994"><ele>191.0</ele><time>2026-03-22T09:56:56Z</time></trkpt><trkpt lat="42.25320178454335" lon="14.409159924030089"><ele>191.0</ele><time>2026-03-22T09:56:57Z</time></trkpt><trkpt lat="42.25323465872736" lon="14.40923684137177"><ele>191.0</ele><time>2026-03-22T09:56:58Z</time></trkpt><trkpt lat="42.25327655450254" lon="14.40930381076641"><ele>191.0</ele><time>2026-03-22T09:57:00Z</time></trkpt><trkpt lat="42.25336352270761" lon="14.409240634541918"><ele>191.0</ele><time>2026-03-22T09:57:03Z</time></trkpt><trkpt lat="42.25340475110928" lon="14.409138091206119"><ele>191.0</ele><time>2026-03-22T09:57:05Z</time></trkpt><trkpt lat="42.25346533681096" lon="14.409068209933766"><ele>191.0</ele><time>2026-03-22T09:57:07Z</time></trkpt><trkpt lat="42.25350395433668" lon="14.409140232651424"><ele>191.0</ele><time>2026-03-22T09:57:12Z</time></trkpt><trkpt lat="42.25356206632319" lon="14.409192973317818"><ele>191.0</ele><time>2026-03-22T09:57:41Z</time></trkpt><trkpt lat="42.253605968944726" lon="14.409278220339129"><ele>191.0</ele><time>2026-03-22T09:57:43Z</time></trkpt><trkpt lat="42.25372778921836" lon="14.409390730841286"><ele>191.0</ele><time>2026-03-22T09:57:45Z</time></trkpt><trkpt lat="42.25381281422615" lon="14.409507762324813"><ele>191.0</ele><time>2026-03-22T09:57:47Z</time></trkpt><trkpt lat="42.25384582551493" lon="14.409652268354916"><ele>190.60000000000002</ele><time>2026-03-22T09:57:49Z</time></trkpt><trkpt lat="42.25387233481625" lon="14.409729938735731"><ele>190.2</ele><time>2026-03-22T09:57:50Z</time></trkpt><trkpt lat="42.253889206418144" lon="14.409864631953083"><ele>189.8</ele><time>2026-03-22T09:57:52Z</time></trkpt><trkpt lat="42.25394878993344" lon="14.41001631949461"><ele>189.39999999999998</ele><time>2026-03-22T09:57:54Z</time></trkpt><trkpt lat="42.25403638807388" lon="14.410131636118658"><ele>189.0</ele><time>2026-03-22T09:57:56Z</time></trkpt><trkpt lat="42.25412159535096" lon="14.410189305411501"><ele>189.0</ele><time>2026-03-22T09:57:58Z</time></trkpt><trkpt lat="42.25412963903444" lon="14.410334987643242"><ele>189.0</ele><time>2026-03-22T09:58:00Z</time></trkpt><trkpt lat="42.25410707132124" lon="14.410423645140314"><ele>189.0</ele><time>2026-03-22T09:58:01Z</time></trkpt><trkpt lat="42.2540989487972" lon="14.41051363222433"><ele>189.0</ele><time>2026-03-22T09:58:02Z</time></trkpt><trkpt lat="42.25416944330678" lon="14.410563035550192"><ele>189.0</ele><time>2026-03-22T09:58:05Z</time></trkpt><trkpt lat="42.254256787194166" lon="14.410604009588072"><ele>189.0</ele><time>2026-03-22T09:58:15Z</time></trkpt><trkpt lat="42.25432141024992" lon="14.410691404158221"><ele>193.0</ele><time>2026-03-22T09:58:17Z</time></trkpt><trkpt lat="42.25441457478053" lon="14.410818710608105"><ele>197.0</ele><time>2026-03-22T09:58:19Z</time></trkpt><trkpt lat="42.25448437132822" lon="14.410907234423629"><ele>201.0</ele><time>2026-03-22T09:58:20Z</time></trkpt><trkpt lat="42.25454350928357" lon="14.41097611646034"><ele>205.0</ele><time>2026-03-22T09:58:21Z</time></trkpt><trkpt lat="42.25461485568109" lon="14.411007359448556"><ele>209.0</ele><time>2026-03-22T09:58:22Z</time></trkpt><trkpt lat="42.25472496724505" lon="14.411061015241504"><ele>204.75</ele><time>2026-03-22T09:58:23Z</time></trkpt><trkpt lat="42.254836473442445" lon="14.411129573770808"><ele>200.5</ele><time>2026-03-22T09:58:24Z</time></trkpt><trkpt lat="42.25495286451173" lon="14.411186557990069"><ele>196.25</ele><time>2026-03-22T09:58:25Z</time></trkpt><trkpt lat="42.25507454858224" lon="14.411226038484747"><ele>192.0</ele><time>2026-03-22T09:58:26Z</time></trkpt><trkpt lat="42.25519951161361" lon="14.411238994205972"><ele>192.0</ele><time>2026-03-22T09:58:27Z</time></trkpt><trkpt lat="42.25531654545845" lon="14.411252620795247"><ele>192.0</ele><time>2026-03-22T09:58:28Z</time></trkpt><trkpt lat="42.25542399373765" lon="14.41124604624489"><ele>192.0</ele><time>2026-03-22T09:58:29Z</time></trkpt><trkpt lat="42.255519350398195" lon="14.411233875277068"><ele>192.0</ele><time>2026-03-22T09:58:30Z</time></trkpt><trkpt lat="42.25561761260645" lon="14.411203967746602"><ele>192.0</ele><time>2026-03-22T09:58:31Z</time></trkpt><trkpt lat="42.25571421929358" lon="14.411186063437205"><ele>190.5</ele><time>2026-03-22T09:58:32Z</time></trkpt><trkpt lat="42.25580426097694" lon="14.41120855562136"><ele>189.0</ele><time>2026-03-22T09:58:33Z</time></trkpt><trkpt lat="42.25589875946757" lon="14.411223429013951"><ele>187.5</ele><time>2026-03-22T09:58:34Z</time></trkpt><trkpt lat="42.25598069020425" lon="14.411241358546778"><ele>186.0</ele><time>2026-03-22T09:58:35Z</time></trkpt><trkpt lat="42.25605938420772" lon="14.411283618891156"><ele>184.5</ele><time>2026-03-22T09:58:36Z</time></trkpt><trkpt lat="42.25613952151582" lon="14.411350329297814"><ele>183.0</ele><time>2026-03-22T09:58:37Z</time></trkpt><trkpt lat="42.25622859700714" lon="14.411427278987816"><ele>181.2</ele><time>2026-03-22T09:58:38Z</time></trkpt><trkpt lat="42.25629476909824" lon="14.411529759828658"><ele>179.4</ele><time>2026-03-22T09:58:39Z</time></trkpt><trkpt lat="42.256386445784315" lon="14.41160822682257"><ele>177.6</ele><time>2026-03-22T09:58:40Z</time></trkpt><trkpt lat="42.25646710702326" lon="14.411689992537138"><ele>175.79999999999998</ele><time>2026-03-22T09:58:41Z</time></trkpt><trkpt lat="42.2565384682919" lon="14.411789755462676"><ele>174.0</ele><time>2026-03-22T09:58:42Z</time></trkpt><trkpt lat="42.25658430384093" lon="14.411869507060707"><ele>174.0</ele><time>2026-03-22T09:58:43Z</time></trkpt><trkpt lat="42.2567259665161" lon="14.411923773040224"><ele>174.0</ele><time>2026-03-22T09:58:51Z</time></trkpt><trkpt lat="42.256725053094584" lon="14.412052493448874"><ele>174.0</ele><time>2026-03-22T09:58:53Z</time></trkpt><trkpt lat="42.2566686873363" lon="14.412176670029854"><ele>174.0</ele><time>2026-03-22T09:58:55Z</time></trkpt><trkpt lat="42.2566008448213" lon="14.412255625332849"><ele>174.0</ele><time>2026-03-22T09:58:56Z</time></trkpt><trkpt lat="42.256511158618544" lon="14.412335544556301"><ele>174.0</ele><time>2026-03-22T09:58:57Z</time></trkpt><trkpt lat="42.256439013719735" lon="14.412351671112578"><ele>174.0</ele><time>2026-03-22T09:58:58Z</time></trkpt><trkpt lat="42.25654273402695" lon="14.41227133706999"><ele>174.0</ele><time>2026-03-22T09:59:03Z</time></trkpt><trkpt lat="42.25663379464925" lon="14.412218484419876"><ele>174.0</ele><time>2026-03-22T09:59:04Z</time></trkpt><trkpt lat="42.2567151576474" lon="14.412192632030498"><ele>174.0</ele><time>2026-03-22T09:59:05Z</time></trkpt><trkpt lat="42.25681413230921" lon="14.412148722541891"><ele>174.0</ele><time>2026-03-22T09:59:06Z</time></trkpt><trkpt lat="42.25689278572309" lon="14.412130705424516"><ele>174.0</ele><time>2026-03-22T09:59:07Z</time></trkpt><trkpt lat="42.25699885892184" lon="14.412069842223834"><ele>174.0</ele><time>2026-03-22T09:59:09Z</time></trkpt><trkpt lat="42.257037921873675" lon="14.411976110000834"><ele>174.0</ele><time>2026-03-22T09:59:10Z</time></trkpt><trkpt lat="42.25706527381693" lon="14.41188966089132"><ele>174.0</ele><time>2026-03-22T09:59:11Z</time></trkpt><trkpt lat="42.25704895264561" lon="14.41172790444127"><ele>174.0</ele><time>2026-03-22T09:59:13Z</time></trkpt><trkpt lat="42.25701042247379" lon="14.411649088163049"><ele>174.0</ele><time>2026-03-22T09:59:14Z</time></trkpt><trkpt lat="42.256952195407244" lon="14.411563096099224"><ele>174.0</ele><time>2026-03-22T09:59:15Z</time></trkpt><trkpt lat="42.25692145830211" lon="14.411473489180853"><ele>174.0</ele><time>2026-03-22T09:59:16Z</time></trkpt><trkpt lat="42.2568402020227" lon="14.411434566195423"><ele>174.0</ele><time>2026-03-22T09:59:26Z</time></trkpt><trkpt lat="42.256767584794595" lon="14.411394878632674"><ele>174.0</ele><time>2026-03-22T09:59:27Z</time></trkpt><trkpt lat="42.25668743506687" lon="14.411331058398025"><ele>176.25</ele><time>2026-03-22T09:59:28Z</time></trkpt><trkpt lat="42.256589138864975" lon="14.41124552637537"><ele>178.5</ele><time>2026-03-22T09:59:29Z</time></trkpt><trkpt lat="42.25646906065966" lon="14.411134232819052"><ele>180.75</ele><time>2026-03-22T09:59:30Z</time></trkpt><trkpt lat="42.25634742268421" lon="14.411017296451085"><ele>183.0</ele><time>2026-03-22T09:59:31Z</time></trkpt><trkpt lat="42.25622468489764" lon="14.410916171818526"><ele>183.0</ele><time>2026-03-22T09:59:32Z</time></trkpt><trkpt lat="42.256106997343196" lon="14.4108274468018"><ele>183.0</ele><time>2026-03-22T09:59:33Z</time></trkpt><trkpt lat="42.25599672354868" lon="14.410756406359628"><ele>183.0</ele><time>2026-03-22T09:59:34Z</time></trkpt><trkpt lat="42.25592235351851" lon="14.410707891550812"><ele>183.0</ele><time>2026-03-22T09:59:35Z</time></trkpt><trkpt lat="42.25584050129567" lon="14.410658227763335"><ele>183.0</ele><time>2026-03-22T09:59:37Z</time></trkpt><trkpt lat="42.2558106099923" lon="14.410771885767376"><ele>183.0</ele><time>2026-03-22T09:59:41Z</time></trkpt><trkpt lat="42.25574044876774" lon="14.410830636912396"><ele>183.0</ele><time>2026-03-22T09:59:43Z</time></trkpt><trkpt lat="42.2556528659178" lon="14.410887023844765"><ele>183.0</ele><time>2026-03-22T09:59:45Z</time></trkpt><trkpt lat="42.255580143705544" lon="14.410868638432706"><ele>183.0</ele><time>2026-03-22T09:59:58Z</time></trkpt><trkpt lat="42.25551105968906" lon="14.410843619428645"><ele>183.0</ele><time>2026-03-22T10:00:00Z</time></trkpt><trkpt lat="42.2554242794438" lon="14.410825905406268"><ele>183.0</ele><time>2026-03-22T10:00:02Z</time></trkpt><trkpt lat="42.255360899551675" lon="14.41072778435476"><ele>184.5</ele><time>2026-03-22T10:00:04Z</time></trkpt><trkpt lat="42.255313960374565" lon="14.410636187596975"><ele>186.0</ele><time>2026-03-22T10:00:05Z</time></trkpt><trkpt lat="42.25523920590218" lon="14.410634105345284"><ele>187.5</ele><time>2026-03-22T10:00:07Z</time></trkpt><trkpt lat="42.255170840038616" lon="14.410646435046598"><ele>189.0</ele><time>2026-03-22T10:00:08Z</time></trkpt><trkpt lat="42.25511012528467" lon="14.41068525844235"><ele>190.5</ele><time>2026-03-22T10:00:09Z</time></trkpt><trkpt lat="42.25503097536684" lon="14.41073738595362"><ele>192.0</ele><time>2026-03-22T10:00:10Z</time></trkpt><trkpt lat="42.25494265875315" lon="14.410730503719645"><ele>192.0</ele><time>2026-03-22T10:00:12Z</time></trkpt><trkpt lat="42.25492915503898" lon="14.410637655370977"><ele>192.0</ele><time>2026-03-22T10:00:13Z</time></trkpt><trkpt lat="42.254892018715914" lon="14.410469994451795"><ele>192.0</ele><time>2026-03-22T10:00:15Z</time></trkpt><trkpt lat="42.254836164798" lon="14.410342039994493"><ele>192.0</ele><time>2026-03-22T10:00:17Z</time></trkpt><trkpt lat="42.254846978466155" lon="14.410231710123899"><ele>192.0</ele><time>2026-03-22T10:00:19Z</time></trkpt><trkpt lat="42.25489072369311" lon="14.410095588692354"><ele>191.25</ele><time>2026-03-22T10:00:21Z</time></trkpt><trkpt lat="42.25488020093088" lon="14.41000316867137"><ele>190.5</ele><time>2026-03-22T10:00:22Z</time></trkpt><trkpt lat="42.254871445352826" lon="14.409882774344416"><ele>189.75</ele><time>2026-03-22T10:00:24Z</time></trkpt><trkpt lat="42.25474606225691" lon="14.409764658687827"><ele>189.0</ele><time>2026-03-22T10:00:26Z</time></trkpt><trkpt lat="42.25464550137753" lon="14.40963455684631"><ele>186.6</ele><time>2026-03-22T10:00:27Z</time></trkpt><trkpt lat="42.25454744455792" lon="14.409512381489641"><ele>184.2</ele><time>2026-03-22T10:00:28Z</time></trkpt><trkpt lat="42.25446840126327" lon="14.409410212634873"><ele>181.79999999999998</ele><time>2026-03-22T10:00:29Z</time></trkpt><trkpt lat="42.25439334382395" lon="14.409318743304912"><ele>179.39999999999998</ele><time>2026-03-22T10:00:31Z</time></trkpt><trkpt lat="42.25432634214107" lon="14.409337794816105"><ele>177.0</ele><time>2026-03-22T10:00:36Z</time></trkpt><trkpt lat="42.25424424612301" lon="14.409376883609028"><ele>177.0</ele><time>2026-03-22T10:00:38Z</time></trkpt><trkpt lat="42.25416665655264" lon="14.409325129182186"><ele>177.0</ele><time>2026-03-22T10:00:40Z</time></trkpt><trkpt lat="42.254119984751874" lon="14.409258326256461"><ele>177.0</ele><time>2026-03-22T10:00:41Z</time></trkpt><trkpt lat="42.25406468983025" lon="14.409209646872759"><ele>177.0</ele><time>2026-03-22T10:00:42Z</time></trkpt><trkpt lat="42.25393734814599" lon="14.409173462889315"><ele>177.0</ele><time>2026-03-22T10:00:44Z</time></trkpt><trkpt lat="42.25381016679391" lon="14.409138743484576"><ele>179.33333333333334</ele><time>2026-03-22T10:00:46Z</time></trkpt><trkpt lat="42.2537161016231" lon="14.409125530003235"><ele>181.66666666666666</ele><time>2026-03-22T10:00:48Z</time></trkpt><trkpt lat="42.253651143393704" lon="14.409074411341875"><ele>184.0</ele><time>2026-03-22T10:00:50Z</time></trkpt><trkpt lat="42.25361247081329" lon="14.409000395747688"><ele>186.33333333333331</ele><time>2026-03-22T10:00:52Z</time></trkpt><trkpt lat="42.2535400123042" lon="14.40897403043438"><ele>188.66666666666666</ele><time>2026-03-22T10:00:54Z</time></trkpt><trkpt lat="42.253490055304745" lon="14.408911959005668"><ele>191.0</ele><time>2026-03-22T10:00:57Z</time></trkpt><trkpt lat="42.253405020986115" lon="14.408901022462695"><ele>191.0</ele><time>2026-03-22T10:00:59Z</time></trkpt><trkpt lat="42.25334117133287" lon="14.408855712808357"><ele>191.0</ele><time>2026-03-22T10:01:03Z</time></trkpt><trkpt lat="42.25319579801958" lon="14.408829830174984"><ele>191.0</ele><time>2026-03-22T10:01:06Z</time></trkpt><trkpt lat="42.253141746159386" lon="14.408770528700433"><ele>191.0</ele><time>2026-03-22T10:01:07Z</time></trkpt><trkpt lat="42.25310984832747" lon="14.408632322267826"><ele>191.0</ele><time>2026-03-22T10:01:09Z</time></trkpt><trkpt lat="42.25299274668845" lon="14.408555789050286"><ele>191.0</ele><time>2026-03-22T10:01:11Z</time></trkpt><trkpt lat="42.25290283237193" lon="14.408497479803701"><ele>191.0</ele><time>2026-03-22T10:01:12Z</time></trkpt><trkpt lat="42.25282746157245" lon="14.408532398330582"><ele>191.0</ele><time>2026-03-22T10:01:14Z</time></trkpt><trkpt lat="42.252726948602984" lon="14.408495627963052"><ele>191.0</ele><time>2026-03-22T10:01:16Z</time></trkpt><trkpt lat="42.252602388028244" lon="14.408404353883542"><ele>191.0</ele><time>2026-03-22T10:01:18Z</time></trkpt><trkpt lat="42.25252945634665" lon="14.408388389430318"><ele>191.0</ele><time>2026-03-22T10:01:20Z</time></trkpt><trkpt lat="42.252444992144746" lon="14.408397126845317"><ele>191.0</ele><time>2026-03-22T10:01:22Z</time></trkpt><trkpt lat="42.25237791226257" lon="14.408368880947531"><ele>191.0</ele><time>2026-03-22T10:01:23Z</time></trkpt><trkpt lat="42.25232212866044" lon="14.408326202016477"><ele>191.0</ele><time>2026-03-22T10:01:24Z</time></trkpt><trkpt lat="42.252256684329694" lon="14.408258767785304"><ele>191.0</ele><time>2026-03-22T10:01:26Z</time></trkpt><trkpt lat="42.252152103830895" lon="14.408301311911972"><ele>191.0</ele><time>2026-03-22T10:01:28Z</time></trkpt><trkpt lat="42.25208410078662" lon="14.408300635900115"><ele>191.66666666666666</ele><time>2026-03-22T10:01:29Z</time></trkpt><trkpt lat="42.25200377547526" lon="14.408312342828696"><ele>192.33333333333331</ele><time>2026-03-22T10:01:30Z</time></trkpt><trkpt lat="42.25192942021209" lon="14.40833303337751"><ele>193.0</ele><time>2026-03-22T10:01:31Z</time></trkpt><trkpt lat="42.25186826454228" lon="14.408360174724153"><ele>193.66666666666666</ele><time>2026-03-22T10:01:32Z</time></trkpt><trkpt lat="42.251784115006224" lon="14.408325525799592"><ele>194.33333333333334</ele><time>2026-03-22T10:01:34Z</time></trkpt><trkpt lat="42.25167838365332" lon="14.408374854677582"><ele>195.0</ele><time>2026-03-22T10:01:37Z</time></trkpt><trkpt lat="42.25159685862279" lon="14.408396960361811"><ele>195.0</ele><time>2026-03-22T10:01:38Z</time></trkpt><trkpt lat="42.251534561121524" lon="14.4083790552569"><ele>195.0</ele><time>2026-03-22T10:01:39Z</time></trkpt><trkpt lat="42.25142716589841" lon="14.40838776024165"><ele>195.0</ele><time>2026-03-22T10:01:42Z</time></trkpt><trkpt lat="42.25132377422406" lon="14.408418783286926"><ele>195.0</ele><time>2026-03-22T10:01:44Z</time></trkpt><trkpt lat="42.25129960454485" lon="14.408313377721898"><ele>195.0</ele><time>2026-03-22T10:01:46Z</time></trkpt><trkpt lat="42.25133252339225" lon="14.408215710071682"><ele>195.0</ele><time>2026-03-22T10:01:49Z</time></trkpt><trkpt lat="42.251528346376254" lon="14.40824282933679"><ele>195.0</ele><time>2026-03-22T10:01:56Z</time></trkpt><trkpt lat="42.25160076760228" lon="14.408209017073547"><ele>195.0</ele><time>2026-03-22T10:01:57Z</time></trkpt><trkpt lat="42.251678673679535" lon="14.408147981301074"><ele>195.0</ele><time>2026-03-22T10:01:58Z</time></trkpt><trkpt lat="42.25177352636508" lon="14.408093367260076"><ele>195.0</ele><time>2026-03-22T10:01:59Z</time></trkpt><trkpt lat="42.25189216380387" lon="14.408059465113286"><ele>195.0</ele><time>2026-03-22T10:02:00Z</time></trkpt><trkpt lat="42.252055103402164" lon="14.408080873981495"><ele>195.0</ele><time>2026-03-22T10:02:01Z</time></trkpt><trkpt lat="42.25219975257991" lon="14.408098306090345"><ele>195.0</ele><time>2026-03-22T10:02:02Z</time></trkpt><trkpt lat="42.252339453734216" lon="14.408133949456683"><ele>195.0</ele><time>2026-03-22T10:02:03Z</time></trkpt><trkpt lat="42.25246307435395" lon="14.408152932878966"><ele>195.0</ele><time>2026-03-22T10:02:04Z</time></trkpt><trkpt lat="42.25257689518" lon="14.408192393627978"><ele>194.0</ele><time>2026-03-22T10:02:05Z</time></trkpt><trkpt lat="42.25269647767931" lon="14.408260753243411"><ele>193.0</ele><time>2026-03-22T10:02:06Z</time></trkpt><trkpt lat="42.252807148274606" lon="14.408293215734613"><ele>192.0</ele><time>2026-03-22T10:02:07Z</time></trkpt><trkpt lat="42.25293219281838" lon="14.40831985280039"><ele>191.0</ele><time>2026-03-22T10:02:08Z</time></trkpt><trkpt lat="42.253057214564855" lon="14.408356142116322"><ele>187.0</ele><time>2026-03-22T10:02:09Z</time></trkpt><trkpt lat="42.25320462001928" lon="14.408401057648566"><ele>183.0</ele><time>2026-03-22T10:02:10Z</time></trkpt><trkpt lat="42.253345228673155" lon="14.408476970286761"><ele>179.0</ele><time>2026-03-22T10:02:11Z</time></trkpt><trkpt lat="42.25344998872793" lon="14.408556767686587"><ele>175.0</ele><time>2026-03-22T10:02:12Z</time></trkpt><trkpt lat="42.25356441886553" lon="14.408647679396816"><ele>175.0</ele><time>2026-03-22T10:02:13Z</time></trkpt><trkpt lat="42.25365704269235" lon="14.408779376385004"><ele>175.0</ele><time>2026-03-22T10:02:14Z</time></trkpt><trkpt lat="42.2537419327107" lon="14.408858642391401"><ele>175.0</ele><time>2026-03-22T10:02:15Z</time></trkpt><trkpt lat="42.253833467865604" lon="14.408910627344484"><ele>175.0</ele><time>2026-03-22T10:02:16Z</time></trkpt><trkpt lat="42.25393771449621" lon="14.408950426286989"><ele>175.0</ele><time>2026-03-22T10:02:17Z</time></trkpt><trkpt lat="42.25403255109054" lon="14.409024653456962"><ele>175.33333333333334</ele><time>2026-03-22T10:02:18Z</time></trkpt><trkpt lat="42.25411738987815" lon="14.409104461140236"><ele>175.66666666666669</ele><time>2026-03-22T10:02:19Z</time></trkpt><trkpt lat="42.25418747932595" lon="14.409139501609253"><ele>176.0</ele><time>2026-03-22T10:02:20Z</time></trkpt><trkpt lat="42.254269487881395" lon="14.40917371858268"><ele>176.33333333333334</ele><time>2026-03-22T10:02:21Z</time></trkpt><trkpt lat="42.254335209992284" lon="14.40919534819253"><ele>176.66666666666666</ele><time>2026-03-22T10:02:23Z</time></trkpt><trkpt lat="42.25437726740948" lon="14.40910031915395"><ele>177.0</ele><time>2026-03-22T10:02:28Z</time></trkpt><trkpt lat="42.25443845767187" lon="14.409075809746673"><ele>177.0</ele><time>2026-03-22T10:02:30Z</time></trkpt><trkpt lat="42.25470750237393" lon="14.409089174640119"><ele>177.0</ele><time>2026-03-22T10:02:32Z</time></trkpt><trkpt lat="42.25473514418788" lon="14.409193452229308"><ele>177.0</ele><time>2026-03-22T10:02:34Z</time></trkpt><trkpt lat="42.25475646112168" lon="14.409304615765214"><ele>177.0</ele><time>2026-03-22T10:02:36Z</time></trkpt><trkpt lat="42.254826188134075" lon="14.409396991661335"><ele>177.39999999999998</ele><time>2026-03-22T10:02:37Z</time></trkpt><trkpt lat="42.25487740051359" lon="14.409499169141803"><ele>177.79999999999998</ele><time>2026-03-22T10:02:38Z</time></trkpt><trkpt lat="42.25491513299943" lon="14.409605256693052"><ele>178.2</ele><time>2026-03-22T10:02:39Z</time></trkpt><trkpt lat="42.25495114046265" lon="14.409711492953845"><ele>178.6</ele><time>2026-03-22T10:02:40Z</time></trkpt><trkpt lat="42.25499551663163" lon="14.409826517123875"><ele>179.0</ele><time>2026-03-22T10:02:42Z</time></trkpt><trkpt lat="42.25503181242536" lon="14.40998167697356"><ele>179.0</ele><time>2026-03-22T10:02:44Z</time></trkpt><trkpt lat="42.255171649087366" lon="14.410049421145867"><ele>179.0</ele><time>2026-03-22T10:02:46Z</time></trkpt><trkpt lat="42.25527285496887" lon="14.410060715395819"><ele>179.0</ele><time>2026-03-22T10:02:47Z</time></trkpt><trkpt lat="42.25535624117047" lon="14.410151456946949"><ele>179.0</ele><time>2026-03-22T10:02:48Z</time></trkpt><trkpt lat="42.25542602117891" lon="14.410261304856645"><ele>179.0</ele><time>2026-03-22T10:02:49Z</time></trkpt><trkpt lat="42.255448338103356" lon="14.410405721690998"><ele>179.0</ele><time>2026-03-22T10:02:50Z</time></trkpt><trkpt lat="42.255547740281486" lon="14.4104399993296"><ele>179.0</ele><time>2026-03-22T10:02:51Z</time></trkpt><trkpt lat="42.25562362591603" lon="14.410461020274136"><ele>179.0</ele><time>2026-03-22T10:02:52Z</time></trkpt><trkpt lat="42.25570976866133" lon="14.410416544682045"><ele>179.0</ele><time>2026-03-22T10:02:53Z</time></trkpt><trkpt lat="42.25573327542103" lon="14.410327107462745"><ele>177.39999999999998</ele><time>2026-03-22T10:03:01Z</time></trkpt><trkpt lat="42.25580539978245" lon="14.410337276894914"><ele>175.8</ele><time>2026-03-22T10:03:03Z</time></trkpt><trkpt lat="42.25591414381882" lon="14.410309367882695"><ele>174.2</ele><time>2026-03-22T10:03:05Z</time></trkpt><trkpt lat="42.2560096616015" lon="14.410258517084113"><ele>172.60000000000002</ele><time>2026-03-22T10:03:07Z</time></trkpt><trkpt lat="42.25615388567173" lon="14.410242092165344"><ele>171.0</ele><time>2026-03-22T10:03:11Z</time></trkpt><trkpt lat="42.256223993277736" lon="14.410221223746191"><ele>171.0</ele><time>2026-03-22T10:03:13Z</time></trkpt><trkpt lat="42.25628385306702" lon="14.410152363391044"><ele>171.0</ele><time>2026-03-22T10:03:16Z</time></trkpt><trkpt lat="42.256413358487" lon="14.410262801529079"><ele>171.0</ele><time>2026-03-22T10:03:18Z</time></trkpt><trkpt lat="42.25653835221658" lon="14.410358275594922"><ele>171.0</ele><time>2026-03-22T10:03:19Z</time></trkpt><trkpt lat="42.256681584051286" lon="14.410478462405736"><ele>168.75</ele><time>2026-03-22T10:03:20Z</time></trkpt><trkpt lat="42.25682622779827" lon="14.410591831936852"><ele>166.5</ele><time>2026-03-22T10:03:21Z</time></trkpt><trkpt lat="42.25694087348599" lon="14.41069783208642"><ele>164.25</ele><time>2026-03-22T10:03:22Z</time></trkpt><trkpt lat="42.257060115761604" lon="14.410785062336089"><ele>162.0</ele><time>2026-03-22T10:03:23Z</time></trkpt><trkpt lat="42.257155405745024" lon="14.410836464549366"><ele>162.0</ele><time>2026-03-22T10:03:24Z</time></trkpt><trkpt lat="42.25726580157633" lon="14.410856460853239"><ele>162.0</ele><time>2026-03-22T10:03:25Z</time></trkpt><trkpt lat="42.25736794222798" lon="14.410897753287587"><ele>162.0</ele><time>2026-03-22T10:03:26Z</time></trkpt><trkpt lat="42.257462565088" lon="14.410961055488965"><ele>162.0</ele><time>2026-03-22T10:03:27Z</time></trkpt><trkpt lat="42.25754829975507" lon="14.41104617134981"><ele>162.0</ele><time>2026-03-22T10:03:28Z</time></trkpt><trkpt lat="42.257604525413626" lon="14.41114128373675"><ele>159.79999999999998</ele><time>2026-03-22T10:03:29Z</time></trkpt><trkpt lat="42.25764434616771" lon="14.411219991379863"><ele>157.6</ele><time>2026-03-22T10:03:30Z</time></trkpt><trkpt lat="42.25761939773294" lon="14.411362109002527"><ele>155.39999999999998</ele><time>2026-03-22T10:03:32Z</time></trkpt><trkpt lat="42.257575634742125" lon="14.411474137327229"><ele>153.2</ele><time>2026-03-22T10:03:33Z</time></trkpt><trkpt lat="42.257501530610334" lon="14.411608585208564"><ele>151.0</ele><time>2026-03-22T10:03:34Z</time></trkpt><trkpt lat="42.257420885756" lon="14.411720876782384"><ele>151.0</ele><time>2026-03-22T10:03:35Z</time></trkpt><trkpt lat="42.25734950866756" lon="14.411804776018448"><ele>151.0</ele><time>2026-03-22T10:03:36Z</time></trkpt><trkpt lat="42.2573131794468" lon="14.411917762315099"><ele>151.0</ele><time>2026-03-22T10:03:38Z</time></trkpt><trkpt lat="42.25737527854885" lon="14.412031056944308"><ele>151.0</ele><time>2026-03-22T10:03:40Z</time></trkpt><trkpt lat="42.25745903512907" lon="14.41208282621284"><ele>151.0</ele><time>2026-03-22T10:03:42Z</time></trkpt><trkpt lat="42.25756734546142" lon="14.412163319277004"><ele>154.0</ele><time>2026-03-22T10:03:44Z</time></trkpt><trkpt lat="42.25766644627254" lon="14.41225038139048"><ele>157.0</ele><time>2026-03-22T10:03:46Z</time></trkpt><trkpt lat="42.257740725848045" lon="14.412347678996639"><ele>160.0</ele><time>2026-03-22T10:03:48Z</time></trkpt><trkpt lat="42.257733229785266" lon="14.412441041472817"><ele>163.0</ele><time>2026-03-22T10:03:49Z</time></trkpt><trkpt lat="42.25769604388247" lon="14.412534167598148"><ele>166.0</ele><time>2026-03-22T10:03:50Z</time></trkpt><trkpt lat="42.25766070434491" lon="14.412633798643885"><ele>166.0</ele><time>2026-03-22T10:03:51Z</time></trkpt><trkpt lat="42.25765010733727" lon="14.412737470349713"><ele>166.0</ele><time>2026-03-22T10:03:52Z</time></trkpt><trkpt lat="42.25764130958229" lon="14.412844030337666"><ele>166.0</ele><time>2026-03-22T10:03:53Z</time></trkpt><trkpt lat="42.257661480645915" lon="14.412940760662453"><ele>166.0</ele><time>2026-03-22T10:03:54Z</time></trkpt><trkpt lat="42.257665303576374" lon="14.413037745175195"><ele>166.0</ele><time>2026-03-22T10:03:55Z</time></trkpt><trkpt lat="42.2576820215528" lon="14.413138520209088"><ele>166.0</ele><time>2026-03-22T10:03:56Z</time></trkpt><trkpt lat="42.2577461555037" lon="14.413235164177637"><ele>170.0</ele><time>2026-03-22T10:03:57Z</time></trkpt><trkpt lat="42.2577887016007" lon="14.41339200006209"><ele>174.0</ele><time>2026-03-22T10:03:59Z</time></trkpt><trkpt lat="42.257841666396985" lon="14.413507705153126"><ele>178.0</ele><time>2026-03-22T10:04:01Z</time></trkpt><trkpt lat="42.25790689177235" lon="14.413573200748925"><ele>182.0</ele><time>2026-03-22T10:04:03Z</time></trkpt><trkpt lat="42.25798732580242" lon="14.413690974364615"><ele>186.0</ele><time>2026-03-22T10:04:05Z</time></trkpt><trkpt lat="42.25804909751059" lon="14.413787846055296"><ele>190.0</ele><time>2026-03-22T10:04:06Z</time></trkpt><trkpt lat="42.2581150759763" lon="14.41389778830962"><ele>194.0</ele><time>2026-03-22T10:04:07Z</time></trkpt><trkpt lat="42.25820086981381" lon="14.414069274867053"><ele>198.0</ele><time>2026-03-22T10:04:08Z</time></trkpt><trkpt lat="42.25832832354603" lon="14.414235399116265"><ele>202.0</ele><time>2026-03-22T10:04:09Z</time></trkpt><trkpt lat="42.25843740337246" lon="14.414327689960803"><ele>196.33333333333331</ele><time>2026-03-22T10:04:10Z</time></trkpt><trkpt lat="42.258518531967994" lon="14.414410094892446"><ele>190.66666666666666</ele><time>2026-03-22T10:04:11Z</time></trkpt><trkpt lat="42.25858140809906" lon="14.414473536952109"><ele>185.0</ele><time>2026-03-22T10:04:12Z</time></trkpt><trkpt lat="42.258652752649915" lon="14.414522432513866"><ele>179.33333333333331</ele><time>2026-03-22T10:04:13Z</time></trkpt><trkpt lat="42.25872425473645" lon="14.414553274263815"><ele>173.66666666666666</ele><time>2026-03-22T10:04:15Z</time></trkpt><trkpt lat="42.25880113659709" lon="14.414526471013831"><ele>168.0</ele><time>2026-03-22T10:04:17Z</time></trkpt><trkpt lat="42.25886784266159" lon="14.414458153194321"><ele>167.2</ele><time>2026-03-22T10:04:20Z</time></trkpt><trkpt lat="42.259021313842126" lon="14.414464919744297"><ele>166.4</ele><time>2026-03-22T10:04:22Z</time></trkpt><trkpt lat="42.25908031255033" lon="14.414571098743687"><ele>165.6</ele><time>2026-03-22T10:04:25Z</time></trkpt><trkpt lat="42.259137245215854" lon="14.414608351964159"><ele>164.79999999999998</ele><time>2026-03-22T10:04:27Z</time></trkpt><trkpt lat="42.25917221770026" lon="14.414723422499062"><ele>164.0</ele><time>2026-03-22T10:04:30Z</time></trkpt><trkpt lat="42.25918851698662" lon="14.414825177807298"><ele>164.0</ele><time>2026-03-22T10:04:33Z</time></trkpt><trkpt lat="42.25924536138988" lon="14.414941807694033"><ele>164.0</ele><time>2026-03-22T10:04:36Z</time></trkpt><trkpt lat="42.25930934904273" lon="14.414960358160588"><ele>164.0</ele><time>2026-03-22T10:04:38Z</time></trkpt><trkpt lat="42.25937311671192" lon="14.415054671271594"><ele>164.0</ele><time>2026-03-22T10:04:43Z</time></trkpt><trkpt lat="42.25954559766354" lon="14.415075470659223"><ele>164.0</ele><time>2026-03-22T10:04:50Z</time></trkpt><trkpt lat="42.259599657003" lon="14.415119646951565"><ele>139.0</ele><time>2026-03-22T10:04:53Z</time></trkpt><trkpt lat="42.261331134644465" lon="14.415400846078331"><ele>139.0</ele><time>2026-03-22T10:04:56Z</time></trkpt><trkpt lat="42.26140974840262" lon="14.415418468811081"><ele>139.0</ele><time>2026-03-22T10:04:57Z</time></trkpt><trkpt lat="42.26149625633007" lon="14.415430228615344"><ele>139.0</ele><time>2026-03-22T10:04:58Z</time></trkpt><trkpt lat="42.26157631153583" lon="14.415374148493438"><ele>139.0</ele><time>2026-03-22T10:05:00Z</time></trkpt><trkpt lat="42.2616236221942" lon="14.415432430917251"><ele>139.0</ele><time>2026-03-22T10:05:01Z</time></trkpt><trkpt lat="42.26164654308381" lon="14.415546332840677"><ele>139.0</ele><time>2026-03-22T10:05:02Z</time></trkpt><trkpt lat="42.261723702255296" lon="14.415634471212831"><ele>137.83333333333334</ele><time>2026-03-22T10:05:04Z</time></trkpt><trkpt lat="42.26178190482726" lon="14.415671805097205"><ele>136.66666666666669</ele><time>2026-03-22T10:05:05Z</time></trkpt><trkpt lat="42.261847680328806" lon="14.41570278020158"><ele>135.5</ele><time>2026-03-22T10:05:06Z</time></trkpt><trkpt lat="42.2619011199098" lon="14.415558685078848"><ele>134.33333333333334</ele><time>2026-03-22T10:05:07Z</time></trkpt><trkpt lat="42.26199789686764" lon="14.415640299032038"><ele>133.16666666666666</ele><time>2026-03-22T10:05:09Z</time></trkpt><trkpt lat="42.26206093130913" lon="14.41562975552414"><ele>132.0</ele><time>2026-03-22T10:05:10Z</time></trkpt><trkpt lat="42.262125865643846" lon="14.415715070486696"><ele>132.0</ele><time>2026-03-22T10:05:11Z</time></trkpt><trkpt lat="42.26221150825333" lon="14.415842575035244"><ele>132.0</ele><time>2026-03-22T10:05:12Z</time></trkpt><trkpt lat="42.26228513628961" lon="14.415960721021287"><ele>132.0</ele><time>2026-03-22T10:05:13Z</time></trkpt><trkpt lat="42.26235944301803" lon="14.41606239090636"><ele>132.0</ele><time>2026-03-22T10:05:14Z</time></trkpt><trkpt lat="42.26242428144641" lon="14.416148057827959"><ele>132.0</ele><time>2026-03-22T10:05:15Z</time></trkpt><trkpt lat="42.26249605790319" lon="14.416216254141109"><ele>131.66666666666666</ele><time>2026-03-22T10:05:16Z</time></trkpt><trkpt lat="42.26260741315908" lon="14.41626551646023"><ele>131.33333333333331</ele><time>2026-03-22T10:05:17Z</time></trkpt><trkpt lat="42.26270498306317" lon="14.416392278666091"><ele>131.0</ele><time>2026-03-22T10:05:18Z</time></trkpt><trkpt lat="42.2617489029436" lon="14.416336109467421"><ele>137.66666666666666</ele><time>2026-03-22T10:05:19Z</time></trkpt><trkpt lat="42.26190610594575" lon="14.416458337776598"><ele>144.33333333333334</ele><time>2026-03-22T10:05:20Z</time></trkpt><trkpt lat="42.26207915297301" lon="14.416570826935207"><ele>151.0</ele><time>2026-03-22T10:05:21Z</time></trkpt><trkpt lat="42.262193697472064" lon="14.416649125967329"><ele>144.33333333333334</ele><time>2026-03-22T10:05:22Z</time></trkpt><trkpt lat="42.2623122951433" lon="14.416716654556987"><ele>137.66666666666666</ele><time>2026-03-22T10:05:23Z</time></trkpt><trkpt lat="42.262483427058385" lon="14.416772248773878"><ele>131.0</ele><time>2026-03-22T10:05:24Z</time></trkpt><trkpt lat="42.26287807040083" lon="14.41680340979056"><ele>131.0</ele><time>2026-03-22T10:05:26Z</time></trkpt><trkpt lat="42.26305947522686" lon="14.416912673820661"><ele>131.0</ele><time>2026-03-22T10:05:27Z</time></trkpt><trkpt lat="42.26320717358104" lon="14.417039129168021"><ele>131.0</ele><time>2026-03-22T10:05:28Z</time></trkpt><trkpt lat="42.26329578848869" lon="14.417122411863009"><ele>129.25</ele><time>2026-03-22T10:05:29Z</time></trkpt><trkpt lat="42.26339865731033" lon="14.417236802273283"><ele>127.5</ele><time>2026-03-22T10:05:30Z</time></trkpt><trkpt lat="42.263489583788626" lon="14.417347652700592"><ele>125.75</ele><time>2026-03-22T10:05:31Z</time></trkpt><trkpt lat="42.26357451932966" lon="14.417475729363138"><ele>124.0</ele><time>2026-03-22T10:05:32Z</time></trkpt><trkpt lat="42.263671639767544" lon="14.417578101944509"><ele>124.0</ele><time>2026-03-22T10:05:33Z</time></trkpt><trkpt lat="42.263738815417405" lon="14.417651635397934"><ele>124.0</ele><time>2026-03-22T10:05:34Z</time></trkpt><trkpt lat="42.26384246212118" lon="14.41771932353803"><ele>124.0</ele><time>2026-03-22T10:05:36Z</time></trkpt><trkpt lat="42.263928061044645" lon="14.417840016831715"><ele>124.0</ele><time>2026-03-22T10:05:38Z</time></trkpt><trkpt lat="42.26397199737511" lon="14.417950172979776"><ele>124.0</ele><time>2026-03-22T10:05:39Z</time></trkpt><trkpt lat="42.2640329365534" lon="14.418057158083302"><ele>122.2</ele><time>2026-03-22T10:05:40Z</time></trkpt><trkpt lat="42.264098670515274" lon="14.418157989253816"><ele>120.4</ele><time>2026-03-22T10:05:41Z</time></trkpt><trkpt lat="42.26418665871976" lon="14.418220051441129"><ele>118.6</ele><time>2026-03-22T10:05:42Z</time></trkpt><trkpt lat="42.2642899210801" lon="14.418322408014047"><ele>116.8</ele><time>2026-03-22T10:05:43Z</time></trkpt><trkpt lat="42.26437598283305" lon="14.418415337518773"><ele>115.0</ele><time>2026-03-22T10:05:44Z</time></trkpt><trkpt lat="42.264461052890965" lon="14.41849696929102"><ele>115.0</ele><time>2026-03-22T10:05:45Z</time></trkpt><trkpt lat="42.26452856358793" lon="14.418566563337015"><ele>115.0</ele><time>2026-03-22T10:05:46Z</time></trkpt><trkpt lat="42.26460648490622" lon="14.418645025096925"><ele>115.0</ele><time>2026-03-22T10:05:47Z</time></trkpt><trkpt lat="42.26466806857163" lon="14.418705069384457"><ele>115.0</ele><time>2026-03-22T10:05:48Z</time></trkpt><trkpt lat="42.26475424105913" lon="14.418815760954265"><ele>115.0</ele><time>2026-03-22T10:05:50Z</time></trkpt><trkpt lat="42.26481431398286" lon="14.418871094562832"><ele>114.0</ele><time>2026-03-22T10:05:51Z</time></trkpt><trkpt lat="42.26490582308029" lon="14.418942162206694"><ele>113.0</ele><time>2026-03-22T10:05:52Z</time></trkpt><trkpt lat="42.26499165037825" lon="14.419062929971894"><ele>112.0</ele><time>2026-03-22T10:05:53Z</time></trkpt><trkpt lat="42.26509568936841" lon="14.419185589625245"><ele>111.0</ele><time>2026-03-22T10:05:54Z</time></trkpt><trkpt lat="42.26518468727581" lon="14.419312257589173"><ele>111.0</ele><time>2026-03-22T10:05:55Z</time></trkpt><trkpt lat="42.26527644049144" lon="14.419408385226006"><ele>111.0</ele><time>2026-03-22T10:05:56Z</time></trkpt><trkpt lat="42.26539154833056" lon="14.419453817102376"><ele>111.0</ele><time>2026-03-22T10:05:57Z</time></trkpt><trkpt lat="42.26550629973418" lon="14.419483822125118"><ele>111.0</ele><time>2026-03-22T10:05:58Z</time></trkpt><trkpt lat="42.26560924412221" lon="14.419486206728523"><ele>111.4</ele><time>2026-03-22T10:05:59Z</time></trkpt><trkpt lat="42.26568117082256" lon="14.419455732484346"><ele>111.8</ele><time>2026-03-22T10:06:00Z</time></trkpt><trkpt lat="42.265767556688516" lon="14.4194644005376"><ele>112.20000000000002</ele><time>2026-03-22T10:06:01Z</time></trkpt><trkpt lat="42.26587196924491" lon="14.419549735099205"><ele>112.60000000000001</ele><time>2026-03-22T10:06:02Z</time></trkpt><trkpt lat="42.265979243048555" lon="14.419651236366322"><ele>113.0</ele><time>2026-03-22T10:06:03Z</time></trkpt><trkpt lat="42.266084284208226" lon="14.419737497570768"><ele>112.99999999999999</ele><time>2026-03-22T10:06:04Z</time></trkpt><trkpt lat="42.26615167058474" lon="14.419792966335129"><ele>113.0</ele><time>2026-03-22T10:06:05Z</time></trkpt><trkpt lat="42.26614066125591" lon="14.41990831821487"><ele>113.0</ele><time>2026-03-22T10:06:09Z</time></trkpt><trkpt lat="42.26606143263256" lon="14.419977626562082"><ele>113.0</ele><time>2026-03-22T10:06:11Z</time></trkpt><trkpt lat="42.265987995138346" lon="14.42010514105513"><ele>112.99999999999999</ele><time>2026-03-22T10:06:13Z</time></trkpt><trkpt lat="42.26595085201831" lon="14.420184787818778"><ele>113.0</ele><time>2026-03-22T10:06:14Z</time></trkpt><trkpt lat="42.265875412771656" lon="14.42022662622619"><ele>113.0</ele><time>2026-03-22T10:06:15Z</time></trkpt><trkpt lat="42.26581513285742" lon="14.420368940907514"><ele>113.00000000000001</ele><time>2026-03-22T10:06:17Z</time></trkpt><trkpt lat="42.26575328624967" lon="14.420484980641067"><ele>113.00000000000001</ele><time>2026-03-22T10:06:19Z</time></trkpt><trkpt lat="42.265759262261135" lon="14.420572723152928"><ele>113.0</ele><time>2026-03-22T10:06:20Z</time></trkpt><trkpt lat="42.26580156894237" lon="14.42068878829511"><ele>113.0</ele><time>2026-03-22T10:06:32Z</time></trkpt><trkpt lat="42.26584961806253" lon="14.420753305547358"><ele>115.2</ele><time>2026-03-22T10:06:33Z</time></trkpt><trkpt lat="42.265886323014165" lon="14.42083260597704"><ele>117.4</ele><time>2026-03-22T10:06:34Z</time></trkpt><trkpt lat="42.26592946735856" lon="14.420961996439713"><ele>119.60000000000001</ele><time>2026-03-22T10:06:35Z</time></trkpt><trkpt lat="42.265982981239" lon="14.4211136812559"><ele>121.80000000000001</ele><time>2026-03-22T10:06:36Z</time></trkpt><trkpt lat="42.2660451835561" lon="14.421267124225116"><ele>124.0</ele><time>2026-03-22T10:06:37Z</time></trkpt><trkpt lat="42.26610822558872" lon="14.421441333595173"><ele>126.2</ele><time>2026-03-22T10:06:38Z</time></trkpt><trkpt lat="42.26615948215298" lon="14.421598638560576"><ele>128.4</ele><time>2026-03-22T10:06:39Z</time></trkpt><trkpt lat="42.2661945621425" lon="14.421714771989521"><ele>130.6</ele><time>2026-03-22T10:06:40Z</time></trkpt><trkpt lat="42.266252965654814" lon="14.421767543384638"><ele>132.8</ele><time>2026-03-22T10:06:41Z</time></trkpt><trkpt lat="42.26632774687604" lon="14.421804758940697"><ele>135.0</ele><time>2026-03-22T10:06:42Z</time></trkpt><trkpt lat="42.26644449842583" lon="14.421820143458042"><ele>132.25</ele><time>2026-03-22T10:06:43Z</time></trkpt><trkpt lat="42.266585637910694" lon="14.421849194160378"><ele>129.5</ele><time>2026-03-22T10:06:44Z</time></trkpt><trkpt lat="42.266743140224335" lon="14.421878067536852"><ele>126.75</ele><time>2026-03-22T10:06:45Z</time></trkpt><trkpt lat="42.26688342957145" lon="14.421872594543654"><ele>124.0</ele><time>2026-03-22T10:06:46Z</time></trkpt><trkpt lat="42.267028971269895" lon="14.42188030901706"><ele>124.0</ele><time>2026-03-22T10:06:47Z</time></trkpt><trkpt lat="42.2671536861641" lon="14.42188397492779"><ele>124.0</ele><time>2026-03-22T10:06:48Z</time></trkpt><trkpt lat="42.26728048822368" lon="14.421891273731276"><ele>124.0</ele><time>2026-03-22T10:06:49Z</time></trkpt><trkpt lat="42.26740285167751" lon="14.42190218927792"><ele>124.0</ele><time>2026-03-22T10:06:50Z</time></trkpt><trkpt lat="42.2675366649698" lon="14.42193502880352"><ele>121.25</ele><time>2026-03-22T10:06:51Z</time></trkpt><trkpt lat="42.267662616649226" lon="14.421960230972742"><ele>118.5</ele><time>2026-03-22T10:06:52Z</time></trkpt><trkpt lat="42.267786248314636" lon="14.421986303635173"><ele>115.75</ele><time>2026-03-22T10:06:53Z</time></trkpt><trkpt lat="42.267904271857574" lon="14.422013202305191"><ele>113.0</ele><time>2026-03-22T10:06:54Z</time></trkpt><trkpt lat="42.26800433379485" lon="14.422051623710258"><ele>112.99999999999999</ele><time>2026-03-22T10:06:55Z</time></trkpt><trkpt lat="42.268104234178054" lon="14.422063137448413"><ele>113.0</ele><time>2026-03-22T10:06:56Z</time></trkpt><trkpt lat="42.26819281175269" lon="14.422060711838414"><ele>113.0</ele><time>2026-03-22T10:06:57Z</time></trkpt><trkpt lat="42.2682710042625" lon="14.422008173292326"><ele>113.0</ele><time>2026-03-22T10:06:58Z</time></trkpt><trkpt lat="42.268353034583946" lon="14.421969251329733"><ele>112.99999999999999</ele><time>2026-03-22T10:06:59Z</time></trkpt><trkpt lat="42.26841865513951" lon="14.421929544479118"><ele>113.0</ele><time>2026-03-22T10:07:00Z</time></trkpt><trkpt lat="42.26850476714017" lon="14.421938088004213"><ele>111.25</ele><time>2026-03-22T10:07:01Z</time></trkpt><trkpt lat="42.268608327169474" lon="14.42199542098691"><ele>109.5</ele><time>2026-03-22T10:07:02Z</time></trkpt><trkpt lat="42.268747357680105" lon="14.422031447871397"><ele>107.75</ele><time>2026-03-22T10:07:03Z</time></trkpt><trkpt lat="42.26888300025925" lon="14.422063198520197"><ele>106.0</ele><time>2026-03-22T10:07:04Z</time></trkpt><trkpt lat="42.26901017987504" lon="14.422054774727927"><ele>105.19999999999999</ele><time>2026-03-22T10:07:05Z</time></trkpt><trkpt lat="42.269122286480915" lon="14.422025344187666"><ele>104.39999999999999</ele><time>2026-03-22T10:07:06Z</time></trkpt><trkpt lat="42.26921567784297" lon="14.42199749886898"><ele>103.6</ele><time>2026-03-22T10:07:07Z</time></trkpt><trkpt lat="42.26929414378177" lon="14.42195864016509"><ele>102.8</ele><time>2026-03-22T10:07:08Z</time></trkpt><trkpt lat="42.26937469670694" lon="14.421956489707956"><ele>102.0</ele><time>2026-03-22T10:07:10Z</time></trkpt><trkpt lat="42.26939524259338" lon="14.42209696741559"><ele>104.8</ele><time>2026-03-22T10:07:12Z</time></trkpt><trkpt lat="42.26932857612311" lon="14.42218821134814"><ele>107.6</ele><time>2026-03-22T10:07:13Z</time></trkpt><trkpt lat="42.2692820913793" lon="14.422289623316432"><ele>110.39999999999999</ele><time>2026-03-22T10:07:14Z</time></trkpt><trkpt lat="42.26921084252353" lon="14.422362836565377"><ele>113.19999999999999</ele><time>2026-03-22T10:07:15Z</time></trkpt><trkpt lat="42.26915795361958" lon="14.422433754792014"><ele>116.0</ele><time>2026-03-22T10:07:16Z</time></trkpt><trkpt lat="42.269194344837864" lon="14.422567697821293"><ele>115.99999999999999</ele><time>2026-03-22T10:07:18Z</time></trkpt><trkpt lat="42.26924255561417" lon="14.422643478983062"><ele>116.0</ele><time>2026-03-22T10:07:19Z</time></trkpt><trkpt lat="42.2692865333" lon="14.422717402751898"><ele>116.0</ele><time>2026-03-22T10:07:20Z</time></trkpt><trkpt lat="42.269361778123994" lon="14.422790531413824"><ele>116.0</ele><time>2026-03-22T10:07:21Z</time></trkpt><trkpt lat="42.26943846092437" lon="14.422876767325993"><ele>115.99999999999999</ele><time>2026-03-22T10:07:22Z</time></trkpt><trkpt lat="42.269497422587136" lon="14.422991085926958"><ele>116.0</ele><time>2026-03-22T10:07:23Z</time></trkpt><trkpt lat="42.269533437226244" lon="14.423106016034412"><ele>118.4</ele><time>2026-03-22T10:07:24Z</time></trkpt><trkpt lat="42.26952991165728" lon="14.423232777061335"><ele>120.8</ele><time>2026-03-22T10:07:25Z</time></trkpt><trkpt lat="42.26950526481379" lon="14.423382943447157"><ele>123.20000000000002</ele><time>2026-03-22T10:07:26Z</time></trkpt><trkpt lat="42.26948111860884" lon="14.423533666908105"><ele>125.60000000000001</ele><time>2026-03-22T10:07:27Z</time></trkpt><trkpt lat="42.26944171646837" lon="14.423685983417714"><ele>128.0</ele><time>2026-03-22T10:07:28Z</time></trkpt><trkpt lat="42.26942407312884" lon="14.423795323400231"><ele>128.8</ele><time>2026-03-22T10:07:29Z</time></trkpt><trkpt lat="42.26947158831021" lon="14.423917550619782"><ele>129.60000000000002</ele><time>2026-03-22T10:07:31Z</time></trkpt><trkpt lat="42.26954265943502" lon="14.423941743151596"><ele>130.39999999999998</ele><time>2026-03-22T10:07:32Z</time></trkpt><trkpt lat="42.26967906805464" lon="14.423923802000663"><ele>131.2</ele><time>2026-03-22T10:07:33Z</time></trkpt><trkpt lat="42.26981336295457" lon="14.42393900122978"><ele>132.0</ele><time>2026-03-22T10:07:34Z</time></trkpt><trkpt lat="42.26995046414662" lon="14.423974100738155"><ele>132.0</ele><time>2026-03-22T10:07:35Z</time></trkpt><trkpt lat="42.27004748900045" lon="14.424003307496015"><ele>132.0</ele><time>2026-03-22T10:07:36Z</time></trkpt><trkpt lat="42.2701165131244" lon="14.424039872815342"><ele>132.0</ele><time>2026-03-22T10:07:37Z</time></trkpt><trkpt lat="42.270190987193125" lon="14.423956174509348"><ele>132.0</ele><time>2026-03-22T10:07:40Z</time></trkpt><trkpt lat="42.27021739518735" lon="14.423829922157111"><ele>132.0</ele><time>2026-03-22T10:07:41Z</time></trkpt><trkpt lat="42.2702221106194" lon="14.42368292137788"><ele>128.79999999999998</ele><time>2026-03-22T10:07:42Z</time></trkpt><trkpt lat="42.270237598373456" lon="14.423548559417346"><ele>125.6</ele><time>2026-03-22T10:07:43Z</time></trkpt><trkpt lat="42.270272963589065" lon="14.423422017959874"><ele>122.39999999999999</ele><time>2026-03-22T10:07:44Z</time></trkpt><trkpt lat="42.27032007604376" lon="14.423325550915946"><ele>119.19999999999999</ele><time>2026-03-22T10:07:45Z</time></trkpt><trkpt lat="42.270393432902026" lon="14.423233556548777"><ele>116.0</ele><time>2026-03-22T10:07:46Z</time></trkpt><trkpt lat="42.27045550597611" lon="14.423185580435312"><ele>115.99999999999999</ele><time>2026-03-22T10:07:47Z</time></trkpt><trkpt lat="42.27051888372757" lon="14.423157765793444"><ele>116.0</ele><time>2026-03-22T10:07:48Z</time></trkpt><trkpt lat="42.2705941582762" lon="14.423065864099604"><ele>116.0</ele><time>2026-03-22T10:07:50Z</time></trkpt><trkpt lat="42.27070391199345" lon="14.423078725179366"><ele>116.0</ele><time>2026-03-22T10:07:52Z</time></trkpt><trkpt lat="42.270789801431974" lon="14.42310063448967"><ele>115.99999999999999</ele><time>2026-03-22T10:07:53Z</time></trkpt><trkpt lat="42.27086467063884" lon="14.423082303992402"><ele>116.0</ele><time>2026-03-22T10:07:54Z</time></trkpt><trkpt lat="42.27093689876934" lon="14.423062570415306"><ele>115.14285714285715</ele><time>2026-03-22T10:07:55Z</time></trkpt><trkpt lat="42.27100591085222" lon="14.423006356939013"><ele>114.28571428571429</ele><time>2026-03-22T10:07:56Z</time></trkpt><trkpt lat="42.27107764209876" lon="14.422975665666542"><ele>113.42857142857143</ele><time>2026-03-22T10:07:57Z</time></trkpt><trkpt lat="42.271135224182835" lon="14.42291000277287"><ele>112.57142857142858</ele><time>2026-03-22T10:07:59Z</time></trkpt><trkpt lat="42.27115450372709" lon="14.422828583683206"><ele>111.71428571428572</ele><time>2026-03-22T10:08:00Z</time></trkpt><trkpt lat="42.27113339100187" lon="14.4227139052773"><ele>110.85714285714285</ele><time>2026-03-22T10:08:01Z</time></trkpt><trkpt lat="42.27113464083821" lon="14.422623501909174"><ele>110.0</ele><time>2026-03-22T10:08:02Z</time></trkpt><trkpt lat="42.27113987681254" lon="14.422504489842147"><ele>107.8</ele><time>2026-03-22T10:08:03Z</time></trkpt><trkpt lat="42.271156009241935" lon="14.42242017292425"><ele>105.6</ele><time>2026-03-22T10:08:04Z</time></trkpt><trkpt lat="42.271216473300285" lon="14.422283416365387"><ele>103.4</ele><time>2026-03-22T10:08:06Z</time></trkpt><trkpt lat="42.27131545482885" lon="14.422251052420018"><ele>101.2</ele><time>2026-03-22T10:08:08Z</time></trkpt><trkpt lat="42.27139951280705" lon="14.422287418182243"><ele>99.0</ele><time>2026-03-22T10:08:09Z</time></trkpt><trkpt lat="42.27149896756756" lon="14.422341277676015"><ele>97.0</ele><time>2026-03-22T10:08:10Z</time></trkpt><trkpt lat="42.271642725155125" lon="14.42241721862423"><ele>95.0</ele><time>2026-03-22T10:08:11Z</time></trkpt><trkpt lat="42.27176376058109" lon="14.422550350566393"><ele>93.0</ele><time>2026-03-22T10:08:12Z</time></trkpt><trkpt lat="42.27189278756283" lon="14.42262680970074"><ele>93.0</ele><time>2026-03-22T10:08:13Z</time></trkpt><trkpt lat="42.27200997750812" lon="14.422695857126715"><ele>93.0</ele><time>2026-03-22T10:08:14Z</time></trkpt><trkpt lat="42.27211374600695" lon="14.422737658650604"><ele>93.0</ele><time>2026-03-22T10:08:15Z</time></trkpt><trkpt lat="42.27220598417557" lon="14.422781118509354"><ele>93.0</ele><time>2026-03-22T10:08:16Z</time></trkpt><trkpt lat="42.272305797100046" lon="14.422817266681447"><ele>93.0</ele><time>2026-03-22T10:08:17Z</time></trkpt><trkpt lat="42.27239223388042" lon="14.422860111176284"><ele>92.0</ele><time>2026-03-22T10:08:18Z</time></trkpt><trkpt lat="42.27251623811267" lon="14.42293717575198"><ele>91.0</ele><time>2026-03-22T10:08:19Z</time></trkpt><trkpt lat="42.27263628987956" lon="14.423019019678028"><ele>90.0</ele><time>2026-03-22T10:08:20Z</time></trkpt><trkpt lat="42.27272489150421" lon="14.423183281801728"><ele>89.0</ele><time>2026-03-22T10:08:21Z</time></trkpt><trkpt lat="42.2728254207425" lon="14.423332718573066"><ele>88.0</ele><time>2026-03-22T10:08:22Z</time></trkpt><trkpt lat="42.272934655334865" lon="14.423507875361215"><ele>87.0</ele><time>2026-03-22T10:08:23Z</time></trkpt><trkpt lat="42.273053928525734" lon="14.423629991851053"><ele>86.0</ele><time>2026-03-22T10:08:24Z</time></trkpt><trkpt lat="42.273153352429915" lon="14.423779369186732"><ele>89.0</ele><time>2026-03-22T10:08:25Z</time></trkpt><trkpt lat="42.27322520169017" lon="14.423935867676658"><ele>92.0</ele><time>2026-03-22T10:08:26Z</time></trkpt><trkpt lat="42.273258183595935" lon="14.424125832075095"><ele>95.0</ele><time>2026-03-22T10:08:27Z</time></trkpt><trkpt lat="42.27324685284284" lon="14.424307818833393"><ele>98.0</ele><time>2026-03-22T10:08:28Z</time></trkpt><trkpt lat="42.27329659298507" lon="14.424435632540488"><ele>98.0</ele><time>2026-03-22T10:08:29Z</time></trkpt><trkpt lat="42.27336945472581" lon="14.424509906628087"><ele>98.0</ele><time>2026-03-22T10:08:30Z</time></trkpt><trkpt lat="42.2734660528839" lon="14.424541334852481"><ele>98.0</ele><time>2026-03-22T10:08:31Z</time></trkpt><trkpt lat="42.27356749032804" lon="14.424558174580943"><ele>98.0</ele><time>2026-03-22T10:08:32Z</time></trkpt><trkpt lat="42.273641572714055" lon="14.42451398266853"><ele>98.0</ele><time>2026-03-22T10:08:33Z</time></trkpt><trkpt lat="42.273722992675" lon="14.424506172475178"><ele>97.99999999999999</ele><time>2026-03-22T10:08:34Z</time></trkpt><trkpt lat="42.27381501911404" lon="14.424521041096915"><ele>98.0</ele><time>2026-03-22T10:08:35Z</time></trkpt><trkpt lat="42.27390951730718" lon="14.424525129686439"><ele>98.0</ele><time>2026-03-22T10:08:36Z</time></trkpt><trkpt lat="42.27399029050153" lon="14.42451426157171"><ele>98.0</ele><time>2026-03-22T10:08:37Z</time></trkpt><trkpt lat="42.27406643089651" lon="14.424482265454266"><ele>97.99999999999999</ele><time>2026-03-22T10:08:38Z</time></trkpt><trkpt lat="42.27414616850464" lon="14.424441371684312"><ele>98.0</ele><time>2026-03-22T10:08:39Z</time></trkpt><trkpt lat="42.27422570766455" lon="14.4244092358772"><ele>95.49999999999999</ele><time>2026-03-22T10:08:40Z</time></trkpt><trkpt lat="42.27430661360184" lon="14.424384612897553"><ele>93.0</ele><time>2026-03-22T10:08:41Z</time></trkpt><trkpt lat="42.27437367231715" lon="14.4243286145785"><ele>90.5</ele><time>2026-03-22T10:08:42Z</time></trkpt><trkpt lat="42.2744495555156" lon="14.424322732780976"><ele>88.0</ele><time>2026-03-22T10:08:43Z</time></trkpt><trkpt lat="42.27454000923897" lon="14.424320114401771"><ele>85.5</ele><time>2026-03-22T10:08:44Z</time></trkpt><trkpt lat="42.27461309090246" lon="14.424306477331442"><ele>83.0</ele><time>2026-03-22T10:08:45Z</time></trkpt><trkpt lat="42.27468155287581" lon="14.424263956085232"><ele>83.0</ele><time>2026-03-22T10:08:46Z</time></trkpt><trkpt lat="42.2747363475152" lon="14.424208539836206"><ele>83.0</ele><time>2026-03-22T10:08:47Z</time></trkpt><trkpt lat="42.27480263714406" lon="14.424133455589411"><ele>83.0</ele><time>2026-03-22T10:08:48Z</time></trkpt><trkpt lat="42.2748599310729" lon="14.424046365804264"><ele>83.0</ele><time>2026-03-22T10:08:49Z</time></trkpt><trkpt lat="42.27491811333256" lon="14.423968743907611"><ele>83.0</ele><time>2026-03-22T10:08:50Z</time></trkpt><trkpt lat="42.27503114338439" lon="14.423872544053777"><ele>81.66666666666667</ele><time>2026-03-22T10:08:52Z</time></trkpt><trkpt lat="42.27512102434321" lon="14.423846361034817"><ele>80.33333333333334</ele><time>2026-03-22T10:08:53Z</time></trkpt><trkpt lat="42.27521284615148" lon="14.4238321425553"><ele>79.0</ele><time>2026-03-22T10:08:54Z</time></trkpt><trkpt lat="42.27530395427221" lon="14.423847550440216"><ele>77.66666666666667</ele><time>2026-03-22T10:08:55Z</time></trkpt><trkpt lat="42.275369640427755" lon="14.42387648459929"><ele>76.33333333333333</ele><time>2026-03-22T10:08:56Z</time></trkpt><trkpt lat="42.27542034235843" lon="14.423934635669319"><ele>75.0</ele><time>2026-03-22T10:08:57Z</time></trkpt><trkpt lat="42.27546637288599" lon="14.424015267072345"><ele>75.0</ele><time>2026-03-22T10:08:58Z</time></trkpt><trkpt lat="42.27548971021261" lon="14.424113583293765"><ele>75.0</ele><time>2026-03-22T10:08:59Z</time></trkpt><trkpt lat="42.27553876756803" lon="14.424205794334476"><ele>75.0</ele><time>2026-03-22T10:09:00Z</time></trkpt><trkpt lat="42.275603890759626" lon="14.424275963754814"><ele>75.0</ele><time>2026-03-22T10:09:01Z</time></trkpt><trkpt lat="42.27568076184501" lon="14.424322270270125"><ele>75.0</ele><time>2026-03-22T10:09:02Z</time></trkpt><trkpt lat="42.27576257702273" lon="14.42434186078439"><ele>75.0</ele><time>2026-03-22T10:09:03Z</time></trkpt><trkpt lat="42.27583466945247" lon="14.42437320510282"><ele>74.83333333333333</ele><time>2026-03-22T10:09:04Z</time></trkpt><trkpt lat="42.27589709423205" lon="14.424461875234101"><ele>74.66666666666667</ele><time>2026-03-22T10:09:05Z</time></trkpt><trkpt lat="42.27592825227209" lon="14.424574548867483"><ele>74.5</ele><time>2026-03-22T10:09:06Z</time></trkpt><trkpt lat="42.275941734169514" lon="14.424667105670972"><ele>74.33333333333334</ele><time>2026-03-22T10:09:07Z</time></trkpt><trkpt lat="42.27603442590643" lon="14.424742938415335"><ele>74.16666666666667</ele><time>2026-03-22T10:09:09Z</time></trkpt><trkpt lat="42.27610813567078" lon="14.42471318265139"><ele>74.0</ele><time>2026-03-22T10:09:10Z</time></trkpt><trkpt lat="42.27617885217292" lon="14.424660988305297"><ele>74.0</ele><time>2026-03-22T10:09:11Z</time></trkpt><trkpt lat="42.27620312077455" lon="14.424557839624914"><ele>74.0</ele><time>2026-03-22T10:09:12Z</time></trkpt><trkpt lat="42.27624285187447" lon="14.424449744548532"><ele>74.0</ele><time>2026-03-22T10:09:13Z</time></trkpt><trkpt lat="42.27624606016638" lon="14.424361190837766"><ele>74.0</ele><time>2026-03-22T10:09:14Z</time></trkpt><trkpt lat="42.276253318764745" lon="14.424243255961848"><ele>74.0</ele><time>2026-03-22T10:09:16Z</time></trkpt><trkpt lat="42.2761872090982" lon="14.42413663770952"><ele>74.0</ele><time>2026-03-22T10:09:18Z</time></trkpt><trkpt lat="42.27636487253043" lon="14.424125082753033"><ele>74.0</ele><time>2026-03-22T10:09:22Z</time></trkpt><trkpt lat="42.2764368449977" lon="14.424150164856199"><ele>74.0</ele><time>2026-03-22T10:09:23Z</time></trkpt><trkpt lat="42.276491730218275" lon="14.424305449800528"><ele>74.0</ele><time>2026-03-22T10:09:25Z</time></trkpt><trkpt lat="42.27653883719647" lon="14.42437711493105"><ele>74.0</ele><time>2026-03-22T10:09:26Z</time></trkpt><trkpt lat="42.27663014780226" lon="14.424428021062685"><ele>74.0</ele><time>2026-03-22T10:09:27Z</time></trkpt><trkpt lat="42.276734939948746" lon="14.424491034608904"><ele>74.0</ele><time>2026-03-22T10:09:28Z</time></trkpt><trkpt lat="42.2768077336989" lon="14.424582419011898"><ele>74.0</ele><time>2026-03-22T10:09:29Z</time></trkpt><trkpt lat="42.27682883708576" lon="14.424667609326452"><ele>74.0</ele><time>2026-03-22T10:09:30Z</time></trkpt><trkpt lat="42.276812904085126" lon="14.424792565109259"><ele>74.0</ele><time>2026-03-22T10:09:32Z</time></trkpt><trkpt lat="42.27687017627902" lon="14.424858033114187"><ele>74.0</ele><time>2026-03-22T10:09:33Z</time></trkpt><trkpt lat="42.27693819009868" lon="14.424932129235884"><ele>74.0</ele><time>2026-03-22T10:09:34Z</time></trkpt><trkpt lat="42.27699511161261" lon="14.425030617190066"><ele>74.0</ele><time>2026-03-22T10:09:35Z</time></trkpt><trkpt lat="42.27705134956497" lon="14.42508892467601"><ele>74.0</ele><time>2026-03-22T10:09:36Z</time></trkpt><trkpt lat="42.27711932265765" lon="14.425092738955229"><ele>74.0</ele><time>2026-03-22T10:09:37Z</time></trkpt><trkpt lat="42.277194980075876" lon="14.425108741423607"><ele>74.0</ele><time>2026-03-22T10:09:38Z</time></trkpt><trkpt lat="42.27725032767385" lon="14.425168103707518"><ele>74.0</ele><time>2026-03-22T10:09:39Z</time></trkpt><trkpt lat="42.27729589298855" lon="14.425263439468658"><ele>74.0</ele><time>2026-03-22T10:09:40Z</time></trkpt><trkpt lat="42.27734236146547" lon="14.425376734442606"><ele>74.0</ele><time>2026-03-22T10:09:41Z</time></trkpt><trkpt lat="42.27738953799959" lon="14.425471358113045"><ele>74.0</ele><time>2026-03-22T10:09:42Z</time></trkpt><trkpt lat="42.27744257352345" lon="14.42552078137046"><ele>74.0</ele><time>2026-03-22T10:09:43Z</time></trkpt><trkpt lat="42.27751902128595" lon="14.425529618814595"><ele>74.0</ele><time>2026-03-22T10:09:44Z</time></trkpt><trkpt lat="42.277591259700614" lon="14.425506992107339"><ele>74.0</ele><time>2026-03-22T10:09:45Z</time></trkpt><trkpt lat="42.27766033574215" lon="14.425478259198467"><ele>74.0</ele><time>2026-03-22T10:09:46Z</time></trkpt><trkpt lat="42.2777112925015" lon="14.425400762381019"><ele>74.0</ele><time>2026-03-22T10:09:47Z</time></trkpt><trkpt lat="42.27775299347835" lon="14.425295369538997"><ele>74.0</ele><time>2026-03-22T10:09:48Z</time></trkpt><trkpt lat="42.27779121170644" lon="14.425173451703676"><ele>74.0</ele><time>2026-03-22T10:09:49Z</time></trkpt><trkpt lat="42.27789598340266" lon="14.425122999726481"><ele>74.0</ele><time>2026-03-22T10:09:51Z</time></trkpt><trkpt lat="42.277939584686294" lon="14.425190884818402"><ele>74.0</ele><time>2026-03-22T10:09:52Z</time></trkpt><trkpt lat="42.27803587297336" lon="14.42533412716682"><ele>74.0</ele><time>2026-03-22T10:09:54Z</time></trkpt><trkpt lat="42.278114192552074" lon="14.425425899206637"><ele>74.66666666666667</ele><time>2026-03-22T10:09:56Z</time></trkpt><trkpt lat="42.27817618349826" lon="14.425572378686379"><ele>75.33333333333334</ele><time>2026-03-22T10:09:58Z</time></trkpt><trkpt lat="42.27820619399318" lon="14.425654688531308"><ele>76.0</ele><time>2026-03-22T10:09:59Z</time></trkpt><trkpt lat="42.27824706320298" lon="14.425741863639164"><ele>76.66666666666667</ele><time>2026-03-22T10:10:00Z</time></trkpt><trkpt lat="42.278291930862636" lon="14.425819935647796"><ele>77.33333333333333</ele><time>2026-03-22T10:10:01Z</time></trkpt><trkpt lat="42.27834725307645" lon="14.425923260978314"><ele>78.0</ele><time>2026-03-22T10:10:02Z</time></trkpt><trkpt lat="42.27838669184595" lon="14.426004422428923"><ele>78.0</ele><time>2026-03-22T10:10:03Z</time></trkpt><trkpt lat="42.27846022463167" lon="14.426140892300996"><ele>78.0</ele><time>2026-03-22T10:10:05Z</time></trkpt><trkpt lat="42.2784986125711" lon="14.426280349226966"><ele>78.0</ele><time>2026-03-22T10:10:07Z</time></trkpt><trkpt lat="42.27852865826537" lon="14.426357187327056"><ele>78.0</ele><time>2026-03-22T10:10:08Z</time></trkpt><trkpt lat="42.278556323703796" lon="14.426441111036763"><ele>78.0</ele><time>2026-03-22T10:10:09Z</time></trkpt><trkpt lat="42.27860107138276" lon="14.42653219510527"><ele>78.0</ele><time>2026-03-22T10:10:10Z</time></trkpt><trkpt lat="42.27864290269253" lon="14.426620112187543"><ele>76.83333333333333</ele><time>2026-03-22T10:10:11Z</time></trkpt><trkpt lat="42.27868569130947" lon="14.426746425964021"><ele>75.66666666666667</ele><time>2026-03-22T10:10:13Z</time></trkpt><trkpt lat="42.27859829171399" lon="14.42681076659802"><ele>74.5</ele><time>2026-03-22T10:10:15Z</time></trkpt><trkpt lat="42.27851603196689" lon="14.426821503763565"><ele>73.33333333333334</ele><time>2026-03-22T10:10:16Z</time></trkpt><trkpt lat="42.27844410758288" lon="14.426842684539617"><ele>72.16666666666667</ele><time>2026-03-22T10:10:17Z</time></trkpt><trkpt lat="42.27837930808515" lon="14.426871983691179"><ele>71.0</ele><time>2026-03-22T10:10:18Z</time></trkpt><trkpt lat="42.27828859584574" lon="14.426907843852455"><ele>71.0</ele><time>2026-03-22T10:10:20Z</time></trkpt><trkpt lat="42.278296573117665" lon="14.427013688622992"><ele>71.0</ele><time>2026-03-22T10:10:23Z</time></trkpt><trkpt lat="42.2783378473051" lon="14.42713498674354"><ele>71.0</ele><time>2026-03-22T10:10:26Z</time></trkpt><trkpt lat="42.27836789101798" lon="14.427263801483111"><ele>71.0</ele><time>2026-03-22T10:10:30Z</time></trkpt><trkpt lat="42.27841062515441" lon="14.427385466732051"><ele>71.0</ele><time>2026-03-22T10:10:33Z</time></trkpt><trkpt lat="42.27849868121389" lon="14.427492581316256"><ele>70.6</ele><time>2026-03-22T10:10:35Z</time></trkpt><trkpt lat="42.27857244891176" lon="14.427596787712238"><ele>70.19999999999999</ele><time>2026-03-22T10:10:37Z</time></trkpt><trkpt lat="42.27863466426864" lon="14.427655033442058"><ele>69.80000000000001</ele><time>2026-03-22T10:10:39Z</time></trkpt><trkpt lat="42.27872839625491" lon="14.427648276671153"><ele>69.4</ele><time>2026-03-22T10:10:41Z</time></trkpt><trkpt lat="42.27883017913413" lon="14.427631905457226"><ele>69.0</ele><time>2026-03-22T10:10:43Z</time></trkpt><trkpt lat="42.278943241964434" lon="14.427684986899663"><ele>68.42857142857143</ele><time>2026-03-22T10:10:45Z</time></trkpt><trkpt lat="42.27901146957547" lon="14.427709517380734"><ele>67.85714285714286</ele><time>2026-03-22T10:10:46Z</time></trkpt><trkpt lat="42.27908119372657" lon="14.427738000167516"><ele>67.28571428571429</ele><time>2026-03-22T10:10:47Z</time></trkpt><trkpt lat="42.27914265327329" lon="14.427774823348113"><ele>66.71428571428572</ele><time>2026-03-22T10:10:48Z</time></trkpt><trkpt lat="42.27921650134075" lon="14.427798947872864"><ele>66.14285714285714</ele><time>2026-03-22T10:10:49Z</time></trkpt><trkpt lat="42.279281764502265" lon="14.427833161914213"><ele>65.57142857142858</ele><time>2026-03-22T10:10:50Z</time></trkpt><trkpt lat="42.27932866661565" lon="14.427918983468254"><ele>65.0</ele><time>2026-03-22T10:10:51Z</time></trkpt><trkpt lat="42.27939157378276" lon="14.428043714057162"><ele>65.0</ele><time>2026-03-22T10:10:52Z</time></trkpt><trkpt lat="42.27945574364386" lon="14.428185631279309"><ele>65.0</ele><time>2026-03-22T10:10:53Z</time></trkpt><trkpt lat="42.27953303780135" lon="14.428325635009546"><ele>65.0</ele><time>2026-03-22T10:10:54Z</time></trkpt><trkpt lat="42.27959895735927" lon="14.428443263725866"><ele>65.0</ele><time>2026-03-22T10:10:55Z</time></trkpt><trkpt lat="42.27966834914339" lon="14.428534614364626"><ele>65.0</ele><time>2026-03-22T10:10:56Z</time></trkpt><trkpt lat="42.279736885698156" lon="14.428652672326523"><ele>65.0</ele><time>2026-03-22T10:10:57Z</time></trkpt><trkpt lat="42.279805348722405" lon="14.428799143760019"><ele>65.0</ele><time>2026-03-22T10:10:58Z</time></trkpt><trkpt lat="42.279882066412284" lon="14.428923976742949"><ele>65.0</ele><time>2026-03-22T10:10:59Z</time></trkpt><trkpt lat="42.27995643821739" lon="14.429028583592295"><ele>66.0</ele><time>2026-03-22T10:11:00Z</time></trkpt><trkpt lat="42.28004610598094" lon="14.429105254368226"><ele>67.0</ele><time>2026-03-22T10:11:01Z</time></trkpt><trkpt lat="42.28014235717451" lon="14.429177572785239"><ele>68.0</ele><time>2026-03-22T10:11:02Z</time></trkpt><trkpt lat="42.28022901922272" lon="14.429281054804978"><ele>69.0</ele><time>2026-03-22T10:11:03Z</time></trkpt><trkpt lat="42.280303555220286" lon="14.42938078817088"><ele>70.0</ele><time>2026-03-22T10:11:04Z</time></trkpt><trkpt lat="42.280384644249594" lon="14.429472512934769"><ele>70.0</ele><time>2026-03-22T10:11:05Z</time></trkpt><trkpt lat="42.28045771494393" lon="14.429547528978926"><ele>70.0</ele><time>2026-03-22T10:11:06Z</time></trkpt><trkpt lat="42.280510684979205" lon="14.429614571380148"><ele>70.0</ele><time>2026-03-22T10:11:07Z</time></trkpt><trkpt lat="42.28057119285372" lon="14.42969693757431"><ele>70.0</ele><time>2026-03-22T10:11:09Z</time></trkpt><trkpt lat="42.28066525014841" lon="14.429811442861501"><ele>70.0</ele><time>2026-03-22T10:11:11Z</time></trkpt><trkpt lat="42.28069486063928" lon="14.429905900788814"><ele>68.0</ele><time>2026-03-22T10:11:13Z</time></trkpt><trkpt lat="42.28059734132362" lon="14.429882903024183"><ele>66.0</ele><time>2026-03-22T10:11:16Z</time></trkpt><trkpt lat="42.28057325003425" lon="14.429977553306943"><ele>64.0</ele><time>2026-03-22T10:11:19Z</time></trkpt><trkpt lat="42.28045713450985" lon="14.43008472042421"><ele>62.0</ele><time>2026-03-22T10:11:21Z</time></trkpt><trkpt lat="42.28039902668779" lon="14.430401841654799"><ele>61.0</ele><time>2026-03-22T10:11:23Z</time></trkpt><trkpt lat="42.28031020930672" lon="14.43058728791278"><ele>60.0</ele><time>2026-03-22T10:11:24Z</time></trkpt><trkpt lat="42.28022264656658" lon="14.43069769229375"><ele>59.0</ele><time>2026-03-22T10:11:25Z</time></trkpt><trkpt lat="42.28012693260108" lon="14.430815233800507"><ele>58.0</ele><time>2026-03-22T10:11:26Z</time></trkpt><trkpt lat="42.28004802132921" lon="14.430932810293996"><ele>57.99999999999999</ele><time>2026-03-22T10:11:27Z</time></trkpt><trkpt lat="42.280000299734695" lon="14.431030073301443"><ele>58.0</ele><time>2026-03-22T10:11:28Z</time></trkpt><trkpt lat="42.27995413765368" lon="14.431105903615872"><ele>58.0</ele><time>2026-03-22T10:11:29Z</time></trkpt><trkpt lat="42.279894464249935" lon="14.431138333294987"><ele>58.0</ele><time>2026-03-22T10:11:30Z</time></trkpt><trkpt lat="42.27981698344339" lon="14.431151037895958"><ele>57.99999999999999</ele><time>2026-03-22T10:11:31Z</time></trkpt><trkpt lat="42.279750878863084" lon="14.431224953946366"><ele>58.0</ele><time>2026-03-22T10:11:33Z</time></trkpt><trkpt lat="42.27978962647208" lon="14.431392443886981"><ele>58.4</ele><time>2026-03-22T10:11:35Z</time></trkpt><trkpt lat="42.27979213662588" lon="14.431484628666531"><ele>58.8</ele><time>2026-03-22T10:11:36Z</time></trkpt><trkpt lat="42.27980706450187" lon="14.431615281662104"><ele>59.2</ele><time>2026-03-22T10:11:38Z</time></trkpt><trkpt lat="42.27990558277317" lon="14.431724401672435"><ele>59.6</ele><time>2026-03-22T10:11:40Z</time></trkpt><trkpt lat="42.27996377261153" lon="14.431818009503571"><ele>60.0</ele><time>2026-03-22T10:11:41Z</time></trkpt><trkpt lat="42.28004769722053" lon="14.431919276084011"><ele>60.0</ele><time>2026-03-22T10:11:42Z</time></trkpt><trkpt lat="42.280139260761764" lon="14.431995123816522"><ele>60.0</ele><time>2026-03-22T10:11:43Z</time></trkpt><trkpt lat="42.28024315169376" lon="14.432042033248441"><ele>60.0</ele><time>2026-03-22T10:11:44Z</time></trkpt><trkpt lat="42.280342518894365" lon="14.432071392238063"><ele>60.0</ele><time>2026-03-22T10:11:45Z</time></trkpt><trkpt lat="42.28046271306343" lon="14.432109725708383"><ele>60.0</ele><time>2026-03-22T10:11:46Z</time></trkpt><trkpt lat="42.28055621096996" lon="14.43217812355963"><ele>60.6</ele><time>2026-03-22T10:11:47Z</time></trkpt><trkpt lat="42.280631010085955" lon="14.432237429262267"><ele>61.2</ele><time>2026-03-22T10:11:48Z</time></trkpt><trkpt lat="42.28067392321852" lon="14.432335769602206"><ele>61.8</ele><time>2026-03-22T10:11:50Z</time></trkpt><trkpt lat="42.28061514677729" lon="14.432484178852418"><ele>62.4</ele><time>2026-03-22T10:11:52Z</time></trkpt><trkpt lat="42.28054741748121" lon="14.432637436617101"><ele>63.0</ele><time>2026-03-22T10:11:53Z</time></trkpt><trkpt lat="42.280478178166796" lon="14.432792968302836"><ele>63.8</ele><time>2026-03-22T10:11:54Z</time></trkpt><trkpt lat="42.280427145081056" lon="14.432935857906111"><ele>64.6</ele><time>2026-03-22T10:11:55Z</time></trkpt><trkpt lat="42.28038427233656" lon="14.433043577632482"><ele>65.4</ele><time>2026-03-22T10:11:56Z</time></trkpt><trkpt lat="42.2802857055196" lon="14.433119453035316"><ele>66.2</ele><time>2026-03-22T10:11:58Z</time></trkpt><trkpt lat="42.280197708331" lon="14.433117849509374"><ele>67.0</ele><time>2026-03-22T10:11:59Z</time></trkpt><trkpt lat="42.2801083225216" lon="14.433140902850674"><ele>69.75</ele><time>2026-03-22T10:12:00Z</time></trkpt><trkpt lat="42.280036956619384" lon="14.433176862145038"><ele>72.5</ele><time>2026-03-22T10:12:01Z</time></trkpt><trkpt lat="42.27991767850956" lon="14.433371071269194"><ele>75.25</ele><time>2026-03-22T10:12:03Z</time></trkpt><trkpt lat="42.279838680385375" lon="14.433520580432857"><ele>78.0</ele><time>2026-03-22T10:12:04Z</time></trkpt><trkpt lat="42.279760553640756" lon="14.43367241223422"><ele>79.6</ele><time>2026-03-22T10:12:05Z</time></trkpt><trkpt lat="42.27967107890019" lon="14.43380023707743"><ele>81.19999999999999</ele><time>2026-03-22T10:12:06Z</time></trkpt><trkpt lat="42.279578909488535" lon="14.433886108692366"><ele>82.8</ele><time>2026-03-22T10:12:07Z</time></trkpt><trkpt lat="42.2795211941439" lon="14.433977352844295"><ele>84.39999999999999</ele><time>2026-03-22T10:12:08Z</time></trkpt><trkpt lat="42.279466991853205" lon="14.434102799500955"><ele>86.0</ele><time>2026-03-22T10:12:09Z</time></trkpt><trkpt lat="42.27940841977338" lon="14.43424313760033"><ele>87.83333333333334</ele><time>2026-03-22T10:12:10Z</time></trkpt><trkpt lat="42.27935298582155" lon="14.434378481204618"><ele>89.66666666666667</ele><time>2026-03-22T10:12:11Z</time></trkpt><trkpt lat="42.279334655666524" lon="14.434487219824307"><ele>91.5</ele><time>2026-03-22T10:12:12Z</time></trkpt><trkpt lat="42.279289346420015" lon="14.434572499865167"><ele>93.33333333333334</ele><time>2026-03-22T10:12:14Z</time></trkpt><trkpt lat="42.279216451513925" lon="14.434576043490887"><ele>95.16666666666667</ele><time>2026-03-22T10:12:15Z</time></trkpt><trkpt lat="42.27913324692715" lon="14.43458641348553"><ele>97.0</ele><time>2026-03-22T10:12:16Z</time></trkpt><trkpt lat="42.27902885407751" lon="14.434636657487566"><ele>99.0</ele><time>2026-03-22T10:12:17Z</time></trkpt><trkpt lat="42.278931686522164" lon="14.434723556816706"><ele>101.0</ele><time>2026-03-22T10:12:18Z</time></trkpt><trkpt lat="42.27882062509517" lon="14.434753400094365"><ele>102.99999999999999</ele><time>2026-03-22T10:12:19Z</time></trkpt><trkpt lat="42.27871612540585" lon="14.43478141999585"><ele>105.0</ele><time>2026-03-22T10:12:20Z</time></trkpt><trkpt lat="42.27862718883961" lon="14.434805162863764"><ele>107.0</ele><time>2026-03-22T10:12:22Z</time></trkpt><trkpt lat="42.27853542087233" lon="14.43473868604086"><ele>107.0</ele><time>2026-03-22T10:12:24Z</time></trkpt><trkpt lat="42.27842521653056" lon="14.434859082269877"><ele>106.99999999999999</ele><time>2026-03-22T10:12:26Z</time></trkpt><trkpt lat="42.27833934097454" lon="14.434882007985117"><ele>106.99999999999999</ele><time>2026-03-22T10:12:27Z</time></trkpt><trkpt lat="42.27825129727956" lon="14.4349055125142"><ele>107.0</ele><time>2026-03-22T10:12:28Z</time></trkpt><trkpt lat="42.27817823199304" lon="14.434925018356237"><ele>107.0</ele><time>2026-03-22T10:12:29Z</time></trkpt><trkpt lat="42.27810381541194" lon="14.434944884917755"><ele>107.39999999999999</ele><time>2026-03-22T10:12:30Z</time></trkpt><trkpt lat="42.27799046319588" lon="14.434975145906408"><ele>107.79999999999998</ele><time>2026-03-22T10:12:31Z</time></trkpt><trkpt lat="42.2779071154397" lon="14.434997396784652"><ele>108.2</ele><time>2026-03-22T10:12:32Z</time></trkpt><trkpt lat="42.27783953520609" lon="14.435015438312876"><ele>108.6</ele><time>2026-03-22T10:12:33Z</time></trkpt><trkpt lat="42.27770451059013" lon="14.435051485074888"><ele>109.0</ele><time>2026-03-22T10:12:35Z</time></trkpt><trkpt lat="42.27766617596942" lon="14.435153653782285"><ele>109.0</ele><time>2026-03-22T10:12:39Z</time></trkpt><trkpt lat="42.277666124663064" lon="14.435268185519499"><ele>109.0</ele><time>2026-03-22T10:12:40Z</time></trkpt><trkpt lat="42.2776694497421" lon="14.435392266312519"><ele>109.0</ele><time>2026-03-22T10:12:41Z</time></trkpt><trkpt lat="42.27766228413938" lon="14.43549541062943"><ele>109.0</ele><time>2026-03-22T10:12:42Z</time></trkpt><trkpt lat="42.27763691856404" lon="14.435593444494412"><ele>109.0</ele><time>2026-03-22T10:12:43Z</time></trkpt><trkpt lat="42.27793718550726" lon="14.435530616302117"><ele>112.2</ele><time>2026-03-22T10:12:44Z</time></trkpt><trkpt lat="42.2780415447428" lon="14.435603759528172"><ele>115.4</ele><time>2026-03-22T10:12:45Z</time></trkpt><trkpt lat="42.27812707570271" lon="14.435681294882626"><ele>118.6</ele><time>2026-03-22T10:12:46Z</time></trkpt><trkpt lat="42.27820885721533" lon="14.43576701552475"><ele>121.8</ele><time>2026-03-22T10:12:47Z</time></trkpt><trkpt lat="42.27828649989313" lon="14.43585513615291"><ele>125.0</ele><time>2026-03-22T10:12:48Z</time></trkpt><trkpt lat="42.278381725082525" lon="14.435938494152452"><ele>125.0</ele><time>2026-03-22T10:12:49Z</time></trkpt><trkpt lat="42.2784947953067" lon="14.436026238588058"><ele>125.0</ele><time>2026-03-22T10:12:50Z</time></trkpt><trkpt lat="42.27863464293464" lon="14.436090613270396"><ele>125.0</ele><time>2026-03-22T10:12:51Z</time></trkpt><trkpt lat="42.2787600758998" lon="14.436180615648109"><ele>125.0</ele><time>2026-03-22T10:12:52Z</time></trkpt><trkpt lat="42.27888209581938" lon="14.43625795012538"><ele>130.0</ele><time>2026-03-22T10:12:53Z</time></trkpt><trkpt lat="42.279007168683684" lon="14.436341479229304"><ele>135.0</ele><time>2026-03-22T10:12:54Z</time></trkpt><trkpt lat="42.27912680516035" lon="14.436411591045552"><ele>140.0</ele><time>2026-03-22T10:12:55Z</time></trkpt><trkpt lat="42.279215103774646" lon="14.436475704839417"><ele>145.0</ele><time>2026-03-22T10:12:57Z</time></trkpt><trkpt lat="42.27930441395811" lon="14.436490073225189"><ele>145.0</ele><time>2026-03-22T10:12:59Z</time></trkpt><trkpt lat="42.27938771052063" lon="14.436456765244738"><ele>145.0</ele><time>2026-03-22T10:13:00Z</time></trkpt><trkpt lat="42.2794678052021" lon="14.4364390883086"><ele>145.0</ele><time>2026-03-22T10:13:01Z</time></trkpt><trkpt lat="42.27958199521805" lon="14.43636368522379"><ele>145.0</ele><time>2026-03-22T10:13:03Z</time></trkpt><trkpt lat="42.27968490360826" lon="14.436273859952841"><ele>145.0</ele><time>2026-03-22T10:13:05Z</time></trkpt><trkpt lat="42.27972097163791" lon="14.436195466116123"><ele>141.0</ele><time>2026-03-22T10:13:07Z</time></trkpt><trkpt lat="42.279745046557466" lon="14.436100603774323"><ele>137.0</ele><time>2026-03-22T10:13:11Z</time></trkpt><trkpt lat="42.279717791214864" lon="14.436018572744253"><ele>133.0</ele><time>2026-03-22T10:13:12Z</time></trkpt><trkpt lat="42.27970147381062" lon="14.435933047807492"><ele>129.0</ele><time>2026-03-22T10:13:13Z</time></trkpt><trkpt lat="42.27970660150809" lon="14.435805252006032"><ele>125.00000000000001</ele><time>2026-03-22T10:13:14Z</time></trkpt><trkpt lat="42.27972384718478" lon="14.435671582787613"><ele>121.0</ele><time>2026-03-22T10:13:15Z</time></trkpt><trkpt lat="42.2797543521903" lon="14.435531748327298"><ele>118.0</ele><time>2026-03-22T10:13:16Z</time></trkpt><trkpt lat="42.2797666188864" lon="14.435410292528246"><ele>115.0</ele><time>2026-03-22T10:13:17Z</time></trkpt><trkpt lat="42.27978278605439" lon="14.435271135667959"><ele>112.0</ele><time>2026-03-22T10:13:18Z</time></trkpt><trkpt lat="42.279802411567715" lon="14.435136021544409"><ele>109.0</ele><time>2026-03-22T10:13:19Z</time></trkpt><trkpt lat="42.27981559806156" lon="14.43502008502201"><ele>106.0</ele><time>2026-03-22T10:13:20Z</time></trkpt><trkpt lat="42.27982385868852" lon="14.434926755869942"><ele>104.8</ele><time>2026-03-22T10:13:21Z</time></trkpt><trkpt lat="42.279888191965604" lon="14.434859636269444"><ele>103.6</ele><time>2026-03-22T10:13:23Z</time></trkpt><trkpt lat="42.27997999404404" lon="14.43483795196701"><ele>102.4</ele><time>2026-03-22T10:13:24Z</time></trkpt><trkpt lat="42.28007788821229" lon="14.434714377210831"><ele>101.2</ele><time>2026-03-22T10:13:25Z</time></trkpt><trkpt lat="42.280200682674945" lon="14.434682319433714"><ele>100.0</ele><time>2026-03-22T10:13:26Z</time></trkpt><trkpt lat="42.280300092301744" lon="14.434656366716661"><ele>98.0</ele><time>2026-03-22T10:13:27Z</time></trkpt><trkpt lat="42.28040614985477" lon="14.434628678437951"><ele>96.0</ele><time>2026-03-22T10:13:28Z</time></trkpt><trkpt lat="42.28052163424007" lon="14.434598529084315"><ele>94.0</ele><time>2026-03-22T10:13:29Z</time></trkpt><trkpt lat="42.28062785104578" lon="14.434570257881576"><ele>92.0</ele><time>2026-03-22T10:13:30Z</time></trkpt><trkpt lat="42.280753258181015" lon="14.434536658798198"><ele>91.75</ele><time>2026-03-22T10:13:31Z</time></trkpt><trkpt lat="42.28086967268793" lon="14.434505469021252"><ele>91.5</ele><time>2026-03-22T10:13:32Z</time></trkpt><trkpt lat="42.280988887861994" lon="14.434475319245179"><ele>91.25</ele><time>2026-03-22T10:13:33Z</time></trkpt><trkpt lat="42.28110427908612" lon="14.434447271572783"><ele>91.0</ele><time>2026-03-22T10:13:34Z</time></trkpt><trkpt lat="42.28121631751836" lon="14.434421347950552"><ele>91.0</ele><time>2026-03-22T10:13:35Z</time></trkpt><trkpt lat="42.2813227069866" lon="14.43439754995197"><ele>91.0</ele><time>2026-03-22T10:13:36Z</time></trkpt><trkpt lat="42.2814070261805" lon="14.434378688805872"><ele>91.0</ele><time>2026-03-22T10:13:37Z</time></trkpt><trkpt lat="42.28148587550179" lon="14.434361051212354"><ele>91.0</ele><time>2026-03-22T10:13:38Z</time></trkpt><trkpt lat="42.281565477895356" lon="14.434361424408118"><ele>91.0</ele><time>2026-03-22T10:13:44Z</time></trkpt><trkpt lat="42.28159691400434" lon="14.43460385731142"><ele>93.83333333333333</ele><time>2026-03-22T10:13:45Z</time></trkpt><trkpt lat="42.281603651916576" lon="14.434705302319495"><ele>96.66666666666666</ele><time>2026-03-22T10:13:46Z</time></trkpt><trkpt lat="42.281685352573184" lon="14.434830371544667"><ele>99.5</ele><time>2026-03-22T10:13:48Z</time></trkpt><trkpt lat="42.28176268485339" lon="14.434886530794733"><ele>102.33333333333333</ele><time>2026-03-22T10:13:49Z</time></trkpt><trkpt lat="42.28183104557064" lon="14.434924197968105"><ele>105.16666666666667</ele><time>2026-03-22T10:13:50Z</time></trkpt><trkpt lat="42.28189769625806" lon="14.434950266192166"><ele>108.0</ele><time>2026-03-22T10:13:51Z</time></trkpt><trkpt lat="42.28197614586472" lon="14.434981118893498"><ele>108.0</ele><time>2026-03-22T10:13:52Z</time></trkpt><trkpt lat="42.28205682561981" lon="14.43499886618433"><ele>108.0</ele><time>2026-03-22T10:13:53Z</time></trkpt><trkpt lat="42.282136370848555" lon="14.435003671546156"><ele>108.0</ele><time>2026-03-22T10:13:54Z</time></trkpt><trkpt lat="42.28221842057767" lon="14.43503277665302"><ele>108.0</ele><time>2026-03-22T10:13:55Z</time></trkpt><trkpt lat="42.28228646855223" lon="14.43507621546144"><ele>108.0</ele><time>2026-03-22T10:13:56Z</time></trkpt><trkpt lat="42.28239823859353" lon="14.435121249834667"><ele>108.0</ele><time>2026-03-22T10:13:58Z</time></trkpt><trkpt lat="42.282481757938974" lon="14.43521074274592"><ele>108.16666666666667</ele><time>2026-03-22T10:14:00Z</time></trkpt><trkpt lat="42.28258914856561" lon="14.435239584916976"><ele>108.33333333333334</ele><time>2026-03-22T10:14:02Z</time></trkpt><trkpt lat="42.282715431386826" lon="14.43528145091563"><ele>108.5</ele><time>2026-03-22T10:14:04Z</time></trkpt><trkpt lat="42.282773674585115" lon="14.435336271874455"><ele>108.66666666666667</ele><time>2026-03-22T10:14:05Z</time></trkpt><trkpt lat="42.28283250556309" lon="14.435387626149954"><ele>108.83333333333334</ele><time>2026-03-22T10:14:44Z</time></trkpt><trkpt lat="42.28282477558364" lon="14.435479613694385"><ele>109.0</ele><time>2026-03-22T10:14:52Z</time></trkpt><trkpt lat="42.28291418805697" lon="14.435566927136255"><ele>112.00000000000001</ele><time>2026-03-22T10:16:23Z</time></trkpt><trkpt lat="42.283002268336375" lon="14.435579772592092"><ele>115.0</ele><time>2026-03-22T10:16:26Z</time></trkpt><trkpt lat="42.28302734441797" lon="14.435674277253947"><ele>118.0</ele><time>2026-03-22T10:16:28Z</time></trkpt><trkpt lat="42.28306609041137" lon="14.4357539230283"><ele>121.0</ele><time>2026-03-22T10:16:29Z</time></trkpt><trkpt lat="42.283108521863184" lon="14.435900688137068"><ele>124.00000000000001</ele><time>2026-03-22T10:16:31Z</time></trkpt><trkpt lat="42.28315979001444" lon="14.43601173067699"><ele>127.0</ele><time>2026-03-22T10:16:33Z</time></trkpt><trkpt lat="42.283283506319904" lon="14.436022473390194"><ele>127.00000000000001</ele><time>2026-03-22T10:16:58Z</time></trkpt><trkpt lat="42.28334634117968" lon="14.436028490532193"><ele>127.0</ele><time>2026-03-22T10:17:00Z</time></trkpt><trkpt lat="42.28341569872476" lon="14.436049346342525"><ele>127.0</ele><time>2026-03-22T10:17:02Z</time></trkpt><trkpt lat="42.283504190735606" lon="14.436122168370586"><ele>127.0</ele><time>2026-03-22T10:17:04Z</time></trkpt><trkpt lat="42.28359649150101" lon="14.43615866266349"><ele>127.00000000000001</ele><time>2026-03-22T10:17:06Z</time></trkpt><trkpt lat="42.283681705143586" lon="14.436171372354577"><ele>127.0</ele><time>2026-03-22T10:17:08Z</time></trkpt><trkpt lat="42.28375112199456" lon="14.436161581491932"><ele>127.00000000000001</ele><time>2026-03-22T10:17:12Z</time></trkpt><trkpt lat="42.28382360123814" lon="14.436234339740505"><ele>127.0</ele><time>2026-03-22T10:17:15Z</time></trkpt><trkpt lat="42.28391143926997" lon="14.436224954514588"><ele>127.0</ele><time>2026-03-22T10:17:17Z</time></trkpt><trkpt lat="42.28399409877157" lon="14.43615828758326"><ele>127.0</ele><time>2026-03-22T10:17:19Z</time></trkpt><trkpt lat="42.284053092340116" lon="14.43612509620509"><ele>127.00000000000001</ele><time>2026-03-22T10:17:20Z</time></trkpt><trkpt lat="42.2841441215066" lon="14.436156116576747"><ele>127.0</ele><time>2026-03-22T10:17:22Z</time></trkpt><trkpt lat="42.284199633482984" lon="14.436199329549485"><ele>128.83333333333334</ele><time>2026-03-22T10:17:24Z</time></trkpt><trkpt lat="42.284282392446684" lon="14.436262359179578"><ele>130.66666666666669</ele><time>2026-03-22T10:17:27Z</time></trkpt><trkpt lat="42.28435601797506" lon="14.436303048611062"><ele>132.5</ele><time>2026-03-22T10:17:30Z</time></trkpt><trkpt lat="42.28442025315407" lon="14.436281653752584"><ele>134.33333333333334</ele><time>2026-03-22T10:17:32Z</time></trkpt><trkpt lat="42.28451471611478" lon="14.436315706998549"><ele>136.16666666666666</ele><time>2026-03-22T10:17:35Z</time></trkpt><trkpt lat="42.284581595098246" lon="14.436315674097052"><ele>138.0</ele><time>2026-03-22T10:17:37Z</time></trkpt><trkpt lat="42.284662323597864" lon="14.436332512239337"><ele>138.0</ele><time>2026-03-22T10:17:39Z</time></trkpt><trkpt lat="42.284726714303275" lon="14.43631729432474"><ele>138.0</ele><time>2026-03-22T10:17:42Z</time></trkpt><trkpt lat="42.28480627698877" lon="14.436316176240911"><ele>138.0</ele><time>2026-03-22T10:17:46Z</time></trkpt><trkpt lat="42.28485718857389" lon="14.43636884846104"><ele>138.0</ele><time>2026-03-22T10:17:48Z</time></trkpt><trkpt lat="42.28488661351266" lon="14.436448226727379"><ele>138.0</ele><time>2026-03-22T10:17:50Z</time></trkpt><trkpt lat="42.28495105343912" lon="14.436506508292878"><ele>138.0</ele><time>2026-03-22T10:17:52Z</time></trkpt><trkpt lat="42.285014830823954" lon="14.436466291654913"><ele>138.0</ele><time>2026-03-22T10:17:55Z</time></trkpt><trkpt lat="42.285098629690246" lon="14.436499393112987"><ele>137.42857142857144</ele><time>2026-03-22T10:17:58Z</time></trkpt><trkpt lat="42.285185084055044" lon="14.436496663066587"><ele>136.85714285714286</ele><time>2026-03-22T10:18:01Z</time></trkpt><trkpt lat="42.28525538010294" lon="14.436458137086099"><ele>136.28571428571428</ele><time>2026-03-22T10:18:03Z</time></trkpt><trkpt lat="42.28532287912043" lon="14.43647509638958"><ele>135.71428571428572</ele><time>2026-03-22T10:18:07Z</time></trkpt><trkpt lat="42.285395147244444" lon="14.436468885879181"><ele>135.14285714285714</ele><time>2026-03-22T10:18:12Z</time></trkpt><trkpt lat="42.28545991772862" lon="14.436445261804888"><ele>134.57142857142858</ele><time>2026-03-22T10:18:15Z</time></trkpt><trkpt lat="42.28552539632596" lon="14.436472482127835"><ele>134.0</ele><time>2026-03-22T10:18:16Z</time></trkpt><trkpt lat="42.28562263557725" lon="14.43643810653351"><ele>132.14285714285714</ele><time>2026-03-22T10:18:19Z</time></trkpt><trkpt lat="42.285654753569254" lon="14.436521612057494"><ele>130.28571428571428</ele><time>2026-03-22T10:18:21Z</time></trkpt><trkpt lat="42.28571012123004" lon="14.43661871348659"><ele>128.42857142857142</ele><time>2026-03-22T10:18:22Z</time></trkpt><trkpt lat="42.28576299718399" lon="14.436668843435553"><ele>126.57142857142857</ele><time>2026-03-22T10:18:24Z</time></trkpt><trkpt lat="42.285823220747396" lon="14.436701508061796"><ele>124.7142857142857</ele><time>2026-03-22T10:18:25Z</time></trkpt><trkpt lat="42.285884861405435" lon="14.43672873353416"><ele>122.85714285714285</ele><time>2026-03-22T10:18:26Z</time></trkpt><trkpt lat="42.285938002490035" lon="14.436781454260867"><ele>121.0</ele><time>2026-03-22T10:18:27Z</time></trkpt><trkpt lat="42.28597218768586" lon="14.436853233981234"><ele>121.0</ele><time>2026-03-22T10:18:28Z</time></trkpt><trkpt lat="42.28614064020818" lon="14.436897754207479"><ele>121.0</ele><time>2026-03-22T10:18:32Z</time></trkpt><trkpt lat="42.28623657548681" lon="14.437025655472118"><ele>121.0</ele><time>2026-03-22T10:18:34Z</time></trkpt><trkpt lat="42.2863048880664" lon="14.437085859753209"><ele>121.0</ele><time>2026-03-22T10:18:35Z</time></trkpt><trkpt lat="42.28639013070771" lon="14.437195133957534"><ele>119.83333333333334</ele><time>2026-03-22T10:18:37Z</time></trkpt><trkpt lat="42.286452751059926" lon="14.437342263504933"><ele>118.66666666666667</ele><time>2026-03-22T10:18:39Z</time></trkpt><trkpt lat="42.28651296991785" lon="14.437402410234107"><ele>117.5</ele><time>2026-03-22T10:18:40Z</time></trkpt><trkpt lat="42.28655687776375" lon="14.437464511971342"><ele>116.33333333333334</ele><time>2026-03-22T10:18:41Z</time></trkpt><trkpt lat="42.28660023788301" lon="14.437538601082267"><ele>115.16666666666667</ele><time>2026-03-22T10:18:43Z</time></trkpt><trkpt lat="42.2866306870783" lon="14.437655587005146"><ele>114.0</ele><time>2026-03-22T10:18:45Z</time></trkpt><trkpt lat="42.28668804387007" lon="14.437792698121214"><ele>114.0</ele><time>2026-03-22T10:18:47Z</time></trkpt><trkpt lat="42.286729157596355" lon="14.43786930849558"><ele>114.0</ele><time>2026-03-22T10:18:48Z</time></trkpt><trkpt lat="42.28678011139184" lon="14.437934696669888"><ele>114.0</ele><time>2026-03-22T10:18:49Z</time></trkpt><trkpt lat="42.28683959488823" lon="14.438043201344339"><ele>114.0</ele><time>2026-03-22T10:18:50Z</time></trkpt><trkpt lat="42.28691443961852" lon="14.438179336320726"><ele>114.0</ele><time>2026-03-22T10:18:51Z</time></trkpt><trkpt lat="42.28699317185084" lon="14.438301850258242"><ele>114.5</ele><time>2026-03-22T10:18:52Z</time></trkpt><trkpt lat="42.2870410829331" lon="14.438388583374858"><ele>115.0</ele><time>2026-03-22T10:18:53Z</time></trkpt><trkpt lat="42.287086835442864" lon="14.438475474210126"><ele>115.5</ele><time>2026-03-22T10:18:55Z</time></trkpt><trkpt lat="42.287348905163086" lon="14.438382088107593"><ele>116.0</ele><time>2026-03-22T10:18:58Z</time></trkpt><trkpt lat="42.28747485472312" lon="14.438440935228833"><ele>116.0</ele><time>2026-03-22T10:19:00Z</time></trkpt><trkpt lat="42.28753990851697" lon="14.43843461802689"><ele>116.0</ele><time>2026-03-22T10:19:01Z</time></trkpt><trkpt lat="42.287621054635224" lon="14.438385127321608"><ele>116.0</ele><time>2026-03-22T10:19:03Z</time></trkpt><trkpt lat="42.287690140871746" lon="14.438385426172257"><ele>116.0</ele><time>2026-03-22T10:19:04Z</time></trkpt><trkpt lat="42.28781583348936" lon="14.43836732389866"><ele>116.0</ele><time>2026-03-22T10:19:05Z</time></trkpt><trkpt lat="42.287914106986356" lon="14.438341786781255"><ele>115.99999999999999</ele><time>2026-03-22T10:19:07Z</time></trkpt><trkpt lat="42.2880123323775" lon="14.438314125585492"><ele>116.0</ele><time>2026-03-22T10:19:08Z</time></trkpt><trkpt lat="42.2880607977751" lon="14.438244223096657"><ele>116.0</ele><time>2026-03-22T10:19:09Z</time></trkpt><trkpt lat="42.288103552912446" lon="14.438176765535696"><ele>116.0</ele><time>2026-03-22T10:19:10Z</time></trkpt><trkpt lat="42.28814327365296" lon="14.438100495658015"><ele>115.99999999999999</ele><time>2026-03-22T10:19:11Z</time></trkpt><trkpt lat="42.288203662540205" lon="14.43806026004757"><ele>116.0</ele><time>2026-03-22T10:19:12Z</time></trkpt><trkpt lat="42.28828083506285" lon="14.438033848839835"><ele>113.83333333333333</ele><time>2026-03-22T10:19:13Z</time></trkpt><trkpt lat="42.288348223569166" lon="14.438031065072494"><ele>111.66666666666666</ele><time>2026-03-22T10:19:14Z</time></trkpt><trkpt lat="42.288420521925524" lon="14.43797341965444"><ele>109.5</ele><time>2026-03-22T10:19:18Z</time></trkpt><trkpt lat="42.28848538050667" lon="14.437945235494018"><ele>107.33333333333334</ele><time>2026-03-22T10:19:19Z</time></trkpt><trkpt lat="42.28853557461387" lon="14.438003613348451"><ele>105.16666666666667</ele><time>2026-03-22T10:19:20Z</time></trkpt><trkpt lat="42.288603980507446" lon="14.438031501293155"><ele>103.0</ele><time>2026-03-22T10:19:22Z</time></trkpt><trkpt lat="42.288697811714776" lon="14.438002979893389"><ele>103.00000000000001</ele><time>2026-03-22T10:19:24Z</time></trkpt><trkpt lat="42.28881198345005" lon="14.438002171958756"><ele>103.0</ele><time>2026-03-22T10:19:28Z</time></trkpt><trkpt lat="42.28886960192073" lon="14.437956982273699"><ele>103.0</ele><time>2026-03-22T10:19:30Z</time></trkpt><trkpt lat="42.28890289603337" lon="14.437876210211401"><ele>103.0</ele><time>2026-03-22T10:19:32Z</time></trkpt><trkpt lat="42.28894204392862" lon="14.437800400402836"><ele>103.00000000000001</ele><time>2026-03-22T10:19:34Z</time></trkpt><trkpt lat="42.2889863598623" lon="14.43772972809823"><ele>103.0</ele><time>2026-03-22T10:19:36Z</time></trkpt><trkpt lat="42.28901559452039" lon="14.437615392113528"><ele>97.4</ele><time>2026-03-22T10:19:38Z</time></trkpt><trkpt lat="42.28902348324968" lon="14.437467558775923"><ele>91.80000000000001</ele><time>2026-03-22T10:19:40Z</time></trkpt><trkpt lat="42.28909817519663" lon="14.43747809367232"><ele>86.2</ele><time>2026-03-22T10:19:43Z</time></trkpt><trkpt lat="42.28922651149008" lon="14.437544681704555"><ele>80.6</ele><time>2026-03-22T10:19:46Z</time></trkpt><trkpt lat="42.28923695255565" lon="14.437456775624725"><ele>75.0</ele><time>2026-03-22T10:19:48Z</time></trkpt><trkpt lat="42.289295444696464" lon="14.437394783313342"><ele>75.0</ele><time>2026-03-22T10:19:50Z</time></trkpt><trkpt lat="42.28931569783686" lon="14.43731191212822"><ele>75.0</ele><time>2026-03-22T10:19:52Z</time></trkpt><trkpt lat="42.28928539079458" lon="14.437173917193423"><ele>75.0</ele><time>2026-03-22T10:19:54Z</time></trkpt><trkpt lat="42.28928319280227" lon="14.437066589226182"><ele>75.0</ele><time>2026-03-22T10:19:55Z</time></trkpt><trkpt lat="42.2892688304215" lon="14.436969889115673"><ele>75.0</ele><time>2026-03-22T10:19:56Z</time></trkpt><trkpt lat="42.289258155407204" lon="14.436884146049474"><ele>75.0</ele><time>2026-03-22T10:19:57Z</time></trkpt><trkpt lat="42.28928823790592" lon="14.436724531104154"><ele>73.0</ele><time>2026-03-22T10:19:59Z</time></trkpt><trkpt lat="42.28931672377861" lon="14.436631614956916"><ele>71.0</ele><time>2026-03-22T10:20:00Z</time></trkpt><trkpt lat="42.28936752973097" lon="14.436529237490051"><ele>69.0</ele><time>2026-03-22T10:20:02Z</time></trkpt><trkpt lat="42.28942580820446" lon="14.43648053816694"><ele>67.0</ele><time>2026-03-22T10:20:04Z</time></trkpt><trkpt lat="42.2894935582162" lon="14.436416298950286"><ele>65.0</ele><time>2026-03-22T10:20:07Z</time></trkpt><trkpt lat="42.28961514498041" lon="14.436145894847423"><ele>61.6</ele><time>2026-03-22T10:20:12Z</time></trkpt><trkpt lat="42.289657233468425" lon="14.43606119483358"><ele>58.2</ele><time>2026-03-22T10:20:17Z</time></trkpt><trkpt lat="42.28971129493346" lon="14.436017430828471"><ele>54.8</ele><time>2026-03-22T10:20:20Z</time></trkpt><trkpt lat="42.28976778600352" lon="14.435977433919915"><ele>51.4</ele><time>2026-03-22T10:20:24Z</time></trkpt><trkpt lat="42.28984925523134" lon="14.435903796451019"><ele>48.0</ele><time>2026-03-22T10:20:25Z</time></trkpt><trkpt lat="42.29012479879894" lon="14.435468373454174"><ele>44.75</ele><time>2026-03-22T10:20:27Z</time></trkpt><trkpt lat="42.29023276224285" lon="14.435269309953485"><ele>41.5</ele><time>2026-03-22T10:20:28Z</time></trkpt><trkpt lat="42.29033233179784" lon="14.435150990266807"><ele>38.25</ele><time>2026-03-22T10:20:29Z</time></trkpt><trkpt lat="42.29043608952294" lon="14.43507914773934"><ele>35.0</ele><time>2026-03-22T10:20:30Z</time></trkpt><trkpt lat="42.29055148975023" lon="14.435032513004433"><ele>34.25</ele><time>2026-03-22T10:20:31Z</time></trkpt><trkpt lat="42.290658207124714" lon="14.435021336651213"><ele>33.5</ele><time>2026-03-22T10:20:32Z</time></trkpt><trkpt lat="42.290777401099994" lon="14.435057851659291"><ele>32.75</ele><time>2026-03-22T10:20:33Z</time></trkpt><trkpt lat="42.29089869362973" lon="14.43513089788989"><ele>32.0</ele><time>2026-03-22T10:20:34Z</time></trkpt><trkpt lat="42.290993802542125" lon="14.43522264589261"><ele>32.0</ele><time>2026-03-22T10:20:35Z</time></trkpt><trkpt lat="42.29104636847285" lon="14.43529808532091"><ele>32.0</ele><time>2026-03-22T10:20:36Z</time></trkpt><trkpt lat="42.29106758552003" lon="14.435397390393582"><ele>32.0</ele><time>2026-03-22T10:20:37Z</time></trkpt><trkpt lat="42.29104997719419" lon="14.435530211271839"><ele>32.0</ele><time>2026-03-22T10:20:38Z</time></trkpt><trkpt lat="42.29105668694192" lon="14.435693744871887"><ele>32.0</ele><time>2026-03-22T10:20:39Z</time></trkpt><trkpt lat="42.29106485373376" lon="14.435864912210693"><ele>32.0</ele><time>2026-03-22T10:20:40Z</time></trkpt><trkpt lat="42.29110971227411" lon="14.436059879776234"><ele>32.0</ele><time>2026-03-22T10:20:41Z</time></trkpt><trkpt lat="42.29115643777072" lon="14.436204057427979"><ele>32.0</ele><time>2026-03-22T10:20:42Z</time></trkpt><trkpt lat="42.29121168339049" lon="14.436323204794098"><ele>32.0</ele><time>2026-03-22T10:20:43Z</time></trkpt><trkpt lat="42.29127110470543" lon="14.436424440409413"><ele>32.0</ele><time>2026-03-22T10:20:44Z</time></trkpt><trkpt lat="42.29135521280648" lon="14.436519863486593"><ele>32.0</ele><time>2026-03-22T10:20:45Z</time></trkpt><trkpt lat="42.291455555439725" lon="14.436586163729425"><ele>32.0</ele><time>2026-03-22T10:20:46Z</time></trkpt><trkpt lat="42.29155267627132" lon="14.436627902306991"><ele>32.0</ele><time>2026-03-22T10:20:47Z</time></trkpt><trkpt lat="42.29166502089391" lon="14.43663343960892"><ele>32.0</ele><time>2026-03-22T10:20:48Z</time></trkpt><trkpt lat="42.29179737997403" lon="14.43661016809111"><ele>32.0</ele><time>2026-03-22T10:20:49Z</time></trkpt><trkpt lat="42.29194301432604" lon="14.436602778526538"><ele>32.0</ele><time>2026-03-22T10:20:50Z</time></trkpt><trkpt lat="42.292072036735604" lon="14.436626536016641"><ele>32.0</ele><time>2026-03-22T10:20:51Z</time></trkpt><trkpt lat="42.292200059791206" lon="14.436646574216194"><ele>32.0</ele><time>2026-03-22T10:20:52Z</time></trkpt><trkpt lat="42.29232476339301" lon="14.436643454870495"><ele>31.5</ele><time>2026-03-22T10:20:53Z</time></trkpt><trkpt lat="42.2924086578195" lon="14.436593823825394"><ele>31.0</ele><time>2026-03-22T10:20:54Z</time></trkpt><trkpt lat="42.29249353574371" lon="14.436494639567607"><ele>30.5</ele><time>2026-03-22T10:20:55Z</time></trkpt><trkpt lat="42.29260827413557" lon="14.436399908491277"><ele>30.0</ele><time>2026-03-22T10:20:56Z</time></trkpt><trkpt lat="42.29271284312961" lon="14.436321395336213"><ele>30.0</ele><time>2026-03-22T10:20:57Z</time></trkpt><trkpt lat="42.29282317459885" lon="14.436256042823526"><ele>30.0</ele><time>2026-03-22T10:20:58Z</time></trkpt><trkpt lat="42.29291552271969" lon="14.436238811971172"><ele>30.0</ele><time>2026-03-22T10:20:59Z</time></trkpt><trkpt lat="42.29300584320206" lon="14.43626097415807"><ele>30.0</ele><time>2026-03-22T10:21:00Z</time></trkpt><trkpt lat="42.293109983887135" lon="14.436320182984545"><ele>30.0</ele><time>2026-03-22T10:21:01Z</time></trkpt><trkpt lat="42.29321109752987" lon="14.43639913295715"><ele>29.333333333333336</ele><time>2026-03-22T10:21:02Z</time></trkpt><trkpt lat="42.29332779424104" lon="14.4365341230138"><ele>28.666666666666668</ele><time>2026-03-22T10:21:03Z</time></trkpt><trkpt lat="42.29344947348278" lon="14.436670428864279"><ele>28.0</ele><time>2026-03-22T10:21:04Z</time></trkpt><trkpt lat="42.293560100887234" lon="14.43679661454457"><ele>28.0</ele><time>2026-03-22T10:21:05Z</time></trkpt><trkpt lat="42.293652247247934" lon="14.43693404212759"><ele>28.0</ele><time>2026-03-22T10:21:06Z</time></trkpt><trkpt lat="42.29374546347447" lon="14.437047266838755"><ele>28.0</ele><time>2026-03-22T10:21:07Z</time></trkpt><trkpt lat="42.29383932900582" lon="14.43715318645905"><ele>28.0</ele><time>2026-03-22T10:21:08Z</time></trkpt><trkpt lat="42.29395293210268" lon="14.43725011128194"><ele>28.4</ele><time>2026-03-22T10:21:09Z</time></trkpt><trkpt lat="42.294052696578085" lon="14.437331353867373"><ele>28.799999999999997</ele><time>2026-03-22T10:21:10Z</time></trkpt><trkpt lat="42.29414959044701" lon="14.437376431109431"><ele>29.2</ele><time>2026-03-22T10:21:11Z</time></trkpt><trkpt lat="42.29423410725292" lon="14.43743104907951"><ele>29.6</ele><time>2026-03-22T10:21:12Z</time></trkpt><trkpt lat="42.29433774694259" lon="14.437484368305096"><ele>30.0</ele><time>2026-03-22T10:21:13Z</time></trkpt><trkpt lat="42.29446908577503" lon="14.437525902069137"><ele>30.0</ele><time>2026-03-22T10:21:14Z</time></trkpt><trkpt lat="42.29456861033366" lon="14.437586640521019"><ele>30.0</ele><time>2026-03-22T10:21:15Z</time></trkpt><trkpt lat="42.29469440239406" lon="14.43770904643443"><ele>30.0</ele><time>2026-03-22T10:21:16Z</time></trkpt><trkpt lat="42.294816800172754" lon="14.437857219212109"><ele>30.0</ele><time>2026-03-22T10:21:17Z</time></trkpt><trkpt lat="42.29490452774367" lon="14.4380041226476"><ele>29.333333333333336</ele><time>2026-03-22T10:21:18Z</time></trkpt><trkpt lat="42.29501751171522" lon="14.438134218417318"><ele>28.666666666666668</ele><time>2026-03-22T10:21:19Z</time></trkpt><trkpt lat="42.29514314265332" lon="14.438257993946756"><ele>28.0</ele><time>2026-03-22T10:21:20Z</time></trkpt><trkpt lat="42.29529497013703" lon="14.438346183800494"><ele>28.0</ele><time>2026-03-22T10:21:21Z</time></trkpt><trkpt lat="42.29542995625952" lon="14.43840084182733"><ele>28.0</ele><time>2026-03-22T10:21:22Z</time></trkpt><trkpt lat="42.29559007534313" lon="14.438447695787264"><ele>28.0</ele><time>2026-03-22T10:21:23Z</time></trkpt><trkpt lat="42.29571600698611" lon="14.438495622705133"><ele>28.0</ele><time>2026-03-22T10:21:24Z</time></trkpt><trkpt lat="42.295823740283645" lon="14.438573002702118"><ele>27.75</ele><time>2026-03-22T10:21:25Z</time></trkpt><trkpt lat="42.295928962614255" lon="14.438671697061112"><ele>27.5</ele><time>2026-03-22T10:21:26Z</time></trkpt><trkpt lat="42.29602652150222" lon="14.43879393916253"><ele>27.25</ele><time>2026-03-22T10:21:27Z</time></trkpt><trkpt lat="42.296109760663995" lon="14.438933626830316"><ele>27.0</ele><time>2026-03-22T10:21:28Z</time></trkpt><trkpt lat="42.29617875199247" lon="14.439126554912155"><ele>27.0</ele><time>2026-03-22T10:21:29Z</time></trkpt><trkpt lat="42.296257238793004" lon="14.439298517902845"><ele>27.0</ele><time>2026-03-22T10:21:30Z</time></trkpt><trkpt lat="42.296322809796344" lon="14.439432306480324"><ele>27.0</ele><time>2026-03-22T10:21:31Z</time></trkpt><trkpt lat="42.29637391698602" lon="14.43954873187147"><ele>27.0</ele><time>2026-03-22T10:21:32Z</time></trkpt><trkpt lat="42.29645215603163" lon="14.439674250192786"><ele>27.0</ele><time>2026-03-22T10:21:34Z</time></trkpt><trkpt lat="42.296527779052354" lon="14.43976691458973"><ele>27.000000000000004</ele><time>2026-03-22T10:21:35Z</time></trkpt><trkpt lat="42.29661555504318" lon="14.439863510113902"><ele>27.000000000000004</ele><time>2026-03-22T10:21:36Z</time></trkpt><trkpt lat="42.296701204759586" lon="14.439908603603893"><ele>27.0</ele><time>2026-03-22T10:21:37Z</time></trkpt><trkpt lat="42.2968095078519" lon="14.439940206931274"><ele>27.0</ele><time>2026-03-22T10:21:38Z</time></trkpt><trkpt lat="42.29690517062495" lon="14.439996907474166"><ele>27.0</ele><time>2026-03-22T10:21:39Z</time></trkpt><trkpt lat="42.297010224214574" lon="14.440051387126394"><ele>27.000000000000004</ele><time>2026-03-22T10:21:40Z</time></trkpt><trkpt lat="42.29709432269502" lon="14.440131664903602"><ele>27.000000000000004</ele><time>2026-03-22T10:21:41Z</time></trkpt><trkpt lat="42.2971754444752" lon="14.4402256159273"><ele>27.0</ele><time>2026-03-22T10:21:42Z</time></trkpt><trkpt lat="42.29724148135072" lon="14.440290106687538"><ele>27.0</ele><time>2026-03-22T10:21:43Z</time></trkpt><trkpt lat="42.29732552436956" lon="14.440341277970468"><ele>25.8</ele><time>2026-03-22T10:21:44Z</time></trkpt><trkpt lat="42.29740475952689" lon="14.440378036881667"><ele>24.6</ele><time>2026-03-22T10:21:45Z</time></trkpt><trkpt lat="42.29750616075523" lon="14.440390354904087"><ele>23.400000000000002</ele><time>2026-03-22T10:21:46Z</time></trkpt><trkpt lat="42.29761393454963" lon="14.440393513996266"><ele>22.200000000000003</ele><time>2026-03-22T10:21:47Z</time></trkpt><trkpt lat="42.297712718266375" lon="14.440402758826082"><ele>21.0</ele><time>2026-03-22T10:21:48Z</time></trkpt><trkpt lat="42.29780354959725" lon="14.440386890746375"><ele>21.0</ele><time>2026-03-22T10:21:49Z</time></trkpt><trkpt lat="42.29788781539684" lon="14.440388148291358"><ele>21.0</ele><time>2026-03-22T10:21:50Z</time></trkpt><trkpt lat="42.29798465507772" lon="14.44038711720451"><ele>21.0</ele><time>2026-03-22T10:21:51Z</time></trkpt><trkpt lat="42.29810437276475" lon="14.440354040583978"><ele>21.0</ele><time>2026-03-22T10:21:52Z</time></trkpt><trkpt lat="42.29820252397607" lon="14.440311859775967"><ele>21.0</ele><time>2026-03-22T10:21:53Z</time></trkpt><trkpt lat="42.29827919098623" lon="14.440275121204156"><ele>20.6</ele><time>2026-03-22T10:21:55Z</time></trkpt><trkpt lat="42.29833445699313" lon="14.440212439920794"><ele>20.200000000000003</ele><time>2026-03-22T10:21:57Z</time></trkpt><trkpt lat="42.29841857925635" lon="14.440160143773879"><ele>19.799999999999997</ele><time>2026-03-22T10:21:59Z</time></trkpt><trkpt lat="42.29847203352779" lon="14.440091201271095"><ele>19.4</ele><time>2026-03-22T10:22:00Z</time></trkpt><trkpt lat="42.29852862458458" lon="14.43998068458693"><ele>19.0</ele><time>2026-03-22T10:22:01Z</time></trkpt><trkpt lat="42.29858857309815" lon="14.439831998993519"><ele>19.0</ele><time>2026-03-22T10:22:02Z</time></trkpt><trkpt lat="42.29864394966417" lon="14.439682122813071"><ele>19.0</ele><time>2026-03-22T10:22:03Z</time></trkpt><trkpt lat="42.29869516492103" lon="14.439560302931131"><ele>19.0</ele><time>2026-03-22T10:22:04Z</time></trkpt><trkpt lat="42.29874874363932" lon="14.439453647059171"><ele>19.0</ele><time>2026-03-22T10:22:05Z</time></trkpt><trkpt lat="42.29881421916124" lon="14.439350131580827"><ele>19.0</ele><time>2026-03-22T10:22:06Z</time></trkpt><trkpt lat="42.298888398852256" lon="14.439248059457025"><ele>19.5</ele><time>2026-03-22T10:22:07Z</time></trkpt><trkpt lat="42.29896854455579" lon="14.439175878859963"><ele>20.0</ele><time>2026-03-22T10:22:09Z</time></trkpt><trkpt lat="42.29911075984979" lon="14.439257661093633"><ele>20.5</ele><time>2026-03-22T10:22:11Z</time></trkpt><trkpt lat="42.299179803534415" lon="14.439363533560645"><ele>21.0</ele><time>2026-03-22T10:22:12Z</time></trkpt><trkpt lat="42.29923585748419" lon="14.43950819165012"><ele>20.25</ele><time>2026-03-22T10:22:13Z</time></trkpt><trkpt lat="42.29930174816185" lon="14.43968050893094"><ele>19.5</ele><time>2026-03-22T10:22:14Z</time></trkpt><trkpt lat="42.299368372159165" lon="14.439822575373668"><ele>18.75</ele><time>2026-03-22T10:22:15Z</time></trkpt><trkpt lat="42.29942459883564" lon="14.439932247654745"><ele>18.0</ele><time>2026-03-22T10:22:16Z</time></trkpt><trkpt lat="42.299487879501356" lon="14.440018617271745"><ele>18.0</ele><time>2026-03-22T10:22:17Z</time></trkpt><trkpt lat="42.299563958227054" lon="14.440115935303329"><ele>18.0</ele><time>2026-03-22T10:22:18Z</time></trkpt><trkpt lat="42.29963111187449" lon="14.440278620436917"><ele>18.0</ele><time>2026-03-22T10:22:19Z</time></trkpt><trkpt lat="42.29972700136" lon="14.440418820441678"><ele>18.0</ele><time>2026-03-22T10:22:20Z</time></trkpt><trkpt lat="42.299823640790414" lon="14.440550807370743"><ele>18.0</ele><time>2026-03-22T10:22:21Z</time></trkpt><trkpt lat="42.29993749540411" lon="14.440650009798473"><ele>18.0</ele><time>2026-03-22T10:22:22Z</time></trkpt><trkpt lat="42.30003319186094" lon="14.440748414000184"><ele>18.0</ele><time>2026-03-22T10:22:23Z</time></trkpt><trkpt lat="42.30012677816108" lon="14.44087011122242"><ele>18.0</ele><time>2026-03-22T10:22:24Z</time></trkpt><trkpt lat="42.30022640657632" lon="14.441005699745167"><ele>18.0</ele><time>2026-03-22T10:22:25Z</time></trkpt><trkpt lat="42.30032801107321" lon="14.441080486696256"><ele>18.0</ele><time>2026-03-22T10:22:26Z</time></trkpt><trkpt lat="42.300419759778364" lon="14.441084660783098"><ele>18.0</ele><time>2026-03-22T10:22:27Z</time></trkpt><trkpt lat="42.30048218548366" lon="14.44104443516285"><ele>18.0</ele><time>2026-03-22T10:22:28Z</time></trkpt><trkpt lat="42.30051307372571" lon="14.440965752219736"><ele>18.0</ele><time>2026-03-22T10:22:29Z</time></trkpt><trkpt lat="42.300549557787626" lon="14.440880681972072"><ele>18.0</ele><time>2026-03-22T10:22:30Z</time></trkpt><trkpt lat="42.300615089507204" lon="14.44076460552231"><ele>18.0</ele><time>2026-03-22T10:22:31Z</time></trkpt><trkpt lat="42.300701007687145" lon="14.44063067419924"><ele>18.0</ele><time>2026-03-22T10:22:32Z</time></trkpt><trkpt lat="42.30077511748161" lon="14.440531634457937"><ele>18.0</ele><time>2026-03-22T10:22:33Z</time></trkpt><trkpt lat="42.30085294761297" lon="14.440439256844353"><ele>18.0</ele><time>2026-03-22T10:22:34Z</time></trkpt><trkpt lat="42.30091750570713" lon="14.440353532679557"><ele>18.0</ele><time>2026-03-22T10:22:35Z</time></trkpt><trkpt lat="42.300967919488194" lon="14.440280092537979"><ele>17.75</ele><time>2026-03-22T10:22:36Z</time></trkpt><trkpt lat="42.301035025132414" lon="14.44015945758567"><ele>17.5</ele><time>2026-03-22T10:22:38Z</time></trkpt><trkpt lat="42.301144000840786" lon="14.44017885157019"><ele>17.25</ele><time>2026-03-22T10:22:40Z</time></trkpt><trkpt lat="42.301089787893346" lon="14.440109367947427"><ele>17.0</ele><time>2026-03-22T10:22:41Z</time></trkpt><trkpt lat="42.30125149137601" lon="14.440272074439346"><ele>17.0</ele><time>2026-03-22T10:22:42Z</time></trkpt><trkpt lat="42.30131237481666" lon="14.440154553798891"><ele>17.0</ele><time>2026-03-22T10:22:45Z</time></trkpt><trkpt lat="42.3013095051667" lon="14.440046070043994"><ele>17.0</ele><time>2026-03-22T10:22:46Z</time></trkpt><trkpt lat="42.3013031494114" lon="14.439934563173113"><ele>17.0</ele><time>2026-03-22T10:22:47Z</time></trkpt><trkpt lat="42.30130532143799" lon="14.439815200610964"><ele>17.0</ele><time>2026-03-22T10:22:48Z</time></trkpt><trkpt lat="42.3013159512104" lon="14.439708362265222"><ele>17.0</ele><time>2026-03-22T10:22:49Z</time></trkpt><trkpt lat="42.301333650071214" lon="14.43958651896561"><ele>17.333333333333336</ele><time>2026-03-22T10:22:51Z</time></trkpt><trkpt lat="42.30128516162708" lon="14.43947259624002"><ele>17.666666666666668</ele><time>2026-03-22T10:31:00Z</time></trkpt><trkpt lat="42.301220564650876" lon="14.43942818447634"><ele>18.0</ele><time>2026-03-22T10:31:02Z</time></trkpt><trkpt lat="42.30116713607562" lon="14.43936108205274"><ele>18.333333333333332</ele><time>2026-03-22T10:31:04Z</time></trkpt><trkpt lat="42.301194339212365" lon="14.43923842630699"><ele>18.666666666666664</ele><time>2026-03-22T10:31:06Z</time></trkpt><trkpt lat="42.30121718551886" lon="14.439145402570258"><ele>19.0</ele><time>2026-03-22T10:31:07Z</time></trkpt><trkpt lat="42.30122314643778" lon="14.439015119779922"><ele>19.0</ele><time>2026-03-22T10:31:09Z</time></trkpt><trkpt lat="42.30128505134638" lon="14.438965077781686"><ele>19.0</ele><time>2026-03-22T10:31:12Z</time></trkpt><trkpt lat="42.30133592998106" lon="14.438898149510944"><ele>19.0</ele><time>2026-03-22T10:31:14Z</time></trkpt><trkpt lat="42.301372395340884" lon="14.438812507251882"><ele>19.0</ele><time>2026-03-22T10:31:15Z</time></trkpt><trkpt lat="42.3014538401317" lon="14.43874371856887"><ele>19.0</ele><time>2026-03-22T10:31:16Z</time></trkpt><trkpt lat="42.301507489802205" lon="14.438685457163837"><ele>19.0</ele><time>2026-03-22T10:31:17Z</time></trkpt><trkpt lat="42.30149692693691" lon="14.438552072440016"><ele>20.0</ele><time>2026-03-22T10:31:19Z</time></trkpt><trkpt lat="42.3014575972392" lon="14.438449139012212"><ele>21.0</ele><time>2026-03-22T10:31:20Z</time></trkpt><trkpt lat="42.301414412703295" lon="14.438303025162787"><ele>22.0</ele><time>2026-03-22T10:31:21Z</time></trkpt><trkpt lat="42.30137300781523" lon="14.43812846409537"><ele>23.0</ele><time>2026-03-22T10:31:22Z</time></trkpt><trkpt lat="42.301345723587865" lon="14.437956797124617"><ele>25.599999999999998</ele><time>2026-03-22T10:31:23Z</time></trkpt><trkpt lat="42.301305873048406" lon="14.437812165139324"><ele>28.2</ele><time>2026-03-22T10:31:24Z</time></trkpt><trkpt lat="42.301237003484985" lon="14.437694872062316"><ele>30.8</ele><time>2026-03-22T10:31:25Z</time></trkpt><trkpt lat="42.30117211529138" lon="14.437614409612006"><ele>33.4</ele><time>2026-03-22T10:31:26Z</time></trkpt><trkpt lat="42.30108326951629" lon="14.437516020052295"><ele>36.0</ele><time>2026-03-22T10:31:27Z</time></trkpt><trkpt lat="42.300998527449124" lon="14.437411328925547"><ele>36.0</ele><time>2026-03-22T10:31:28Z</time></trkpt><trkpt lat="42.30092410523198" lon="14.43728689466785"><ele>36.0</ele><time>2026-03-22T10:31:29Z</time></trkpt><trkpt lat="42.30087787090153" lon="14.43714789038808"><ele>36.0</ele><time>2026-03-22T10:31:30Z</time></trkpt><trkpt lat="42.30083808346857" lon="14.4370237124809"><ele>36.0</ele><time>2026-03-22T10:31:31Z</time></trkpt><trkpt lat="42.300793729424406" lon="14.436935201581997"><ele>36.0</ele><time>2026-03-22T10:31:32Z</time></trkpt><trkpt lat="42.30073043302975" lon="14.43688583975301"><ele>36.8</ele><time>2026-03-22T10:31:33Z</time></trkpt><trkpt lat="42.30064409762013" lon="14.436842137758763"><ele>37.6</ele><time>2026-03-22T10:31:34Z</time></trkpt><trkpt lat="42.30054181269881" lon="14.436813714246153"><ele>38.4</ele><time>2026-03-22T10:31:35Z</time></trkpt><trkpt lat="42.30043778089741" lon="14.436776006362857"><ele>39.2</ele><time>2026-03-22T10:31:36Z</time></trkpt><trkpt lat="42.30034717245782" lon="14.43670190763746"><ele>40.0</ele><time>2026-03-22T10:31:37Z</time></trkpt><trkpt lat="42.30024960040038" lon="14.436607144588185"><ele>42.6</ele><time>2026-03-22T10:31:38Z</time></trkpt><trkpt lat="42.30018211628685" lon="14.436537335997555"><ele>45.2</ele><time>2026-03-22T10:31:39Z</time></trkpt><trkpt lat="42.30011911354498" lon="14.436472008594732"><ele>47.8</ele><time>2026-03-22T10:31:40Z</time></trkpt><trkpt lat="42.2999723929292" lon="14.436553364673326"><ele>50.4</ele><time>2026-03-22T10:31:41Z</time></trkpt><trkpt lat="42.299882272496546" lon="14.436536185796266"><ele>53.0</ele><time>2026-03-22T10:31:42Z</time></trkpt><trkpt lat="42.29978250434691" lon="14.436526402823118"><ele>55.2</ele><time>2026-03-22T10:31:43Z</time></trkpt><trkpt lat="42.29966652626341" lon="14.436544290680116"><ele>57.4</ele><time>2026-03-22T10:31:44Z</time></trkpt><trkpt lat="42.2995726535988" lon="14.436581991727099"><ele>59.60000000000001</ele><time>2026-03-22T10:31:45Z</time></trkpt><trkpt lat="42.299495194714765" lon="14.436581247427045"><ele>61.800000000000004</ele><time>2026-03-22T10:31:46Z</time></trkpt><trkpt lat="42.29945370190356" lon="14.436462683516122"><ele>64.0</ele><time>2026-03-22T10:31:48Z</time></trkpt><trkpt lat="42.29942028129613" lon="14.436385257425243"><ele>66.0</ele><time>2026-03-22T10:31:49Z</time></trkpt><trkpt lat="42.29938077049133" lon="14.436281466207888"><ele>68.0</ele><time>2026-03-22T10:31:50Z</time></trkpt><trkpt lat="42.29936408861773" lon="14.436147599185057"><ele>70.0</ele><time>2026-03-22T10:31:51Z</time></trkpt><trkpt lat="42.29934009412254" lon="14.43600458703223"><ele>72.0</ele><time>2026-03-22T10:31:52Z</time></trkpt><trkpt lat="42.29931192852075" lon="14.435810072057116"><ele>74.0</ele><time>2026-03-22T10:31:53Z</time></trkpt><trkpt lat="42.29927303427296" lon="14.435622451172177"><ele>76.5</ele><time>2026-03-22T10:31:54Z</time></trkpt><trkpt lat="42.29923504220484" lon="14.43544439913098"><ele>79.0</ele><time>2026-03-22T10:31:55Z</time></trkpt><trkpt lat="42.29920535627976" lon="14.435278317224043"><ele>81.5</ele><time>2026-03-22T10:31:56Z</time></trkpt><trkpt lat="42.29917721180311" lon="14.435103007531989"><ele>84.0</ele><time>2026-03-22T10:31:57Z</time></trkpt><trkpt lat="42.299177177096446" lon="14.434965344153348"><ele>84.0</ele><time>2026-03-22T10:31:58Z</time></trkpt><trkpt lat="42.29919499593015" lon="14.434816374399997"><ele>84.0</ele><time>2026-03-22T10:31:59Z</time></trkpt><trkpt lat="42.2992151149878" lon="14.434671164152173"><ele>84.0</ele><time>2026-03-22T10:32:00Z</time></trkpt><trkpt lat="42.29928614130986" lon="14.434601941655202"><ele>84.0</ele><time>2026-03-22T10:32:01Z</time></trkpt><trkpt lat="42.29933951556299" lon="14.434510690469763"><ele>84.0</ele><time>2026-03-22T10:32:02Z</time></trkpt><trkpt lat="42.29943369540666" lon="14.434379875212613"><ele>86.5</ele><time>2026-03-22T10:32:03Z</time></trkpt><trkpt lat="42.299503977256855" lon="14.43428511699377"><ele>89.0</ele><time>2026-03-22T10:32:04Z</time></trkpt><trkpt lat="42.2994983628991" lon="14.434127681592255"><ele>91.5</ele><time>2026-03-22T10:32:05Z</time></trkpt><trkpt lat="42.29948376385546" lon="14.433985752262405"><ele>94.0</ele><time>2026-03-22T10:32:06Z</time></trkpt><trkpt lat="42.299467645264045" lon="14.43381288722674"><ele>96.5</ele><time>2026-03-22T10:32:07Z</time></trkpt><trkpt lat="42.29946608996444" lon="14.43363103902421"><ele>99.0</ele><time>2026-03-22T10:32:08Z</time></trkpt><trkpt lat="42.299486004288944" lon="14.433473563188372"><ele>101.5</ele><time>2026-03-22T10:32:09Z</time></trkpt><trkpt lat="42.2995136518129" lon="14.433303750474051"><ele>104.0</ele><time>2026-03-22T10:32:10Z</time></trkpt><trkpt lat="42.299542458458" lon="14.43314093969126"><ele>104.0</ele><time>2026-03-22T10:32:11Z</time></trkpt><trkpt lat="42.299569401860246" lon="14.432993421590476"><ele>104.0</ele><time>2026-03-22T10:32:12Z</time></trkpt><trkpt lat="42.29961462434107" lon="14.432838759545087"><ele>104.0</ele><time>2026-03-22T10:32:13Z</time></trkpt><trkpt lat="42.29965064445553" lon="14.432675843688731"><ele>104.0</ele><time>2026-03-22T10:32:14Z</time></trkpt><trkpt lat="42.299650470964124" lon="14.432519153290063"><ele>105.5</ele><time>2026-03-22T10:32:15Z</time></trkpt><trkpt lat="42.29962525378896" lon="14.43237510887701"><ele>107.0</ele><time>2026-03-22T10:32:16Z</time></trkpt><trkpt lat="42.29958578830778" lon="14.432205713556304"><ele>108.5</ele><time>2026-03-22T10:32:17Z</time></trkpt><trkpt lat="42.29955417503738" lon="14.43204407889008"><ele>110.0</ele><time>2026-03-22T10:32:18Z</time></trkpt><trkpt lat="42.29952890755736" lon="14.431869143833042"><ele>111.0</ele><time>2026-03-22T10:32:19Z</time></trkpt><trkpt lat="42.29951438015808" lon="14.43168459132253"><ele>112.0</ele><time>2026-03-22T10:32:20Z</time></trkpt><trkpt lat="42.29950502971336" lon="14.43150496098673"><ele>113.0</ele><time>2026-03-22T10:32:21Z</time></trkpt><trkpt lat="42.29949504203787" lon="14.431341499666988"><ele>114.0</ele><time>2026-03-22T10:32:22Z</time></trkpt><trkpt lat="42.299475422821104" lon="14.43118883622954"><ele>114.75</ele><time>2026-03-22T10:32:23Z</time></trkpt><trkpt lat="42.29944762007311" lon="14.431036024204943"><ele>115.5</ele><time>2026-03-22T10:32:24Z</time></trkpt><trkpt lat="42.299411650993335" lon="14.430853763628328"><ele>116.25</ele><time>2026-03-22T10:32:25Z</time></trkpt><trkpt lat="42.299360174146734" lon="14.43066832495271"><ele>117.0</ele><time>2026-03-22T10:32:26Z</time></trkpt><trkpt lat="42.299319681011475" lon="14.43049535972647"><ele>117.0</ele><time>2026-03-22T10:32:27Z</time></trkpt><trkpt lat="42.29928850770982" lon="14.430322018020762"><ele>116.99999999999999</ele><time>2026-03-22T10:32:28Z</time></trkpt><trkpt lat="42.29918209455691" lon="14.430243757871951"><ele>116.99999999999999</ele><time>2026-03-22T10:32:29Z</time></trkpt><trkpt lat="42.29915900441685" lon="14.430143752891366"><ele>117.0</ele><time>2026-03-22T10:32:30Z</time></trkpt><trkpt lat="42.2990994820661" lon="14.43002315576453"><ele>117.0</ele><time>2026-03-22T10:32:31Z</time></trkpt><trkpt lat="42.29898055127271" lon="14.42993744104882"><ele>117.75</ele><time>2026-03-22T10:32:32Z</time></trkpt><trkpt lat="42.29884903390663" lon="14.42985364342284"><ele>118.5</ele><time>2026-03-22T10:32:33Z</time></trkpt><trkpt lat="42.298738449665606" lon="14.429773759568208"><ele>119.25</ele><time>2026-03-22T10:32:34Z</time></trkpt><trkpt lat="42.298621532630115" lon="14.429704234195494"><ele>120.0</ele><time>2026-03-22T10:32:35Z</time></trkpt><trkpt lat="42.29849598572277" lon="14.429705023559212"><ele>120.0</ele><time>2026-03-22T10:32:36Z</time></trkpt><trkpt lat="42.298383941410165" lon="14.429689443982852"><ele>120.0</ele><time>2026-03-22T10:32:37Z</time></trkpt><trkpt lat="42.29830321675924" lon="14.429601203445092"><ele>120.0</ele><time>2026-03-22T10:32:38Z</time></trkpt><trkpt lat="42.29825320524451" lon="14.429459797371456"><ele>120.0</ele><time>2026-03-22T10:32:39Z</time></trkpt><trkpt lat="42.2982080447222" lon="14.429281006008427"><ele>121.33333333333334</ele><time>2026-03-22T10:32:40Z</time></trkpt><trkpt lat="42.2981685961985" lon="14.429064810892344"><ele>122.66666666666667</ele><time>2026-03-22T10:32:41Z</time></trkpt><trkpt lat="42.29811701225044" lon="14.428844790894155"><ele>124.0</ele><time>2026-03-22T10:32:42Z</time></trkpt><trkpt lat="42.29805766274974" lon="14.428623186980456"><ele>124.66666666666667</ele><time>2026-03-22T10:32:43Z</time></trkpt><trkpt lat="42.297988119989775" lon="14.428402823690606"><ele>125.33333333333334</ele><time>2026-03-22T10:32:44Z</time></trkpt><trkpt lat="42.29791183259413" lon="14.428202440859895"><ele>126.0</ele><time>2026-03-22T10:32:45Z</time></trkpt><trkpt lat="42.297832811494196" lon="14.428033285233433"><ele>126.25</ele><time>2026-03-22T10:32:46Z</time></trkpt><trkpt lat="42.29775461407647" lon="14.427865630230388"><ele>126.5</ele><time>2026-03-22T10:32:47Z</time></trkpt><trkpt lat="42.297688393815655" lon="14.427698128025563"><ele>126.75</ele><time>2026-03-22T10:32:48Z</time></trkpt><trkpt lat="42.29761664651543" lon="14.427540258248825"><ele>127.0</ele><time>2026-03-22T10:32:49Z</time></trkpt><trkpt lat="42.2976377199708" lon="14.42732001452447"><ele>128.0</ele><time>2026-03-22T10:32:50Z</time></trkpt><trkpt lat="42.297655769337204" lon="14.427096918638417"><ele>129.0</ele><time>2026-03-22T10:32:51Z</time></trkpt><trkpt lat="42.297664645648936" lon="14.426867107239653"><ele>130.0</ele><time>2026-03-22T10:32:52Z</time></trkpt><trkpt lat="42.29766238442568" lon="14.426616929062241"><ele>130.0</ele><time>2026-03-22T10:32:53Z</time></trkpt><trkpt lat="42.29766659430846" lon="14.426385092048706"><ele>130.0</ele><time>2026-03-22T10:32:54Z</time></trkpt><trkpt lat="42.29766115107926" lon="14.426142583749074"><ele>130.0</ele><time>2026-03-22T10:32:55Z</time></trkpt><trkpt lat="42.29765258127142" lon="14.425906641597425"><ele>130.0</ele><time>2026-03-22T10:32:56Z</time></trkpt><trkpt lat="42.2976363129447" lon="14.425664274787104"><ele>130.0</ele><time>2026-03-22T10:32:57Z</time></trkpt><trkpt lat="42.297606372448364" lon="14.425424411255825"><ele>130.0</ele><time>2026-03-22T10:32:58Z</time></trkpt><trkpt lat="42.297574824867276" lon="14.425172735757933"><ele>130.0</ele><time>2026-03-22T10:32:59Z</time></trkpt><trkpt lat="42.29752122440762" lon="14.424919424436306"><ele>130.0</ele><time>2026-03-22T10:33:00Z</time></trkpt><trkpt lat="42.297482527785284" lon="14.424664986888853"><ele>130.0</ele><time>2026-03-22T10:33:01Z</time></trkpt><trkpt lat="42.29744434127092" lon="14.424413903397165"><ele>130.0</ele><time>2026-03-22T10:33:02Z</time></trkpt><trkpt lat="42.29742083429961" lon="14.424167905136915"><ele>130.0</ele><time>2026-03-22T10:33:03Z</time></trkpt><trkpt lat="42.297368056093056" lon="14.423918809788795"><ele>130.0</ele><time>2026-03-22T10:33:04Z</time></trkpt><trkpt lat="42.297345753426335" lon="14.423667614014171"><ele>130.66666666666669</ele><time>2026-03-22T10:33:05Z</time></trkpt><trkpt lat="42.29728970923517" lon="14.423416899209869"><ele>131.33333333333334</ele><time>2026-03-22T10:33:06Z</time></trkpt><trkpt lat="42.29725062130563" lon="14.423169622861876"><ele>132.0</ele><time>2026-03-22T10:33:07Z</time></trkpt><trkpt lat="42.29721523624697" lon="14.422929295230125"><ele>133.0</ele><time>2026-03-22T10:33:08Z</time></trkpt><trkpt lat="42.297183330083435" lon="14.422682140376708"><ele>134.0</ele><time>2026-03-22T10:33:09Z</time></trkpt><trkpt lat="42.29715819118951" lon="14.422421286205147"><ele>135.0</ele><time>2026-03-22T10:33:10Z</time></trkpt><trkpt lat="42.29715220886402" lon="14.4221505254385"><ele>135.33333333333334</ele><time>2026-03-22T10:33:11Z</time></trkpt><trkpt lat="42.297155683011226" lon="14.42187687041213"><ele>135.66666666666669</ele><time>2026-03-22T10:33:12Z</time></trkpt><trkpt lat="42.2971603063644" lon="14.421617542291877"><ele>136.0</ele><time>2026-03-22T10:33:13Z</time></trkpt><trkpt lat="42.29716498654814" lon="14.421382686425423"><ele>136.5</ele><time>2026-03-22T10:33:14Z</time></trkpt><trkpt lat="42.29717024098858" lon="14.421169112024463"><ele>137.0</ele><time>2026-03-22T10:33:15Z</time></trkpt><trkpt lat="42.2971766734616" lon="14.420968377665348"><ele>137.5</ele><time>2026-03-22T10:33:16Z</time></trkpt><trkpt lat="42.297186268468565" lon="14.42078600501954"><ele>138.0</ele><time>2026-03-22T10:33:17Z</time></trkpt><trkpt lat="42.29720659544917" lon="14.4206133192716"><ele>139.0</ele><time>2026-03-22T10:33:18Z</time></trkpt><trkpt lat="42.29716345751454" lon="14.420431358785518"><ele>140.0</ele><time>2026-03-22T10:33:19Z</time></trkpt><trkpt lat="42.29718722284387" lon="14.420223370143075"><ele>141.0</ele><time>2026-03-22T10:33:20Z</time></trkpt><trkpt lat="42.29716664071798" lon="14.419992186638527"><ele>141.0</ele><time>2026-03-22T10:33:21Z</time></trkpt><trkpt lat="42.2971204851781" lon="14.419749470378608"><ele>141.0</ele><time>2026-03-22T10:33:22Z</time></trkpt><trkpt lat="42.2970687082745" lon="14.419503129338201"><ele>141.0</ele><time>2026-03-22T10:33:23Z</time></trkpt><trkpt lat="42.29701653633048" lon="14.419252383399819"><ele>141.66666666666666</ele><time>2026-03-22T10:33:24Z</time></trkpt><trkpt lat="42.29696593132297" lon="14.41899458416718"><ele>142.33333333333331</ele><time>2026-03-22T10:33:25Z</time></trkpt><trkpt lat="42.29691141545055" lon="14.418734863956336"><ele>143.0</ele><time>2026-03-22T10:33:26Z</time></trkpt><trkpt lat="42.29685924709762" lon="14.418486447159536"><ele>143.0</ele><time>2026-03-22T10:33:27Z</time></trkpt><trkpt lat="42.29680226445057" lon="14.418230374874177"><ele>143.0</ele><time>2026-03-22T10:33:28Z</time></trkpt><trkpt lat="42.296746618303345" lon="14.417985375677002"><ele>143.0</ele><time>2026-03-22T10:33:29Z</time></trkpt><trkpt lat="42.29668976103007" lon="14.417733766147007"><ele>143.0</ele><time>2026-03-22T10:33:30Z</time></trkpt><trkpt lat="42.29663207542498" lon="14.41748938204332"><ele>143.0</ele><time>2026-03-22T10:33:31Z</time></trkpt><trkpt lat="42.29657130855752" lon="14.417244654161092"><ele>143.0</ele><time>2026-03-22T10:33:32Z</time></trkpt><trkpt lat="42.296505935386705" lon="14.417006696323941"><ele>143.33333333333331</ele><time>2026-03-22T10:33:33Z</time></trkpt><trkpt lat="42.29644058730903" lon="14.41677034809464"><ele>143.66666666666666</ele><time>2026-03-22T10:33:34Z</time></trkpt><trkpt lat="42.29637826298491" lon="14.416565676426195"><ele>144.0</ele><time>2026-03-22T10:33:35Z</time></trkpt><trkpt lat="42.2963267621336" lon="14.416398857059173"><ele>144.0</ele><time>2026-03-22T10:33:36Z</time></trkpt><trkpt lat="42.29628632836028" lon="14.416278626353499"><ele>144.0</ele><time>2026-03-22T10:33:37Z</time></trkpt><trkpt lat="42.296246350908326" lon="14.416201975347862"><ele>144.0</ele><time>2026-03-22T10:33:38Z</time></trkpt><trkpt lat="42.29610063501511" lon="14.416220429011629"><ele>144.0</ele><time>2026-03-22T10:33:41Z</time></trkpt><trkpt lat="42.2960166988667" lon="14.416311013108416"><ele>144.0</ele><time>2026-03-22T10:33:42Z</time></trkpt><trkpt lat="42.29592775391768" lon="14.416406025066033"><ele>144.0</ele><time>2026-03-22T10:33:43Z</time></trkpt><trkpt lat="42.295814069747244" lon="14.416521704746613"><ele>144.0</ele><time>2026-03-22T10:33:44Z</time></trkpt><trkpt lat="42.29570388161093" lon="14.416631947282907"><ele>144.0</ele><time>2026-03-22T10:33:45Z</time></trkpt><trkpt lat="42.29559908945445" lon="14.416737458090159"><ele>144.0</ele><time>2026-03-22T10:33:46Z</time></trkpt><trkpt lat="42.29550152325852" lon="14.416839661323422"><ele>144.2</ele><time>2026-03-22T10:33:47Z</time></trkpt><trkpt lat="42.29541918811816" lon="14.416935650074167"><ele>144.4</ele><time>2026-03-22T10:33:48Z</time></trkpt><trkpt lat="42.29535439734084" lon="14.417042770006192"><ele>144.6</ele><time>2026-03-22T10:33:49Z</time></trkpt><trkpt lat="42.295275469610196" lon="14.417104492838268"><ele>144.8</ele><time>2026-03-22T10:33:50Z</time></trkpt><trkpt lat="42.29520561394629" lon="14.417184766738549"><ele>145.0</ele><time>2026-03-22T10:33:51Z</time></trkpt><trkpt lat="42.2951399202791" lon="14.417266906415495"><ele>143.5</ele><time>2026-03-22T10:33:52Z</time></trkpt><trkpt lat="42.295078188990246" lon="14.417364172095326"><ele>142.0</ele><time>2026-03-22T10:33:53Z</time></trkpt><trkpt lat="42.295013264620216" lon="14.4174902128385"><ele>140.5</ele><time>2026-03-22T10:33:54Z</time></trkpt><trkpt lat="42.29494581043813" lon="14.417628511323835"><ele>139.0</ele><time>2026-03-22T10:33:55Z</time></trkpt><trkpt lat="42.294877605895536" lon="14.417772856377393"><ele>139.0</ele><time>2026-03-22T10:33:56Z</time></trkpt><trkpt lat="42.294808981040696" lon="14.417903377167486"><ele>139.0</ele><time>2026-03-22T10:33:57Z</time></trkpt><trkpt lat="42.294724577863924" lon="14.41802392618052"><ele>139.0</ele><time>2026-03-22T10:33:58Z</time></trkpt><trkpt lat="42.29464205807723" lon="14.418131516462177"><ele>139.0</ele><time>2026-03-22T10:33:59Z</time></trkpt><trkpt lat="42.29455002821003" lon="14.418234413044246"><ele>135.25</ele><time>2026-03-22T10:34:00Z</time></trkpt><trkpt lat="42.29445746566515" lon="14.418323072772246"><ele>131.5</ele><time>2026-03-22T10:34:01Z</time></trkpt><trkpt lat="42.29437149226204" lon="14.418425772163165"><ele>127.75</ele><time>2026-03-22T10:34:02Z</time></trkpt><trkpt lat="42.29427731027909" lon="14.418524046029765"><ele>124.0</ele><time>2026-03-22T10:34:03Z</time></trkpt><trkpt lat="42.294190610807604" lon="14.418613175767922"><ele>124.0</ele><time>2026-03-22T10:34:04Z</time></trkpt><trkpt lat="42.29409701332147" lon="14.418708173249042"><ele>124.0</ele><time>2026-03-22T10:34:05Z</time></trkpt><trkpt lat="42.29399165458371" lon="14.418802070815717"><ele>124.0</ele><time>2026-03-22T10:34:06Z</time></trkpt><trkpt lat="42.29390417981286" lon="14.418873990305844"><ele>124.0</ele><time>2026-03-22T10:34:07Z</time></trkpt><trkpt lat="42.293835636418" lon="14.418960490641723"><ele>124.0</ele><time>2026-03-22T10:34:08Z</time></trkpt><trkpt lat="42.293774820681" lon="14.41906115982831"><ele>124.80000000000001</ele><time>2026-03-22T10:34:09Z</time></trkpt><trkpt lat="42.29374130865079" lon="14.419144350564336"><ele>125.60000000000001</ele><time>2026-03-22T10:34:10Z</time></trkpt><trkpt lat="42.29374759815083" lon="14.419240400076786"><ele>126.4</ele><time>2026-03-22T10:34:11Z</time></trkpt><trkpt lat="42.293781710269954" lon="14.419388188073176"><ele>127.2</ele><time>2026-03-22T10:34:12Z</time></trkpt><trkpt lat="42.29385347093915" lon="14.419548871147903"><ele>128.0</ele><time>2026-03-22T10:34:13Z</time></trkpt><trkpt lat="42.29388645271702" lon="14.419740663085094"><ele>122.75</ele><time>2026-03-22T10:34:14Z</time></trkpt><trkpt lat="42.29393382785631" lon="14.419911436996886"><ele>117.5</ele><time>2026-03-22T10:34:15Z</time></trkpt><trkpt lat="42.29394540477668" lon="14.420053988669842"><ele>112.25</ele><time>2026-03-22T10:34:16Z</time></trkpt><trkpt lat="42.29397184088437" lon="14.420205458886642"><ele>107.0</ele><time>2026-03-22T10:34:17Z</time></trkpt><trkpt lat="42.29398871095383" lon="14.420360942552088"><ele>107.0</ele><time>2026-03-22T10:34:18Z</time></trkpt><trkpt lat="42.29401943511697" lon="14.420522425399872"><ele>107.0</ele><time>2026-03-22T10:34:19Z</time></trkpt><trkpt lat="42.29407621701679" lon="14.42070144214551"><ele>107.0</ele><time>2026-03-22T10:34:20Z</time></trkpt><trkpt lat="42.29413882161471" lon="14.42090808739706"><ele>107.0</ele><time>2026-03-22T10:34:21Z</time></trkpt><trkpt lat="42.294167378719784" lon="14.42110505459685"><ele>107.0</ele><time>2026-03-22T10:34:22Z</time></trkpt><trkpt lat="42.29419437554427" lon="14.421264779269348"><ele>107.0</ele><time>2026-03-22T10:34:23Z</time></trkpt><trkpt lat="42.29420654931283" lon="14.421354736423355"><ele>107.0</ele><time>2026-03-22T10:34:24Z</time></trkpt><trkpt lat="42.29418743915806" lon="14.421477239256488"><ele>107.0</ele><time>2026-03-22T10:34:28Z</time></trkpt><trkpt lat="42.2939957025962" lon="14.421556215041539"><ele>107.16666666666666</ele><time>2026-03-22T10:34:29Z</time></trkpt><trkpt lat="42.293938516274316" lon="14.421636968795807"><ele>107.33333333333333</ele><time>2026-03-22T10:34:30Z</time></trkpt><trkpt lat="42.29387216545069" lon="14.421727445830529"><ele>107.5</ele><time>2026-03-22T10:34:31Z</time></trkpt><trkpt lat="42.29380520099993" lon="14.421815467783693"><ele>107.66666666666666</ele><time>2026-03-22T10:34:32Z</time></trkpt><trkpt lat="42.29370258529364" lon="14.421842283738291"><ele>107.83333333333333</ele><time>2026-03-22T10:34:34Z</time></trkpt><trkpt lat="42.29364019136703" lon="14.421786946480887"><ele>108.0</ele><time>2026-03-22T10:34:35Z</time></trkpt><trkpt lat="42.29358001810488" lon="14.421725520180944"><ele>112.4</ele><time>2026-03-22T10:34:36Z</time></trkpt><trkpt lat="42.29352465284071" lon="14.42166960103027"><ele>116.80000000000001</ele><time>2026-03-22T10:34:37Z</time></trkpt><trkpt lat="42.29339732843331" lon="14.421598243459734"><ele>121.2</ele><time>2026-03-22T10:34:39Z</time></trkpt><trkpt lat="42.29333702852609" lon="14.421568171567733"><ele>125.6</ele><time>2026-03-22T10:34:40Z</time></trkpt><trkpt lat="42.29322829041724" lon="14.421655602061835"><ele>130.0</ele><time>2026-03-22T10:34:42Z</time></trkpt><trkpt lat="42.29314143447758" lon="14.421705246225114"><ele>132.5</ele><time>2026-03-22T10:34:43Z</time></trkpt><trkpt lat="42.2930215189407" lon="14.421757907881087"><ele>135.0</ele><time>2026-03-22T10:34:44Z</time></trkpt><trkpt lat="42.29289567701515" lon="14.42180824380349"><ele>137.5</ele><time>2026-03-22T10:34:45Z</time></trkpt><trkpt lat="42.292762813913335" lon="14.421857949352054"><ele>140.0</ele><time>2026-03-22T10:34:46Z</time></trkpt><trkpt lat="42.29268615515761" lon="14.421901963599113"><ele>140.0</ele><time>2026-03-22T10:34:47Z</time></trkpt><trkpt lat="42.29262187151583" lon="14.421921108096244"><ele>140.0</ele><time>2026-03-22T10:34:48Z</time></trkpt><trkpt lat="42.29252941092703" lon="14.421905556983555"><ele>140.0</ele><time>2026-03-22T10:34:49Z</time></trkpt><trkpt lat="42.2924141591271" lon="14.421851041049145"><ele>140.0</ele><time>2026-03-22T10:34:50Z</time></trkpt><trkpt lat="42.2922891088599" lon="14.421802030938846"><ele>140.0</ele><time>2026-03-22T10:34:51Z</time></trkpt><trkpt lat="42.29218029383223" lon="14.421756701642849"><ele>140.0</ele><time>2026-03-22T10:34:52Z</time></trkpt><trkpt lat="42.29207023390168" lon="14.421711013559214"><ele>140.0</ele><time>2026-03-22T10:34:53Z</time></trkpt><trkpt lat="42.29195794048724" lon="14.421684602855937"><ele>140.0</ele><time>2026-03-22T10:34:54Z</time></trkpt><trkpt lat="42.29183763530264" lon="14.421640999474286"><ele>140.0</ele><time>2026-03-22T10:34:55Z</time></trkpt><trkpt lat="42.29171387491953" lon="14.42161242804766"><ele>140.0</ele><time>2026-03-22T10:34:56Z</time></trkpt><trkpt lat="42.29158075180238" lon="14.421579032212708"><ele>140.0</ele><time>2026-03-22T10:34:57Z</time></trkpt><trkpt lat="42.29144363391942" lon="14.42155431972426"><ele>140.0</ele><time>2026-03-22T10:34:58Z</time></trkpt><trkpt lat="42.291304072000585" lon="14.421548137765031"><ele>140.0</ele><time>2026-03-22T10:34:59Z</time></trkpt><trkpt lat="42.29115628417609" lon="14.421517554518504"><ele>140.25</ele><time>2026-03-22T10:35:00Z</time></trkpt><trkpt lat="42.29100776168256" lon="14.421466223139378"><ele>140.5</ele><time>2026-03-22T10:35:01Z</time></trkpt><trkpt lat="42.290863574028336" lon="14.421405496377838"><ele>140.75</ele><time>2026-03-22T10:35:02Z</time></trkpt><trkpt lat="42.290758862286" lon="14.421367442155898"><ele>141.0</ele><time>2026-03-22T10:35:03Z</time></trkpt><trkpt lat="42.29063911150698" lon="14.421305485599813"><ele>140.75</ele><time>2026-03-22T10:35:04Z</time></trkpt><trkpt lat="42.290502583866726" lon="14.421210422136719"><ele>140.5</ele><time>2026-03-22T10:35:05Z</time></trkpt><trkpt lat="42.290381729177646" lon="14.42116618549825"><ele>140.25</ele><time>2026-03-22T10:35:06Z</time></trkpt><trkpt lat="42.290257887516645" lon="14.42115425881297"><ele>140.0</ele><time>2026-03-22T10:35:07Z</time></trkpt><trkpt lat="42.29014940109291" lon="14.421168310308891"><ele>140.0</ele><time>2026-03-22T10:35:08Z</time></trkpt><trkpt lat="42.29005651791958" lon="14.421184114369751"><ele>140.0</ele><time>2026-03-22T10:35:09Z</time></trkpt><trkpt lat="42.28997612920825" lon="14.421196301960983"><ele>140.0</ele><time>2026-03-22T10:35:10Z</time></trkpt><trkpt lat="42.289903306470755" lon="14.421205778543888"><ele>140.0</ele><time>2026-03-22T10:35:11Z</time></trkpt><trkpt lat="42.28982948866136" lon="14.421160231297096"><ele>140.0</ele><time>2026-03-22T10:35:12Z</time></trkpt><trkpt lat="42.28977733073282" lon="14.421019896260464"><ele>140.0</ele><time>2026-03-22T10:35:13Z</time></trkpt><trkpt lat="42.289709395270464" lon="14.420854863607195"><ele>140.0</ele><time>2026-03-22T10:35:14Z</time></trkpt><trkpt lat="42.28960880213644" lon="14.420671061260258"><ele>140.0</ele><time>2026-03-22T10:35:15Z</time></trkpt><trkpt lat="42.289514869129114" lon="14.420456983905662"><ele>140.0</ele><time>2026-03-22T10:35:16Z</time></trkpt><trkpt lat="42.28941776737455" lon="14.420239380192944"><ele>140.0</ele><time>2026-03-22T10:35:17Z</time></trkpt><trkpt lat="42.28931193228948" lon="14.419997115098253"><ele>140.0</ele><time>2026-03-22T10:35:18Z</time></trkpt><trkpt lat="42.289203059138224" lon="14.419742107675937"><ele>140.0</ele><time>2026-03-22T10:35:19Z</time></trkpt><trkpt lat="42.28911481239377" lon="14.419521787943323"><ele>139.5</ele><time>2026-03-22T10:35:20Z</time></trkpt><trkpt lat="42.289020782533946" lon="14.41935462860024"><ele>139.0</ele><time>2026-03-22T10:35:21Z</time></trkpt><trkpt lat="42.28895599211361" lon="14.41920767180386"><ele>138.5</ele><time>2026-03-22T10:35:22Z</time></trkpt><trkpt lat="42.288867361357646" lon="14.419083834114394"><ele>138.0</ele><time>2026-03-22T10:35:23Z</time></trkpt><trkpt lat="42.28874976808075" lon="14.4189380179418"><ele>138.0</ele><time>2026-03-22T10:35:24Z</time></trkpt><trkpt lat="42.28862082299294" lon="14.418809148091073"><ele>138.0</ele><time>2026-03-22T10:35:25Z</time></trkpt><trkpt lat="42.2885189529463" lon="14.418705070992363"><ele>138.0</ele><time>2026-03-22T10:35:26Z</time></trkpt><trkpt lat="42.28842828273701" lon="14.418616803734443"><ele>138.0</ele><time>2026-03-22T10:35:27Z</time></trkpt><trkpt lat="42.288359174035115" lon="14.41853551189892"><ele>138.0</ele><time>2026-03-22T10:35:28Z</time></trkpt><trkpt lat="42.288308465440096" lon="14.41845877469693"><ele>138.0</ele><time>2026-03-22T10:35:29Z</time></trkpt><trkpt lat="42.288263111973336" lon="14.418704480093263"><ele>138.0</ele><time>2026-03-22T10:35:34Z</time></trkpt><trkpt lat="42.288260541412605" lon="14.41884575353798"><ele>138.0</ele><time>2026-03-22T10:35:35Z</time></trkpt><trkpt lat="42.288235603769536" lon="14.419073101154996"><ele>138.0</ele><time>2026-03-22T10:35:36Z</time></trkpt><trkpt lat="42.28821183375726" lon="14.41927959898396"><ele>138.0</ele><time>2026-03-22T10:35:37Z</time></trkpt><trkpt lat="42.28819498085452" lon="14.419489218541468"><ele>138.0</ele><time>2026-03-22T10:35:38Z</time></trkpt><trkpt lat="42.28818200537419" lon="14.419677082072797"><ele>137.66666666666666</ele><time>2026-03-22T10:35:39Z</time></trkpt><trkpt lat="42.28815960569086" lon="14.419881172667981"><ele>137.33333333333331</ele><time>2026-03-22T10:35:40Z</time></trkpt><trkpt lat="42.288149877102214" lon="14.42008345545614"><ele>137.0</ele><time>2026-03-22T10:35:41Z</time></trkpt><trkpt lat="42.28813501442012" lon="14.420290332685035"><ele>136.75</ele><time>2026-03-22T10:35:42Z</time></trkpt><trkpt lat="42.288095014913765" lon="14.420497078832703"><ele>136.5</ele><time>2026-03-22T10:35:43Z</time></trkpt><trkpt lat="42.28807202677969" lon="14.42066133719966"><ele>136.25</ele><time>2026-03-22T10:35:44Z</time></trkpt><trkpt lat="42.2880522078285" lon="14.420823531990674"><ele>136.0</ele><time>2026-03-22T10:35:45Z</time></trkpt><trkpt lat="42.28804104740837" lon="14.420950068808313"><ele>132.0</ele><time>2026-03-22T10:35:46Z</time></trkpt><trkpt lat="42.28802320270626" lon="14.421062524809315"><ele>128.0</ele><time>2026-03-22T10:35:47Z</time></trkpt><trkpt lat="42.287999374604986" lon="14.421172375742765"><ele>124.0</ele><time>2026-03-22T10:35:48Z</time></trkpt><trkpt lat="42.287946288006054" lon="14.421291274891963"><ele>120.0</ele><time>2026-03-22T10:35:49Z</time></trkpt><trkpt lat="42.28788935743934" lon="14.421478654197175"><ele>116.0</ele><time>2026-03-22T10:35:51Z</time></trkpt><trkpt lat="42.28788265515789" lon="14.42162439988113"><ele>116.0</ele><time>2026-03-22T10:35:52Z</time></trkpt><trkpt lat="42.28787045048485" lon="14.42177055439128"><ele>116.0</ele><time>2026-03-22T10:35:53Z</time></trkpt><trkpt lat="42.28788273317365" lon="14.42192209084334"><ele>116.0</ele><time>2026-03-22T10:35:54Z</time></trkpt><trkpt lat="42.287875260821856" lon="14.422036794125361"><ele>116.0</ele><time>2026-03-22T10:35:55Z</time></trkpt><trkpt lat="42.287860924374115" lon="14.422202045111876"><ele>116.0</ele><time>2026-03-22T10:35:56Z</time></trkpt><trkpt lat="42.2878422875209" lon="14.422337807198657"><ele>115.66666666666666</ele><time>2026-03-22T10:35:57Z</time></trkpt><trkpt lat="42.287845082665484" lon="14.422435154437004"><ele>115.33333333333333</ele><time>2026-03-22T10:35:58Z</time></trkpt><trkpt lat="42.287842818433646" lon="14.422524979508134"><ele>115.0</ele><time>2026-03-22T10:35:59Z</time></trkpt><trkpt lat="42.28783553409016" lon="14.42264109778156"><ele>114.66666666666666</ele><time>2026-03-22T10:36:01Z</time></trkpt><trkpt lat="42.287876033388926" lon="14.42271139906738"><ele>114.33333333333333</ele><time>2026-03-22T10:36:03Z</time></trkpt><trkpt lat="42.2879395127805" lon="14.422745330368897"><ele>114.0</ele><time>2026-03-22T10:36:05Z</time></trkpt><trkpt lat="42.2881004034079" lon="14.42272227057452"><ele>115.6</ele><time>2026-03-22T10:36:08Z</time></trkpt><trkpt lat="42.28817363577723" lon="14.422699771463545"><ele>117.2</ele><time>2026-03-22T10:36:09Z</time></trkpt><trkpt lat="42.28825881284811" lon="14.422676243150454"><ele>118.79999999999998</ele><time>2026-03-22T10:36:11Z</time></trkpt><trkpt lat="42.28826297337939" lon="14.422811414162265"><ele>120.39999999999999</ele><time>2026-03-22T10:36:13Z</time></trkpt><trkpt lat="42.2882525829833" lon="14.422933643253414"><ele>122.0</ele><time>2026-03-22T10:36:14Z</time></trkpt><trkpt lat="42.288251382660384" lon="14.423079020401378"><ele>118.39999999999999</ele><time>2026-03-22T10:36:15Z</time></trkpt><trkpt lat="42.288243285252214" lon="14.42322581586144"><ele>114.79999999999998</ele><time>2026-03-22T10:36:16Z</time></trkpt><trkpt lat="42.288245202843974" lon="14.423353382524638"><ele>111.2</ele><time>2026-03-22T10:36:17Z</time></trkpt><trkpt lat="42.288247435759544" lon="14.423476314422947"><ele>107.6</ele><time>2026-03-22T10:36:18Z</time></trkpt><trkpt lat="42.28823877956583" lon="14.423609058652003"><ele>104.0</ele><time>2026-03-22T10:36:19Z</time></trkpt><trkpt lat="42.288230490232" lon="14.423728227205212"><ele>101.0</ele><time>2026-03-22T10:36:20Z</time></trkpt><trkpt lat="42.288223487864244" lon="14.423839315427795"><ele>98.0</ele><time>2026-03-22T10:36:21Z</time></trkpt><trkpt lat="42.28822421175716" lon="14.423977666012938"><ele>95.0</ele><time>2026-03-22T10:36:23Z</time></trkpt><trkpt lat="42.28815373352863" lon="14.424064336145886"><ele>92.0</ele><time>2026-03-22T10:36:25Z</time></trkpt><trkpt lat="42.28806645201625" lon="14.424095320868997"><ele>89.0</ele><time>2026-03-22T10:36:26Z</time></trkpt><trkpt lat="42.28791107400313" lon="14.424120782551103"><ele>89.0</ele><time>2026-03-22T10:36:27Z</time></trkpt><trkpt lat="42.287793845800536" lon="14.424155102226575"><ele>89.0</ele><time>2026-03-22T10:36:28Z</time></trkpt><trkpt lat="42.28770279052527" lon="14.424183478189706"><ele>89.0</ele><time>2026-03-22T10:36:29Z</time></trkpt><trkpt lat="42.28760313146182" lon="14.424201324600972"><ele>89.0</ele><time>2026-03-22T10:36:30Z</time></trkpt><trkpt lat="42.28752125413628" lon="14.424198020158126"><ele>89.0</ele><time>2026-03-22T10:36:31Z</time></trkpt><trkpt lat="42.28744350669286" lon="14.424174383158675"><ele>89.0</ele><time>2026-03-22T10:36:32Z</time></trkpt><trkpt lat="42.28736358785781" lon="14.424128497976525"><ele>89.0</ele><time>2026-03-22T10:36:33Z</time></trkpt><trkpt lat="42.28725755083189" lon="14.424044713576075"><ele>89.0</ele><time>2026-03-22T10:36:34Z</time></trkpt><trkpt lat="42.28712800309796" lon="14.423939267399435"><ele>89.0</ele><time>2026-03-22T10:36:35Z</time></trkpt><trkpt lat="42.28699269745704" lon="14.423835789594456"><ele>86.75</ele><time>2026-03-22T10:36:36Z</time></trkpt><trkpt lat="42.28689742042502" lon="14.423744244580893"><ele>84.5</ele><time>2026-03-22T10:36:37Z</time></trkpt><trkpt lat="42.28680853619189" lon="14.423645577677823"><ele>82.25</ele><time>2026-03-22T10:36:38Z</time></trkpt><trkpt lat="42.28672215874051" lon="14.423548214101697"><ele>80.0</ele><time>2026-03-22T10:36:39Z</time></trkpt><trkpt lat="42.28664576125098" lon="14.423436765995746"><ele>80.0</ele><time>2026-03-22T10:36:40Z</time></trkpt><trkpt lat="42.286576132175014" lon="14.423328648143974"><ele>80.0</ele><time>2026-03-22T10:36:41Z</time></trkpt><trkpt lat="42.28648363001726" lon="14.42321569457222"><ele>80.0</ele><time>2026-03-22T10:36:42Z</time></trkpt><trkpt lat="42.286381888291515" lon="14.423097824201623"><ele>80.0</ele><time>2026-03-22T10:36:43Z</time></trkpt><trkpt lat="42.28625278632857" lon="14.423002045824584"><ele>76.5</ele><time>2026-03-22T10:36:44Z</time></trkpt><trkpt lat="42.28612122210754" lon="14.42292046833064"><ele>73.0</ele><time>2026-03-22T10:36:45Z</time></trkpt><trkpt lat="42.28601179145183" lon="14.422862029298376"><ele>69.5</ele><time>2026-03-22T10:36:46Z</time></trkpt><trkpt lat="42.285867842025745" lon="14.422811900190204"><ele>66.0</ele><time>2026-03-22T10:36:47Z</time></trkpt><trkpt lat="42.28572721302489" lon="14.42275759657612"><ele>66.0</ele><time>2026-03-22T10:36:48Z</time></trkpt><trkpt lat="42.28560631945497" lon="14.422720209117486"><ele>66.0</ele><time>2026-03-22T10:36:49Z</time></trkpt><trkpt lat="42.285499876991835" lon="14.422691788666443"><ele>66.0</ele><time>2026-03-22T10:36:50Z</time></trkpt><trkpt lat="42.28541712973521" lon="14.42266004996375"><ele>66.0</ele><time>2026-03-22T10:36:51Z</time></trkpt><trkpt lat="42.28533396131768" lon="14.422627050583042"><ele>66.0</ele><time>2026-03-22T10:36:52Z</time></trkpt><trkpt lat="42.28524081150063" lon="14.422549114932549"><ele>64.33333333333333</ele><time>2026-03-22T10:36:54Z</time></trkpt><trkpt lat="42.28521064904979" lon="14.422460679942256"><ele>62.66666666666667</ele><time>2026-03-22T10:36:55Z</time></trkpt><trkpt lat="42.28519298420152" lon="14.422348780733856"><ele>61.0</ele><time>2026-03-22T10:36:56Z</time></trkpt><trkpt lat="42.285172198374255" lon="14.422264126320597"><ele>59.333333333333336</ele><time>2026-03-22T10:36:57Z</time></trkpt><trkpt lat="42.28515319528412" lon="14.422159884231421"><ele>57.66666666666667</ele><time>2026-03-22T10:37:18Z</time></trkpt><trkpt lat="42.28527515541859" lon="14.422081047146857"><ele>56.0</ele><time>2026-03-22T10:37:20Z</time></trkpt><trkpt lat="42.285380364610255" lon="14.422028115020149"><ele>56.0</ele><time>2026-03-22T10:37:21Z</time></trkpt><trkpt lat="42.285506383428654" lon="14.42196160453265"><ele>56.0</ele><time>2026-03-22T10:37:22Z</time></trkpt><trkpt lat="42.28562622286333" lon="14.421856060531615"><ele>56.0</ele><time>2026-03-22T10:37:23Z</time></trkpt><trkpt lat="42.285758413243556" lon="14.421722525879748"><ele>56.0</ele><time>2026-03-22T10:37:24Z</time></trkpt><trkpt lat="42.285886343171235" lon="14.42158022610021"><ele>59.0</ele><time>2026-03-22T10:37:25Z</time></trkpt><trkpt lat="42.28601870833284" lon="14.421453658214947"><ele>62.0</ele><time>2026-03-22T10:37:26Z</time></trkpt><trkpt lat="42.286141798611766" lon="14.42131751697621"><ele>65.0</ele><time>2026-03-22T10:37:27Z</time></trkpt><trkpt lat="42.28626519147745" lon="14.421159913628491"><ele>69.0</ele><time>2026-03-22T10:37:28Z</time></trkpt><trkpt lat="42.28638982313498" lon="14.420990352226072"><ele>73.0</ele><time>2026-03-22T10:37:29Z</time></trkpt><trkpt lat="42.28652591832122" lon="14.420817468278996"><ele>77.0</ele><time>2026-03-22T10:37:30Z</time></trkpt><trkpt lat="42.2866563107427" lon="14.420633168876162"><ele>81.66666666666667</ele><time>2026-03-22T10:37:31Z</time></trkpt><trkpt lat="42.286768100780755" lon="14.420429207331042"><ele>86.33333333333333</ele><time>2026-03-22T10:37:32Z</time></trkpt><trkpt lat="42.286882559036655" lon="14.420244549912095"><ele>91.0</ele><time>2026-03-22T10:37:33Z</time></trkpt><trkpt lat="42.286995130453754" lon="14.420070892873108"><ele>91.0</ele><time>2026-03-22T10:37:34Z</time></trkpt><trkpt lat="42.287100986460125" lon="14.419890335256532"><ele>91.0</ele><time>2026-03-22T10:37:35Z</time></trkpt><trkpt lat="42.2871927796419" lon="14.419674029207698"><ele>91.0</ele><time>2026-03-22T10:37:36Z</time></trkpt><trkpt lat="42.28726116439266" lon="14.419437848981294"><ele>98.33333333333333</ele><time>2026-03-22T10:37:37Z</time></trkpt><trkpt lat="42.28733710675701" lon="14.419196519056062"><ele>105.66666666666666</ele><time>2026-03-22T10:37:38Z</time></trkpt><trkpt lat="42.287411053797584" lon="14.418940762927003"><ele>113.0</ele><time>2026-03-22T10:37:39Z</time></trkpt><trkpt lat="42.287505227172375" lon="14.418688830773213"><ele>116.0</ele><time>2026-03-22T10:37:40Z</time></trkpt><trkpt lat="42.287596322376494" lon="14.41846550038677"><ele>119.0</ele><time>2026-03-22T10:37:41Z</time></trkpt><trkpt lat="42.287698551404816" lon="14.418251496192225"><ele>122.0</ele><time>2026-03-22T10:37:42Z</time></trkpt><trkpt lat="42.2878009786112" lon="14.418065219957898"><ele>126.66666666666666</ele><time>2026-03-22T10:37:43Z</time></trkpt><trkpt lat="42.28790205993208" lon="14.417868931686268"><ele>131.33333333333334</ele><time>2026-03-22T10:37:44Z</time></trkpt><trkpt lat="42.28801362142864" lon="14.417661277612885"><ele>136.0</ele><time>2026-03-22T10:37:45Z</time></trkpt><trkpt lat="42.288132163385214" lon="14.417441109482251"><ele>137.0</ele><time>2026-03-22T10:37:46Z</time></trkpt><trkpt lat="42.28827212019022" lon="14.417213544090353"><ele>138.0</ele><time>2026-03-22T10:37:47Z</time></trkpt><trkpt lat="42.28840811516618" lon="14.416997098977506"><ele>139.0</ele><time>2026-03-22T10:37:48Z</time></trkpt><trkpt lat="42.28851445794377" lon="14.416800313414438"><ele>140.2</ele><time>2026-03-22T10:37:49Z</time></trkpt><trkpt lat="42.28858905875561" lon="14.416645492838157"><ele>141.4</ele><time>2026-03-22T10:37:50Z</time></trkpt><trkpt lat="42.288638524987896" lon="14.416503100213879"><ele>142.6</ele><time>2026-03-22T10:37:51Z</time></trkpt><trkpt lat="42.28865336727529" lon="14.416390387823801"><ele>143.8</ele><time>2026-03-22T10:37:52Z</time></trkpt><trkpt lat="42.28862477282773" lon="14.416291776243991"><ele>145.0</ele><time>2026-03-22T10:37:53Z</time></trkpt><trkpt lat="42.28856938018864" lon="14.41617855143061"><ele>145.5</ele><time>2026-03-22T10:37:54Z</time></trkpt><trkpt lat="42.288490646894225" lon="14.416054791863912"><ele>146.0</ele><time>2026-03-22T10:37:55Z</time></trkpt><trkpt lat="42.28838796335244" lon="14.415920181917192"><ele>146.5</ele><time>2026-03-22T10:37:56Z</time></trkpt><trkpt lat="42.28832202966214" lon="14.415771860849713"><ele>147.0</ele><time>2026-03-22T10:37:57Z</time></trkpt><trkpt lat="42.28825625574257" lon="14.415613956202195"><ele>148.25</ele><time>2026-03-22T10:37:58Z</time></trkpt><trkpt lat="42.288175142501274" lon="14.415467049778734"><ele>149.5</ele><time>2026-03-22T10:37:59Z</time></trkpt><trkpt lat="42.28809532218317" lon="14.415309019486655"><ele>150.75</ele><time>2026-03-22T10:38:00Z</time></trkpt><trkpt lat="42.28802131172493" lon="14.415155735019116"><ele>152.0</ele><time>2026-03-22T10:38:01Z</time></trkpt><trkpt lat="42.28796079448993" lon="14.415026048079676"><ele>152.0</ele><time>2026-03-22T10:38:02Z</time></trkpt><trkpt lat="42.2879049239305" lon="14.4149130000423"><ele>152.0</ele><time>2026-03-22T10:38:03Z</time></trkpt><trkpt lat="42.287883677272276" lon="14.414818260673885"><ele>152.0</ele><time>2026-03-22T10:38:04Z</time></trkpt><trkpt lat="42.287795523842156" lon="14.414791188963571"><ele>152.0</ele><time>2026-03-22T10:38:06Z</time></trkpt><trkpt lat="42.28768594677213" lon="14.414935471020309"><ele>152.0</ele><time>2026-03-22T10:38:08Z</time></trkpt><trkpt lat="42.28761258124824" lon="14.415062279313533"><ele>152.0</ele><time>2026-03-22T10:38:09Z</time></trkpt><trkpt lat="42.28750627982499" lon="14.415215801236002"><ele>152.0</ele><time>2026-03-22T10:38:10Z</time></trkpt><trkpt lat="42.28740176612938" lon="14.415355506732238"><ele>152.0</ele><time>2026-03-22T10:38:11Z</time></trkpt><trkpt lat="42.28729182458355" lon="14.415479064067801"><ele>152.0</ele><time>2026-03-22T10:38:12Z</time></trkpt><trkpt lat="42.287174734332886" lon="14.415587925258501"><ele>149.66666666666666</ele><time>2026-03-22T10:38:13Z</time></trkpt><trkpt lat="42.28703486720365" lon="14.415691119151216"><ele>147.33333333333334</ele><time>2026-03-22T10:38:14Z</time></trkpt><trkpt lat="42.28689930376853" lon="14.415776157006535"><ele>145.0</ele><time>2026-03-22T10:38:15Z</time></trkpt><trkpt lat="42.28676359144833" lon="14.41585326695267"><ele>145.0</ele><time>2026-03-22T10:38:16Z</time></trkpt><trkpt lat="42.28660807590672" lon="14.4159081268096"><ele>145.0</ele><time>2026-03-22T10:38:17Z</time></trkpt><trkpt lat="42.286470187008675" lon="14.415969470572167"><ele>145.0</ele><time>2026-03-22T10:38:18Z</time></trkpt><trkpt lat="42.28632043415017" lon="14.416027054930485"><ele>144.0</ele><time>2026-03-22T10:38:19Z</time></trkpt><trkpt lat="42.28621160041098" lon="14.416078114043684"><ele>143.0</ele><time>2026-03-22T10:38:20Z</time></trkpt><trkpt lat="42.286093410138875" lon="14.41612509571655"><ele>142.0</ele><time>2026-03-22T10:38:21Z</time></trkpt><trkpt lat="42.285988028024455" lon="14.416156664261447"><ele>141.0</ele><time>2026-03-22T10:38:22Z</time></trkpt><trkpt lat="42.28588656599185" lon="14.416188017783893"><ele>141.0</ele><time>2026-03-22T10:38:23Z</time></trkpt><trkpt lat="42.28580024199804" lon="14.416214037225052"><ele>141.0</ele><time>2026-03-22T10:38:24Z</time></trkpt><trkpt lat="42.285699513334485" lon="14.41626687691595"><ele>141.0</ele><time>2026-03-22T10:38:25Z</time></trkpt><trkpt lat="42.285619619921505" lon="14.416345480736112"><ele>141.0</ele><time>2026-03-22T10:38:26Z</time></trkpt><trkpt lat="42.28554349278183" lon="14.416432608113631"><ele>141.0</ele><time>2026-03-22T10:38:27Z</time></trkpt><trkpt lat="42.28546469347087" lon="14.416508139833178"><ele>138.0</ele><time>2026-03-22T10:38:28Z</time></trkpt><trkpt lat="42.28538932159452" lon="14.416569051476294"><ele>135.0</ele><time>2026-03-22T10:38:29Z</time></trkpt><trkpt lat="42.285316756406836" lon="14.416615373325993"><ele>132.0</ele><time>2026-03-22T10:38:30Z</time></trkpt><trkpt lat="42.2852417058962" lon="14.41664387170452"><ele>129.0</ele><time>2026-03-22T10:38:31Z</time></trkpt><trkpt lat="42.285171346634925" lon="14.416654997243825"><ele>126.0</ele><time>2026-03-22T10:38:32Z</time></trkpt><trkpt lat="42.285084976407525" lon="14.416648040479574"><ele>123.0</ele><time>2026-03-22T10:38:33Z</time></trkpt><trkpt lat="42.28498936495107" lon="14.416644263677632"><ele>123.0</ele><time>2026-03-22T10:38:34Z</time></trkpt><trkpt lat="42.28490329457601" lon="14.416672037503272"><ele>123.0</ele><time>2026-03-22T10:38:35Z</time></trkpt><trkpt lat="42.284818403225614" lon="14.416695090317992"><ele>123.0</ele><time>2026-03-22T10:38:36Z</time></trkpt><trkpt lat="42.284731571728535" lon="14.416687178540919"><ele>123.0</ele><time>2026-03-22T10:38:37Z</time></trkpt><trkpt lat="42.2846504537304" lon="14.41666266458689"><ele>123.0</ele><time>2026-03-22T10:38:38Z</time></trkpt><trkpt lat="42.284573497032795" lon="14.416662322441887"><ele>123.0</ele><time>2026-03-22T10:38:39Z</time></trkpt><trkpt lat="42.284492071471874" lon="14.416678262196395"><ele>120.5</ele><time>2026-03-22T10:38:40Z</time></trkpt><trkpt lat="42.28441145527598" lon="14.416683709276926"><ele>118.0</ele><time>2026-03-22T10:38:41Z</time></trkpt><trkpt lat="42.28434156399359" lon="14.416702227243679"><ele>115.5</ele><time>2026-03-22T10:38:42Z</time></trkpt><trkpt lat="42.28426856598808" lon="14.416720134535412"><ele>113.0</ele><time>2026-03-22T10:38:43Z</time></trkpt><trkpt lat="42.28420851327633" lon="14.416749408624"><ele>110.5</ele><time>2026-03-22T10:38:44Z</time></trkpt><trkpt lat="42.28413300163431" lon="14.416827452651741"><ele>108.0</ele><time>2026-03-22T10:38:46Z</time></trkpt><trkpt lat="42.28406252687218" lon="14.416955456352545"><ele>108.0</ele><time>2026-03-22T10:38:48Z</time></trkpt><trkpt lat="42.2840279827821" lon="14.417030014321496"><ele>108.0</ele><time>2026-03-22T10:38:49Z</time></trkpt><trkpt lat="42.28396950239769" lon="14.41714932201416"><ele>108.0</ele><time>2026-03-22T10:38:51Z</time></trkpt><trkpt lat="42.28392752784096" lon="14.417257000163426"><ele>108.0</ele><time>2026-03-22T10:38:53Z</time></trkpt><trkpt lat="42.28389237161782" lon="14.417372626824461"><ele>108.0</ele><time>2026-03-22T10:38:55Z</time></trkpt><trkpt lat="42.28386402559648" lon="14.417484537225716"><ele>108.0</ele><time>2026-03-22T10:38:57Z</time></trkpt><trkpt lat="42.2838216161475" lon="14.417582341125541"><ele>104.16666666666667</ele><time>2026-03-22T10:39:00Z</time></trkpt><trkpt lat="42.28377062496773" lon="14.41768184200375"><ele>100.33333333333333</ele><time>2026-03-22T10:39:07Z</time></trkpt><trkpt lat="42.283712540607546" lon="14.417755090532532"><ele>96.5</ele><time>2026-03-22T10:39:09Z</time></trkpt><trkpt lat="42.283651068387115" lon="14.417807239135703"><ele>92.66666666666666</ele><time>2026-03-22T10:39:11Z</time></trkpt><trkpt lat="42.28360253286393" lon="14.417869300767226"><ele>88.83333333333333</ele><time>2026-03-22T10:39:13Z</time></trkpt><trkpt lat="42.28351642355944" lon="14.417898380867774"><ele>85.0</ele><time>2026-03-22T10:39:16Z</time></trkpt><trkpt lat="42.28343984278693" lon="14.417883503075405"><ele>85.0</ele><time>2026-03-22T10:39:18Z</time></trkpt><trkpt lat="42.2833670980354" lon="14.417921304889493"><ele>85.0</ele><time>2026-03-22T10:39:19Z</time></trkpt><trkpt lat="42.28325107062392" lon="14.417930105937492"><ele>85.0</ele><time>2026-03-22T10:39:20Z</time></trkpt><trkpt lat="42.28316073799843" lon="14.417955205839556"><ele>85.0</ele><time>2026-03-22T10:39:21Z</time></trkpt><trkpt lat="42.28308025597524" lon="14.41795467826863"><ele>85.0</ele><time>2026-03-22T10:39:22Z</time></trkpt><trkpt lat="42.28300527949472" lon="14.417951620283182"><ele>85.0</ele><time>2026-03-22T10:39:23Z</time></trkpt><trkpt lat="42.282902578867414" lon="14.417923231654122"><ele>81.83333333333333</ele><time>2026-03-22T10:39:25Z</time></trkpt><trkpt lat="42.28281041870692" lon="14.417912761141713"><ele>78.66666666666666</ele><time>2026-03-22T10:39:27Z</time></trkpt><trkpt lat="42.28272599158236" lon="14.41791641267859"><ele>75.5</ele><time>2026-03-22T10:39:29Z</time></trkpt><trkpt lat="42.2826530530049" lon="14.41793532354367"><ele>72.33333333333333</ele><time>2026-03-22T10:39:31Z</time></trkpt><trkpt lat="42.28258558844181" lon="14.41797967536279"><ele>69.16666666666667</ele><time>2026-03-22T10:39:33Z</time></trkpt><trkpt lat="42.28248247434438" lon="14.417983833723806"><ele>66.0</ele><time>2026-03-22T10:39:35Z</time></trkpt><trkpt lat="42.282399212206116" lon="14.417906600574439"><ele>66.0</ele><time>2026-03-22T10:39:37Z</time></trkpt><trkpt lat="42.28230077201387" lon="14.417850757454215"><ele>66.0</ele><time>2026-03-22T10:39:39Z</time></trkpt><trkpt lat="42.282190675260225" lon="14.417868938203304"><ele>66.0</ele><time>2026-03-22T10:39:41Z</time></trkpt><trkpt lat="42.28210979818491" lon="14.417874093820512"><ele>66.0</ele><time>2026-03-22T10:39:43Z</time></trkpt><trkpt lat="42.28211141559619" lon="14.41772371457551"><ele>66.0</ele><time>2026-03-22T10:39:46Z</time></trkpt><trkpt lat="42.28214233805268" lon="14.417623955764386"><ele>66.0</ele><time>2026-03-22T10:39:47Z</time></trkpt><trkpt lat="42.28220739102545" lon="14.417519900109124"><ele>66.0</ele><time>2026-03-22T10:39:49Z</time></trkpt><trkpt lat="42.2822920279595" lon="14.417444244522041"><ele>66.0</ele><time>2026-03-22T10:39:51Z</time></trkpt><trkpt lat="42.282243185771534" lon="14.417336130709183"><ele>66.0</ele><time>2026-03-22T10:39:54Z</time></trkpt><trkpt lat="42.28220125534198" lon="14.41726051533809"><ele>66.0</ele><time>2026-03-22T10:39:55Z</time></trkpt><trkpt lat="42.282156388439866" lon="14.417102245428838"><ele>64.0</ele><time>2026-03-22T10:39:57Z</time></trkpt><trkpt lat="42.28208031865759" lon="14.41701941450822"><ele>62.0</ele><time>2026-03-22T10:40:00Z</time></trkpt><trkpt lat="42.28195753717421" lon="14.416843643922933"><ele>60.0</ele><time>2026-03-22T10:40:02Z</time></trkpt><trkpt lat="42.28186799235731" lon="14.416745832552325"><ele>58.0</ele><time>2026-03-22T10:40:03Z</time></trkpt><trkpt lat="42.28176511395619" lon="14.416635036497595"><ele>58.0</ele><time>2026-03-22T10:40:04Z</time></trkpt><trkpt lat="42.28166536032226" lon="14.416519825995955"><ele>58.0</ele><time>2026-03-22T10:40:05Z</time></trkpt><trkpt lat="42.28156461440368" lon="14.416421136761404"><ele>58.0</ele><time>2026-03-22T10:40:06Z</time></trkpt><trkpt lat="42.281472574546505" lon="14.416324605089816"><ele>58.0</ele><time>2026-03-22T10:40:07Z</time></trkpt><trkpt lat="42.28139538205519" lon="14.41624328229457"><ele>58.4</ele><time>2026-03-22T10:40:08Z</time></trkpt><trkpt lat="42.28131417756498" lon="14.416160790544378"><ele>58.8</ele><time>2026-03-22T10:40:09Z</time></trkpt><trkpt lat="42.28123920181453" lon="14.416074304095716"><ele>59.2</ele><time>2026-03-22T10:40:10Z</time></trkpt><trkpt lat="42.28116225773963" lon="14.41596579383597"><ele>59.6</ele><time>2026-03-22T10:40:12Z</time></trkpt><trkpt lat="42.28113722311172" lon="14.415813995617087"><ele>60.0</ele><time>2026-03-22T10:40:14Z</time></trkpt><trkpt lat="42.281102154683715" lon="14.41567734776812"><ele>60.0</ele><time>2026-03-22T10:40:15Z</time></trkpt><trkpt lat="42.28107924952416" lon="14.41550007412123"><ele>60.0</ele><time>2026-03-22T10:40:16Z</time></trkpt><trkpt lat="42.28106416500885" lon="14.415329744029755"><ele>60.0</ele><time>2026-03-22T10:40:17Z</time></trkpt><trkpt lat="42.281076339868655" lon="14.41517254803451"><ele>60.0</ele><time>2026-03-22T10:40:18Z</time></trkpt><trkpt lat="42.28110126019734" lon="14.41499424594714"><ele>60.0</ele><time>2026-03-22T10:40:19Z</time></trkpt><trkpt lat="42.28112707335907" lon="14.414827881187676"><ele>60.0</ele><time>2026-03-22T10:40:20Z</time></trkpt><trkpt lat="42.28116224355222" lon="14.41465488160499"><ele>60.0</ele><time>2026-03-22T10:40:21Z</time></trkpt><trkpt lat="42.28119447576791" lon="14.414519746241634"><ele>60.0</ele><time>2026-03-22T10:40:22Z</time></trkpt><trkpt lat="42.281203760469495" lon="14.41436346015608"><ele>60.2</ele><time>2026-03-22T10:40:23Z</time></trkpt><trkpt lat="42.28120667252415" lon="14.414247755327454"><ele>60.4</ele><time>2026-03-22T10:40:24Z</time></trkpt><trkpt lat="42.28120598533176" lon="14.414112982897482"><ele>60.599999999999994</ele><time>2026-03-22T10:40:25Z</time></trkpt><trkpt lat="42.281177662656276" lon="14.413982116976111"><ele>60.8</ele><time>2026-03-22T10:40:26Z</time></trkpt><trkpt lat="42.28113690076835" lon="14.413844519064686"><ele>61.0</ele><time>2026-03-22T10:40:27Z</time></trkpt><trkpt lat="42.281112779965135" lon="14.413724323173149"><ele>61.33333333333333</ele><time>2026-03-22T10:40:28Z</time></trkpt><trkpt lat="42.28108780618822" lon="14.413637561650587"><ele>61.666666666666664</ele><time>2026-03-22T10:40:29Z</time></trkpt><trkpt lat="42.281042839557884" lon="14.413566946224357"><ele>62.0</ele><time>2026-03-22T10:40:30Z</time></trkpt><trkpt lat="42.280977977003026" lon="14.41349747164778"><ele>62.33333333333333</ele><time>2026-03-22T10:40:31Z</time></trkpt><trkpt lat="42.28089039153782" lon="14.413431143673732"><ele>62.666666666666664</ele><time>2026-03-22T10:40:32Z</time></trkpt><trkpt lat="42.280797089015785" lon="14.413360241048064"><ele>63.0</ele><time>2026-03-22T10:40:33Z</time></trkpt><trkpt lat="42.28070951602998" lon="14.413310701040745"><ele>63.0</ele><time>2026-03-22T10:40:34Z</time></trkpt><trkpt lat="42.28063612194575" lon="14.413244411800127"><ele>63.0</ele><time>2026-03-22T10:40:35Z</time></trkpt><trkpt lat="42.28056640855078" lon="14.413209351863525"><ele>63.0</ele><time>2026-03-22T10:40:36Z</time></trkpt><trkpt lat="42.28048076406994" lon="14.41321367550159"><ele>63.0</ele><time>2026-03-22T10:40:37Z</time></trkpt><trkpt lat="42.2803720265982" lon="14.41323903130709"><ele>63.0</ele><time>2026-03-22T10:40:38Z</time></trkpt><trkpt lat="42.28027577944461" lon="14.413259670510591"><ele>63.0</ele><time>2026-03-22T10:40:39Z</time></trkpt><trkpt lat="42.280170312552535" lon="14.413271619521998"><ele>63.0</ele><time>2026-03-22T10:40:40Z</time></trkpt><trkpt lat="42.280106106253925" lon="14.413274729408425"><ele>63.0</ele><time>2026-03-22T10:40:41Z</time></trkpt><trkpt lat="42.280052495251454" lon="14.413121806302097"><ele>63.0</ele><time>2026-03-22T10:40:44Z</time></trkpt><trkpt lat="42.280054962717635" lon="14.413031137641438"><ele>63.0</ele><time>2026-03-22T10:40:45Z</time></trkpt><trkpt lat="42.28012404101005" lon="14.412929891014299"><ele>63.0</ele><time>2026-03-22T10:40:47Z</time></trkpt><trkpt lat="42.28023584033536" lon="14.412908217852753"><ele>63.0</ele><time>2026-03-22T10:40:48Z</time></trkpt><trkpt lat="42.28031857971797" lon="14.412855259470247"><ele>63.0</ele><time>2026-03-22T10:40:49Z</time></trkpt><trkpt lat="42.28039845651508" lon="14.412769621751872"><ele>63.0</ele><time>2026-03-22T10:40:50Z</time></trkpt><trkpt lat="42.28043566220785" lon="14.412688329728221"><ele>63.0</ele><time>2026-03-22T10:40:51Z</time></trkpt><trkpt lat="42.280417100082246" lon="14.412602855444998"><ele>63.0</ele><time>2026-03-22T10:40:52Z</time></trkpt><trkpt lat="42.28036706161388" lon="14.412494745961263"><ele>63.0</ele><time>2026-03-22T10:40:53Z</time></trkpt><trkpt lat="42.280326547065876" lon="14.412404689495869"><ele>63.0</ele><time>2026-03-22T10:40:54Z</time></trkpt><trkpt lat="42.28026127740518" lon="14.412313337013808"><ele>63.0</ele><time>2026-03-22T10:40:55Z</time></trkpt><trkpt lat="42.28017912985677" lon="14.412275771741548"><ele>63.0</ele><time>2026-03-22T10:40:56Z</time></trkpt><trkpt lat="42.28009020014002" lon="14.41225115407593"><ele>63.0</ele><time>2026-03-22T10:40:57Z</time></trkpt><trkpt lat="42.280009194661744" lon="14.412212171113643"><ele>63.0</ele><time>2026-03-22T10:40:58Z</time></trkpt><trkpt lat="42.27995467292655" lon="14.412149925163435"><ele>63.166666666666664</ele><time>2026-03-22T10:40:59Z</time></trkpt><trkpt lat="42.27991266153083" lon="14.412052231377794"><ele>63.33333333333333</ele><time>2026-03-22T10:41:00Z</time></trkpt><trkpt lat="42.27988365389184" lon="14.411943794348053"><ele>63.5</ele><time>2026-03-22T10:41:01Z</time></trkpt><trkpt lat="42.27988555260922" lon="14.411819693798789"><ele>63.666666666666664</ele><time>2026-03-22T10:41:02Z</time></trkpt><trkpt lat="42.27991193389839" lon="14.41170232551443"><ele>63.83333333333333</ele><time>2026-03-22T10:41:03Z</time></trkpt><trkpt lat="42.27995485573103" lon="14.411599791354663"><ele>64.0</ele><time>2026-03-22T10:41:04Z</time></trkpt><trkpt lat="42.280028605750545" lon="14.411470615186978"><ele>64.0</ele><time>2026-03-22T10:41:05Z</time></trkpt><trkpt lat="42.280035300435756" lon="14.411349939307382"><ele>64.0</ele><time>2026-03-22T10:41:06Z</time></trkpt><trkpt lat="42.28000869953577" lon="14.411196992757079"><ele>64.0</ele><time>2026-03-22T10:41:07Z</time></trkpt><trkpt lat="42.2799510735038" lon="14.411037916352969"><ele>64.0</ele><time>2026-03-22T10:41:08Z</time></trkpt><trkpt lat="42.279898158825674" lon="14.410884090003748"><ele>64.2</ele><time>2026-03-22T10:41:09Z</time></trkpt><trkpt lat="42.27984125993816" lon="14.410746743262546"><ele>64.4</ele><time>2026-03-22T10:41:10Z</time></trkpt><trkpt lat="42.27980531695974" lon="14.410636949365413"><ele>64.6</ele><time>2026-03-22T10:41:11Z</time></trkpt><trkpt lat="42.279772934204026" lon="14.410546707807274"><ele>64.8</ele><time>2026-03-22T10:41:13Z</time></trkpt><trkpt lat="42.27984659140464" lon="14.410371188728124"><ele>65.0</ele><time>2026-03-22T10:41:15Z</time></trkpt><trkpt lat="42.27986949838555" lon="14.410233476722253"><ele>65.25</ele><time>2026-03-22T10:41:16Z</time></trkpt><trkpt lat="42.279867490128645" lon="14.410062921651473"><ele>65.5</ele><time>2026-03-22T10:41:17Z</time></trkpt><trkpt lat="42.279816477817036" lon="14.409882249492"><ele>65.75</ele><time>2026-03-22T10:41:18Z</time></trkpt><trkpt lat="42.279775888212725" lon="14.409665878872303"><ele>66.0</ele><time>2026-03-22T10:41:19Z</time></trkpt><trkpt lat="42.2796955067556" lon="14.409456202922348"><ele>66.0</ele><time>2026-03-22T10:41:20Z</time></trkpt><trkpt lat="42.27963339237187" lon="14.409240628722639"><ele>66.0</ele><time>2026-03-22T10:41:21Z</time></trkpt><trkpt lat="42.27951440730388" lon="14.409051943412612"><ele>66.0</ele><time>2026-03-22T10:41:22Z</time></trkpt><trkpt lat="42.27938395327755" lon="14.40885154617822"><ele>69.33333333333333</ele><time>2026-03-22T10:41:23Z</time></trkpt><trkpt lat="42.279252398053806" lon="14.40864844655679"><ele>72.66666666666666</ele><time>2026-03-22T10:41:24Z</time></trkpt><trkpt lat="42.279119914637256" lon="14.408468264610718"><ele>76.0</ele><time>2026-03-22T10:41:25Z</time></trkpt><trkpt lat="42.27899761459394" lon="14.408289082370747"><ele>74.75</ele><time>2026-03-22T10:41:26Z</time></trkpt><trkpt lat="42.2788945928185" lon="14.40812820695642"><ele>73.5</ele><time>2026-03-22T10:41:27Z</time></trkpt><trkpt lat="42.27880377389616" lon="14.40798524128725"><ele>72.25</ele><time>2026-03-22T10:41:28Z</time></trkpt><trkpt lat="42.278730040438106" lon="14.407881099845536"><ele>71.0</ele><time>2026-03-22T10:41:29Z</time></trkpt><trkpt lat="42.2786909130497" lon="14.407754574177618"><ele>71.0</ele><time>2026-03-22T10:41:30Z</time></trkpt><trkpt lat="42.278706228718974" lon="14.407628324173709"><ele>71.0</ele><time>2026-03-22T10:41:31Z</time></trkpt><trkpt lat="42.278722029650666" lon="14.407526390183829"><ele>71.0</ele><time>2026-03-22T10:41:32Z</time></trkpt><trkpt lat="42.27871687600407" lon="14.40737172349126"><ele>71.0</ele><time>2026-03-22T10:41:34Z</time></trkpt><trkpt lat="42.278733911971095" lon="14.40724424795206"><ele>71.0</ele><time>2026-03-22T10:41:35Z</time></trkpt><trkpt lat="42.27864921974893" lon="14.407094201856195"><ele>72.16666666666667</ele><time>2026-03-22T10:41:36Z</time></trkpt><trkpt lat="42.27863414702568" lon="14.406968939642733"><ele>73.33333333333334</ele><time>2026-03-22T10:41:37Z</time></trkpt><trkpt lat="42.2786416723959" lon="14.406857714169641"><ele>74.5</ele><time>2026-03-22T10:41:38Z</time></trkpt><trkpt lat="42.27864045629877" lon="14.406755399234086"><ele>75.66666666666667</ele><time>2026-03-22T10:41:39Z</time></trkpt><trkpt lat="42.278554213827874" lon="14.406721809119672"><ele>76.83333333333333</ele><time>2026-03-22T10:41:42Z</time></trkpt><trkpt lat="42.27851770117037" lon="14.406816583931052"><ele>78.0</ele><time>2026-03-22T10:41:43Z</time></trkpt><trkpt lat="42.278528429474115" lon="14.406954013703132"><ele>78.0</ele><time>2026-03-22T10:41:44Z</time></trkpt><trkpt lat="42.278506345333" lon="14.407046659010353"><ele>78.0</ele><time>2026-03-22T10:41:45Z</time></trkpt><trkpt lat="42.278458271436854" lon="14.407162268496183"><ele>78.0</ele><time>2026-03-22T10:41:47Z</time></trkpt><trkpt lat="42.27840181764995" lon="14.407207918866666"><ele>78.0</ele><time>2026-03-22T10:41:48Z</time></trkpt><trkpt lat="42.27833001981313" lon="14.407271974796078"><ele>78.0</ele><time>2026-03-22T10:41:49Z</time></trkpt><trkpt lat="42.278262691456064" lon="14.407344083732387"><ele>78.0</ele><time>2026-03-22T10:41:50Z</time></trkpt><trkpt lat="42.27818960558604" lon="14.407430169827041"><ele>76.2</ele><time>2026-03-22T10:41:51Z</time></trkpt><trkpt lat="42.278092693766695" lon="14.407507340779233"><ele>74.4</ele><time>2026-03-22T10:41:52Z</time></trkpt><trkpt lat="42.27801716002179" lon="14.407593614902572"><ele>72.60000000000001</ele><time>2026-03-22T10:41:53Z</time></trkpt><trkpt lat="42.277936112317" lon="14.40767187766311"><ele>70.8</ele><time>2026-03-22T10:41:54Z</time></trkpt><trkpt lat="42.277856045937455" lon="14.407746041002063"><ele>69.0</ele><time>2026-03-22T10:41:55Z</time></trkpt><trkpt lat="42.27779096885743" lon="14.407818276716274"><ele>69.0</ele><time>2026-03-22T10:41:56Z</time></trkpt><trkpt lat="42.27772968569498" lon="14.407897550618065"><ele>69.0</ele><time>2026-03-22T10:41:57Z</time></trkpt><trkpt lat="42.277684900451916" lon="14.407970335816199"><ele>69.0</ele><time>2026-03-22T10:41:58Z</time></trkpt><trkpt lat="42.27763925262015" lon="14.408029303853578"><ele>69.0</ele><time>2026-03-22T10:41:59Z</time></trkpt><trkpt lat="42.2775586483186" lon="14.408086739996362"><ele>69.0</ele><time>2026-03-22T10:42:01Z</time></trkpt><trkpt lat="42.2774536687203" lon="14.407993885739334"><ele>69.0</ele><time>2026-03-22T10:42:03Z</time></trkpt><trkpt lat="42.27736034330003" lon="14.407937687511643"><ele>68.83333333333333</ele><time>2026-03-22T10:42:04Z</time></trkpt><trkpt lat="42.277265566175124" lon="14.407898389876875"><ele>68.66666666666667</ele><time>2026-03-22T10:42:05Z</time></trkpt><trkpt lat="42.27717658604302" lon="14.40788003845497"><ele>68.5</ele><time>2026-03-22T10:42:06Z</time></trkpt><trkpt lat="42.27711308985679" lon="14.407860446255029"><ele>68.33333333333334</ele><time>2026-03-22T10:42:07Z</time></trkpt><trkpt lat="42.2770199152593" lon="14.407800951777354"><ele>68.16666666666667</ele><time>2026-03-22T10:42:09Z</time></trkpt><trkpt lat="42.27698378056218" lon="14.407706661278917"><ele>68.0</ele><time>2026-03-22T10:42:11Z</time></trkpt><trkpt lat="42.276979750543546" lon="14.407620308333168"><ele>68.0</ele><time>2026-03-22T10:42:12Z</time></trkpt><trkpt lat="42.27694609292942" lon="14.407510031467115"><ele>68.0</ele><time>2026-03-22T10:42:13Z</time></trkpt><trkpt lat="42.276912263865114" lon="14.407428322593248"><ele>68.0</ele><time>2026-03-22T10:42:14Z</time></trkpt><trkpt lat="42.27690562515112" lon="14.40730771196982"><ele>68.0</ele><time>2026-03-22T10:42:16Z</time></trkpt><trkpt lat="42.27693997125416" lon="14.40717627714778"><ele>68.0</ele><time>2026-03-22T10:42:18Z</time></trkpt><trkpt lat="42.27689253457698" lon="14.407102118856882"><ele>68.0</ele><time>2026-03-22T10:42:21Z</time></trkpt><trkpt lat="42.27682074366072" lon="14.407051202753939"><ele>68.4</ele><time>2026-03-22T10:42:24Z</time></trkpt><trkpt lat="42.276719778608225" lon="14.407017840136731"><ele>68.8</ele><time>2026-03-22T10:42:27Z</time></trkpt><trkpt lat="42.27661585042338" lon="14.407021960719891"><ele>69.2</ele><time>2026-03-22T10:42:29Z</time></trkpt><trkpt lat="42.27647268485593" lon="14.406981630505426"><ele>69.6</ele><time>2026-03-22T10:42:31Z</time></trkpt><trkpt lat="42.27638148290771" lon="14.406965113293712"><ele>70.0</ele><time>2026-03-22T10:42:32Z</time></trkpt><trkpt lat="42.27629181012287" lon="14.406956946082369"><ele>70.0</ele><time>2026-03-22T10:42:33Z</time></trkpt><trkpt lat="42.27619756775732" lon="14.406935355458955"><ele>70.0</ele><time>2026-03-22T10:42:34Z</time></trkpt><trkpt lat="42.27610985539272" lon="14.40691614737931"><ele>70.0</ele><time>2026-03-22T10:42:35Z</time></trkpt><trkpt lat="42.27602953808358" lon="14.40688409632248"><ele>70.0</ele><time>2026-03-22T10:42:36Z</time></trkpt><trkpt lat="42.27595634501506" lon="14.406823283251684"><ele>70.0</ele><time>2026-03-22T10:42:38Z</time></trkpt><trkpt lat="42.27590214345057" lon="14.406689721051368"><ele>70.0</ele><time>2026-03-22T10:42:40Z</time></trkpt><trkpt lat="42.275879266558405" lon="14.406581810746383"><ele>70.0</ele><time>2026-03-22T10:42:41Z</time></trkpt><trkpt lat="42.2758470178703" lon="14.406464910617366"><ele>70.0</ele><time>2026-03-22T10:42:42Z</time></trkpt><trkpt lat="42.27581834819376" lon="14.406353465140604"><ele>70.0</ele><time>2026-03-22T10:42:43Z</time></trkpt><trkpt lat="42.27578070883522" lon="14.406220890827818"><ele>70.0</ele><time>2026-03-22T10:42:44Z</time></trkpt><trkpt lat="42.27572080752291" lon="14.406100250349146"><ele>70.25</ele><time>2026-03-22T10:42:45Z</time></trkpt><trkpt lat="42.27563996365073" lon="14.405969871864778"><ele>70.5</ele><time>2026-03-22T10:42:46Z</time></trkpt><trkpt lat="42.27555724848743" lon="14.405842290450229"><ele>70.75</ele><time>2026-03-22T10:42:47Z</time></trkpt><trkpt lat="42.275493188697574" lon="14.405732747562952"><ele>71.0</ele><time>2026-03-22T10:42:48Z</time></trkpt><trkpt lat="42.27544142642204" lon="14.4056086106742"><ele>74.5</ele><time>2026-03-22T10:42:49Z</time></trkpt><trkpt lat="42.275420435843785" lon="14.405453512892343"><ele>78.0</ele><time>2026-03-22T10:42:50Z</time></trkpt><trkpt lat="42.2753937972594" lon="14.405304534711043"><ele>81.5</ele><time>2026-03-22T10:42:51Z</time></trkpt><trkpt lat="42.27535196195688" lon="14.405153906975256"><ele>85.0</ele><time>2026-03-22T10:42:52Z</time></trkpt><trkpt lat="42.275310671204714" lon="14.404999097580312"><ele>85.0</ele><time>2026-03-22T10:42:53Z</time></trkpt><trkpt lat="42.27527499242707" lon="14.404848460304798"><ele>85.0</ele><time>2026-03-22T10:42:54Z</time></trkpt><trkpt lat="42.27524607493191" lon="14.404703880774592"><ele>85.0</ele><time>2026-03-22T10:42:55Z</time></trkpt><trkpt lat="42.27521717100495" lon="14.404548536437321"><ele>85.0</ele><time>2026-03-22T10:42:56Z</time></trkpt><trkpt lat="42.27518095414725" lon="14.404434374549727"><ele>85.0</ele><time>2026-03-22T10:42:57Z</time></trkpt><trkpt lat="42.27512674219314" lon="14.404314491711272"><ele>88.0</ele><time>2026-03-22T10:42:58Z</time></trkpt><trkpt lat="42.2750466798035" lon="14.404237116943467"><ele>91.0</ele><time>2026-03-22T10:42:59Z</time></trkpt><trkpt lat="42.27495911906694" lon="14.404155067314896"><ele>94.0</ele><time>2026-03-22T10:43:00Z</time></trkpt><trkpt lat="42.27490202335437" lon="14.404053365897397"><ele>97.0</ele><time>2026-03-22T10:43:01Z</time></trkpt><trkpt lat="42.27487662108773" lon="14.403969394666365"><ele>100.00000000000001</ele><time>2026-03-22T10:43:02Z</time></trkpt><trkpt lat="42.274869772921114" lon="14.403873628663579"><ele>103.0</ele><time>2026-03-22T10:43:03Z</time></trkpt><trkpt lat="42.27483440403278" lon="14.403785629051749"><ele>103.25</ele><time>2026-03-22T10:43:04Z</time></trkpt><trkpt lat="42.27474709445586" lon="14.40367362418797"><ele>103.5</ele><time>2026-03-22T10:43:05Z</time></trkpt><trkpt lat="42.27464685192454" lon="14.403540499399549"><ele>103.75</ele><time>2026-03-22T10:43:06Z</time></trkpt><trkpt lat="42.27455378193573" lon="14.403391748221472"><ele>104.0</ele><time>2026-03-22T10:43:07Z</time></trkpt><trkpt lat="42.27447414550769" lon="14.40325316785511"><ele>104.0</ele><time>2026-03-22T10:43:08Z</time></trkpt><trkpt lat="42.27439552626523" lon="14.403068439289136"><ele>104.0</ele><time>2026-03-22T10:43:09Z</time></trkpt><trkpt lat="42.2743027067417" lon="14.40288628014402"><ele>104.0</ele><time>2026-03-22T10:43:10Z</time></trkpt><trkpt lat="42.274222883029225" lon="14.40271489295732"><ele>102.25</ele><time>2026-03-22T10:43:11Z</time></trkpt><trkpt lat="42.27415496817022" lon="14.402568459816763"><ele>100.5</ele><time>2026-03-22T10:43:12Z</time></trkpt><trkpt lat="42.27408619709044" lon="14.40242791811997"><ele>98.75</ele><time>2026-03-22T10:43:13Z</time></trkpt><trkpt lat="42.27402519025473" lon="14.402284337098575"><ele>97.0</ele><time>2026-03-22T10:43:14Z</time></trkpt><trkpt lat="42.2739351701674" lon="14.40213391396691"><ele>97.0</ele><time>2026-03-22T10:43:15Z</time></trkpt><trkpt lat="42.27385893532068" lon="14.401984415050434"><ele>97.0</ele><time>2026-03-22T10:43:16Z</time></trkpt><trkpt lat="42.27380555451014" lon="14.401828660150551"><ele>97.0</ele><time>2026-03-22T10:43:17Z</time></trkpt><trkpt lat="42.273754199589" lon="14.401658470464294"><ele>97.0</ele><time>2026-03-22T10:43:18Z</time></trkpt><trkpt lat="42.2737141653925" lon="14.40147808710507"><ele>99.75</ele><time>2026-03-22T10:43:19Z</time></trkpt><trkpt lat="42.27367268255046" lon="14.401280248942616"><ele>102.5</ele><time>2026-03-22T10:43:20Z</time></trkpt><trkpt lat="42.27364894098218" lon="14.401078042914504"><ele>105.25</ele><time>2026-03-22T10:43:21Z</time></trkpt><trkpt lat="42.27362903529716" lon="14.400898380754441"><ele>108.0</ele><time>2026-03-22T10:43:22Z</time></trkpt><trkpt lat="42.273641958879466" lon="14.400706826058881"><ele>108.0</ele><time>2026-03-22T10:43:23Z</time></trkpt><trkpt lat="42.27365728172688" lon="14.40053902017717"><ele>108.00000000000001</ele><time>2026-03-22T10:43:24Z</time></trkpt><trkpt lat="42.273656669844726" lon="14.400390070860313"><ele>108.00000000000001</ele><time>2026-03-22T10:43:25Z</time></trkpt><trkpt lat="42.27363426830314" lon="14.400260258610146"><ele>108.0</ele><time>2026-03-22T10:43:26Z</time></trkpt><trkpt lat="42.27359353821105" lon="14.400158834181775"><ele>108.0</ele><time>2026-03-22T10:43:27Z</time></trkpt><trkpt lat="42.273582496407" lon="14.400042697535904"><ele>111.66666666666666</ele><time>2026-03-22T10:43:28Z</time></trkpt><trkpt lat="42.2735781485692" lon="14.399848115418651"><ele>115.33333333333333</ele><time>2026-03-22T10:43:29Z</time></trkpt><trkpt lat="42.273598825605774" lon="14.399651276042187"><ele>119.0</ele><time>2026-03-22T10:43:30Z</time></trkpt><trkpt lat="42.27361497970058" lon="14.399420150174384"><ele>121.25</ele><time>2026-03-22T10:43:31Z</time></trkpt><trkpt lat="42.273606970464584" lon="14.399203183456418"><ele>123.5</ele><time>2026-03-22T10:43:32Z</time></trkpt><trkpt lat="42.27362059629411" lon="14.39902698506138"><ele>125.75</ele><time>2026-03-22T10:43:33Z</time></trkpt><trkpt lat="42.27365365464407" lon="14.398860884223106"><ele>128.0</ele><time>2026-03-22T10:43:34Z</time></trkpt><trkpt lat="42.27367702866526" lon="14.398711466104857"><ele>131.0</ele><time>2026-03-22T10:43:35Z</time></trkpt><trkpt lat="42.273694002544126" lon="14.398533863549526"><ele>134.0</ele><time>2026-03-22T10:43:36Z</time></trkpt><trkpt lat="42.27367102738951" lon="14.398376694001985"><ele>137.0</ele><time>2026-03-22T10:43:37Z</time></trkpt><trkpt lat="42.27363327562533" lon="14.398208488734307"><ele>140.0</ele><time>2026-03-22T10:43:38Z</time></trkpt><trkpt lat="42.27363143053191" lon="14.398063394633866"><ele>143.0</ele><time>2026-03-22T10:43:39Z</time></trkpt><trkpt lat="42.27363570633851" lon="14.397909075645982"><ele>146.0</ele><time>2026-03-22T10:43:40Z</time></trkpt><trkpt lat="42.273651548107054" lon="14.397713354924758"><ele>149.0</ele><time>2026-03-22T10:43:41Z</time></trkpt><trkpt lat="42.27366670622897" lon="14.397535405315573"><ele>152.0</ele><time>2026-03-22T10:43:42Z</time></trkpt><trkpt lat="42.273645786202955" lon="14.39732955004782"><ele>153.75</ele><time>2026-03-22T10:43:43Z</time></trkpt><trkpt lat="42.27366836304297" lon="14.397106891545127"><ele>155.5</ele><time>2026-03-22T10:43:44Z</time></trkpt><trkpt lat="42.273673269459195" lon="14.396947459406633"><ele>157.25</ele><time>2026-03-22T10:43:45Z</time></trkpt><trkpt lat="42.27368954946552" lon="14.39677566049967"><ele>159.0</ele><time>2026-03-22T10:43:46Z</time></trkpt><trkpt lat="42.273721215544185" lon="14.396586400932778"><ele>159.0</ele><time>2026-03-22T10:43:47Z</time></trkpt><trkpt lat="42.27376919202915" lon="14.396358576559997"><ele>159.0</ele><time>2026-03-22T10:43:48Z</time></trkpt><trkpt lat="42.27380530626419" lon="14.396147584766721"><ele>159.0</ele><time>2026-03-22T10:43:49Z</time></trkpt><trkpt lat="42.27382695892604" lon="14.395944815346477"><ele>160.5</ele><time>2026-03-22T10:43:50Z</time></trkpt><trkpt lat="42.27387860305756" lon="14.395788875468039"><ele>162.0</ele><time>2026-03-22T10:43:51Z</time></trkpt><trkpt lat="42.273947527698006" lon="14.395618624563308"><ele>163.5</ele><time>2026-03-22T10:43:52Z</time></trkpt><trkpt lat="42.27400518609199" lon="14.395395170363363"><ele>165.0</ele><time>2026-03-22T10:43:53Z</time></trkpt><trkpt lat="42.274053842280225" lon="14.395181291304842"><ele>167.6</ele><time>2026-03-22T10:43:54Z</time></trkpt><trkpt lat="42.27408386374448" lon="14.39501211848816"><ele>170.2</ele><time>2026-03-22T10:43:55Z</time></trkpt><trkpt lat="42.27408468631981" lon="14.394873255031342"><ele>172.8</ele><time>2026-03-22T10:43:56Z</time></trkpt><trkpt lat="42.27407247220444" lon="14.39472813233214"><ele>175.4</ele><time>2026-03-22T10:43:57Z</time></trkpt><trkpt lat="42.27404114081585" lon="14.394590151818033"><ele>178.0</ele><time>2026-03-22T10:43:58Z</time></trkpt><trkpt lat="42.27400960676358" lon="14.394480494532619"><ele>178.0</ele><time>2026-03-22T10:43:59Z</time></trkpt><trkpt lat="42.27397484674683" lon="14.394353350665728"><ele>178.0</ele><time>2026-03-22T10:44:00Z</time></trkpt><trkpt lat="42.273942252101826" lon="14.394212999638919"><ele>178.0</ele><time>2026-03-22T10:44:01Z</time></trkpt><trkpt lat="42.27392196566303" lon="14.394047197070424"><ele>178.0</ele><time>2026-03-22T10:44:02Z</time></trkpt><trkpt lat="42.273867930957906" lon="14.393861150830679"><ele>179.5</ele><time>2026-03-22T10:44:03Z</time></trkpt><trkpt lat="42.27379237755936" lon="14.393712682432279"><ele>181.0</ele><time>2026-03-22T10:44:04Z</time></trkpt><trkpt lat="42.2737076412222" lon="14.393535555100101"><ele>182.5</ele><time>2026-03-22T10:44:05Z</time></trkpt><trkpt lat="42.27364871199039" lon="14.393358102723278"><ele>184.0</ele><time>2026-03-22T10:44:06Z</time></trkpt><trkpt lat="42.27363565990263" lon="14.393182939179699"><ele>184.0</ele><time>2026-03-22T10:44:07Z</time></trkpt><trkpt lat="42.27365873620993" lon="14.393026145852787"><ele>184.0</ele><time>2026-03-22T10:44:08Z</time></trkpt><trkpt lat="42.27370202958698" lon="14.392879606376935"><ele>184.0</ele><time>2026-03-22T10:44:09Z</time></trkpt><trkpt lat="42.273737625570135" lon="14.392783805433488"><ele>184.0</ele><time>2026-03-22T10:44:10Z</time></trkpt><trkpt lat="42.27369448496364" lon="14.392681091568022"><ele>184.0</ele><time>2026-03-22T10:44:12Z</time></trkpt><trkpt lat="42.27361032324929" lon="14.39265311742449"><ele>185.75</ele><time>2026-03-22T10:44:13Z</time></trkpt><trkpt lat="42.27351188348517" lon="14.392620286147771"><ele>187.5</ele><time>2026-03-22T10:44:14Z</time></trkpt><trkpt lat="42.27339125111783" lon="14.3925644061639"><ele>189.25</ele><time>2026-03-22T10:44:15Z</time></trkpt><trkpt lat="42.273274355510864" lon="14.392494908357325"><ele>191.0</ele><time>2026-03-22T10:44:16Z</time></trkpt><trkpt lat="42.27314207549125" lon="14.392419007122129"><ele>193.33333333333331</ele><time>2026-03-22T10:44:17Z</time></trkpt><trkpt lat="42.27300498201012" lon="14.392332988765626"><ele>195.66666666666666</ele><time>2026-03-22T10:44:18Z</time></trkpt><trkpt lat="42.272852864814155" lon="14.39224367027219"><ele>198.0</ele><time>2026-03-22T10:44:19Z</time></trkpt><trkpt lat="42.27271605934041" lon="14.392168977842491"><ele>198.5</ele><time>2026-03-22T10:44:20Z</time></trkpt><trkpt lat="42.27258078423521" lon="14.392101043485328"><ele>199.0</ele><time>2026-03-22T10:44:21Z</time></trkpt><trkpt lat="42.27244186916853" lon="14.392025561700807"><ele>199.5</ele><time>2026-03-22T10:44:22Z</time></trkpt><trkpt lat="42.27229907084835" lon="14.391945416796757"><ele>200.0</ele><time>2026-03-22T10:44:23Z</time></trkpt><trkpt lat="42.27214965563437" lon="14.391864350656897"><ele>200.0</ele><time>2026-03-22T10:44:24Z</time></trkpt><trkpt lat="42.27199515936528" lon="14.39177733910385"><ele>200.0</ele><time>2026-03-22T10:44:25Z</time></trkpt><trkpt lat="42.271852793256244" lon="14.39169655625257"><ele>200.0</ele><time>2026-03-22T10:44:26Z</time></trkpt><trkpt lat="42.271740228247474" lon="14.391633166234984"><ele>200.0</ele><time>2026-03-22T10:44:27Z</time></trkpt><trkpt lat="42.271642610665864" lon="14.3915800079763"><ele>200.0</ele><time>2026-03-22T10:44:28Z</time></trkpt><trkpt lat="42.27154363925017" lon="14.391524240942495"><ele>200.0</ele><time>2026-03-22T10:44:29Z</time></trkpt><trkpt lat="42.27145869896781" lon="14.391475133067278"><ele>200.0</ele><time>2026-03-22T10:44:30Z</time></trkpt><trkpt lat="42.271389405463914" lon="14.391445263843995"><ele>200.0</ele><time>2026-03-22T10:44:31Z</time></trkpt><trkpt lat="42.27131122746255" lon="14.39138984398472"><ele>200.0</ele><time>2026-03-22T10:44:33Z</time></trkpt><trkpt lat="42.271187116036906" lon="14.391605195966518"><ele>199.4</ele><time>2026-03-22T10:44:35Z</time></trkpt><trkpt lat="42.27117566900486" lon="14.391736072835627"><ele>198.8</ele><time>2026-03-22T10:44:36Z</time></trkpt><trkpt lat="42.271162837494344" lon="14.391882778835386"><ele>198.2</ele><time>2026-03-22T10:44:37Z</time></trkpt><trkpt lat="42.27114979913254" lon="14.392031849651122"><ele>197.6</ele><time>2026-03-22T10:44:38Z</time></trkpt><trkpt lat="42.271135650160744" lon="14.392201299650123"><ele>197.0</ele><time>2026-03-22T10:44:39Z</time></trkpt><trkpt lat="42.27112354714496" lon="14.39238093188233"><ele>197.0</ele><time>2026-03-22T10:44:40Z</time></trkpt><trkpt lat="42.27111176569757" lon="14.392574646095923"><ele>197.0</ele><time>2026-03-22T10:44:41Z</time></trkpt><trkpt lat="42.271099491741154" lon="14.39276028347219"><ele>197.0</ele><time>2026-03-22T10:44:42Z</time></trkpt><trkpt lat="42.271087576582886" lon="14.392938209807232"><ele>197.0</ele><time>2026-03-22T10:44:43Z</time></trkpt><trkpt lat="42.27107717513383" lon="14.393113627411102"><ele>197.0</ele><time>2026-03-22T10:44:44Z</time></trkpt><trkpt lat="42.27106500558377" lon="14.393273080332825"><ele>197.0</ele><time>2026-03-22T10:44:45Z</time></trkpt><trkpt lat="42.27104645760406" lon="14.39343955975402"><ele>197.0</ele><time>2026-03-22T10:44:46Z</time></trkpt><trkpt lat="42.27102719350144" lon="14.39361447972976"><ele>197.0</ele><time>2026-03-22T10:44:47Z</time></trkpt><trkpt lat="42.27100678137117" lon="14.393791221084339"><ele>196.0</ele><time>2026-03-22T10:44:48Z</time></trkpt><trkpt lat="42.270987158868905" lon="14.393979285848793"><ele>195.0</ele><time>2026-03-22T10:44:49Z</time></trkpt><trkpt lat="42.270971314753524" lon="14.39416641404847"><ele>194.0</ele><time>2026-03-22T10:44:50Z</time></trkpt><trkpt lat="42.27095555963857" lon="14.394354516984942"><ele>193.0</ele><time>2026-03-22T10:44:51Z</time></trkpt><trkpt lat="42.27093923034074" lon="14.394549475183737"><ele>191.25</ele><time>2026-03-22T10:44:52Z</time></trkpt><trkpt lat="42.270924645299594" lon="14.394723608441033"><ele>189.5</ele><time>2026-03-22T10:44:53Z</time></trkpt><trkpt lat="42.270908006130426" lon="14.394893563885768"><ele>187.75</ele><time>2026-03-22T10:44:54Z</time></trkpt><trkpt lat="42.27088564162126" lon="14.395065153499834"><ele>186.0</ele><time>2026-03-22T10:44:55Z</time></trkpt><trkpt lat="42.27085734697529" lon="14.395258101023867"><ele>186.0</ele><time>2026-03-22T10:44:56Z</time></trkpt><trkpt lat="42.27082887466981" lon="14.395436263587246"><ele>186.0</ele><time>2026-03-22T10:44:57Z</time></trkpt><trkpt lat="42.270790373292726" lon="14.39558529798018"><ele>186.0</ele><time>2026-03-22T10:44:58Z</time></trkpt><trkpt lat="42.270733937853855" lon="14.395747455565806"><ele>186.0</ele><time>2026-03-22T10:44:59Z</time></trkpt><trkpt lat="42.270690127114506" lon="14.39593797595999"><ele>184.25</ele><time>2026-03-22T10:45:00Z</time></trkpt><trkpt lat="42.27067204071179" lon="14.396120568279724"><ele>182.5</ele><time>2026-03-22T10:45:01Z</time></trkpt><trkpt lat="42.27066774423959" lon="14.396286850293452"><ele>180.75</ele><time>2026-03-22T10:45:02Z</time></trkpt><trkpt lat="42.270662460362715" lon="14.396455555528936"><ele>179.0</ele><time>2026-03-22T10:45:03Z</time></trkpt><trkpt lat="42.27066230536724" lon="14.396625318272145"><ele>178.6</ele><time>2026-03-22T10:45:04Z</time></trkpt><trkpt lat="42.270675764588105" lon="14.396775796482908"><ele>178.2</ele><time>2026-03-22T10:45:05Z</time></trkpt><trkpt lat="42.27069426387959" lon="14.396905365430772"><ele>177.79999999999998</ele><time>2026-03-22T10:45:06Z</time></trkpt><trkpt lat="42.27070608531551" lon="14.397035698654268"><ele>177.39999999999998</ele><time>2026-03-22T10:45:07Z</time></trkpt><trkpt lat="42.270718937139186" lon="14.39717739229985"><ele>177.0</ele><time>2026-03-22T10:45:08Z</time></trkpt><trkpt lat="42.27073160420962" lon="14.39731704902887"><ele>175.39999999999998</ele><time>2026-03-22T10:45:09Z</time></trkpt><trkpt lat="42.270744205595484" lon="14.397455981620457"><ele>173.79999999999998</ele><time>2026-03-22T10:45:10Z</time></trkpt><trkpt lat="42.27075528996858" lon="14.397578188775508"><ele>172.2</ele><time>2026-03-22T10:45:11Z</time></trkpt><trkpt lat="42.27076666320343" lon="14.397710570751615"><ele>170.6</ele><time>2026-03-22T10:45:12Z</time></trkpt><trkpt lat="42.27077406202828" lon="14.397845770351118"><ele>169.0</ele><time>2026-03-22T10:45:13Z</time></trkpt><trkpt lat="42.2707811800653" lon="14.39798460180011"><ele>167.33333333333334</ele><time>2026-03-22T10:45:14Z</time></trkpt><trkpt lat="42.27079365522218" lon="14.398106715094606"><ele>165.66666666666669</ele><time>2026-03-22T10:45:15Z</time></trkpt><trkpt lat="42.27080854087436" lon="14.398203003916286"><ele>164.0</ele><time>2026-03-22T10:45:16Z</time></trkpt><trkpt lat="42.2708356792222" lon="14.398289821581821"><ele>162.33333333333334</ele><time>2026-03-22T10:45:17Z</time></trkpt><trkpt lat="42.27093011534448" lon="14.398393363704304"><ele>160.66666666666666</ele><time>2026-03-22T10:45:18Z</time></trkpt><trkpt lat="42.271019370502444" lon="14.398429147367523"><ele>159.0</ele><time>2026-03-22T10:45:19Z</time></trkpt><trkpt lat="42.271103734181274" lon="14.39852280690844"><ele>159.0</ele><time>2026-03-22T10:45:20Z</time></trkpt><trkpt lat="42.27118998582668" lon="14.398647418476001"><ele>159.0</ele><time>2026-03-22T10:45:21Z</time></trkpt><trkpt lat="42.271245439469254" lon="14.398767143057823"><ele>159.0</ele><time>2026-03-22T10:45:22Z</time></trkpt><trkpt lat="42.27125958707917" lon="14.398889973817575"><ele>159.0</ele><time>2026-03-22T10:45:24Z</time></trkpt><trkpt lat="42.271236509662195" lon="14.399014285701638"><ele>159.0</ele><time>2026-03-22T10:45:26Z</time></trkpt><trkpt lat="42.27122789131317" lon="14.39919914772859"><ele>156.6</ele><time>2026-03-22T10:45:28Z</time></trkpt><trkpt lat="42.27122159683853" lon="14.399334163086003"><ele>154.2</ele><time>2026-03-22T10:45:29Z</time></trkpt><trkpt lat="42.271320741771824" lon="14.399480658720385"><ele>151.79999999999998</ele><time>2026-03-22T10:45:30Z</time></trkpt><trkpt lat="42.271333132757874" lon="14.399626732155273"><ele>149.4</ele><time>2026-03-22T10:45:31Z</time></trkpt><trkpt lat="42.27135959436221" lon="14.399738447819347"><ele>147.0</ele><time>2026-03-22T10:45:32Z</time></trkpt><trkpt lat="42.27140649607762" lon="14.399836811326443"><ele>144.0</ele><time>2026-03-22T10:45:33Z</time></trkpt><trkpt lat="42.271463442244475" lon="14.399934302096206"><ele>141.0</ele><time>2026-03-22T10:45:34Z</time></trkpt><trkpt lat="42.27152621359493" lon="14.400027406568617"><ele>138.0</ele><time>2026-03-22T10:45:35Z</time></trkpt><trkpt lat="42.27160270090727" lon="14.400092087563657"><ele>135.0</ele><time>2026-03-22T10:45:36Z</time></trkpt><trkpt lat="42.27169103712922" lon="14.400155034864328"><ele>132.0</ele><time>2026-03-22T10:45:37Z</time></trkpt><trkpt lat="42.271765534170434" lon="14.400213756238687"><ele>132.0</ele><time>2026-03-22T10:45:38Z</time></trkpt><trkpt lat="42.2718217543346" lon="14.400273707388772"><ele>132.0</ele><time>2026-03-22T10:45:39Z</time></trkpt><trkpt lat="42.271859073882794" lon="14.400357064841415"><ele>132.0</ele><time>2026-03-22T10:45:40Z</time></trkpt><trkpt lat="42.27189238546119" lon="14.40046082739517"><ele>132.0</ele><time>2026-03-22T10:45:41Z</time></trkpt><trkpt lat="42.271923069684526" lon="14.400547586193465"><ele>132.0</ele><time>2026-03-22T10:45:42Z</time></trkpt><trkpt lat="42.27197531380781" lon="14.400643159450533"><ele>132.0</ele><time>2026-03-22T10:45:43Z</time></trkpt><trkpt lat="42.27199107237648" lon="14.40076295973325"><ele>127.25</ele><time>2026-03-22T10:45:44Z</time></trkpt><trkpt lat="42.27198456681584" lon="14.400915817801675"><ele>122.5</ele><time>2026-03-22T10:45:45Z</time></trkpt><trkpt lat="42.27197275151724" lon="14.401087065044674"><ele>117.75</ele><time>2026-03-22T10:45:46Z</time></trkpt><trkpt lat="42.271956544779556" lon="14.401251553519458"><ele>113.0</ele><time>2026-03-22T10:45:47Z</time></trkpt><trkpt lat="42.271943000569074" lon="14.40142093162712"><ele>108.5</ele><time>2026-03-22T10:45:48Z</time></trkpt><trkpt lat="42.27192628742565" lon="14.401592599024513"><ele>104.0</ele><time>2026-03-22T10:45:49Z</time></trkpt><trkpt lat="42.27190311242507" lon="14.4017657362645"><ele>99.5</ele><time>2026-03-22T10:45:50Z</time></trkpt><trkpt lat="42.27188301857799" lon="14.401949776257833"><ele>95.0</ele><time>2026-03-22T10:45:51Z</time></trkpt><trkpt lat="42.27186203382979" lon="14.402130499660888"><ele>92.0</ele><time>2026-03-22T10:45:52Z</time></trkpt><trkpt lat="42.271842447283994" lon="14.40231061863954"><ele>89.0</ele><time>2026-03-22T10:45:53Z</time></trkpt><trkpt lat="42.27182479444454" lon="14.402478216399508"><ele>86.0</ele><time>2026-03-22T10:45:54Z</time></trkpt><trkpt lat="42.27180977943156" lon="14.402613685667966"><ele>83.0</ele><time>2026-03-22T10:45:55Z</time></trkpt><trkpt lat="42.27179725645223" lon="14.402738872536286"><ele>83.0</ele><time>2026-03-22T10:45:56Z</time></trkpt><trkpt lat="42.27176750129147" lon="14.402826010706512"><ele>83.0</ele><time>2026-03-22T10:45:58Z</time></trkpt><trkpt lat="42.27168802189927" lon="14.402845971149238"><ele>83.0</ele><time>2026-03-22T10:46:00Z</time></trkpt><trkpt lat="42.27161090701215" lon="14.40281431103022"><ele>83.0</ele><time>2026-03-22T10:46:01Z</time></trkpt><trkpt lat="42.271532077011116" lon="14.402795119810468"><ele>83.0</ele><time>2026-03-22T10:46:02Z</time></trkpt><trkpt lat="42.27146038604601" lon="14.402777592024723"><ele>83.0</ele><time>2026-03-22T10:46:03Z</time></trkpt><trkpt lat="42.27141157501339" lon="14.40284529814895"><ele>82.2</ele><time>2026-03-22T10:46:05Z</time></trkpt><trkpt lat="42.271422962916766" lon="14.4029650835472"><ele>81.4</ele><time>2026-03-22T10:46:06Z</time></trkpt><trkpt lat="42.27142295177601" lon="14.403103340498317"><ele>80.60000000000001</ele><time>2026-03-22T10:46:07Z</time></trkpt><trkpt lat="42.27141602294279" lon="14.403253914612446"><ele>79.80000000000001</ele><time>2026-03-22T10:46:08Z</time></trkpt><trkpt lat="42.2714088809817" lon="14.403381225757803"><ele>79.0</ele><time>2026-03-22T10:46:09Z</time></trkpt><trkpt lat="42.2713925532594" lon="14.403510376269894"><ele>78.16666666666666</ele><time>2026-03-22T10:46:10Z</time></trkpt><trkpt lat="42.27138169758116" lon="14.403625121055207"><ele>77.33333333333333</ele><time>2026-03-22T10:46:11Z</time></trkpt><trkpt lat="42.271369414536714" lon="14.403726754182008"><ele>76.5</ele><time>2026-03-22T10:46:12Z</time></trkpt><trkpt lat="42.271356385463754" lon="14.403823178724169"><ele>75.66666666666667</ele><time>2026-03-22T10:46:13Z</time></trkpt><trkpt lat="42.27128782544984" lon="14.403829432230054"><ele>74.83333333333334</ele><time>2026-03-22T10:46:16Z</time></trkpt><trkpt lat="42.27121376932745" lon="14.403771743397188"><ele>74.0</ele><time>2026-03-22T10:46:17Z</time></trkpt><trkpt lat="42.27112368849772" lon="14.403711863683228"><ele>74.0</ele><time>2026-03-22T10:46:18Z</time></trkpt><trkpt lat="42.27103553331705" lon="14.403666399817777"><ele>74.0</ele><time>2026-03-22T10:46:19Z</time></trkpt><trkpt lat="42.270956744138175" lon="14.403641196988772"><ele>74.0</ele><time>2026-03-22T10:46:20Z</time></trkpt><trkpt lat="42.27084180417647" lon="14.403659096248626"><ele>74.0</ele><time>2026-03-22T10:46:22Z</time></trkpt><trkpt lat="42.27077889744207" lon="14.403721060391776"><ele>74.0</ele><time>2026-03-22T10:46:23Z</time></trkpt><trkpt lat="42.27070860339849" lon="14.403766491640122"><ele>74.0</ele><time>2026-03-22T10:46:24Z</time></trkpt><trkpt lat="42.270638389461006" lon="14.403766948152807"><ele>73.4</ele><time>2026-03-22T10:46:25Z</time></trkpt><trkpt lat="42.2705799177143" lon="14.403715129737925"><ele>72.80000000000001</ele><time>2026-03-22T10:46:26Z</time></trkpt><trkpt lat="42.27050195654907" lon="14.403638227760078"><ele>72.19999999999999</ele><time>2026-03-22T10:46:27Z</time></trkpt><trkpt lat="42.270415924135406" lon="14.403559082865376"><ele>71.6</ele><time>2026-03-22T10:46:28Z</time></trkpt><trkpt lat="42.27035137461655" lon="14.403448752075272"><ele>71.0</ele><time>2026-03-22T10:46:29Z</time></trkpt><trkpt lat="42.27031532612228" lon="14.403328075403941"><ele>71.0</ele><time>2026-03-22T10:46:30Z</time></trkpt><trkpt lat="42.27029648359958" lon="14.403214575078353"><ele>71.0</ele><time>2026-03-22T10:46:31Z</time></trkpt><trkpt lat="42.27023938244144" lon="14.403162607493764"><ele>71.0</ele><time>2026-03-22T10:46:33Z</time></trkpt><trkpt lat="42.27017716544724" lon="14.403272694428589"><ele>71.0</ele><time>2026-03-22T10:46:35Z</time></trkpt><trkpt lat="42.270143766180105" lon="14.40338554333563"><ele>71.0</ele><time>2026-03-22T10:46:36Z</time></trkpt><trkpt lat="42.27011520431476" lon="14.4035102112836"><ele>71.0</ele><time>2026-03-22T10:46:37Z</time></trkpt><trkpt lat="42.27006139119609" lon="14.403663753676032"><ele>71.0</ele><time>2026-03-22T10:46:38Z</time></trkpt><trkpt lat="42.26999856312551" lon="14.403825433627063"><ele>71.0</ele><time>2026-03-22T10:46:39Z</time></trkpt><trkpt lat="42.269932466150586" lon="14.403991728208299"><ele>71.0</ele><time>2026-03-22T10:46:40Z</time></trkpt><trkpt lat="42.26987466748674" lon="14.404149959976277"><ele>71.0</ele><time>2026-03-22T10:46:41Z</time></trkpt><trkpt lat="42.26981818518466" lon="14.404289367718313"><ele>71.6</ele><time>2026-03-22T10:46:42Z</time></trkpt><trkpt lat="42.26978553966552" lon="14.40438171698666"><ele>72.19999999999999</ele><time>2026-03-22T10:46:43Z</time></trkpt><trkpt lat="42.269681293050034" lon="14.404428160293325"><ele>72.80000000000001</ele><time>2026-03-22T10:46:45Z</time></trkpt><trkpt lat="42.26957555720742" lon="14.404410428748156"><ele>73.4</ele><time>2026-03-22T10:46:46Z</time></trkpt><trkpt lat="42.26945516773179" lon="14.404395701723903"><ele>74.0</ele><time>2026-03-22T10:46:47Z</time></trkpt><trkpt lat="42.26932127854907" lon="14.404395418787242"><ele>75.0</ele><time>2026-03-22T10:46:48Z</time></trkpt><trkpt lat="42.2691834101858" lon="14.404409060878573"><ele>76.0</ele><time>2026-03-22T10:46:49Z</time></trkpt><trkpt lat="42.269070914915275" lon="14.404431481193976"><ele>77.0</ele><time>2026-03-22T10:46:50Z</time></trkpt><trkpt lat="42.268992460853724" lon="14.40445196746388"><ele>78.0</ele><time>2026-03-22T10:46:51Z</time></trkpt><trkpt lat="42.26894171417109" lon="14.40451164049699"><ele>79.0</ele><time>2026-03-22T10:46:52Z</time></trkpt><trkpt lat="42.268905724522725" lon="14.404637956597321"><ele>81.80000000000001</ele><time>2026-03-22T10:46:53Z</time></trkpt><trkpt lat="42.26888338613651" lon="14.40477493960894"><ele>84.60000000000001</ele><time>2026-03-22T10:46:54Z</time></trkpt><trkpt lat="42.26886376003105" lon="14.404898561320392"><ele>87.4</ele><time>2026-03-22T10:46:55Z</time></trkpt><trkpt lat="42.26888694915742" lon="14.405027014578412"><ele>90.2</ele><time>2026-03-22T10:46:56Z</time></trkpt><trkpt lat="42.26893980454912" lon="14.405177628809364"><ele>93.0</ele><time>2026-03-22T10:46:57Z</time></trkpt><trkpt lat="42.268998719802944" lon="14.40531844203538"><ele>93.0</ele><time>2026-03-22T10:46:58Z</time></trkpt><trkpt lat="42.2690414445541" lon="14.405417808626053"><ele>93.0</ele><time>2026-03-22T10:46:59Z</time></trkpt><trkpt lat="42.26905584878123" lon="14.405534797899296"><ele>93.0</ele><time>2026-03-22T10:47:01Z</time></trkpt><trkpt lat="42.26899338216405" lon="14.405519724057346"><ele>93.0</ele><time>2026-03-22T10:47:03Z</time></trkpt><trkpt lat="42.268932687328906" lon="14.405456720222322"><ele>93.0</ele><time>2026-03-22T10:47:04Z</time></trkpt><trkpt lat="42.26884136608671" lon="14.405366138611415"><ele>93.0</ele><time>2026-03-22T10:47:05Z</time></trkpt><trkpt lat="42.26873341459265" lon="14.405249933903422"><ele>95.75</ele><time>2026-03-22T10:47:06Z</time></trkpt><trkpt lat="42.26861842839388" lon="14.405151693049026"><ele>98.5</ele><time>2026-03-22T10:47:07Z</time></trkpt><trkpt lat="42.26848881154602" lon="14.405041846311098"><ele>101.25</ele><time>2026-03-22T10:47:08Z</time></trkpt><trkpt lat="42.26835640267229" lon="14.404938461345138"><ele>104.0</ele><time>2026-03-22T10:47:09Z</time></trkpt><trkpt lat="42.26821017744654" lon="14.40482482032426"><ele>104.0</ele><time>2026-03-22T10:47:10Z</time></trkpt><trkpt lat="42.26806524094128" lon="14.404705305447525"><ele>104.0</ele><time>2026-03-22T10:47:11Z</time></trkpt><trkpt lat="42.26792455888531" lon="14.404600184278278"><ele>104.0</ele><time>2026-03-22T10:47:12Z</time></trkpt><trkpt lat="42.26779637984992" lon="14.404483367753421"><ele>104.0</ele><time>2026-03-22T10:47:13Z</time></trkpt><trkpt lat="42.26766957089622" lon="14.404353179507956"><ele>104.0</ele><time>2026-03-22T10:47:14Z</time></trkpt><trkpt lat="42.267558436316946" lon="14.404225110559963"><ele>104.0</ele><time>2026-03-22T10:47:15Z</time></trkpt><trkpt lat="42.267455480878716" lon="14.40412931949628"><ele>104.0</ele><time>2026-03-22T10:47:16Z</time></trkpt><trkpt lat="42.26733577785064" lon="14.40404752145974"><ele>107.5</ele><time>2026-03-22T10:47:17Z</time></trkpt><trkpt lat="42.26718270824351" lon="14.40405045854212"><ele>111.0</ele><time>2026-03-22T10:47:18Z</time></trkpt><trkpt lat="42.26705288893313" lon="14.403987806408747"><ele>114.5</ele><time>2026-03-22T10:47:19Z</time></trkpt><trkpt lat="42.266932101102284" lon="14.403918639789916"><ele>118.0</ele><time>2026-03-22T10:47:20Z</time></trkpt><trkpt lat="42.26680833450417" lon="14.403851791587307"><ele>114.5</ele><time>2026-03-22T10:47:21Z</time></trkpt><trkpt lat="42.2667151911557" lon="14.403731268574605"><ele>111.0</ele><time>2026-03-22T10:47:22Z</time></trkpt><trkpt lat="42.2666280235427" lon="14.403593611088377"><ele>107.5</ele><time>2026-03-22T10:47:23Z</time></trkpt><trkpt lat="42.26652753464193" lon="14.403486078119387"><ele>104.0</ele><time>2026-03-22T10:47:24Z</time></trkpt><trkpt lat="42.26646202962895" lon="14.403372683251876"><ele>105.2</ele><time>2026-03-22T10:47:25Z</time></trkpt><trkpt lat="42.266406035293336" lon="14.403272127010458"><ele>106.4</ele><time>2026-03-22T10:47:26Z</time></trkpt><trkpt lat="42.26636651655341" lon="14.40316777865605"><ele>107.6</ele><time>2026-03-22T10:47:27Z</time></trkpt><trkpt lat="42.266292187442474" lon="14.403095987772291"><ele>108.8</ele><time>2026-03-22T10:47:29Z</time></trkpt><trkpt lat="42.266249255828335" lon="14.402960831063004"><ele>110.0</ele><time>2026-03-22T10:47:42Z</time></trkpt><trkpt lat="42.26619127095323" lon="14.402856104561705"><ele>110.0</ele><time>2026-03-22T10:47:44Z</time></trkpt><trkpt lat="42.26613701070076" lon="14.402724583432287"><ele>110.0</ele><time>2026-03-22T10:47:46Z</time></trkpt><trkpt lat="42.26608060294196" lon="14.40260327348794"><ele>110.0</ele><time>2026-03-22T10:47:48Z</time></trkpt><trkpt lat="42.26596614806873" lon="14.40255758376623"><ele>110.0</ele><time>2026-03-22T10:53:38Z</time></trkpt><trkpt lat="42.266032906605304" lon="14.402619529813053"><ele>110.0</ele><time>2026-03-22T10:58:18Z</time></trkpt><trkpt lat="42.26607476984219" lon="14.402696031322456"><ele>110.0</ele><time>2026-03-22T10:58:20Z</time></trkpt><trkpt lat="42.26611714658141" lon="14.402775178969769"><ele>110.0</ele><time>2026-03-22T10:58:58Z</time></trkpt><trkpt lat="42.26619429164935" lon="14.402891580579384"><ele>110.0</ele><time>2026-03-22T10:59:00Z</time></trkpt><trkpt lat="42.266239528386016" lon="14.403074823509828"><ele>110.0</ele><time>2026-03-22T10:59:02Z</time></trkpt><trkpt lat="42.26613737007935" lon="14.402992866198286"><ele>110.0</ele><time>2026-03-22T10:59:08Z</time></trkpt><trkpt lat="42.26607823126077" lon="14.402897815012512"><ele>110.0</ele><time>2026-03-22T10:59:09Z</time></trkpt><trkpt lat="42.265997200853924" lon="14.402799084293115"><ele>110.0</ele><time>2026-03-22T10:59:10Z</time></trkpt><trkpt lat="42.26592367292227" lon="14.402673692260606"><ele>110.0</ele><time>2026-03-22T10:59:11Z</time></trkpt><trkpt lat="42.2658159573162" lon="14.402582437545368"><ele>110.0</ele><time>2026-03-22T10:59:12Z</time></trkpt><trkpt lat="42.265718776775245" lon="14.402470752597731"><ele>110.0</ele><time>2026-03-22T10:59:13Z</time></trkpt><trkpt lat="42.26561781550243" lon="14.402371778726495"><ele>110.0</ele><time>2026-03-22T10:59:14Z</time></trkpt><trkpt lat="42.2655427548331" lon="14.402270625048804"><ele>110.0</ele><time>2026-03-22T10:59:15Z</time></trkpt><trkpt lat="42.26547527560855" lon="14.402185683616123"><ele>110.0</ele><time>2026-03-22T10:59:16Z</time></trkpt><trkpt lat="42.26541145769158" lon="14.402110425336067"><ele>110.0</ele><time>2026-03-22T10:59:17Z</time></trkpt><trkpt lat="42.26534246693946" lon="14.402072075793312"><ele>110.16666666666666</ele><time>2026-03-22T10:59:18Z</time></trkpt><trkpt lat="42.26525133839309" lon="14.401998480525872"><ele>110.33333333333333</ele><time>2026-03-22T10:59:20Z</time></trkpt><trkpt lat="42.265250739269625" lon="14.401873387541618"><ele>110.5</ele><time>2026-03-22T10:59:21Z</time></trkpt><trkpt lat="42.26520868990299" lon="14.401792241199947"><ele>110.66666666666666</ele><time>2026-03-22T10:59:22Z</time></trkpt><trkpt lat="42.26516559073924" lon="14.401714146555104"><ele>110.83333333333333</ele><time>2026-03-22T10:59:23Z</time></trkpt><trkpt lat="42.26512565424249" lon="14.40164449506416"><ele>111.0</ele><time>2026-03-22T10:59:24Z</time></trkpt><trkpt lat="42.26507227037229" lon="14.401565060449721"><ele>111.0</ele><time>2026-03-22T10:59:25Z</time></trkpt><trkpt lat="42.264996549075406" lon="14.401490114418428"><ele>111.0</ele><time>2026-03-22T10:59:26Z</time></trkpt><trkpt lat="42.264885792319205" lon="14.401436088149133"><ele>111.0</ele><time>2026-03-22T10:59:27Z</time></trkpt><trkpt lat="42.26476242714533" lon="14.401357270706265"><ele>111.0</ele><time>2026-03-22T10:59:28Z</time></trkpt><trkpt lat="42.264673212136664" lon="14.40127135454186"><ele>112.6</ele><time>2026-03-22T10:59:29Z</time></trkpt><trkpt lat="42.26460380764602" lon="14.401193628966045"><ele>114.19999999999999</ele><time>2026-03-22T10:59:30Z</time></trkpt><trkpt lat="42.26456252636475" lon="14.401076735990436"><ele>115.80000000000001</ele><time>2026-03-22T10:59:31Z</time></trkpt><trkpt lat="42.26456567155718" lon="14.40090641138314"><ele>117.4</ele><time>2026-03-22T10:59:32Z</time></trkpt><trkpt lat="42.26455188791033" lon="14.400740936924352"><ele>119.0</ele><time>2026-03-22T10:59:33Z</time></trkpt><trkpt lat="42.264532671418486" lon="14.400548075719385"><ele>119.0</ele><time>2026-03-22T10:59:34Z</time></trkpt><trkpt lat="42.26453605458293" lon="14.400357150566425"><ele>119.0</ele><time>2026-03-22T10:59:35Z</time></trkpt><trkpt lat="42.26455649140563" lon="14.40017890205192"><ele>119.0</ele><time>2026-03-22T10:59:36Z</time></trkpt><trkpt lat="42.26459901438882" lon="14.400088400773196"><ele>119.0</ele><time>2026-03-22T10:59:37Z</time></trkpt><trkpt lat="42.26464738021235" lon="14.399992041620392"><ele>119.0</ele><time>2026-03-22T10:59:38Z</time></trkpt><trkpt lat="42.26463692378796" lon="14.399831553840949"><ele>119.0</ele><time>2026-03-22T10:59:39Z</time></trkpt><trkpt lat="42.26447952825166" lon="14.399687725404005"><ele>119.0</ele><time>2026-03-22T10:59:40Z</time></trkpt><trkpt lat="42.26436420937156" lon="14.399619860628018"><ele>119.0</ele><time>2026-03-22T10:59:41Z</time></trkpt><trkpt lat="42.264255964169706" lon="14.399540094155604"><ele>119.0</ele><time>2026-03-22T10:59:42Z</time></trkpt><trkpt lat="42.26419415087877" lon="14.399421428219132"><ele>116.0</ele><time>2026-03-22T10:59:43Z</time></trkpt><trkpt lat="42.264157126445795" lon="14.399242604602383"><ele>113.0</ele><time>2026-03-22T10:59:44Z</time></trkpt><trkpt lat="42.264108656583694" lon="14.399052025356765"><ele>110.0</ele><time>2026-03-22T10:59:45Z</time></trkpt><trkpt lat="42.26406964090823" lon="14.398868892037964"><ele>107.0</ele><time>2026-03-22T10:59:46Z</time></trkpt><trkpt lat="42.26403264799803" lon="14.398724374131916"><ele>106.0</ele><time>2026-03-22T10:59:47Z</time></trkpt><trkpt lat="42.26400264622822" lon="14.398512658593726"><ele>104.99999999999999</ele><time>2026-03-22T10:59:48Z</time></trkpt><trkpt lat="42.263992949424576" lon="14.39838766483322"><ele>104.0</ele><time>2026-03-22T10:59:49Z</time></trkpt><trkpt lat="42.263970203563495" lon="14.398293257575139"><ele>103.0</ele><time>2026-03-22T10:59:50Z</time></trkpt><trkpt lat="42.26390907055087" lon="14.398195365861067"><ele>102.0</ele><time>2026-03-22T10:59:51Z</time></trkpt><trkpt lat="42.263805452085315" lon="14.398105039942687"><ele>103.5</ele><time>2026-03-22T10:59:52Z</time></trkpt><trkpt lat="42.26368357814399" lon="14.398014379854303"><ele>105.0</ele><time>2026-03-22T10:59:53Z</time></trkpt><trkpt lat="42.26355167615285" lon="14.397950408406443"><ele>106.5</ele><time>2026-03-22T10:59:54Z</time></trkpt><trkpt lat="42.263402745708966" lon="14.397926919200666"><ele>108.0</ele><time>2026-03-22T10:59:55Z</time></trkpt><trkpt lat="42.263238305808066" lon="14.397859482494157"><ele>112.0</ele><time>2026-03-22T10:59:56Z</time></trkpt><trkpt lat="42.26307005804749" lon="14.397805262225168"><ele>116.0</ele><time>2026-03-22T10:59:57Z</time></trkpt><trkpt lat="42.262912392709225" lon="14.397771839891092"><ele>120.0</ele><time>2026-03-22T10:59:58Z</time></trkpt><trkpt lat="42.26277151407903" lon="14.397737197584997"><ele>120.0</ele><time>2026-03-22T10:59:59Z</time></trkpt><trkpt lat="42.26264544131704" lon="14.397701081116978"><ele>120.0</ele><time>2026-03-22T11:00:00Z</time></trkpt><trkpt lat="42.262498509182215" lon="14.397658067828196"><ele>120.0</ele><time>2026-03-22T11:00:01Z</time></trkpt><trkpt lat="42.262332556022784" lon="14.397647650568944"><ele>120.0</ele><time>2026-03-22T11:00:02Z</time></trkpt><trkpt lat="42.2621659091611" lon="14.397621402317759"><ele>123.0</ele><time>2026-03-22T11:00:03Z</time></trkpt><trkpt lat="42.2620198153479" lon="14.397580303717294"><ele>126.0</ele><time>2026-03-22T11:00:04Z</time></trkpt><trkpt lat="42.261868142025875" lon="14.397555869289265"><ele>129.0</ele><time>2026-03-22T11:00:05Z</time></trkpt><trkpt lat="42.261711383872" lon="14.397555030957033"><ele>129.0</ele><time>2026-03-22T11:00:06Z</time></trkpt><trkpt lat="42.26157030145078" lon="14.397553275256657"><ele>129.0</ele><time>2026-03-22T11:00:07Z</time></trkpt><trkpt lat="42.26140518921745" lon="14.397546562577805"><ele>129.0</ele><time>2026-03-22T11:00:08Z</time></trkpt><trkpt lat="42.26124168254712" lon="14.397538935114392"><ele>132.0</ele><time>2026-03-22T11:00:09Z</time></trkpt><trkpt lat="42.26106989637421" lon="14.397522285380177"><ele>135.0</ele><time>2026-03-22T11:00:10Z</time></trkpt><trkpt lat="42.26089682872626" lon="14.397487941201387"><ele>138.0</ele><time>2026-03-22T11:00:11Z</time></trkpt><trkpt lat="42.26072159297948" lon="14.397452346383725"><ele>140.33333333333334</ele><time>2026-03-22T11:00:12Z</time></trkpt><trkpt lat="42.260541921332525" lon="14.397443178289503"><ele>142.66666666666669</ele><time>2026-03-22T11:00:13Z</time></trkpt><trkpt lat="42.26035760715945" lon="14.39744861315381"><ele>145.0</ele><time>2026-03-22T11:00:14Z</time></trkpt><trkpt lat="42.2601806520663" lon="14.397455939052247"><ele>145.0</ele><time>2026-03-22T11:00:15Z</time></trkpt><trkpt lat="42.260005467431284" lon="14.397472429039937"><ele>145.0</ele><time>2026-03-22T11:00:16Z</time></trkpt><trkpt lat="42.25984412108076" lon="14.397499699734142"><ele>145.0</ele><time>2026-03-22T11:00:17Z</time></trkpt><trkpt lat="42.25970929319264" lon="14.397523714220034"><ele>146.25</ele><time>2026-03-22T11:00:18Z</time></trkpt><trkpt lat="42.25960489177366" lon="14.39754221055027"><ele>147.5</ele><time>2026-03-22T11:00:19Z</time></trkpt><trkpt lat="42.25948808031755" lon="14.397479487804059"><ele>148.75</ele><time>2026-03-22T11:00:20Z</time></trkpt><trkpt lat="42.25936722490355" lon="14.39745404258833"><ele>150.0</ele><time>2026-03-22T11:00:21Z</time></trkpt><trkpt lat="42.2592387990755" lon="14.397480438206781"><ele>150.0</ele><time>2026-03-22T11:00:22Z</time></trkpt><trkpt lat="42.25909020002554" lon="14.397485802271335"><ele>150.0</ele><time>2026-03-22T11:00:23Z</time></trkpt><trkpt lat="42.258949818745876" lon="14.39750087833819"><ele>150.0</ele><time>2026-03-22T11:00:24Z</time></trkpt><trkpt lat="42.25879440835441" lon="14.39750088013289"><ele>150.0</ele><time>2026-03-22T11:00:25Z</time></trkpt><trkpt lat="42.258678740937" lon="14.397382677553512"><ele>152.66666666666666</ele><time>2026-03-22T11:00:26Z</time></trkpt><trkpt lat="42.25848178797812" lon="14.397613350396858"><ele>155.33333333333331</ele><time>2026-03-22T11:00:27Z</time></trkpt><trkpt lat="42.25833979866079" lon="14.397613894437715"><ele>158.0</ele><time>2026-03-22T11:00:28Z</time></trkpt><trkpt lat="42.25820720081623" lon="14.397591192602771"><ele>159.25</ele><time>2026-03-22T11:00:29Z</time></trkpt><trkpt lat="42.25806157437685" lon="14.397567325071135"><ele>160.5</ele><time>2026-03-22T11:00:30Z</time></trkpt><trkpt lat="42.257923318301174" lon="14.39755047230083"><ele>161.75</ele><time>2026-03-22T11:00:31Z</time></trkpt><trkpt lat="42.25778554796135" lon="14.397520908087579"><ele>163.0</ele><time>2026-03-22T11:00:32Z</time></trkpt><trkpt lat="42.25765300615881" lon="14.397489004672186"><ele>163.0</ele><time>2026-03-22T11:00:33Z</time></trkpt><trkpt lat="42.257516793196295" lon="14.397493672050196"><ele>163.0</ele><time>2026-03-22T11:00:34Z</time></trkpt><trkpt lat="42.25742070751004" lon="14.397527890571073"><ele>163.0</ele><time>2026-03-22T11:00:35Z</time></trkpt><trkpt lat="42.2573336392406" lon="14.397584998751121"><ele>163.0</ele><time>2026-03-22T11:00:36Z</time></trkpt><trkpt lat="42.25723914999404" lon="14.397663514828794"><ele>163.0</ele><time>2026-03-22T11:00:37Z</time></trkpt><trkpt lat="42.25711786412783" lon="14.397738567193848"><ele>164.0</ele><time>2026-03-22T11:00:38Z</time></trkpt><trkpt lat="42.25699486873219" lon="14.397779304835224"><ele>165.0</ele><time>2026-03-22T11:00:39Z</time></trkpt><trkpt lat="42.256831843328655" lon="14.397822393953906"><ele>166.0</ele><time>2026-03-22T11:00:40Z</time></trkpt><trkpt lat="42.256702067283236" lon="14.397827284113335"><ele>167.0</ele><time>2026-03-22T11:00:41Z</time></trkpt><trkpt lat="42.256615409105635" lon="14.39777742448364"><ele>167.0</ele><time>2026-03-22T11:00:42Z</time></trkpt><trkpt lat="42.25652761472364" lon="14.39770454444259"><ele>167.0</ele><time>2026-03-22T11:00:43Z</time></trkpt><trkpt lat="42.256475149440675" lon="14.397644130779856"><ele>167.0</ele><time>2026-03-22T11:00:44Z</time></trkpt><trkpt lat="42.25638256679632" lon="14.397556988851543"><ele>167.0</ele><time>2026-03-22T11:00:45Z</time></trkpt><trkpt lat="42.25627362306915" lon="14.397524147248417"><ele>167.0</ele><time>2026-03-22T11:00:46Z</time></trkpt><trkpt lat="42.25613294364948" lon="14.397539285960008"><ele>169.0</ele><time>2026-03-22T11:00:47Z</time></trkpt><trkpt lat="42.25600636054565" lon="14.39752346668632"><ele>171.0</ele><time>2026-03-22T11:00:48Z</time></trkpt><trkpt lat="42.25585858850741" lon="14.397517751813636"><ele>173.0</ele><time>2026-03-22T11:00:49Z</time></trkpt><trkpt lat="42.255750495418276" lon="14.397526964250444"><ele>175.0</ele><time>2026-03-22T11:00:50Z</time></trkpt><trkpt lat="42.255623761618075" lon="14.397519927728842"><ele>176.2</ele><time>2026-03-22T11:00:51Z</time></trkpt><trkpt lat="42.25550236843309" lon="14.397535061294054"><ele>177.4</ele><time>2026-03-22T11:00:52Z</time></trkpt><trkpt lat="42.255386591418414" lon="14.397518003212976"><ele>178.60000000000002</ele><time>2026-03-22T11:00:53Z</time></trkpt><trkpt lat="42.255295401706796" lon="14.397475810577435"><ele>179.8</ele><time>2026-03-22T11:00:54Z</time></trkpt><trkpt lat="42.255210267132036" lon="14.397411225888717"><ele>181.0</ele><time>2026-03-22T11:00:55Z</time></trkpt><trkpt lat="42.255117418869816" lon="14.397347197914335"><ele>181.0</ele><time>2026-03-22T11:00:56Z</time></trkpt><trkpt lat="42.2550093313126" lon="14.397306922478755"><ele>181.0</ele><time>2026-03-22T11:00:57Z</time></trkpt><trkpt lat="42.254889035019396" lon="14.397255992024423"><ele>181.0</ele><time>2026-03-22T11:00:58Z</time></trkpt><trkpt lat="42.25476997316537" lon="14.397232763155557"><ele>181.0</ele><time>2026-03-22T11:00:59Z</time></trkpt><trkpt lat="42.25461835184217" lon="14.39725537960178"><ele>180.75</ele><time>2026-03-22T11:01:00Z</time></trkpt><trkpt lat="42.25449185424262" lon="14.397233206476512"><ele>180.5</ele><time>2026-03-22T11:01:01Z</time></trkpt><trkpt lat="42.254379661262455" lon="14.397211508937543"><ele>180.25</ele><time>2026-03-22T11:01:02Z</time></trkpt><trkpt lat="42.254253306643925" lon="14.397078614082165"><ele>180.0</ele><time>2026-03-22T11:01:03Z</time></trkpt><trkpt lat="42.25414598858445" lon="14.396944339252208"><ele>180.75</ele><time>2026-03-22T11:01:04Z</time></trkpt><trkpt lat="42.25403220113354" lon="14.396829045527754"><ele>181.5</ele><time>2026-03-22T11:01:05Z</time></trkpt><trkpt lat="42.25391583877153" lon="14.39670663665661"><ele>182.25</ele><time>2026-03-22T11:01:06Z</time></trkpt><trkpt lat="42.25383671580018" lon="14.396567918742635"><ele>183.0</ele><time>2026-03-22T11:01:07Z</time></trkpt><trkpt lat="42.25377193453824" lon="14.396450436804075"><ele>185.83333333333334</ele><time>2026-03-22T11:01:08Z</time></trkpt><trkpt lat="42.25370687016969" lon="14.396334406809514"><ele>188.66666666666669</ele><time>2026-03-22T11:01:09Z</time></trkpt><trkpt lat="42.25364220343837" lon="14.396226535623796"><ele>191.5</ele><time>2026-03-22T11:01:10Z</time></trkpt><trkpt lat="42.25358089566258" lon="14.396172605471847"><ele>194.33333333333334</ele><time>2026-03-22T11:01:11Z</time></trkpt><trkpt lat="42.253515577661354" lon="14.396172174107432"><ele>197.16666666666669</ele><time>2026-03-22T11:01:12Z</time></trkpt><trkpt lat="42.253441519941404" lon="14.396202111810787"><ele>200.0</ele><time>2026-03-22T11:01:13Z</time></trkpt><trkpt lat="42.25336811219993" lon="14.396174665760952"><ele>200.0</ele><time>2026-03-22T11:01:15Z</time></trkpt><trkpt lat="42.25347011712291" lon="14.396152081187283"><ele>200.0</ele><time>2026-03-22T11:01:19Z</time></trkpt><trkpt lat="42.25357344380784" lon="14.396150390477878"><ele>200.0</ele><time>2026-03-22T11:01:20Z</time></trkpt><trkpt lat="42.25367301578618" lon="14.396040735879632"><ele>200.0</ele><time>2026-03-22T11:01:21Z</time></trkpt><trkpt lat="42.25370731740748" lon="14.395897916789677"><ele>200.0</ele><time>2026-03-22T11:01:22Z</time></trkpt><trkpt lat="42.253702089371096" lon="14.395755273554109"><ele>200.0</ele><time>2026-03-22T11:01:23Z</time></trkpt><trkpt lat="42.253702668845634" lon="14.395624837037543"><ele>200.0</ele><time>2026-03-22T11:01:24Z</time></trkpt><trkpt lat="42.25374607067898" lon="14.395528529737234"><ele>200.0</ele><time>2026-03-22T11:01:25Z</time></trkpt><trkpt lat="42.253809969274855" lon="14.39543012117719"><ele>200.0</ele><time>2026-03-22T11:01:26Z</time></trkpt><trkpt lat="42.253898971826246" lon="14.395375159538025"><ele>200.0</ele><time>2026-03-22T11:01:27Z</time></trkpt><trkpt lat="42.25398420788072" lon="14.395343988769548"><ele>195.75</ele><time>2026-03-22T11:01:28Z</time></trkpt><trkpt lat="42.25409725523754" lon="14.395409733099111"><ele>191.5</ele><time>2026-03-22T11:01:29Z</time></trkpt><trkpt lat="42.25423967583409" lon="14.395404099553527"><ele>187.25</ele><time>2026-03-22T11:01:30Z</time></trkpt><trkpt lat="42.25436157345032" lon="14.395394118917412"><ele>183.0</ele><time>2026-03-22T11:01:31Z</time></trkpt><trkpt lat="42.25447768986405" lon="14.39536149561326"><ele>183.0</ele><time>2026-03-22T11:01:32Z</time></trkpt><trkpt lat="42.25458850198625" lon="14.395334488489535"><ele>183.0</ele><time>2026-03-22T11:01:33Z</time></trkpt><trkpt lat="42.25470602218944" lon="14.395298423521396"><ele>183.0</ele><time>2026-03-22T11:01:34Z</time></trkpt><trkpt lat="42.25479992587483" lon="14.39524943091745"><ele>183.0</ele><time>2026-03-22T11:01:35Z</time></trkpt><trkpt lat="42.25488200528475" lon="14.395220828399156"><ele>183.0</ele><time>2026-03-22T11:01:36Z</time></trkpt><trkpt lat="42.25497562141642" lon="14.395239503204916"><ele>181.4</ele><time>2026-03-22T11:01:37Z</time></trkpt><trkpt lat="42.255069697366906" lon="14.395226372727363"><ele>179.8</ele><time>2026-03-22T11:01:38Z</time></trkpt><trkpt lat="42.25517211270971" lon="14.395200500258184"><ele>178.2</ele><time>2026-03-22T11:01:39Z</time></trkpt><trkpt lat="42.25528187091857" lon="14.39519007643842"><ele>176.6</ele><time>2026-03-22T11:01:40Z</time></trkpt><trkpt lat="42.25537956028757" lon="14.395204711209814"><ele>175.0</ele><time>2026-03-22T11:01:41Z</time></trkpt><trkpt lat="42.25546684450145" lon="14.395225982903561"><ele>175.0</ele><time>2026-03-22T11:01:42Z</time></trkpt><trkpt lat="42.25554657492106" lon="14.395258560147981"><ele>175.0</ele><time>2026-03-22T11:01:43Z</time></trkpt><trkpt lat="42.25562500911623" lon="14.395294872856036"><ele>175.0</ele><time>2026-03-22T11:01:44Z</time></trkpt><trkpt lat="42.25570731562506" lon="14.395316867973545"><ele>175.0</ele><time>2026-03-22T11:01:45Z</time></trkpt><trkpt lat="42.25579756113103" lon="14.395343782847235"><ele>175.0</ele><time>2026-03-22T11:01:46Z</time></trkpt><trkpt lat="42.255901549439635" lon="14.395326058377805"><ele>175.0</ele><time>2026-03-22T11:01:47Z</time></trkpt><trkpt lat="42.25598675709961" lon="14.395347440034252"><ele>173.5</ele><time>2026-03-22T11:01:48Z</time></trkpt><trkpt lat="42.25606722059547" lon="14.395336353464472"><ele>172.0</ele><time>2026-03-22T11:01:49Z</time></trkpt><trkpt lat="42.25616039137368" lon="14.395268023624482"><ele>170.5</ele><time>2026-03-22T11:01:51Z</time></trkpt><trkpt lat="42.256187445970575" lon="14.395180528036997"><ele>169.0</ele><time>2026-03-22T11:01:52Z</time></trkpt><trkpt lat="42.25623047969631" lon="14.395103601594833"><ele>167.5</ele><time>2026-03-22T11:01:53Z</time></trkpt><trkpt lat="42.256290857173454" lon="14.395042977358694"><ele>166.0</ele><time>2026-03-22T11:01:54Z</time></trkpt><trkpt lat="42.256382841675226" lon="14.395033864637623"><ele>166.0</ele><time>2026-03-22T11:01:56Z</time></trkpt><trkpt lat="42.25645071775171" lon="14.39507032464779"><ele>166.0</ele><time>2026-03-22T11:01:57Z</time></trkpt><trkpt lat="42.25653504743296" lon="14.395105014064175"><ele>166.0</ele><time>2026-03-22T11:01:58Z</time></trkpt><trkpt lat="42.256632600820154" lon="14.395088348074802"><ele>166.0</ele><time>2026-03-22T11:01:59Z</time></trkpt><trkpt lat="42.256732388228414" lon="14.395089023804227"><ele>166.0</ele><time>2026-03-22T11:02:00Z</time></trkpt><trkpt lat="42.256835170058565" lon="14.395081798865883"><ele>163.4</ele><time>2026-03-22T11:02:01Z</time></trkpt><trkpt lat="42.256950705825666" lon="14.395085860763752"><ele>160.8</ele><time>2026-03-22T11:02:02Z</time></trkpt><trkpt lat="42.25704766274454" lon="14.395113832505933"><ele>158.20000000000002</ele><time>2026-03-22T11:02:03Z</time></trkpt><trkpt lat="42.25714987990112" lon="14.39514174410056"><ele>155.60000000000002</ele><time>2026-03-22T11:02:04Z</time></trkpt><trkpt lat="42.25723189443499" lon="14.395140730193317"><ele>153.0</ele><time>2026-03-22T11:02:05Z</time></trkpt><trkpt lat="42.25732773852772" lon="14.395130236019495"><ele>150.0</ele><time>2026-03-22T11:02:06Z</time></trkpt><trkpt lat="42.25741798825489" lon="14.395119101798164"><ele>147.0</ele><time>2026-03-22T11:02:07Z</time></trkpt><trkpt lat="42.257502415116235" lon="14.39509622913171"><ele>144.0</ele><time>2026-03-22T11:02:08Z</time></trkpt><trkpt lat="42.257581799191875" lon="14.395061696578393"><ele>141.0</ele><time>2026-03-22T11:02:09Z</time></trkpt><trkpt lat="42.257670065857916" lon="14.394999266844929"><ele>138.0</ele><time>2026-03-22T11:02:10Z</time></trkpt><trkpt lat="42.257755156442556" lon="14.394946317792312"><ele>138.0</ele><time>2026-03-22T11:02:11Z</time></trkpt><trkpt lat="42.25783215692512" lon="14.394918286182085"><ele>138.0</ele><time>2026-03-22T11:02:12Z</time></trkpt><trkpt lat="42.25791920639374" lon="14.394913690784765"><ele>138.0</ele><time>2026-03-22T11:02:13Z</time></trkpt><trkpt lat="42.258038923715795" lon="14.39490054232531"><ele>138.0</ele><time>2026-03-22T11:02:14Z</time></trkpt><trkpt lat="42.258149050146656" lon="14.394849646565108"><ele>138.0</ele><time>2026-03-22T11:02:15Z</time></trkpt><trkpt lat="42.25826412429318" lon="14.39481552024673"><ele>136.0</ele><time>2026-03-22T11:02:16Z</time></trkpt><trkpt lat="42.25836186519438" lon="14.394756236539903"><ele>134.0</ele><time>2026-03-22T11:02:17Z</time></trkpt><trkpt lat="42.25845860219443" lon="14.394695540766769"><ele>132.0</ele><time>2026-03-22T11:02:18Z</time></trkpt><trkpt lat="42.25855933378979" lon="14.394636341032632"><ele>130.0</ele><time>2026-03-22T11:02:19Z</time></trkpt><trkpt lat="42.25864754039628" lon="14.394593080871196"><ele>128.0</ele><time>2026-03-22T11:02:20Z</time></trkpt><trkpt lat="42.258725215104036" lon="14.394551322998302"><ele>128.0</ele><time>2026-03-22T11:02:21Z</time></trkpt><trkpt lat="42.25879408944564" lon="14.394477392842711"><ele>128.0</ele><time>2026-03-22T11:02:22Z</time></trkpt><trkpt lat="42.25886771008509" lon="14.394380617734273"><ele>128.0</ele><time>2026-03-22T11:02:23Z</time></trkpt><trkpt lat="42.25896076445757" lon="14.394287777126152"><ele>128.0</ele><time>2026-03-22T11:02:24Z</time></trkpt><trkpt lat="42.25908909971151" lon="14.394145982115027"><ele>124.66666666666666</ele><time>2026-03-22T11:02:25Z</time></trkpt><trkpt lat="42.259209215287584" lon="14.394021576443174"><ele>121.33333333333334</ele><time>2026-03-22T11:02:26Z</time></trkpt><trkpt lat="42.25934121103376" lon="14.393938811168177"><ele>118.0</ele><time>2026-03-22T11:02:27Z</time></trkpt><trkpt lat="42.25948096036719" lon="14.393836323859238"><ele>116.66666666666667</ele><time>2026-03-22T11:02:28Z</time></trkpt><trkpt lat="42.25961977879781" lon="14.393743224279017"><ele>115.33333333333334</ele><time>2026-03-22T11:02:29Z</time></trkpt><trkpt lat="42.25978272931313" lon="14.39362384178955"><ele>114.0</ele><time>2026-03-22T11:02:30Z</time></trkpt><trkpt lat="42.25993263313907" lon="14.39354846249904"><ele>111.66666666666666</ele><time>2026-03-22T11:02:31Z</time></trkpt><trkpt lat="42.260084776016804" lon="14.393443518016037"><ele>109.33333333333333</ele><time>2026-03-22T11:02:32Z</time></trkpt><trkpt lat="42.26022013247202" lon="14.39333877827186"><ele>107.0</ele><time>2026-03-22T11:02:33Z</time></trkpt><trkpt lat="42.26036379871684" lon="14.393233189650763"><ele>107.0</ele><time>2026-03-22T11:02:34Z</time></trkpt><trkpt lat="42.260526670885696" lon="14.393134348706731"><ele>107.0</ele><time>2026-03-22T11:02:35Z</time></trkpt><trkpt lat="42.26068407127842" lon="14.393039699078523"><ele>107.0</ele><time>2026-03-22T11:02:36Z</time></trkpt><trkpt lat="42.26081720507509" lon="14.39295112065906"><ele>105.25</ele><time>2026-03-22T11:02:37Z</time></trkpt><trkpt lat="42.260957458946265" lon="14.392885301688219"><ele>103.5</ele><time>2026-03-22T11:02:38Z</time></trkpt><trkpt lat="42.26107246243445" lon="14.392802039445256"><ele>101.75</ele><time>2026-03-22T11:02:39Z</time></trkpt><trkpt lat="42.26119045606985" lon="14.392739816403989"><ele>100.0</ele><time>2026-03-22T11:02:40Z</time></trkpt><trkpt lat="42.26129971758796" lon="14.392656345261514"><ele>100.0</ele><time>2026-03-22T11:02:41Z</time></trkpt><trkpt lat="42.261424965748986" lon="14.39258021091953"><ele>100.0</ele><time>2026-03-22T11:02:42Z</time></trkpt><trkpt lat="42.26155035665867" lon="14.392501412421119"><ele>100.0</ele><time>2026-03-22T11:02:43Z</time></trkpt><trkpt lat="42.261667834598356" lon="14.392416210279494"><ele>100.0</ele><time>2026-03-22T11:02:44Z</time></trkpt><trkpt lat="42.261788456286425" lon="14.39229848426481"><ele>98.75</ele><time>2026-03-22T11:02:45Z</time></trkpt><trkpt lat="42.261916379836016" lon="14.392190320748412"><ele>97.5</ele><time>2026-03-22T11:02:46Z</time></trkpt><trkpt lat="42.262049141598865" lon="14.392121111070654"><ele>96.25</ele><time>2026-03-22T11:02:47Z</time></trkpt><trkpt lat="42.26214907529438" lon="14.392080510943654"><ele>95.0</ele><time>2026-03-22T11:02:48Z</time></trkpt><trkpt lat="42.2622190651107" lon="14.392033680758637"><ele>93.8</ele><time>2026-03-22T11:02:49Z</time></trkpt><trkpt lat="42.26228859705355" lon="14.391979190278652"><ele>92.6</ele><time>2026-03-22T11:02:50Z</time></trkpt><trkpt lat="42.262374227421645" lon="14.391900043306991"><ele>91.4</ele><time>2026-03-22T11:02:51Z</time></trkpt><trkpt lat="42.26246653128066" lon="14.391860693922427"><ele>90.2</ele><time>2026-03-22T11:02:52Z</time></trkpt><trkpt lat="42.26253084074014" lon="14.391822825734106"><ele>89.0</ele><time>2026-03-22T11:02:53Z</time></trkpt><trkpt lat="42.26263288817018" lon="14.391761624884357"><ele>89.0</ele><time>2026-03-22T11:02:55Z</time></trkpt><trkpt lat="42.262640222499215" lon="14.391655075360076"><ele>89.0</ele><time>2026-03-22T11:03:01Z</time></trkpt><trkpt lat="42.26254738458337" lon="14.391552191520681"><ele>89.0</ele><time>2026-03-22T11:03:03Z</time></trkpt><trkpt lat="42.26249709003241" lon="14.391477197467825"><ele>89.0</ele><time>2026-03-22T11:03:04Z</time></trkpt><trkpt lat="42.26239380943708" lon="14.391386962857965"><ele>89.0</ele><time>2026-03-22T11:03:06Z</time></trkpt><trkpt lat="42.26229727238009" lon="14.391292577242542"><ele>89.5</ele><time>2026-03-22T11:03:08Z</time></trkpt><trkpt lat="42.26222987331145" lon="14.39122155841821"><ele>90.0</ele><time>2026-03-22T11:03:09Z</time></trkpt><trkpt lat="42.26215160567536" lon="14.391146464231314"><ele>90.5</ele><time>2026-03-22T11:03:10Z</time></trkpt><trkpt lat="42.262075923492816" lon="14.391061772699258"><ele>91.0</ele><time>2026-03-22T11:03:11Z</time></trkpt><trkpt lat="42.262015883415664" lon="14.390970328032195"><ele>91.5</ele><time>2026-03-22T11:03:12Z</time></trkpt><trkpt lat="42.261974760410084" lon="14.3908959014035"><ele>92.0</ele><time>2026-03-22T11:03:13Z</time></trkpt><trkpt lat="42.26191004262989" lon="14.390887286710667"><ele>92.0</ele><time>2026-03-22T11:03:14Z</time></trkpt><trkpt lat="42.26183542921113" lon="14.390897543619781"><ele>92.0</ele><time>2026-03-22T11:03:15Z</time></trkpt><trkpt lat="42.261765125822656" lon="14.390949793245822"><ele>92.0</ele><time>2026-03-22T11:03:16Z</time></trkpt><trkpt lat="42.26171283319359" lon="14.39103620629639"><ele>92.0</ele><time>2026-03-22T11:03:17Z</time></trkpt><trkpt lat="42.26164400401014" lon="14.3911171804437"><ele>92.0</ele><time>2026-03-22T11:03:18Z</time></trkpt><trkpt lat="42.261554998980166" lon="14.391160194514812"><ele>92.0</ele><time>2026-03-22T11:03:19Z</time></trkpt><trkpt lat="42.26146660098861" lon="14.391182928494962"><ele>92.33333333333334</ele><time>2026-03-22T11:03:20Z</time></trkpt><trkpt lat="42.26138041122863" lon="14.39116893261318"><ele>92.66666666666667</ele><time>2026-03-22T11:03:21Z</time></trkpt><trkpt lat="42.26129077211286" lon="14.391121302546312"><ele>93.0</ele><time>2026-03-22T11:03:22Z</time></trkpt><trkpt lat="42.26119915954862" lon="14.391069658150311"><ele>93.33333333333333</ele><time>2026-03-22T11:03:23Z</time></trkpt><trkpt lat="42.26114255806548" lon="14.39099961925704"><ele>93.66666666666666</ele><time>2026-03-22T11:03:24Z</time></trkpt><trkpt lat="42.261090996053674" lon="14.390904694898191"><ele>94.0</ele><time>2026-03-22T11:03:25Z</time></trkpt><trkpt lat="42.261047902683714" lon="14.390829424366018"><ele>94.0</ele><time>2026-03-22T11:03:26Z</time></trkpt><trkpt lat="42.260952068073685" lon="14.390847802183718"><ele>94.0</ele><time>2026-03-22T11:03:28Z</time></trkpt><trkpt lat="42.260892347860164" lon="14.390933789415076"><ele>94.0</ele><time>2026-03-22T11:03:29Z</time></trkpt><trkpt lat="42.260814099993105" lon="14.391020365124067"><ele>94.0</ele><time>2026-03-22T11:03:30Z</time></trkpt><trkpt lat="42.26074069238733" lon="14.391060507438436"><ele>94.0</ele><time>2026-03-22T11:03:31Z</time></trkpt><trkpt lat="42.26064207421831" lon="14.390959750750337"><ele>94.0</ele><time>2026-03-22T11:03:33Z</time></trkpt><trkpt lat="42.26063066672585" lon="14.390855948781752"><ele>94.0</ele><time>2026-03-22T11:03:35Z</time></trkpt><trkpt lat="42.26067516156344" lon="14.390768538518756"><ele>94.0</ele><time>2026-03-22T11:03:37Z</time></trkpt><trkpt lat="42.26065944920735" lon="14.390684697563174"><ele>94.0</ele><time>2026-03-22T11:03:40Z</time></trkpt><trkpt lat="42.26065265618738" lon="14.390560840488059"><ele>94.0</ele><time>2026-03-22T11:03:42Z</time></trkpt><trkpt lat="42.26064002616658" lon="14.390473930724815"><ele>94.0</ele><time>2026-03-22T11:03:43Z</time></trkpt><trkpt lat="42.26062350898005" lon="14.390385948632654"><ele>94.0</ele><time>2026-03-22T11:03:44Z</time></trkpt><trkpt lat="42.26061269408729" lon="14.390237991046972"><ele>93.83333333333333</ele><time>2026-03-22T11:03:46Z</time></trkpt><trkpt lat="42.260607066670055" lon="14.390123698741832"><ele>93.66666666666666</ele><time>2026-03-22T11:03:48Z</time></trkpt><trkpt lat="42.26061981927566" lon="14.390019632310167"><ele>93.5</ele><time>2026-03-22T11:03:50Z</time></trkpt><trkpt lat="42.26062820299668" lon="14.389933275979471"><ele>93.33333333333333</ele><time>2026-03-22T11:03:52Z</time></trkpt><trkpt lat="42.260613038213286" lon="14.389794471378504"><ele>93.16666666666667</ele><time>2026-03-22T11:03:54Z</time></trkpt><trkpt lat="42.26059499736432" lon="14.389709284389138"><ele>93.0</ele><time>2026-03-22T11:03:55Z</time></trkpt><trkpt lat="42.26057044881829" lon="14.389623963993174"><ele>93.0</ele><time>2026-03-22T11:03:56Z</time></trkpt><trkpt lat="42.260528674967816" lon="14.389490596730019"><ele>93.0</ele><time>2026-03-22T11:03:58Z</time></trkpt><trkpt lat="42.260495253701116" lon="14.389348097301472"><ele>93.0</ele><time>2026-03-22T11:04:00Z</time></trkpt><trkpt lat="42.26042053964237" lon="14.389199886680748"><ele>93.0</ele><time>2026-03-22T11:04:02Z</time></trkpt><trkpt lat="42.260376505218126" lon="14.389130730610722"><ele>93.0</ele><time>2026-03-22T11:04:03Z</time></trkpt><trkpt lat="42.260328837874646" lon="14.389058200925774"><ele>93.00000000000001</ele><time>2026-03-22T11:04:04Z</time></trkpt><trkpt lat="42.26028587355371" lon="14.388983378693755"><ele>93.0</ele><time>2026-03-22T11:04:05Z</time></trkpt><trkpt lat="42.26023946162797" lon="14.388908268116431"><ele>93.0</ele><time>2026-03-22T11:04:06Z</time></trkpt><trkpt lat="42.260191525067526" lon="14.388840689309411"><ele>93.0</ele><time>2026-03-22T11:04:07Z</time></trkpt><trkpt lat="42.26013520799318" lon="14.388767206119294"><ele>93.0</ele><time>2026-03-22T11:04:08Z</time></trkpt><trkpt lat="42.260080139797516" lon="14.388703831386138"><ele>93.00000000000001</ele><time>2026-03-22T11:04:09Z</time></trkpt><trkpt lat="42.260031493831924" lon="14.388648797844976"><ele>93.0</ele><time>2026-03-22T11:04:10Z</time></trkpt><trkpt lat="42.25995402852151" lon="14.388611567067146"><ele>93.0</ele><time>2026-03-22T11:04:12Z</time></trkpt><trkpt lat="42.25982938579603" lon="14.388685682364818"><ele>93.0</ele><time>2026-03-22T11:04:14Z</time></trkpt><trkpt lat="42.2597627235432" lon="14.388730823259406"><ele>93.0</ele><time>2026-03-22T11:04:15Z</time></trkpt><trkpt lat="42.25969964407211" lon="14.388787988902335"><ele>93.0</ele><time>2026-03-22T11:04:16Z</time></trkpt><trkpt lat="42.25959433524757" lon="14.388789580753595"><ele>93.0</ele><time>2026-03-22T11:04:18Z</time></trkpt><trkpt lat="42.25950404120155" lon="14.388750938614578"><ele>93.0</ele><time>2026-03-22T11:04:20Z</time></trkpt><trkpt lat="42.259457323816456" lon="14.388829776568642"><ele>93.0</ele><time>2026-03-22T11:04:23Z</time></trkpt><trkpt lat="42.25948446336354" lon="14.389005727779148"><ele>93.0</ele><time>2026-03-22T11:04:25Z</time></trkpt><trkpt lat="42.25944527182951" lon="14.389128162598627"><ele>93.0</ele><time>2026-03-22T11:04:26Z</time></trkpt><trkpt lat="42.259357826347824" lon="14.38920012939971"><ele>93.0</ele><time>2026-03-22T11:04:27Z</time></trkpt><trkpt lat="42.259273212120625" lon="14.389321557626168"><ele>92.75</ele><time>2026-03-22T11:04:28Z</time></trkpt><trkpt lat="42.25918825589366" lon="14.389449839344495"><ele>92.5</ele><time>2026-03-22T11:04:29Z</time></trkpt><trkpt lat="42.25911079324787" lon="14.38958319400053"><ele>92.25</ele><time>2026-03-22T11:04:30Z</time></trkpt><trkpt lat="42.25903024682195" lon="14.38973166568048"><ele>92.0</ele><time>2026-03-22T11:04:31Z</time></trkpt><trkpt lat="42.25895772990587" lon="14.389871139712062"><ele>93.5</ele><time>2026-03-22T11:04:32Z</time></trkpt><trkpt lat="42.25890098052381" lon="14.389985287042935"><ele>95.0</ele><time>2026-03-22T11:04:33Z</time></trkpt><trkpt lat="42.25886537194025" lon="14.39008352841054"><ele>96.5</ele><time>2026-03-22T11:04:34Z</time></trkpt><trkpt lat="42.25880448032797" lon="14.390129812835598"><ele>98.0</ele><time>2026-03-22T11:04:35Z</time></trkpt><trkpt lat="42.258607303187944" lon="14.390088266582735"><ele>98.0</ele><time>2026-03-22T11:04:37Z</time></trkpt><trkpt lat="42.25847237344212" lon="14.390083107857613"><ele>98.0</ele><time>2026-03-22T11:04:38Z</time></trkpt><trkpt lat="42.25833498733459" lon="14.390077682444359"><ele>98.0</ele><time>2026-03-22T11:04:39Z</time></trkpt><trkpt lat="42.25819796759488" lon="14.390040876817173"><ele>98.0</ele><time>2026-03-22T11:04:40Z</time></trkpt><trkpt lat="42.25808853908969" lon="14.389939758057677"><ele>98.25</ele><time>2026-03-22T11:04:41Z</time></trkpt><trkpt lat="42.2579771816865" lon="14.38983730249022"><ele>98.5</ele><time>2026-03-22T11:04:42Z</time></trkpt><trkpt lat="42.25785940374853" lon="14.389728296622073"><ele>98.75</ele><time>2026-03-22T11:04:43Z</time></trkpt><trkpt lat="42.257731959775484" lon="14.38963155421719"><ele>99.0</ele><time>2026-03-22T11:04:44Z</time></trkpt><trkpt lat="42.257599959291554" lon="14.38952642698347"><ele>99.0</ele><time>2026-03-22T11:04:45Z</time></trkpt><trkpt lat="42.25746153158004" lon="14.389442492284774"><ele>99.0</ele><time>2026-03-22T11:04:46Z</time></trkpt><trkpt lat="42.25732901675836" lon="14.38938190686997"><ele>99.0</ele><time>2026-03-22T11:04:47Z</time></trkpt><trkpt lat="42.25719334122646" lon="14.389354476329661"><ele>99.0</ele><time>2026-03-22T11:04:48Z</time></trkpt><trkpt lat="42.2570373594651" lon="14.389353359565519"><ele>100.66666666666666</ele><time>2026-03-22T11:04:49Z</time></trkpt><trkpt lat="42.25686813942212" lon="14.389357698542277"><ele>102.33333333333333</ele><time>2026-03-22T11:04:50Z</time></trkpt><trkpt lat="42.25669702468204" lon="14.389348797883867"><ele>104.0</ele><time>2026-03-22T11:04:51Z</time></trkpt><trkpt lat="42.25655085620062" lon="14.389329392784282"><ele>104.80000000000001</ele><time>2026-03-22T11:04:52Z</time></trkpt><trkpt lat="42.25641722371035" lon="14.389308299733445"><ele>105.60000000000001</ele><time>2026-03-22T11:04:53Z</time></trkpt><trkpt lat="42.256324068780096" lon="14.38926663912558"><ele>106.4</ele><time>2026-03-22T11:04:54Z</time></trkpt><trkpt lat="42.25627168585902" lon="14.389200593902146"><ele>107.2</ele><time>2026-03-22T11:04:55Z</time></trkpt><trkpt lat="42.256238845641036" lon="14.389099734333564"><ele>108.0</ele><time>2026-03-22T11:04:56Z</time></trkpt><trkpt lat="42.256283677911924" lon="14.388950213580417"><ele>107.0</ele><time>2026-03-22T11:04:57Z</time></trkpt><trkpt lat="42.25628474299074" lon="14.388780450364136"><ele>106.0</ele><time>2026-03-22T11:04:58Z</time></trkpt><trkpt lat="42.256240502611455" lon="14.388584203238096"><ele>105.0</ele><time>2026-03-22T11:04:59Z</time></trkpt><trkpt lat="42.25617423136813" lon="14.388382337450306"><ele>104.0</ele><time>2026-03-22T11:05:00Z</time></trkpt><trkpt lat="42.25612917681861" lon="14.388187002248046"><ele>104.0</ele><time>2026-03-22T11:05:01Z</time></trkpt><trkpt lat="42.25604979625078" lon="14.388050179170893"><ele>104.0</ele><time>2026-03-22T11:05:02Z</time></trkpt><trkpt lat="42.25596075426153" lon="14.38798115598676"><ele>104.0</ele><time>2026-03-22T11:05:03Z</time></trkpt><trkpt lat="42.255873221970944" lon="14.387966866644565"><ele>104.0</ele><time>2026-03-22T11:05:04Z</time></trkpt><trkpt lat="42.255736973160374" lon="14.387967265335176"><ele>103.5</ele><time>2026-03-22T11:05:05Z</time></trkpt><trkpt lat="42.25558742576893" lon="14.387946866141409"><ele>103.0</ele><time>2026-03-22T11:05:06Z</time></trkpt><trkpt lat="42.25545029921842" lon="14.387877677990204"><ele>102.5</ele><time>2026-03-22T11:05:07Z</time></trkpt><trkpt lat="42.25536962229544" lon="14.387754029121034"><ele>102.0</ele><time>2026-03-22T11:05:08Z</time></trkpt><trkpt lat="42.255300432515995" lon="14.387614900478338"><ele>102.0</ele><time>2026-03-22T11:05:09Z</time></trkpt><trkpt lat="42.25520801591339" lon="14.387486029456628"><ele>102.0</ele><time>2026-03-22T11:05:10Z</time></trkpt><trkpt lat="42.25513188053288" lon="14.387371771426112"><ele>102.0</ele><time>2026-03-22T11:05:11Z</time></trkpt><trkpt lat="42.25501581136045" lon="14.387295144233486"><ele>102.0</ele><time>2026-03-22T11:05:12Z</time></trkpt><trkpt lat="42.25486780969963" lon="14.38722000142305"><ele>102.33333333333334</ele><time>2026-03-22T11:05:13Z</time></trkpt><trkpt lat="42.25469587449949" lon="14.387135102307171"><ele>102.66666666666667</ele><time>2026-03-22T11:05:14Z</time></trkpt><trkpt lat="42.254503608067616" lon="14.387041780981175"><ele>103.0</ele><time>2026-03-22T11:05:15Z</time></trkpt><trkpt lat="42.254311099255695" lon="14.386961302098856"><ele>103.0</ele><time>2026-03-22T11:05:16Z</time></trkpt><trkpt lat="42.25413706990733" lon="14.386884934765218"><ele>103.0</ele><time>2026-03-22T11:05:17Z</time></trkpt><trkpt lat="42.25397349801878" lon="14.386790018279761"><ele>103.0</ele><time>2026-03-22T11:05:18Z</time></trkpt><trkpt lat="42.25381061859627" lon="14.386706041451115"><ele>103.66666666666667</ele><time>2026-03-22T11:05:19Z</time></trkpt><trkpt lat="42.25367700571071" lon="14.386649605542306"><ele>104.33333333333334</ele><time>2026-03-22T11:05:20Z</time></trkpt><trkpt lat="42.25352770251798" lon="14.386607456644244"><ele>105.0</ele><time>2026-03-22T11:05:21Z</time></trkpt><trkpt lat="42.253357759567514" lon="14.38659704088222"><ele>105.0</ele><time>2026-03-22T11:05:22Z</time></trkpt><trkpt lat="42.25318248374872" lon="14.386588774687796"><ele>105.0</ele><time>2026-03-22T11:05:23Z</time></trkpt><trkpt lat="42.25302235416504" lon="14.38657577071119"><ele>105.0</ele><time>2026-03-22T11:05:24Z</time></trkpt><trkpt lat="42.25288080331333" lon="14.386607350043596"><ele>106.0</ele><time>2026-03-22T11:05:25Z</time></trkpt><trkpt lat="42.25275351706325" lon="14.386654217661615"><ele>107.0</ele><time>2026-03-22T11:05:26Z</time></trkpt><trkpt lat="42.25265007463866" lon="14.386702626239012"><ele>108.0</ele><time>2026-03-22T11:05:27Z</time></trkpt><trkpt lat="42.252523080394106" lon="14.386733105049249"><ele>109.0</ele><time>2026-03-22T11:05:28Z</time></trkpt><trkpt lat="42.25239887373171" lon="14.386672596508214"><ele>109.0</ele><time>2026-03-22T11:05:29Z</time></trkpt><trkpt lat="42.2522903434739" lon="14.386647705844366"><ele>109.0</ele><time>2026-03-22T11:05:30Z</time></trkpt><trkpt lat="42.25221556491681" lon="14.386590814622132"><ele>109.0</ele><time>2026-03-22T11:05:31Z</time></trkpt><trkpt lat="42.25218809043155" lon="14.386475750052972"><ele>109.0</ele><time>2026-03-22T11:05:32Z</time></trkpt><trkpt lat="42.252114546794694" lon="14.386348936928286"><ele>109.0</ele><time>2026-03-22T11:05:33Z</time></trkpt><trkpt lat="42.25204358988775" lon="14.386193291759895"><ele>108.80000000000001</ele><time>2026-03-22T11:05:34Z</time></trkpt><trkpt lat="42.251988301848286" lon="14.386085561914046"><ele>108.60000000000001</ele><time>2026-03-22T11:05:35Z</time></trkpt><trkpt lat="42.25193864022622" lon="14.386023251268446"><ele>108.4</ele><time>2026-03-22T11:05:36Z</time></trkpt><trkpt lat="42.25179776504077" lon="14.386064916317029"><ele>108.2</ele><time>2026-03-22T11:05:38Z</time></trkpt><trkpt lat="42.25168507605884" lon="14.386123188436537"><ele>108.0</ele><time>2026-03-22T11:05:39Z</time></trkpt><trkpt lat="42.25155708401464" lon="14.386175553735074"><ele>108.0</ele><time>2026-03-22T11:05:40Z</time></trkpt><trkpt lat="42.25142443811647" lon="14.38622451075978"><ele>108.0</ele><time>2026-03-22T11:05:41Z</time></trkpt><trkpt lat="42.25130286435583" lon="14.386223551751453"><ele>108.0</ele><time>2026-03-22T11:05:42Z</time></trkpt><trkpt lat="42.25116220510551" lon="14.38621028344046"><ele>108.0</ele><time>2026-03-22T11:05:43Z</time></trkpt><trkpt lat="42.25101600371142" lon="14.38620927877544"><ele>108.0</ele><time>2026-03-22T11:05:44Z</time></trkpt><trkpt lat="42.25086957786947" lon="14.38614968625117"><ele>108.0</ele><time>2026-03-22T11:05:45Z</time></trkpt><trkpt lat="42.25073216617454" lon="14.386070087165356"><ele>108.0</ele><time>2026-03-22T11:05:46Z</time></trkpt><trkpt lat="42.25057066034954" lon="14.385988345361563"><ele>109.0</ele><time>2026-03-22T11:05:47Z</time></trkpt><trkpt lat="42.25040130122792" lon="14.385924199419456"><ele>110.0</ele><time>2026-03-22T11:05:48Z</time></trkpt><trkpt lat="42.25027341120581" lon="14.385854755166315"><ele>111.0</ele><time>2026-03-22T11:05:49Z</time></trkpt><trkpt lat="42.250177285934555" lon="14.385807444886769"><ele>112.0</ele><time>2026-03-22T11:05:50Z</time></trkpt><trkpt lat="42.25009095306496" lon="14.385766236506234"><ele>112.0</ele><time>2026-03-22T11:05:51Z</time></trkpt><trkpt lat="42.250022515018486" lon="14.385723183853518"><ele>111.99999999999999</ele><time>2026-03-22T11:05:52Z</time></trkpt><trkpt lat="42.249979558711416" lon="14.38559095833916"><ele>111.99999999999999</ele><time>2026-03-22T11:05:54Z</time></trkpt><trkpt lat="42.24989324030042" lon="14.385628317150976"><ele>112.0</ele><time>2026-03-22T11:05:56Z</time></trkpt><trkpt lat="42.249796287721686" lon="14.385563695374099"><ele>112.0</ele><time>2026-03-22T11:05:58Z</time></trkpt><trkpt lat="42.24972402511386" lon="14.38552194118657"><ele>113.0</ele><time>2026-03-22T11:05:59Z</time></trkpt><trkpt lat="42.249535206849345" lon="14.385739210356531"><ele>114.0</ele><time>2026-03-22T11:06:00Z</time></trkpt><trkpt lat="42.24943424018058" lon="14.38573820545881"><ele>115.0</ele><time>2026-03-22T11:06:01Z</time></trkpt><trkpt lat="42.249337893286025" lon="14.38573831928747"><ele>116.0</ele><time>2026-03-22T11:06:02Z</time></trkpt><trkpt lat="42.24923025293614" lon="14.385735973404802"><ele>116.0</ele><time>2026-03-22T11:06:03Z</time></trkpt><trkpt lat="42.24913142553294" lon="14.385733166376568"><ele>116.0</ele><time>2026-03-22T11:06:04Z</time></trkpt><trkpt lat="42.24902805618465" lon="14.385720902217917"><ele>116.0</ele><time>2026-03-22T11:06:05Z</time></trkpt><trkpt lat="42.24893885599836" lon="14.385723155829494"><ele>116.0</ele><time>2026-03-22T11:06:06Z</time></trkpt><trkpt lat="42.24882471935505" lon="14.385740991792565"><ele>116.0</ele><time>2026-03-22T11:06:07Z</time></trkpt><trkpt lat="42.24869356637842" lon="14.385732202308056"><ele>118.75</ele><time>2026-03-22T11:06:08Z</time></trkpt><trkpt lat="42.24855855775441" lon="14.385728508799298"><ele>121.5</ele><time>2026-03-22T11:06:09Z</time></trkpt><trkpt lat="42.24840619033577" lon="14.385721707950564"><ele>124.25</ele><time>2026-03-22T11:06:10Z</time></trkpt><trkpt lat="42.2482591413196" lon="14.385708534986689"><ele>127.0</ele><time>2026-03-22T11:06:11Z</time></trkpt><trkpt lat="42.24811799815393" lon="14.385689803562478"><ele>129.25</ele><time>2026-03-22T11:06:12Z</time></trkpt><trkpt lat="42.24798274105082" lon="14.385678223931881"><ele>131.5</ele><time>2026-03-22T11:06:13Z</time></trkpt><trkpt lat="42.247844634978435" lon="14.385656219861914"><ele>133.75</ele><time>2026-03-22T11:06:14Z</time></trkpt><trkpt lat="42.247709151248586" lon="14.385614162704249"><ele>136.0</ele><time>2026-03-22T11:06:15Z</time></trkpt><trkpt lat="42.24756804223914" lon="14.385575556617153"><ele>136.0</ele><time>2026-03-22T11:06:16Z</time></trkpt><trkpt lat="42.24742930860985" lon="14.385546775077154"><ele>136.0</ele><time>2026-03-22T11:06:17Z</time></trkpt><trkpt lat="42.24729700790532" lon="14.385520648389239"><ele>136.0</ele><time>2026-03-22T11:06:18Z</time></trkpt><trkpt lat="42.247163565373725" lon="14.385496756723954"><ele>136.0</ele><time>2026-03-22T11:06:19Z</time></trkpt><trkpt lat="42.24704314948597" lon="14.385469243043433"><ele>139.0</ele><time>2026-03-22T11:06:20Z</time></trkpt><trkpt lat="42.246917961720044" lon="14.38541877869985"><ele>142.0</ele><time>2026-03-22T11:06:21Z</time></trkpt><trkpt lat="42.24679285040529" lon="14.385389440884964"><ele>145.0</ele><time>2026-03-22T11:06:22Z</time></trkpt><trkpt lat="42.24667334392017" lon="14.385397035842674"><ele>148.0</ele><time>2026-03-22T11:06:23Z</time></trkpt><trkpt lat="42.24655156302049" lon="14.38542117980542"><ele>150.0</ele><time>2026-03-22T11:06:24Z</time></trkpt><trkpt lat="42.246415240067314" lon="14.385434173590696"><ele>152.0</ele><time>2026-03-22T11:06:25Z</time></trkpt><trkpt lat="42.24628653865697" lon="14.385458562999396"><ele>154.0</ele><time>2026-03-22T11:06:26Z</time></trkpt><trkpt lat="42.24617238110862" lon="14.38548383501577"><ele>156.0</ele><time>2026-03-22T11:06:27Z</time></trkpt><trkpt lat="42.24604806132366" lon="14.3855168102869"><ele>156.0</ele><time>2026-03-22T11:06:28Z</time></trkpt><trkpt lat="42.245940515034164" lon="14.385539969642391"><ele>156.0</ele><time>2026-03-22T11:06:29Z</time></trkpt><trkpt lat="42.24584905045705" lon="14.385557012887757"><ele>156.0</ele><time>2026-03-22T11:06:30Z</time></trkpt><trkpt lat="42.245749508575834" lon="14.385557713814553"><ele>156.0</ele><time>2026-03-22T11:06:31Z</time></trkpt><trkpt lat="42.24563780467749" lon="14.385551915379715"><ele>156.0</ele><time>2026-03-22T11:06:32Z</time></trkpt><trkpt lat="42.24552180219175" lon="14.385550577179853"><ele>157.8</ele><time>2026-03-22T11:06:33Z</time></trkpt><trkpt lat="42.24541130402348" lon="14.385543873047496"><ele>159.6</ele><time>2026-03-22T11:06:34Z</time></trkpt><trkpt lat="42.24530001700931" lon="14.385541563644473"><ele>161.4</ele><time>2026-03-22T11:06:35Z</time></trkpt><trkpt lat="42.245195736590155" lon="14.38556625920008"><ele>163.2</ele><time>2026-03-22T11:06:36Z</time></trkpt><trkpt lat="42.24511857725077" lon="14.385463725554139"><ele>165.0</ele><time>2026-03-22T11:06:37Z</time></trkpt><trkpt lat="42.24503517511141" lon="14.385394026891769"><ele>165.4</ele><time>2026-03-22T11:06:38Z</time></trkpt><trkpt lat="42.24492680185881" lon="14.38538025758848"><ele>165.8</ele><time>2026-03-22T11:06:39Z</time></trkpt><trkpt lat="42.24482853358349" lon="14.385441979561294"><ele>166.2</ele><time>2026-03-22T11:06:40Z</time></trkpt><trkpt lat="42.24472856483628" lon="14.385475989992367"><ele>166.6</ele><time>2026-03-22T11:06:41Z</time></trkpt><trkpt lat="42.244616569646986" lon="14.38547068369883"><ele>167.0</ele><time>2026-03-22T11:06:42Z</time></trkpt><trkpt lat="42.244502392880975" lon="14.385449933272465"><ele>169.66666666666666</ele><time>2026-03-22T11:06:43Z</time></trkpt><trkpt lat="42.24436467881381" lon="14.385432919460426"><ele>172.33333333333334</ele><time>2026-03-22T11:06:44Z</time></trkpt><trkpt lat="42.24420732142267" lon="14.385417162484769"><ele>175.0</ele><time>2026-03-22T11:06:45Z</time></trkpt><trkpt lat="42.2440443932991" lon="14.385416173193743"><ele>176.66666666666669</ele><time>2026-03-22T11:06:46Z</time></trkpt><trkpt lat="42.24388144111514" lon="14.385441553595681"><ele>178.33333333333334</ele><time>2026-03-22T11:06:47Z</time></trkpt><trkpt lat="42.24371792919643" lon="14.385467026553412"><ele>180.0</ele><time>2026-03-22T11:06:48Z</time></trkpt><trkpt lat="42.24357811741157" lon="14.3855017488051"><ele>179.2</ele><time>2026-03-22T11:06:49Z</time></trkpt><trkpt lat="42.24345225278255" lon="14.385521359149113"><ele>178.4</ele><time>2026-03-22T11:06:50Z</time></trkpt><trkpt lat="42.24337375218931" lon="14.385565267950941"><ele>177.60000000000002</ele><time>2026-03-22T11:06:51Z</time></trkpt><trkpt lat="42.24328006762661" lon="14.385581841415963"><ele>176.8</ele><time>2026-03-22T11:06:52Z</time></trkpt><trkpt lat="42.243145436448145" lon="14.38557383425219"><ele>176.0</ele><time>2026-03-22T11:06:53Z</time></trkpt><trkpt lat="42.24298758489874" lon="14.385582206749715"><ele>176.0</ele><time>2026-03-22T11:06:54Z</time></trkpt><trkpt lat="42.24284174507083" lon="14.385551183819011"><ele>176.0</ele><time>2026-03-22T11:06:55Z</time></trkpt><trkpt lat="42.242703216836546" lon="14.385533597602043"><ele>176.0</ele><time>2026-03-22T11:06:56Z</time></trkpt><trkpt lat="42.24257742516753" lon="14.385530846958543"><ele>176.0</ele><time>2026-03-22T11:06:57Z</time></trkpt><trkpt lat="42.24245691372813" lon="14.385514320099436"><ele>176.0</ele><time>2026-03-22T11:06:58Z</time></trkpt><trkpt lat="42.24234685090142" lon="14.385509868755342"><ele>176.0</ele><time>2026-03-22T11:06:59Z</time></trkpt><trkpt lat="42.24222519408851" lon="14.385483341309998"><ele>176.0</ele><time>2026-03-22T11:07:00Z</time></trkpt><trkpt lat="42.24208765006147" lon="14.385439072970373"><ele>176.0</ele><time>2026-03-22T11:07:01Z</time></trkpt><trkpt lat="42.24194231910911" lon="14.385415908308511"><ele>176.0</ele><time>2026-03-22T11:07:02Z</time></trkpt><trkpt lat="42.241806838966724" lon="14.385398347986378"><ele>176.0</ele><time>2026-03-22T11:07:03Z</time></trkpt><trkpt lat="42.2416782201765" lon="14.385383623860104"><ele>176.0</ele><time>2026-03-22T11:07:04Z</time></trkpt><trkpt lat="42.24155173466588" lon="14.385384052334514"><ele>176.0</ele><time>2026-03-22T11:07:05Z</time></trkpt><trkpt lat="42.24142997263628" lon="14.385401483676597"><ele>177.0</ele><time>2026-03-22T11:07:06Z</time></trkpt><trkpt lat="42.241300945632105" lon="14.38542581204223"><ele>178.0</ele><time>2026-03-22T11:07:07Z</time></trkpt><trkpt lat="42.24116421161512" lon="14.38544229520582"><ele>179.0</ele><time>2026-03-22T11:07:08Z</time></trkpt><trkpt lat="42.24102279833539" lon="14.385463442248309"><ele>180.0</ele><time>2026-03-22T11:07:09Z</time></trkpt><trkpt lat="42.24091823793597" lon="14.385472120060554"><ele>180.0</ele><time>2026-03-22T11:07:10Z</time></trkpt><trkpt lat="42.240842689499395" lon="14.385452604387135"><ele>180.0</ele><time>2026-03-22T11:07:11Z</time></trkpt><trkpt lat="42.240785278685614" lon="14.385391262951753"><ele>180.0</ele><time>2026-03-22T11:07:12Z</time></trkpt><trkpt lat="42.24075081523106" lon="14.385272082364802"><ele>180.0</ele><time>2026-03-22T11:07:13Z</time></trkpt><trkpt lat="42.24071020001892" lon="14.385111171684638"><ele>180.0</ele><time>2026-03-22T11:07:14Z</time></trkpt><trkpt lat="42.24066315792295" lon="14.384951747141466"><ele>180.0</ele><time>2026-03-22T11:07:15Z</time></trkpt><trkpt lat="42.2406354688844" lon="14.384836880288251"><ele>180.0</ele><time>2026-03-22T11:07:16Z</time></trkpt><trkpt lat="42.24065307195373" lon="14.384749457105638"><ele>180.0</ele><time>2026-03-22T11:07:18Z</time></trkpt><trkpt lat="42.240708584408594" lon="14.384708832640765"><ele>180.0</ele><time>2026-03-22T11:07:20Z</time></trkpt><trkpt lat="42.24073716723128" lon="14.384623893600128"><ele>180.0</ele><time>2026-03-22T11:07:21Z</time></trkpt><trkpt lat="42.24078701614613" lon="14.384565058378234"><ele>180.0</ele><time>2026-03-22T11:07:22Z</time></trkpt><trkpt lat="42.24085990706044" lon="14.384421129292836"><ele>178.75</ele><time>2026-03-22T11:07:24Z</time></trkpt><trkpt lat="42.240937330774415" lon="14.384348111774859"><ele>177.5</ele><time>2026-03-22T11:07:25Z</time></trkpt><trkpt lat="42.24103817545374" lon="14.384217740160993"><ele>176.25</ele><time>2026-03-22T11:07:26Z</time></trkpt><trkpt lat="42.24114374211714" lon="14.384093134847959"><ele>175.0</ele><time>2026-03-22T11:07:27Z</time></trkpt><trkpt lat="42.24125715263234" lon="14.383973701175782"><ele>174.0</ele><time>2026-03-22T11:07:28Z</time></trkpt><trkpt lat="42.24134760404527" lon="14.383830720775629"><ele>173.0</ele><time>2026-03-22T11:07:29Z</time></trkpt><trkpt lat="42.241425774906034" lon="14.383717426808062"><ele>172.0</ele><time>2026-03-22T11:07:30Z</time></trkpt><trkpt lat="42.24148319069155" lon="14.38359847862536"><ele>171.0</ele><time>2026-03-22T11:07:31Z</time></trkpt><trkpt lat="42.241527475291015" lon="14.383434355219666"><ele>171.0</ele><time>2026-03-22T11:07:32Z</time></trkpt><trkpt lat="42.241570438205045" lon="14.383265307819826"><ele>171.0</ele><time>2026-03-22T11:07:33Z</time></trkpt><trkpt lat="42.241607366012694" lon="14.383163290302422"><ele>171.0</ele><time>2026-03-22T11:07:34Z</time></trkpt><trkpt lat="42.24165951855966" lon="14.383078374333353"><ele>171.0</ele><time>2026-03-22T11:07:35Z</time></trkpt><trkpt lat="42.24172476638738" lon="14.382945684501825"><ele>171.0</ele><time>2026-03-22T11:07:36Z</time></trkpt><trkpt lat="42.24179500802432" lon="14.38280283912766"><ele>170.0</ele><time>2026-03-22T11:07:37Z</time></trkpt><trkpt lat="42.24199593186866" lon="14.382589758900947"><ele>169.0</ele><time>2026-03-22T11:07:38Z</time></trkpt><trkpt lat="42.241990864188274" lon="14.382477918624227"><ele>168.0</ele><time>2026-03-22T11:07:39Z</time></trkpt><trkpt lat="42.2419588497043" lon="14.38238106407027"><ele>167.0</ele><time>2026-03-22T11:07:41Z</time></trkpt><trkpt lat="42.24198405202669" lon="14.38225526547296"><ele>165.2</ele><time>2026-03-22T11:07:43Z</time></trkpt><trkpt lat="42.24205427395207" lon="14.382122775347087"><ele>163.39999999999998</ele><time>2026-03-22T11:07:45Z</time></trkpt><trkpt lat="42.242131320279185" lon="14.382048036598372"><ele>161.60000000000002</ele><time>2026-03-22T11:07:47Z</time></trkpt><trkpt lat="42.242160670074476" lon="14.38194262542598"><ele>159.8</ele><time>2026-03-22T11:07:59Z</time></trkpt><trkpt lat="42.242212532444846" lon="14.381868936437423"><ele>158.0</ele><time>2026-03-22T11:08:01Z</time></trkpt><trkpt lat="42.242284922091905" lon="14.381805413319485"><ele>157.33333333333331</ele><time>2026-03-22T11:08:03Z</time></trkpt><trkpt lat="42.242398710544606" lon="14.381720807217043"><ele>156.66666666666666</ele><time>2026-03-22T11:08:05Z</time></trkpt><trkpt lat="42.242465218099085" lon="14.381672861060409"><ele>156.0</ele><time>2026-03-22T11:08:06Z</time></trkpt><trkpt lat="42.24252282713566" lon="14.381619743214294"><ele>155.33333333333334</ele><time>2026-03-22T11:08:07Z</time></trkpt><trkpt lat="42.24258976850374" lon="14.381568481102638"><ele>154.66666666666669</ele><time>2026-03-22T11:08:08Z</time></trkpt><trkpt lat="42.242624645892896" lon="14.381472973761259"><ele>154.0</ele><time>2026-03-22T11:08:09Z</time></trkpt><trkpt lat="42.24271565258175" lon="14.381454279271951"><ele>154.0</ele><time>2026-03-22T11:08:10Z</time></trkpt><trkpt lat="42.24277386515382" lon="14.381383125984566"><ele>154.0</ele><time>2026-03-22T11:08:11Z</time></trkpt><trkpt lat="42.2428619743228" lon="14.381325612540572"><ele>154.0</ele><time>2026-03-22T11:08:12Z</time></trkpt><trkpt lat="42.242951073844054" lon="14.381294990513291"><ele>154.0</ele><time>2026-03-22T11:08:13Z</time></trkpt><trkpt lat="42.24302906070566" lon="14.381281876768826"><ele>154.0</ele><time>2026-03-22T11:08:14Z</time></trkpt><trkpt lat="42.24310741324008" lon="14.38126963747586"><ele>154.0</ele><time>2026-03-22T11:08:15Z</time></trkpt><trkpt lat="42.24316897411654" lon="14.38124037403461"><ele>150.6</ele><time>2026-03-22T11:08:16Z</time></trkpt><trkpt lat="42.24321561275435" lon="14.381161556419762"><ele>147.2</ele><time>2026-03-22T11:08:17Z</time></trkpt><trkpt lat="42.24323999846506" lon="14.381047398871496"><ele>143.79999999999998</ele><time>2026-03-22T11:08:18Z</time></trkpt><trkpt lat="42.24327219583052" lon="14.380917752351785"><ele>140.4</ele><time>2026-03-22T11:08:19Z</time></trkpt><trkpt lat="42.24332183631707" lon="14.380785219730015"><ele>137.0</ele><time>2026-03-22T11:08:20Z</time></trkpt><trkpt lat="42.243372456334505" lon="14.380662665620202"><ele>137.0</ele><time>2026-03-22T11:08:21Z</time></trkpt><trkpt lat="42.24342325305004" lon="14.380550117344296"><ele>137.0</ele><time>2026-03-22T11:08:22Z</time></trkpt><trkpt lat="42.243461899463114" lon="14.380426840120327"><ele>137.0</ele><time>2026-03-22T11:08:23Z</time></trkpt><trkpt lat="42.24350356506875" lon="14.380296905449748"><ele>137.0</ele><time>2026-03-22T11:08:24Z</time></trkpt><trkpt lat="42.2435508125572" lon="14.380180706958914"><ele>137.0</ele><time>2026-03-22T11:08:25Z</time></trkpt><trkpt lat="42.24357776982887" lon="14.380058005364555"><ele>136.0</ele><time>2026-03-22T11:08:26Z</time></trkpt><trkpt lat="42.24361297471121" lon="14.379973094730525"><ele>135.0</ele><time>2026-03-22T11:08:27Z</time></trkpt><trkpt lat="42.24364996847093" lon="14.379876288086907"><ele>134.0</ele><time>2026-03-22T11:08:28Z</time></trkpt><trkpt lat="42.24369390024501" lon="14.37978242231079"><ele>133.0</ele><time>2026-03-22T11:08:29Z</time></trkpt><trkpt lat="42.24375550099739" lon="14.379692330967305"><ele>132.0</ele><time>2026-03-22T11:08:30Z</time></trkpt><trkpt lat="42.243815022750276" lon="14.37962109617823"><ele>131.0</ele><time>2026-03-22T11:08:31Z</time></trkpt><trkpt lat="42.243872743741214" lon="14.379573277261517"><ele>130.16666666666666</ele><time>2026-03-22T11:08:32Z</time></trkpt><trkpt lat="42.243913751818326" lon="14.379469108199336"><ele>129.33333333333331</ele><time>2026-03-22T11:08:34Z</time></trkpt><trkpt lat="42.24399174711375" lon="14.379457494890387"><ele>128.5</ele><time>2026-03-22T11:08:35Z</time></trkpt><trkpt lat="42.24399825682074" lon="14.379371134234274"><ele>127.66666666666666</ele><time>2026-03-22T11:08:36Z</time></trkpt><trkpt lat="42.24396881106193" lon="14.37928045662724"><ele>126.83333333333333</ele><time>2026-03-22T11:08:37Z</time></trkpt><trkpt lat="42.243916623291966" lon="14.379194003234234"><ele>126.0</ele><time>2026-03-22T11:08:38Z</time></trkpt><trkpt lat="42.24362578524179" lon="14.379173012196278"><ele>126.0</ele><time>2026-03-22T11:08:39Z</time></trkpt><trkpt lat="42.24357326066295" lon="14.379094465570333"><ele>126.0</ele><time>2026-03-22T11:08:40Z</time></trkpt><trkpt lat="42.24352427880366" lon="14.378910051421379"><ele>126.0</ele><time>2026-03-22T11:08:42Z</time></trkpt><trkpt lat="42.24351729449033" lon="14.378744767072481"><ele>126.0</ele><time>2026-03-22T11:08:43Z</time></trkpt><trkpt lat="42.24349440430889" lon="14.37855649654056"><ele>125.8</ele><time>2026-03-22T11:08:44Z</time></trkpt><trkpt lat="42.24347567035522" lon="14.378417205993482"><ele>125.6</ele><time>2026-03-22T11:08:45Z</time></trkpt><trkpt lat="42.24339868773473" lon="14.37827643188631"><ele>125.4</ele><time>2026-03-22T11:08:47Z</time></trkpt><trkpt lat="42.24331717980441" lon="14.3782484473832"><ele>125.2</ele><time>2026-03-22T11:08:48Z</time></trkpt><trkpt lat="42.24321138621736" lon="14.378277880990714"><ele>125.0</ele><time>2026-03-22T11:08:49Z</time></trkpt><trkpt lat="42.24307977461237" lon="14.37833931761964"><ele>126.33333333333333</ele><time>2026-03-22T11:08:50Z</time></trkpt><trkpt lat="42.242922732761706" lon="14.378399247462276"><ele>127.66666666666666</ele><time>2026-03-22T11:08:51Z</time></trkpt><trkpt lat="42.24274674521427" lon="14.378466058598583"><ele>129.0</ele><time>2026-03-22T11:08:52Z</time></trkpt><trkpt lat="42.24258272407366" lon="14.378532001397051"><ele>129.0</ele><time>2026-03-22T11:08:53Z</time></trkpt><trkpt lat="42.242447963165986" lon="14.378575478068514"><ele>129.0</ele><time>2026-03-22T11:08:54Z</time></trkpt><trkpt lat="42.24234117853284" lon="14.378611425777766"><ele>129.0</ele><time>2026-03-22T11:08:55Z</time></trkpt><trkpt lat="42.2422527333765" lon="14.378687395309843"><ele>129.0</ele><time>2026-03-22T11:08:56Z</time></trkpt><trkpt lat="42.242179359617296" lon="14.378804744907228"><ele>130.0</ele><time>2026-03-22T11:08:57Z</time></trkpt><trkpt lat="42.24209220161918" lon="14.378919816911072"><ele>131.0</ele><time>2026-03-22T11:08:58Z</time></trkpt><trkpt lat="42.242015648559985" lon="14.379002846620127"><ele>132.0</ele><time>2026-03-22T11:08:59Z</time></trkpt><trkpt lat="42.24194309819815" lon="14.379026462572039"><ele>133.0</ele><time>2026-03-22T11:09:00Z</time></trkpt><trkpt lat="42.241849377437724" lon="14.378992025151963"><ele>134.0</ele><time>2026-03-22T11:09:01Z</time></trkpt><trkpt lat="42.241727237026026" lon="14.378979923171467"><ele>134.0</ele><time>2026-03-22T11:09:02Z</time></trkpt><trkpt lat="42.24157957850676" lon="14.378954985901949"><ele>134.0</ele><time>2026-03-22T11:09:03Z</time></trkpt><trkpt lat="42.24143959291076" lon="14.37896923207373"><ele>134.0</ele><time>2026-03-22T11:09:04Z</time></trkpt><trkpt lat="42.24131155597786" lon="14.37899829333683"><ele>134.0</ele><time>2026-03-22T11:09:05Z</time></trkpt><trkpt lat="42.24117929323416" lon="14.378997730157348"><ele>134.5</ele><time>2026-03-22T11:09:06Z</time></trkpt><trkpt lat="42.241043472454486" lon="14.37897547286763"><ele>135.0</ele><time>2026-03-22T11:09:07Z</time></trkpt><trkpt lat="42.24090670302308" lon="14.378972004435864"><ele>135.5</ele><time>2026-03-22T11:09:08Z</time></trkpt><trkpt lat="42.24079824786222" lon="14.379007789594455"><ele>136.0</ele><time>2026-03-22T11:09:09Z</time></trkpt><trkpt lat="42.24067598139918" lon="14.37904516046433"><ele>138.0</ele><time>2026-03-22T11:09:10Z</time></trkpt><trkpt lat="42.24057012921146" lon="14.379063438552507"><ele>140.0</ele><time>2026-03-22T11:09:11Z</time></trkpt><trkpt lat="42.24043497424537" lon="14.37907643584093"><ele>142.0</ele><time>2026-03-22T11:09:12Z</time></trkpt><trkpt lat="42.24031315717977" lon="14.379083843590976"><ele>144.0</ele><time>2026-03-22T11:09:13Z</time></trkpt><trkpt lat="42.24018727013443" lon="14.379068067174874"><ele>144.0</ele><time>2026-03-22T11:09:14Z</time></trkpt><trkpt lat="42.240054574718954" lon="14.37904541813085"><ele>144.0</ele><time>2026-03-22T11:09:15Z</time></trkpt><trkpt lat="42.23990595081536" lon="14.379020905788146"><ele>144.0</ele><time>2026-03-22T11:09:16Z</time></trkpt><trkpt lat="42.239768836703895" lon="14.378994110859477"><ele>144.0</ele><time>2026-03-22T11:09:17Z</time></trkpt><trkpt lat="42.23962920135254" lon="14.378964105412955"><ele>145.75</ele><time>2026-03-22T11:09:18Z</time></trkpt><trkpt lat="42.23947285752354" lon="14.378927915300649"><ele>147.5</ele><time>2026-03-22T11:09:19Z</time></trkpt><trkpt lat="42.239331221719155" lon="14.378909765120724"><ele>149.25</ele><time>2026-03-22T11:09:20Z</time></trkpt><trkpt lat="42.239210333202045" lon="14.37891786919645"><ele>151.0</ele><time>2026-03-22T11:09:21Z</time></trkpt><trkpt lat="42.23912122456296" lon="14.378940041664343"><ele>151.0</ele><time>2026-03-22T11:09:22Z</time></trkpt><trkpt lat="42.23904805115434" lon="14.379005319327382"><ele>151.0</ele><time>2026-03-22T11:09:23Z</time></trkpt><trkpt lat="42.23898575083709" lon="14.379024903652544"><ele>151.0</ele><time>2026-03-22T11:09:24Z</time></trkpt><trkpt lat="42.238935267177396" lon="14.378951631472825"><ele>151.0</ele><time>2026-03-22T11:09:25Z</time></trkpt><trkpt lat="42.2388845470974" lon="14.37883406137503"><ele>151.0</ele><time>2026-03-22T11:09:26Z</time></trkpt><trkpt lat="42.2388239587876" lon="14.378685206736423"><ele>153.2</ele><time>2026-03-22T11:09:27Z</time></trkpt><trkpt lat="42.23874971979333" lon="14.37856686084711"><ele>155.39999999999998</ele><time>2026-03-22T11:09:28Z</time></trkpt><trkpt lat="42.238670309512926" lon="14.378464423598798"><ele>157.6</ele><time>2026-03-22T11:09:29Z</time></trkpt><trkpt lat="42.23859418254005" lon="14.378394372645724"><ele>159.79999999999998</ele><time>2026-03-22T11:09:31Z</time></trkpt><trkpt lat="42.2385176079005" lon="14.378533931127397"><ele>162.0</ele><time>2026-03-22T11:09:34Z</time></trkpt><trkpt lat="42.23848010929314" lon="14.378619584589705"><ele>162.0</ele><time>2026-03-22T11:09:37Z</time></trkpt><trkpt lat="42.23846650630408" lon="14.37871171149424"><ele>162.0</ele><time>2026-03-22T11:10:01Z</time></trkpt><trkpt lat="42.238531892470064" lon="14.378649830400132"><ele>162.0</ele><time>2026-03-22T11:10:58Z</time></trkpt><trkpt lat="42.238560246735986" lon="14.378539550368286"><ele>162.0</ele><time>2026-03-22T11:10:59Z</time></trkpt><trkpt lat="42.238573662999784" lon="14.378419353779348"><ele>162.0</ele><time>2026-03-22T11:11:00Z</time></trkpt><trkpt lat="42.238610141660885" lon="14.378318553148754"><ele>162.0</ele><time>2026-03-22T11:11:02Z</time></trkpt><trkpt lat="42.23845982930502" lon="14.378236221081472"><ele>162.0</ele><time>2026-03-22T11:11:03Z</time></trkpt><trkpt lat="42.23835467770837" lon="14.37820879008183"><ele>162.0</ele><time>2026-03-22T11:11:04Z</time></trkpt><trkpt lat="42.2382301585024" lon="14.37827533945739"><ele>162.0</ele><time>2026-03-22T11:11:05Z</time></trkpt><trkpt lat="42.23813293810082" lon="14.378355345056995"><ele>162.0</ele><time>2026-03-22T11:11:06Z</time></trkpt><trkpt lat="42.238015604609636" lon="14.378435403927892"><ele>163.2</ele><time>2026-03-22T11:11:07Z</time></trkpt><trkpt lat="42.23790685271737" lon="14.378513448874129"><ele>164.39999999999998</ele><time>2026-03-22T11:11:08Z</time></trkpt><trkpt lat="42.23780073507331" lon="14.378545406479606"><ele>165.60000000000002</ele><time>2026-03-22T11:11:09Z</time></trkpt><trkpt lat="42.23769401012857" lon="14.378568909680785"><ele>166.8</ele><time>2026-03-22T11:11:10Z</time></trkpt><trkpt lat="42.237594352380476" lon="14.378513887512215"><ele>168.0</ele><time>2026-03-22T11:11:11Z</time></trkpt><trkpt lat="42.2375026011879" lon="14.37842067937312"><ele>168.0</ele><time>2026-03-22T11:11:12Z</time></trkpt><trkpt lat="42.23743042284801" lon="14.378307455867118"><ele>168.0</ele><time>2026-03-22T11:11:13Z</time></trkpt><trkpt lat="42.23738940527335" lon="14.378142009950842"><ele>168.0</ele><time>2026-03-22T11:11:14Z</time></trkpt><trkpt lat="42.23734268760964" lon="14.377943677685757"><ele>168.0</ele><time>2026-03-22T11:11:15Z</time></trkpt><trkpt lat="42.23729833645113" lon="14.377750015157014"><ele>171.5</ele><time>2026-03-22T11:11:16Z</time></trkpt><trkpt lat="42.237267383086945" lon="14.377619428819528"><ele>175.0</ele><time>2026-03-22T11:11:17Z</time></trkpt><trkpt lat="42.237225850192125" lon="14.37750548150353"><ele>178.5</ele><time>2026-03-22T11:11:19Z</time></trkpt><trkpt lat="42.23717855269566" lon="14.377403414989091"><ele>182.0</ele><time>2026-03-22T11:11:21Z</time></trkpt><trkpt lat="42.236766748098006" lon="14.377492309625287"><ele>182.0</ele><time>2026-03-22T11:11:23Z</time></trkpt><trkpt lat="42.23658069477681" lon="14.3774828316926"><ele>182.0</ele><time>2026-03-22T11:11:24Z</time></trkpt><trkpt lat="42.23644730377606" lon="14.377473077157862"><ele>182.0</ele><time>2026-03-22T11:11:25Z</time></trkpt><trkpt lat="42.2363318068706" lon="14.377509693704392"><ele>182.0</ele><time>2026-03-22T11:11:26Z</time></trkpt><trkpt lat="42.23621307550802" lon="14.377568823538882"><ele>186.25</ele><time>2026-03-22T11:11:27Z</time></trkpt><trkpt lat="42.236114875792914" lon="14.377633536841714"><ele>190.5</ele><time>2026-03-22T11:11:28Z</time></trkpt><trkpt lat="42.236031139336795" lon="14.377680055790176"><ele>194.75</ele><time>2026-03-22T11:11:29Z</time></trkpt><trkpt lat="42.23588457725827" lon="14.377588565486791"><ele>199.0</ele><time>2026-03-22T11:11:31Z</time></trkpt><trkpt lat="42.23580227018056" lon="14.377516904105688"><ele>198.99999999999997</ele><time>2026-03-22T11:11:32Z</time></trkpt><trkpt lat="42.235749718931004" lon="14.377450044566459"><ele>199.0</ele><time>2026-03-22T11:11:33Z</time></trkpt><trkpt lat="42.23572219590948" lon="14.377356781901732"><ele>199.0</ele><time>2026-03-22T11:11:34Z</time></trkpt><trkpt lat="42.23569819210773" lon="14.377277581481703"><ele>199.0</ele><time>2026-03-22T11:11:35Z</time></trkpt><trkpt lat="42.235648926152145" lon="14.377182871053378"><ele>198.99999999999997</ele><time>2026-03-22T11:11:36Z</time></trkpt><trkpt lat="42.235543561112486" lon="14.37710797655379"><ele>199.0</ele><time>2026-03-22T11:11:37Z</time></trkpt><trkpt lat="42.23542223285241" lon="14.377086688810037"><ele>201.39999999999998</ele><time>2026-03-22T11:11:38Z</time></trkpt><trkpt lat="42.235298008746774" lon="14.377123575587506"><ele>203.8</ele><time>2026-03-22T11:11:39Z</time></trkpt><trkpt lat="42.235178924245176" lon="14.377091342263517"><ele>206.2</ele><time>2026-03-22T11:11:40Z</time></trkpt><trkpt lat="42.235081272021645" lon="14.37706677468766"><ele>208.60000000000002</ele><time>2026-03-22T11:11:41Z</time></trkpt><trkpt lat="42.23501949098994" lon="14.377084732682762"><ele>211.0</ele><time>2026-03-22T11:11:42Z</time></trkpt><trkpt lat="42.23492919753517" lon="14.377182752531192"><ele>210.33333333333331</ele><time>2026-03-22T11:11:44Z</time></trkpt><trkpt lat="42.23485769382936" lon="14.37725258900849"><ele>209.66666666666666</ele><time>2026-03-22T11:11:45Z</time></trkpt><trkpt lat="42.23478232020198" lon="14.377274362619978"><ele>209.0</ele><time>2026-03-22T11:11:46Z</time></trkpt><trkpt lat="42.23470169286232" lon="14.377237539287496"><ele>208.33333333333331</ele><time>2026-03-22T11:11:47Z</time></trkpt><trkpt lat="42.234606114648784" lon="14.377179970838503"><ele>207.66666666666666</ele><time>2026-03-22T11:11:48Z</time></trkpt><trkpt lat="42.234521365488014" lon="14.377128270291111"><ele>207.0</ele><time>2026-03-22T11:11:49Z</time></trkpt><trkpt lat="42.234425131954325" lon="14.377110141612288"><ele>209.39999999999998</ele><time>2026-03-22T11:11:50Z</time></trkpt><trkpt lat="42.23434614643919" lon="14.37706371923595"><ele>211.79999999999998</ele><time>2026-03-22T11:11:51Z</time></trkpt><trkpt lat="42.23426285347064" lon="14.37702878101064"><ele>214.2</ele><time>2026-03-22T11:11:52Z</time></trkpt><trkpt lat="42.23417285858349" lon="14.376987607803736"><ele>216.6</ele><time>2026-03-22T11:11:53Z</time></trkpt><trkpt lat="42.23408528705185" lon="14.376979978964945"><ele>219.0</ele><time>2026-03-22T11:11:54Z</time></trkpt><trkpt lat="42.233997904226456" lon="14.377057191199556"><ele>219.79999999999998</ele><time>2026-03-22T11:11:55Z</time></trkpt><trkpt lat="42.23390442708745" lon="14.377139315967533"><ele>220.59999999999997</ele><time>2026-03-22T11:11:56Z</time></trkpt><trkpt lat="42.23379917406666" lon="14.377213947671041"><ele>221.4</ele><time>2026-03-22T11:11:57Z</time></trkpt><trkpt lat="42.233695007801934" lon="14.377288816392474"><ele>222.2</ele><time>2026-03-22T11:11:58Z</time></trkpt><trkpt lat="42.23360876484143" lon="14.377343082616077"><ele>223.0</ele><time>2026-03-22T11:11:59Z</time></trkpt><trkpt lat="42.2335285810652" lon="14.377340143810551"><ele>223.5</ele><time>2026-03-22T11:12:00Z</time></trkpt><trkpt lat="42.23344030157455" lon="14.377297386211344"><ele>224.0</ele><time>2026-03-22T11:12:01Z</time></trkpt><trkpt lat="42.23333416898515" lon="14.377237017901571"><ele>224.5</ele><time>2026-03-22T11:12:02Z</time></trkpt><trkpt lat="42.23322401581031" lon="14.37720074324516"><ele>225.0</ele><time>2026-03-22T11:12:03Z</time></trkpt><trkpt lat="42.23308764733439" lon="14.377183135086884"><ele>225.2</ele><time>2026-03-22T11:12:04Z</time></trkpt><trkpt lat="42.23296713701833" lon="14.377199957143702"><ele>225.4</ele><time>2026-03-22T11:12:05Z</time></trkpt><trkpt lat="42.23287332459391" lon="14.37722366775761"><ele>225.60000000000002</ele><time>2026-03-22T11:12:06Z</time></trkpt><trkpt lat="42.23276153468806" lon="14.377255314897228"><ele>225.8</ele><time>2026-03-22T11:12:07Z</time></trkpt><trkpt lat="42.232647422194226" lon="14.377292502262014"><ele>226.0</ele><time>2026-03-22T11:12:08Z</time></trkpt><trkpt lat="42.23256359647543" lon="14.377303487915643"><ele>226.0</ele><time>2026-03-22T11:12:09Z</time></trkpt><trkpt lat="42.232475004690535" lon="14.377252714689217"><ele>226.00000000000003</ele><time>2026-03-22T11:12:10Z</time></trkpt><trkpt lat="42.232383843598015" lon="14.37719521346361"><ele>226.00000000000003</ele><time>2026-03-22T11:12:11Z</time></trkpt><trkpt lat="42.232298347529714" lon="14.377145550004592"><ele>226.0</ele><time>2026-03-22T11:12:12Z</time></trkpt><trkpt lat="42.23219724496141" lon="14.377122095461003"><ele>226.0</ele><time>2026-03-22T11:12:13Z</time></trkpt><trkpt lat="42.23211273959356" lon="14.377158252317454"><ele>227.20000000000002</ele><time>2026-03-22T11:12:14Z</time></trkpt><trkpt lat="42.2320030698322" lon="14.377128220890246"><ele>228.40000000000003</ele><time>2026-03-22T11:12:15Z</time></trkpt><trkpt lat="42.231892927085966" lon="14.377091815069939"><ele>229.6</ele><time>2026-03-22T11:12:16Z</time></trkpt><trkpt lat="42.23179131228469" lon="14.377060317777106"><ele>230.8</ele><time>2026-03-22T11:12:17Z</time></trkpt><trkpt lat="42.23168472121749" lon="14.377066052603134"><ele>232.0</ele><time>2026-03-22T11:12:18Z</time></trkpt><trkpt lat="42.231586296921805" lon="14.377071539434114"><ele>232.0</ele><time>2026-03-22T11:12:19Z</time></trkpt><trkpt lat="42.23150495293848" lon="14.377018184789113"><ele>232.0</ele><time>2026-03-22T11:12:20Z</time></trkpt><trkpt lat="42.23142922908283" lon="14.37694273574374"><ele>232.0</ele><time>2026-03-22T11:12:21Z</time></trkpt><trkpt lat="42.23134676141945" lon="14.376859405641328"><ele>232.0</ele><time>2026-03-22T11:12:22Z</time></trkpt><trkpt lat="42.23123562338057" lon="14.376771771191223"><ele>232.0</ele><time>2026-03-22T11:12:23Z</time></trkpt><trkpt lat="42.231128609665944" lon="14.376660455147277"><ele>233.33333333333331</ele><time>2026-03-22T11:12:24Z</time></trkpt><trkpt lat="42.23100821797159" lon="14.376582174210778"><ele>234.66666666666669</ele><time>2026-03-22T11:12:25Z</time></trkpt><trkpt lat="42.23085904400119" lon="14.376526704476037"><ele>236.0</ele><time>2026-03-22T11:12:26Z</time></trkpt><trkpt lat="42.230697301177656" lon="14.376479458414426"><ele>237.0</ele><time>2026-03-22T11:12:27Z</time></trkpt><trkpt lat="42.230562419517796" lon="14.37645690542579"><ele>238.0</ele><time>2026-03-22T11:12:28Z</time></trkpt><trkpt lat="42.23044667638059" lon="14.376424948922828"><ele>239.0</ele><time>2026-03-22T11:12:29Z</time></trkpt><trkpt lat="42.23032989524154" lon="14.37637627256994"><ele>240.0</ele><time>2026-03-22T11:12:30Z</time></trkpt><trkpt lat="42.23022564761523" lon="14.37633544074395"><ele>240.0</ele><time>2026-03-22T11:12:31Z</time></trkpt><trkpt lat="42.23013588507397" lon="14.37631892602384"><ele>240.0</ele><time>2026-03-22T11:12:32Z</time></trkpt><trkpt lat="42.23004220038691" lon="14.37632587776755"><ele>240.0</ele><time>2026-03-22T11:12:33Z</time></trkpt><trkpt lat="42.229941799649474" lon="14.376346000100185"><ele>240.0</ele><time>2026-03-22T11:12:34Z</time></trkpt><trkpt lat="42.22984796777333" lon="14.37637949664743"><ele>240.0</ele><time>2026-03-22T11:12:35Z</time></trkpt><trkpt lat="42.22977990796255" lon="14.376401124628357"><ele>242.5</ele><time>2026-03-22T11:12:36Z</time></trkpt><trkpt lat="42.2296517004117" lon="14.376431538822258"><ele>245.0</ele><time>2026-03-22T11:12:38Z</time></trkpt><trkpt lat="42.22958362639198" lon="14.376650133201379"><ele>247.5</ele><time>2026-03-22T11:12:39Z</time></trkpt><trkpt lat="42.22949334530213" lon="14.37675669048201"><ele>250.0</ele><time>2026-03-22T11:12:40Z</time></trkpt><trkpt lat="42.22940187401954" lon="14.37685987744606"><ele>250.0</ele><time>2026-03-22T11:12:41Z</time></trkpt><trkpt lat="42.22931041775281" lon="14.376939039891253"><ele>250.0</ele><time>2026-03-22T11:12:42Z</time></trkpt><trkpt lat="42.229218465165665" lon="14.377012595393323"><ele>250.0</ele><time>2026-03-22T11:12:43Z</time></trkpt><trkpt lat="42.22912181573571" lon="14.377073515176454"><ele>250.0</ele><time>2026-03-22T11:12:44Z</time></trkpt><trkpt lat="42.229014148909876" lon="14.377110504608591"><ele>250.0</ele><time>2026-03-22T11:12:45Z</time></trkpt><trkpt lat="42.228892597141176" lon="14.3771328879178"><ele>252.0</ele><time>2026-03-22T11:12:46Z</time></trkpt><trkpt lat="42.22877474760366" lon="14.377147649185684"><ele>254.0</ele><time>2026-03-22T11:12:47Z</time></trkpt><trkpt lat="42.22867176745659" lon="14.377161643996503"><ele>256.0</ele><time>2026-03-22T11:12:48Z</time></trkpt><trkpt lat="42.22856289804248" lon="14.3771658055681"><ele>258.0</ele><time>2026-03-22T11:12:49Z</time></trkpt><trkpt lat="42.22844530866021" lon="14.377139626222974"><ele>258.0</ele><time>2026-03-22T11:12:50Z</time></trkpt><trkpt lat="42.22832224854756" lon="14.37708483593433"><ele>258.0</ele><time>2026-03-22T11:12:51Z</time></trkpt><trkpt lat="42.228201896375175" lon="14.377000179053171"><ele>258.0</ele><time>2026-03-22T11:12:52Z</time></trkpt><trkpt lat="42.228078993412396" lon="14.376897200116007"><ele>258.0</ele><time>2026-03-22T11:12:53Z</time></trkpt><trkpt lat="42.22794197852086" lon="14.376804684873997"><ele>255.33333333333331</ele><time>2026-03-22T11:12:54Z</time></trkpt><trkpt lat="42.22778679010773" lon="14.376741518220463"><ele>252.66666666666666</ele><time>2026-03-22T11:12:55Z</time></trkpt><trkpt lat="42.22763683101743" lon="14.376711642724484"><ele>250.0</ele><time>2026-03-22T11:12:56Z</time></trkpt><trkpt lat="42.227495491738" lon="14.376740264056352"><ele>250.0</ele><time>2026-03-22T11:12:57Z</time></trkpt><trkpt lat="42.22735812307032" lon="14.37680052586847"><ele>250.0</ele><time>2026-03-22T11:12:58Z</time></trkpt><trkpt lat="42.22723783444171" lon="14.376877265287414"><ele>250.0</ele><time>2026-03-22T11:12:59Z</time></trkpt><trkpt lat="42.22712093620139" lon="14.376962367054626"><ele>250.0</ele><time>2026-03-22T11:13:00Z</time></trkpt><trkpt lat="42.22701599148054" lon="14.377039131360167"><ele>250.0</ele><time>2026-03-22T11:13:01Z</time></trkpt><trkpt lat="42.22691834968756" lon="14.377106579999422"><ele>250.0</ele><time>2026-03-22T11:13:02Z</time></trkpt><trkpt lat="42.22682461404492" lon="14.377163922768885"><ele>250.0</ele><time>2026-03-22T11:13:03Z</time></trkpt><trkpt lat="42.22674321320507" lon="14.377223645717551"><ele>250.0</ele><time>2026-03-22T11:13:04Z</time></trkpt><trkpt lat="42.22667711068939" lon="14.37727010559173"><ele>250.0</ele><time>2026-03-22T11:13:05Z</time></trkpt><trkpt lat="42.22659397035264" lon="14.37731338260585"><ele>248.25</ele><time>2026-03-22T11:13:07Z</time></trkpt><trkpt lat="42.22658678569432" lon="14.377570661557014"><ele>246.5</ele><time>2026-03-22T11:13:10Z</time></trkpt><trkpt lat="42.2266545107892" lon="14.377689440182177"><ele>244.75</ele><time>2026-03-22T11:13:11Z</time></trkpt><trkpt lat="42.226721735867976" lon="14.377810538778311"><ele>243.0</ele><time>2026-03-22T11:13:12Z</time></trkpt><trkpt lat="42.22679249367513" lon="14.377947013177886"><ele>241.0</ele><time>2026-03-22T11:13:13Z</time></trkpt><trkpt lat="42.22685526394542" lon="14.378096715233852"><ele>239.0</ele><time>2026-03-22T11:13:14Z</time></trkpt><trkpt lat="42.22691332387073" lon="14.378239745773067"><ele>237.0</ele><time>2026-03-22T11:13:15Z</time></trkpt><trkpt lat="42.226993305418205" lon="14.378371627282247"><ele>235.0</ele><time>2026-03-22T11:13:16Z</time></trkpt><trkpt lat="42.227072994007585" lon="14.37851008252538"><ele>235.0</ele><time>2026-03-22T11:13:17Z</time></trkpt><trkpt lat="42.2271761117208" lon="14.37862037912032"><ele>235.0</ele><time>2026-03-22T11:13:18Z</time></trkpt><trkpt lat="42.227252622893516" lon="14.378788142987831"><ele>235.0</ele><time>2026-03-22T11:13:19Z</time></trkpt><trkpt lat="42.227318498825255" lon="14.37895815087869"><ele>235.0</ele><time>2026-03-22T11:13:20Z</time></trkpt><trkpt lat="42.22737620237482" lon="14.379126131246132"><ele>234.5</ele><time>2026-03-22T11:13:21Z</time></trkpt><trkpt lat="42.227433785521306" lon="14.379297245403782"><ele>234.0</ele><time>2026-03-22T11:13:22Z</time></trkpt><trkpt lat="42.227494616468725" lon="14.379478617677826"><ele>233.5</ele><time>2026-03-22T11:13:23Z</time></trkpt><trkpt lat="42.22755279102612" lon="14.37965250971537"><ele>233.0</ele><time>2026-03-22T11:13:24Z</time></trkpt><trkpt lat="42.22759430299866" lon="14.379808072541769"><ele>233.0</ele><time>2026-03-22T11:13:25Z</time></trkpt><trkpt lat="42.22761875603878" lon="14.379947793327617"><ele>233.0</ele><time>2026-03-22T11:13:26Z</time></trkpt><trkpt lat="42.22762758806201" lon="14.380114267771917"><ele>233.0</ele><time>2026-03-22T11:13:27Z</time></trkpt><trkpt lat="42.22764518331481" lon="14.380274821550962"><ele>233.0</ele><time>2026-03-22T11:13:28Z</time></trkpt><trkpt lat="42.227681163684004" lon="14.380395296555765"><ele>233.0</ele><time>2026-03-22T11:13:29Z</time></trkpt><trkpt lat="42.22773961795411" lon="14.380506726799975"><ele>234.8</ele><time>2026-03-22T11:13:30Z</time></trkpt><trkpt lat="42.22783512394905" lon="14.3806167377544"><ele>236.60000000000002</ele><time>2026-03-22T11:13:31Z</time></trkpt><trkpt lat="42.22790375402921" lon="14.380681872328713"><ele>238.39999999999998</ele><time>2026-03-22T11:13:32Z</time></trkpt><trkpt lat="42.2278465742755" lon="14.380848514016494"><ele>240.2</ele><time>2026-03-22T11:13:33Z</time></trkpt><trkpt lat="42.22784265081592" lon="14.38098479102622"><ele>242.0</ele><time>2026-03-22T11:13:34Z</time></trkpt><trkpt lat="42.22783771054569" lon="14.381132812464722"><ele>242.0</ele><time>2026-03-22T11:13:35Z</time></trkpt><trkpt lat="42.22783802769295" lon="14.381313205718277"><ele>242.0</ele><time>2026-03-22T11:13:36Z</time></trkpt><trkpt lat="42.22781978745516" lon="14.381488917102658"><ele>242.0</ele><time>2026-03-22T11:13:37Z</time></trkpt><trkpt lat="42.22781801377434" lon="14.381662661745857"><ele>242.0</ele><time>2026-03-22T11:13:38Z</time></trkpt><trkpt lat="42.22783031095116" lon="14.381827438098648"><ele>245.2</ele><time>2026-03-22T11:13:39Z</time></trkpt><trkpt lat="42.22782240713064" lon="14.381984319214121"><ele>248.39999999999998</ele><time>2026-03-22T11:13:40Z</time></trkpt><trkpt lat="42.22781755158277" lon="14.382108039857377"><ele>251.60000000000002</ele><time>2026-03-22T11:13:41Z</time></trkpt><trkpt lat="42.227806079019196" lon="14.382229636428958"><ele>254.8</ele><time>2026-03-22T11:13:42Z</time></trkpt><trkpt lat="42.227791643534914" lon="14.382349447578342"><ele>258.0</ele><time>2026-03-22T11:13:43Z</time></trkpt><trkpt lat="42.227774885154936" lon="14.382488538048934"><ele>261.25</ele><time>2026-03-22T11:13:44Z</time></trkpt><trkpt lat="42.22777521713616" lon="14.382642200705492"><ele>264.5</ele><time>2026-03-22T11:13:45Z</time></trkpt><trkpt lat="42.2277426000259" lon="14.382791156693035"><ele>267.75</ele><time>2026-03-22T11:13:46Z</time></trkpt><trkpt lat="42.227742513577866" lon="14.382951637450295"><ele>271.0</ele><time>2026-03-22T11:13:47Z</time></trkpt><trkpt lat="42.22779128901241" lon="14.383106594219386"><ele>272.40000000000003</ele><time>2026-03-22T11:13:48Z</time></trkpt><trkpt lat="42.22784336053185" lon="14.383257501531391"><ele>273.8</ele><time>2026-03-22T11:13:49Z</time></trkpt><trkpt lat="42.22789071939357" lon="14.383392418806546"><ele>275.20000000000005</ele><time>2026-03-22T11:13:50Z</time></trkpt><trkpt lat="42.227946070039664" lon="14.383517353437231"><ele>276.6</ele><time>2026-03-22T11:13:51Z</time></trkpt><trkpt lat="42.22800462436958" lon="14.383623068032923"><ele>278.0</ele><time>2026-03-22T11:13:52Z</time></trkpt><trkpt lat="42.228035191077375" lon="14.383753473619104"><ele>276.4</ele><time>2026-03-22T11:13:54Z</time></trkpt><trkpt lat="42.22806811828006" lon="14.383882935954402"><ele>274.8</ele><time>2026-03-22T11:13:56Z</time></trkpt><trkpt lat="42.22816603652144" lon="14.383953069682919"><ele>273.2</ele><time>2026-03-22T11:13:57Z</time></trkpt><trkpt lat="42.228238017222466" lon="14.38404530398367"><ele>271.6</ele><time>2026-03-22T11:13:58Z</time></trkpt><trkpt lat="42.228319504445174" lon="14.384151284297166"><ele>270.0</ele><time>2026-03-22T11:13:59Z</time></trkpt><trkpt lat="42.228388223956316" lon="14.38426799899826"><ele>270.0</ele><time>2026-03-22T11:14:00Z</time></trkpt><trkpt lat="42.22846222074024" lon="14.38435668355152"><ele>270.0</ele><time>2026-03-22T11:14:01Z</time></trkpt><trkpt lat="42.22854369569848" lon="14.384419429961929"><ele>270.0</ele><time>2026-03-22T11:14:02Z</time></trkpt><trkpt lat="42.22861034052319" lon="14.38451717735892"><ele>270.0</ele><time>2026-03-22T11:14:03Z</time></trkpt><trkpt lat="42.22863487609526" lon="14.384666356769388"><ele>270.0</ele><time>2026-03-22T11:14:04Z</time></trkpt><trkpt lat="42.228708110154805" lon="14.384799228372218"><ele>269.0</ele><time>2026-03-22T11:14:05Z</time></trkpt><trkpt lat="42.22879365637918" lon="14.384933842784157"><ele>268.0</ele><time>2026-03-22T11:14:06Z</time></trkpt><trkpt lat="42.228881164219295" lon="14.38506391989392"><ele>267.0</ele><time>2026-03-22T11:14:07Z</time></trkpt><trkpt lat="42.22897147266693" lon="14.385174863891127"><ele>266.0</ele><time>2026-03-22T11:14:08Z</time></trkpt><trkpt lat="42.22905133947043" lon="14.385281048196097"><ele>266.0</ele><time>2026-03-22T11:14:09Z</time></trkpt><trkpt lat="42.22909102885858" lon="14.385367495558347"><ele>266.0</ele><time>2026-03-22T11:14:10Z</time></trkpt><trkpt lat="42.22910485970965" lon="14.385454132041517"><ele>266.0</ele><time>2026-03-22T11:14:13Z</time></trkpt><trkpt lat="42.229010916575774" lon="14.385380885452573"><ele>266.0</ele><time>2026-03-22T11:14:14Z</time></trkpt><trkpt lat="42.22892895422346" lon="14.385378758383222"><ele>266.0</ele><time>2026-03-22T11:14:15Z</time></trkpt><trkpt lat="42.22884419741072" lon="14.385409758270082"><ele>266.0</ele><time>2026-03-22T11:14:16Z</time></trkpt><trkpt lat="42.228784962681964" lon="14.385448969347825"><ele>271.25</ele><time>2026-03-22T11:14:17Z</time></trkpt><trkpt lat="42.22874365984364" lon="14.385710393202826"><ele>276.5</ele><time>2026-03-22T11:14:20Z</time></trkpt><trkpt lat="42.228755517799314" lon="14.385826091999244"><ele>281.75</ele><time>2026-03-22T11:14:21Z</time></trkpt><trkpt lat="42.22872538419728" lon="14.385971222974856"><ele>287.0</ele><time>2026-03-22T11:14:22Z</time></trkpt><trkpt lat="42.22866648239207" lon="14.386117340037089"><ele>287.0</ele><time>2026-03-22T11:14:23Z</time></trkpt><trkpt lat="42.22860473497065" lon="14.386277939927908"><ele>287.0</ele><time>2026-03-22T11:14:24Z</time></trkpt><trkpt lat="42.22854910296063" lon="14.38644005325685"><ele>287.0</ele><time>2026-03-22T11:14:25Z</time></trkpt><trkpt lat="42.22848752368618" lon="14.386607998574338"><ele>287.0</ele><time>2026-03-22T11:14:26Z</time></trkpt><trkpt lat="42.22846345731572" lon="14.38679334242295"><ele>287.25</ele><time>2026-03-22T11:14:27Z</time></trkpt><trkpt lat="42.228406707751205" lon="14.386952509609646"><ele>287.5</ele><time>2026-03-22T11:14:28Z</time></trkpt><trkpt lat="42.22834540836418" lon="14.387108014983848"><ele>287.75</ele><time>2026-03-22T11:14:29Z</time></trkpt><trkpt lat="42.2282900944594" lon="14.387247545275443"><ele>288.0</ele><time>2026-03-22T11:14:30Z</time></trkpt><trkpt lat="42.228236393324124" lon="14.387374658263624"><ele>287.5</ele><time>2026-03-22T11:14:31Z</time></trkpt><trkpt lat="42.228187783394496" lon="14.387503099994747"><ele>287.0</ele><time>2026-03-22T11:14:32Z</time></trkpt><trkpt lat="42.228099115241214" lon="14.387625505795988"><ele>286.5</ele><time>2026-03-22T11:14:33Z</time></trkpt><trkpt lat="42.22803362763453" lon="14.387793556548704"><ele>286.0</ele><time>2026-03-22T11:14:34Z</time></trkpt><trkpt lat="42.2279692374419" lon="14.387952381555346"><ele>287.16666666666663</ele><time>2026-03-22T11:14:35Z</time></trkpt><trkpt lat="42.22791314025096" lon="14.388090752518366"><ele>288.3333333333333</ele><time>2026-03-22T11:14:36Z</time></trkpt><trkpt lat="42.227864569888986" lon="14.388198398069564"><ele>289.5</ele><time>2026-03-22T11:14:37Z</time></trkpt><trkpt lat="42.227822972881725" lon="14.388288439813849"><ele>290.6666666666667</ele><time>2026-03-22T11:14:38Z</time></trkpt><trkpt lat="42.227792586119286" lon="14.388366641596935"><ele>291.83333333333337</ele><time>2026-03-22T11:14:39Z</time></trkpt><trkpt lat="42.227740608905684" lon="14.388427951144063"><ele>293.0</ele><time>2026-03-22T11:14:40Z</time></trkpt><trkpt lat="42.22768935490879" lon="14.38850971421909"><ele>293.0</ele><time>2026-03-22T11:14:41Z</time></trkpt><trkpt lat="42.227647153612374" lon="14.38861372157967"><ele>293.0</ele><time>2026-03-22T11:14:42Z</time></trkpt><trkpt lat="42.227598462897895" lon="14.388735550928647"><ele>293.0</ele><time>2026-03-22T11:14:43Z</time></trkpt><trkpt lat="42.227516452567734" lon="14.388849625525703"><ele>293.0</ele><time>2026-03-22T11:14:44Z</time></trkpt><trkpt lat="42.22743532401299" lon="14.38899058147148"><ele>293.0</ele><time>2026-03-22T11:14:45Z</time></trkpt><trkpt lat="42.22735634862985" lon="14.38907699755578"><ele>291.8</ele><time>2026-03-22T11:14:46Z</time></trkpt><trkpt lat="42.22727329078361" lon="14.389122566750615"><ele>290.6</ele><time>2026-03-22T11:14:47Z</time></trkpt><trkpt lat="42.227176271989585" lon="14.389110798651018"><ele>289.4</ele><time>2026-03-22T11:14:48Z</time></trkpt><trkpt lat="42.22707465112843" lon="14.389122198020333"><ele>288.2</ele><time>2026-03-22T11:14:49Z</time></trkpt><trkpt lat="42.226958545643384" lon="14.389113971731033"><ele>287.0</ele><time>2026-03-22T11:14:50Z</time></trkpt><trkpt lat="42.22683283336176" lon="14.389109313885259"><ele>287.0</ele><time>2026-03-22T11:14:51Z</time></trkpt><trkpt lat="42.22671398142741" lon="14.389084963256446"><ele>287.0</ele><time>2026-03-22T11:14:52Z</time></trkpt><trkpt lat="42.22660759437246" lon="14.38907354407926"><ele>287.0</ele><time>2026-03-22T11:14:53Z</time></trkpt><trkpt lat="42.2264876031413" lon="14.389061137205545"><ele>287.0</ele><time>2026-03-22T11:14:54Z</time></trkpt><trkpt lat="42.226383448818446" lon="14.38904818649517"><ele>287.0</ele><time>2026-03-22T11:14:55Z</time></trkpt><trkpt lat="42.226290020015654" lon="14.389045183836815"><ele>287.0</ele><time>2026-03-22T11:14:56Z</time></trkpt><trkpt lat="42.22619415693242" lon="14.38904425258535"><ele>287.0</ele><time>2026-03-22T11:14:57Z</time></trkpt><trkpt lat="42.22610044773663" lon="14.389043128086442"><ele>287.0</ele><time>2026-03-22T11:14:58Z</time></trkpt><trkpt lat="42.22602435159196" lon="14.389036265880994"><ele>287.0</ele><time>2026-03-22T11:14:59Z</time></trkpt><trkpt lat="42.22593586282618" lon="14.38902640800884"><ele>287.0</ele><time>2026-03-22T11:15:00Z</time></trkpt><trkpt lat="42.225839849246725" lon="14.389042748433381"><ele>287.0</ele><time>2026-03-22T11:15:01Z</time></trkpt><trkpt lat="42.22574650309789" lon="14.389042164187643"><ele>287.0</ele><time>2026-03-22T11:15:02Z</time></trkpt><trkpt lat="42.22564824541557" lon="14.38904543388295"><ele>287.0</ele><time>2026-03-22T11:15:03Z</time></trkpt><trkpt lat="42.22556401244249" lon="14.38903622548407"><ele>287.0</ele><time>2026-03-22T11:15:04Z</time></trkpt><trkpt lat="42.22548352622299" lon="14.389033541391752"><ele>287.0</ele><time>2026-03-22T11:15:05Z</time></trkpt><trkpt lat="42.2254037543073" lon="14.389031063252244"><ele>287.0</ele><time>2026-03-22T11:15:06Z</time></trkpt><trkpt lat="42.22530089761175" lon="14.389038850824306"><ele>287.0</ele><time>2026-03-22T11:15:07Z</time></trkpt><trkpt lat="42.22518987018477" lon="14.389062891509584"><ele>287.0</ele><time>2026-03-22T11:15:08Z</time></trkpt><trkpt lat="42.22507234290354" lon="14.389081379726472"><ele>287.0</ele><time>2026-03-22T11:15:09Z</time></trkpt><trkpt lat="42.224973876105565" lon="14.389129120712008"><ele>287.0</ele><time>2026-03-22T11:15:10Z</time></trkpt><trkpt lat="42.224902726858645" lon="14.389193731789645"><ele>287.0</ele><time>2026-03-22T11:15:11Z</time></trkpt><trkpt lat="42.22485672901286" lon="14.389350248246677"><ele>287.0</ele><time>2026-03-22T11:15:12Z</time></trkpt><trkpt lat="42.22486547569363" lon="14.3894878356919"><ele>287.0</ele><time>2026-03-22T11:15:13Z</time></trkpt><trkpt lat="42.22491785361624" lon="14.389605923676488"><ele>287.0</ele><time>2026-03-22T11:15:14Z</time></trkpt><trkpt lat="42.22500878322575" lon="14.389679953818275"><ele>287.0</ele><time>2026-03-22T11:15:15Z</time></trkpt><trkpt lat="42.22511962926829" lon="14.389690317488732"><ele>287.0</ele><time>2026-03-22T11:15:16Z</time></trkpt><trkpt lat="42.22524380759317" lon="14.389720778684266"><ele>287.0</ele><time>2026-03-22T11:15:17Z</time></trkpt><trkpt lat="42.22535384444205" lon="14.389753509952167"><ele>287.0</ele><time>2026-03-22T11:15:18Z</time></trkpt><trkpt lat="42.22547091710278" lon="14.389788482785157"><ele>287.0</ele><time>2026-03-22T11:15:19Z</time></trkpt><trkpt lat="42.2255766015249" lon="14.389897373168932"><ele>287.0</ele><time>2026-03-22T11:15:20Z</time></trkpt><trkpt lat="42.225679638016665" lon="14.389950880209332"><ele>287.0</ele><time>2026-03-22T11:15:21Z</time></trkpt><trkpt lat="42.22574994275537" lon="14.390005601733698"><ele>287.0</ele><time>2026-03-22T11:15:22Z</time></trkpt><trkpt lat="42.225834949073786" lon="14.390090450504765"><ele>287.0</ele><time>2026-03-22T11:15:23Z</time></trkpt><trkpt lat="42.22592664867764" lon="14.39018836682175"><ele>287.0</ele><time>2026-03-22T11:15:24Z</time></trkpt><trkpt lat="42.22600224879365" lon="14.390262163290503"><ele>287.0</ele><time>2026-03-22T11:15:25Z</time></trkpt><trkpt lat="42.22607718925743" lon="14.390349751968468"><ele>287.0</ele><time>2026-03-22T11:15:26Z</time></trkpt><trkpt lat="42.22616721231169" lon="14.390440977263175"><ele>287.0</ele><time>2026-03-22T11:15:27Z</time></trkpt><trkpt lat="42.226266169127584" lon="14.390534390990826"><ele>287.0</ele><time>2026-03-22T11:15:28Z</time></trkpt><trkpt lat="42.22636136444651" lon="14.390640029401439"><ele>287.0</ele><time>2026-03-22T11:15:29Z</time></trkpt><trkpt lat="42.22646610233011" lon="14.390748670891261"><ele>286.4</ele><time>2026-03-22T11:15:30Z</time></trkpt><trkpt lat="42.22654474273731" lon="14.39085283938701"><ele>285.79999999999995</ele><time>2026-03-22T11:15:31Z</time></trkpt><trkpt lat="42.226598895917704" lon="14.390968066109009"><ele>285.2</ele><time>2026-03-22T11:15:32Z</time></trkpt><trkpt lat="42.22662262735538" lon="14.391100450006247"><ele>284.59999999999997</ele><time>2026-03-22T11:15:33Z</time></trkpt><trkpt lat="42.22662481677369" lon="14.391255398854069"><ele>284.0</ele><time>2026-03-22T11:15:34Z</time></trkpt><trkpt lat="42.226616075089595" lon="14.39141594205763"><ele>284.0</ele><time>2026-03-22T11:15:35Z</time></trkpt><trkpt lat="42.226646625803994" lon="14.391551074093687"><ele>284.0</ele><time>2026-03-22T11:15:36Z</time></trkpt><trkpt lat="42.226640366448116" lon="14.391668669440797"><ele>284.0</ele><time>2026-03-22T11:15:37Z</time></trkpt><trkpt lat="42.22666488413521" lon="14.391752677884124"><ele>284.0</ele><time>2026-03-22T11:15:38Z</time></trkpt><trkpt lat="42.22670467484947" lon="14.391880797042353"><ele>284.0</ele><time>2026-03-22T11:15:40Z</time></trkpt><trkpt lat="42.2267383422286" lon="14.392001398596872"><ele>284.0</ele><time>2026-03-22T11:15:41Z</time></trkpt><trkpt lat="42.2267768380915" lon="14.392122243633894"><ele>284.0</ele><time>2026-03-22T11:15:42Z</time></trkpt><trkpt lat="42.2268205235134" lon="14.392256104668085"><ele>284.0</ele><time>2026-03-22T11:15:43Z</time></trkpt><trkpt lat="42.226866605647686" lon="14.392395550104062"><ele>284.0</ele><time>2026-03-22T11:15:44Z</time></trkpt><trkpt lat="42.2269084507531" lon="14.39251681233206"><ele>284.0</ele><time>2026-03-22T11:15:45Z</time></trkpt><trkpt lat="42.22695612269724" lon="14.392617387196955"><ele>284.1666666666667</ele><time>2026-03-22T11:15:46Z</time></trkpt><trkpt lat="42.22699568782704" lon="14.392688289541468"><ele>284.33333333333337</ele><time>2026-03-22T11:15:47Z</time></trkpt><trkpt lat="42.22706759959682" lon="14.392774730476381"><ele>284.5</ele><time>2026-03-22T11:15:48Z</time></trkpt><trkpt lat="42.227112065551644" lon="14.392883894470867"><ele>284.6666666666667</ele><time>2026-03-22T11:15:49Z</time></trkpt><trkpt lat="42.22715053527012" lon="14.392952198978765"><ele>284.8333333333333</ele><time>2026-03-22T11:15:50Z</time></trkpt><trkpt lat="42.22720417686154" lon="14.39304558352301"><ele>285.0</ele><time>2026-03-22T11:15:52Z</time></trkpt><trkpt lat="42.227245911969604" lon="14.39311691472792"><ele>285.0</ele><time>2026-03-22T11:15:54Z</time></trkpt><trkpt lat="42.22733600262017" lon="14.393268113624679"><ele>285.0</ele><time>2026-03-22T11:15:56Z</time></trkpt><trkpt lat="42.22739380049978" lon="14.393363785882263"><ele>285.0</ele><time>2026-03-22T11:15:57Z</time></trkpt><trkpt lat="42.22746058977391" lon="14.393439992378331"><ele>285.0</ele><time>2026-03-22T11:15:58Z</time></trkpt><trkpt lat="42.22748707468336" lon="14.39355370926429"><ele>285.0</ele><time>2026-03-22T11:16:00Z</time></trkpt><trkpt lat="42.22734985564666" lon="14.393566865524972"><ele>285.0</ele><time>2026-03-22T11:16:01Z</time></trkpt><trkpt lat="42.22727662292316" lon="14.393648113007966"><ele>285.0</ele><time>2026-03-22T11:16:02Z</time></trkpt><trkpt lat="42.227220117044325" lon="14.393710802837894"><ele>285.0</ele><time>2026-03-22T11:16:03Z</time></trkpt><trkpt lat="42.22715086861036" lon="14.393779410905879"><ele>285.0</ele><time>2026-03-22T11:16:05Z</time></trkpt><trkpt lat="42.22724347782253" lon="14.394024078405934"><ele>285.0</ele><time>2026-03-22T11:16:08Z</time></trkpt><trkpt lat="42.22730641986813" lon="14.394124394852698"><ele>285.0</ele><time>2026-03-22T11:16:10Z</time></trkpt><trkpt lat="42.22737634822065" lon="14.394235846282784"><ele>285.0</ele><time>2026-03-22T11:16:12Z</time></trkpt><trkpt lat="42.22742757760043" lon="14.394317496971057"><ele>285.0</ele><time>2026-03-22T11:16:13Z</time></trkpt><trkpt lat="42.22749082712385" lon="14.394418611775242"><ele>285.0</ele><time>2026-03-22T11:16:14Z</time></trkpt><trkpt lat="42.22755763961285" lon="14.39452527244651"><ele>285.0</ele><time>2026-03-22T11:16:15Z</time></trkpt><trkpt lat="42.2276172894245" lon="14.39462051762363"><ele>285.0</ele><time>2026-03-22T11:16:16Z</time></trkpt><trkpt lat="42.227676047099635" lon="14.394714430781294"><ele>285.0</ele><time>2026-03-22T11:16:17Z</time></trkpt><trkpt lat="42.227742734648025" lon="14.39479098885281"><ele>285.0</ele><time>2026-03-22T11:16:18Z</time></trkpt><trkpt lat="42.22778145796794" lon="14.394882910353193"><ele>285.0</ele><time>2026-03-22T11:16:19Z</time></trkpt><trkpt lat="42.227820075236636" lon="14.394997533686517"><ele>285.0</ele><time>2026-03-22T11:16:20Z</time></trkpt><trkpt lat="42.227893672429765" lon="14.395116393448323"><ele>284.4</ele><time>2026-03-22T11:16:21Z</time></trkpt><trkpt lat="42.22796748474035" lon="14.395235600804869"><ele>283.8</ele><time>2026-03-22T11:16:22Z</time></trkpt><trkpt lat="42.22803527550406" lon="14.395345470207447"><ele>283.2</ele><time>2026-03-22T11:16:23Z</time></trkpt><trkpt lat="42.22809350002767" lon="14.395439912330167"><ele>282.6</ele><time>2026-03-22T11:16:24Z</time></trkpt><trkpt lat="42.228155667070055" lon="14.395514560558826"><ele>282.0</ele><time>2026-03-22T11:16:25Z</time></trkpt><trkpt lat="42.228205333414536" lon="14.395592814652565"><ele>282.0</ele><time>2026-03-22T11:16:26Z</time></trkpt><trkpt lat="42.22824998186768" lon="14.39566294964763"><ele>282.0</ele><time>2026-03-22T11:16:27Z</time></trkpt><trkpt lat="42.22829666951779" lon="14.395766948157117"><ele>282.0</ele><time>2026-03-22T11:16:29Z</time></trkpt><trkpt lat="42.22835673833837" lon="14.395877059600105"><ele>282.0</ele><time>2026-03-22T11:16:31Z</time></trkpt><trkpt lat="42.228408697783735" lon="14.395968028918478"><ele>282.0</ele><time>2026-03-22T11:16:33Z</time></trkpt><trkpt lat="42.22835374769722" lon="14.396057098201817"><ele>282.0</ele><time>2026-03-22T11:16:35Z</time></trkpt><trkpt lat="42.22829190949813" lon="14.396127406641842"><ele>282.0</ele><time>2026-03-22T11:16:36Z</time></trkpt><trkpt lat="42.22821779169945" lon="14.396211310292358"><ele>282.0</ele><time>2026-03-22T11:16:37Z</time></trkpt><trkpt lat="42.22812894159624" lon="14.396311754045099"><ele>282.0</ele><time>2026-03-22T11:16:38Z</time></trkpt><trkpt lat="42.228042065018144" lon="14.396406646213087"><ele>282.0</ele><time>2026-03-22T11:16:39Z</time></trkpt><trkpt lat="42.22796764314157" lon="14.396514935913368"><ele>282.0</ele><time>2026-03-22T11:16:40Z</time></trkpt><trkpt lat="42.227892443127864" lon="14.39656770981412"><ele>279.0</ele><time>2026-03-22T11:16:41Z</time></trkpt><trkpt lat="42.22781465148505" lon="14.39665926258799"><ele>279.0</ele><time>2026-03-22T11:16:43Z</time></trkpt></trkseg></trk></gpx>